<?xml version="1.0" encoding="UTF-8" standalone="no" ?>
<gpx xmlns="http://www.topografix.com/GPX/1/1" xmlns:xsi="http://www.w3.org/2001/XMLSchema-instance" xsi:schemaLocation="http://www.topografix.com/GPX/1/1 http://www.topografix.com/GPX/1/1/gpx.xsd" version="1.1" creator="VisuGPX - https://www.visugpx.com">
  <metadata>
    <name>reco 280418</name>
    <desc><![CDATA[Reconnaissance marche nordique du 28 avril 2018, groupe bleu]]></desc>
  </metadata>
  <trk>
    <name><![CDATA[20180428130610-kd9Lb]]></name>
    <trkseg>
      <trkpt lat="48.04321" lon="6.56839">
        <ele>557</ele>
        <time>2018-04-28T07:07:55.000Z</time>
      </trkpt>
      <trkpt lat="48.04313" lon="6.56851">
        <ele>558</ele>
        <time>2018-04-28T07:07:56.000Z</time>
      </trkpt>
      <trkpt lat="48.04313" lon="6.56851">
        <ele>558</ele>
        <time>2018-04-28T07:07:57.000Z</time>
      </trkpt>
      <trkpt lat="48.04314" lon="6.56852">
        <ele>558</ele>
        <time>2018-04-28T07:07:58.000Z</time>
      </trkpt>
      <trkpt lat="48.04315" lon="6.5685">
        <ele>558</ele>
        <time>2018-04-28T07:07:59.000Z</time>
      </trkpt>
      <trkpt lat="48.04315" lon="6.5685">
        <ele>558</ele>
        <time>2018-04-28T07:08:00.000Z</time>
      </trkpt>
      <trkpt lat="48.04316" lon="6.56849">
        <ele>558</ele>
        <time>2018-04-28T07:08:01.000Z</time>
      </trkpt>
      <trkpt lat="48.04316" lon="6.56848">
        <ele>558</ele>
        <time>2018-04-28T07:08:02.000Z</time>
      </trkpt>
      <trkpt lat="48.04317" lon="6.56848">
        <ele>558</ele>
        <time>2018-04-28T07:08:03.000Z</time>
      </trkpt>
      <trkpt lat="48.04317" lon="6.56848">
        <ele>558</ele>
        <time>2018-04-28T07:08:04.000Z</time>
      </trkpt>
      <trkpt lat="48.04317" lon="6.56849">
        <ele>558</ele>
        <time>2018-04-28T07:08:05.000Z</time>
      </trkpt>
      <trkpt lat="48.04317" lon="6.56847">
        <ele>557</ele>
        <time>2018-04-28T07:08:06.000Z</time>
      </trkpt>
      <trkpt lat="48.04318" lon="6.56846">
        <ele>557</ele>
        <time>2018-04-28T07:08:07.000Z</time>
      </trkpt>
      <trkpt lat="48.04318" lon="6.56845">
        <ele>557</ele>
        <time>2018-04-28T07:08:08.000Z</time>
      </trkpt>
      <trkpt lat="48.04319" lon="6.56844">
        <ele>557</ele>
        <time>2018-04-28T07:08:09.000Z</time>
      </trkpt>
      <trkpt lat="48.04319" lon="6.56843">
        <ele>557</ele>
        <time>2018-04-28T07:08:10.000Z</time>
      </trkpt>
      <trkpt lat="48.0432" lon="6.56842">
        <ele>557</ele>
        <time>2018-04-28T07:08:11.000Z</time>
      </trkpt>
      <trkpt lat="48.0432" lon="6.56841">
        <ele>557</ele>
        <time>2018-04-28T07:08:12.000Z</time>
      </trkpt>
      <trkpt lat="48.04321" lon="6.5684">
        <ele>557</ele>
        <time>2018-04-28T07:08:13.000Z</time>
      </trkpt>
      <trkpt lat="48.04321" lon="6.56838">
        <ele>557</ele>
        <time>2018-04-28T07:08:14.000Z</time>
      </trkpt>
      <trkpt lat="48.04322" lon="6.56838">
        <ele>557</ele>
        <time>2018-04-28T07:08:15.000Z</time>
      </trkpt>
      <trkpt lat="48.04322" lon="6.56837">
        <ele>557</ele>
        <time>2018-04-28T07:08:16.000Z</time>
      </trkpt>
      <trkpt lat="48.04322" lon="6.56837">
        <ele>557</ele>
        <time>2018-04-28T07:08:17.000Z</time>
      </trkpt>
      <trkpt lat="48.04322" lon="6.56837">
        <ele>557</ele>
        <time>2018-04-28T07:08:18.000Z</time>
      </trkpt>
      <trkpt lat="48.04322" lon="6.56836">
        <ele>557</ele>
        <time>2018-04-28T07:08:19.000Z</time>
      </trkpt>
      <trkpt lat="48.04319" lon="6.5683">
        <ele>557</ele>
        <time>2018-04-28T07:08:20.000Z</time>
      </trkpt>
      <trkpt lat="48.0432" lon="6.56829">
        <ele>557</ele>
        <time>2018-04-28T07:08:21.000Z</time>
      </trkpt>
      <trkpt lat="48.04322" lon="6.56828">
        <ele>557</ele>
        <time>2018-04-28T07:08:22.000Z</time>
      </trkpt>
      <trkpt lat="48.04324" lon="6.56828">
        <ele>557</ele>
        <time>2018-04-28T07:08:23.000Z</time>
      </trkpt>
      <trkpt lat="48.04325" lon="6.56826">
        <ele>556</ele>
        <time>2018-04-28T07:08:24.000Z</time>
      </trkpt>
      <trkpt lat="48.04327" lon="6.56825">
        <ele>556</ele>
        <time>2018-04-28T07:08:25.000Z</time>
      </trkpt>
      <trkpt lat="48.04329" lon="6.56823">
        <ele>556</ele>
        <time>2018-04-28T07:08:26.000Z</time>
      </trkpt>
      <trkpt lat="48.04331" lon="6.56822">
        <ele>557</ele>
        <time>2018-04-28T07:08:27.000Z</time>
      </trkpt>
      <trkpt lat="48.04332" lon="6.5682">
        <ele>557</ele>
        <time>2018-04-28T07:08:28.000Z</time>
      </trkpt>
      <trkpt lat="48.04334" lon="6.56819">
        <ele>556</ele>
        <time>2018-04-28T07:08:29.000Z</time>
      </trkpt>
      <trkpt lat="48.04335" lon="6.56817">
        <ele>556</ele>
        <time>2018-04-28T07:08:30.000Z</time>
      </trkpt>
      <trkpt lat="48.04337" lon="6.56816">
        <ele>556</ele>
        <time>2018-04-28T07:08:31.000Z</time>
      </trkpt>
      <trkpt lat="48.04338" lon="6.56815">
        <ele>556</ele>
        <time>2018-04-28T07:08:32.000Z</time>
      </trkpt>
      <trkpt lat="48.0434" lon="6.56813">
        <ele>556</ele>
        <time>2018-04-28T07:08:33.000Z</time>
      </trkpt>
      <trkpt lat="48.04341" lon="6.56812">
        <ele>557</ele>
        <time>2018-04-28T07:08:34.000Z</time>
      </trkpt>
      <trkpt lat="48.04342" lon="6.5681">
        <ele>557</ele>
        <time>2018-04-28T07:08:35.000Z</time>
      </trkpt>
      <trkpt lat="48.04343" lon="6.56809">
        <ele>557</ele>
        <time>2018-04-28T07:08:36.000Z</time>
      </trkpt>
      <trkpt lat="48.04345" lon="6.56807">
        <ele>557</ele>
        <time>2018-04-28T07:08:37.000Z</time>
      </trkpt>
      <trkpt lat="48.04346" lon="6.56806">
        <ele>557</ele>
        <time>2018-04-28T07:08:38.000Z</time>
      </trkpt>
      <trkpt lat="48.04347" lon="6.56804">
        <ele>557</ele>
        <time>2018-04-28T07:08:39.000Z</time>
      </trkpt>
      <trkpt lat="48.04348" lon="6.56803">
        <ele>557</ele>
        <time>2018-04-28T07:08:40.000Z</time>
      </trkpt>
      <trkpt lat="48.04349" lon="6.56802">
        <ele>557</ele>
        <time>2018-04-28T07:08:41.000Z</time>
      </trkpt>
      <trkpt lat="48.04351" lon="6.568">
        <ele>557</ele>
        <time>2018-04-28T07:08:42.000Z</time>
      </trkpt>
      <trkpt lat="48.04352" lon="6.56799">
        <ele>557</ele>
        <time>2018-04-28T07:08:43.000Z</time>
      </trkpt>
      <trkpt lat="48.04353" lon="6.56798">
        <ele>557</ele>
        <time>2018-04-28T07:08:44.000Z</time>
      </trkpt>
      <trkpt lat="48.04353" lon="6.56797">
        <ele>557</ele>
        <time>2018-04-28T07:08:45.000Z</time>
      </trkpt>
      <trkpt lat="48.04354" lon="6.56796">
        <ele>557</ele>
        <time>2018-04-28T07:08:46.000Z</time>
      </trkpt>
      <trkpt lat="48.04355" lon="6.56795">
        <ele>557</ele>
        <time>2018-04-28T07:08:47.000Z</time>
      </trkpt>
      <trkpt lat="48.04356" lon="6.56794">
        <ele>557</ele>
        <time>2018-04-28T07:08:48.000Z</time>
      </trkpt>
      <trkpt lat="48.04357" lon="6.56793">
        <ele>557</ele>
        <time>2018-04-28T07:08:49.000Z</time>
      </trkpt>
      <trkpt lat="48.04358" lon="6.56792">
        <ele>557</ele>
        <time>2018-04-28T07:08:50.000Z</time>
      </trkpt>
      <trkpt lat="48.04359" lon="6.56791">
        <ele>557</ele>
        <time>2018-04-28T07:08:51.000Z</time>
      </trkpt>
      <trkpt lat="48.0436" lon="6.56789">
        <ele>557</ele>
        <time>2018-04-28T07:08:52.000Z</time>
      </trkpt>
      <trkpt lat="48.04361" lon="6.56788">
        <ele>557</ele>
        <time>2018-04-28T07:08:53.000Z</time>
      </trkpt>
      <trkpt lat="48.04362" lon="6.56787">
        <ele>557</ele>
        <time>2018-04-28T07:08:54.000Z</time>
      </trkpt>
      <trkpt lat="48.04363" lon="6.56785">
        <ele>557</ele>
        <time>2018-04-28T07:08:55.000Z</time>
      </trkpt>
      <trkpt lat="48.04363" lon="6.56784">
        <ele>557</ele>
        <time>2018-04-28T07:08:56.000Z</time>
      </trkpt>
      <trkpt lat="48.04364" lon="6.56782">
        <ele>557</ele>
        <time>2018-04-28T07:08:57.000Z</time>
      </trkpt>
      <trkpt lat="48.04365" lon="6.56781">
        <ele>557</ele>
        <time>2018-04-28T07:08:58.000Z</time>
      </trkpt>
      <trkpt lat="48.04365" lon="6.5678">
        <ele>557</ele>
        <time>2018-04-28T07:08:59.000Z</time>
      </trkpt>
      <trkpt lat="48.04366" lon="6.56779">
        <ele>557</ele>
        <time>2018-04-28T07:09:00.000Z</time>
      </trkpt>
      <trkpt lat="48.04367" lon="6.56778">
        <ele>557</ele>
        <time>2018-04-28T07:09:01.000Z</time>
      </trkpt>
      <trkpt lat="48.04367" lon="6.56776">
        <ele>557</ele>
        <time>2018-04-28T07:09:02.000Z</time>
      </trkpt>
      <trkpt lat="48.04369" lon="6.56775">
        <ele>557</ele>
        <time>2018-04-28T07:09:03.000Z</time>
      </trkpt>
      <trkpt lat="48.0437" lon="6.56774">
        <ele>557</ele>
        <time>2018-04-28T07:09:04.000Z</time>
      </trkpt>
      <trkpt lat="48.04371" lon="6.56772">
        <ele>557</ele>
        <time>2018-04-28T07:09:05.000Z</time>
      </trkpt>
      <trkpt lat="48.04371" lon="6.5677">
        <ele>557</ele>
        <time>2018-04-28T07:09:06.000Z</time>
      </trkpt>
      <trkpt lat="48.04372" lon="6.56768">
        <ele>557</ele>
        <time>2018-04-28T07:09:07.000Z</time>
      </trkpt>
      <trkpt lat="48.04374" lon="6.56766">
        <ele>557</ele>
        <time>2018-04-28T07:09:08.000Z</time>
      </trkpt>
      <trkpt lat="48.04375" lon="6.56764">
        <ele>557</ele>
        <time>2018-04-28T07:09:09.000Z</time>
      </trkpt>
      <trkpt lat="48.04376" lon="6.56762">
        <ele>557</ele>
        <time>2018-04-28T07:09:10.000Z</time>
      </trkpt>
      <trkpt lat="48.04376" lon="6.5676">
        <ele>557</ele>
        <time>2018-04-28T07:09:11.000Z</time>
      </trkpt>
      <trkpt lat="48.04377" lon="6.56757">
        <ele>557</ele>
        <time>2018-04-28T07:09:12.000Z</time>
      </trkpt>
      <trkpt lat="48.04378" lon="6.56755">
        <ele>557</ele>
        <time>2018-04-28T07:09:13.000Z</time>
      </trkpt>
      <trkpt lat="48.0438" lon="6.56753">
        <ele>557</ele>
        <time>2018-04-28T07:09:14.000Z</time>
      </trkpt>
      <trkpt lat="48.04381" lon="6.5675">
        <ele>558</ele>
        <time>2018-04-28T07:09:15.000Z</time>
      </trkpt>
      <trkpt lat="48.04382" lon="6.56749">
        <ele>555</ele>
        <time>2018-04-28T07:09:16.000Z</time>
      </trkpt>
      <trkpt lat="48.04383" lon="6.56746">
        <ele>555</ele>
        <time>2018-04-28T07:09:17.000Z</time>
      </trkpt>
      <trkpt lat="48.04385" lon="6.56744">
        <ele>555</ele>
        <time>2018-04-28T07:09:18.000Z</time>
      </trkpt>
      <trkpt lat="48.04385" lon="6.56742">
        <ele>555</ele>
        <time>2018-04-28T07:09:19.000Z</time>
      </trkpt>
      <trkpt lat="48.04386" lon="6.5674">
        <ele>555</ele>
        <time>2018-04-28T07:09:20.000Z</time>
      </trkpt>
      <trkpt lat="48.04388" lon="6.56738">
        <ele>555</ele>
        <time>2018-04-28T07:09:21.000Z</time>
      </trkpt>
      <trkpt lat="48.04389" lon="6.56736">
        <ele>555</ele>
        <time>2018-04-28T07:09:22.000Z</time>
      </trkpt>
      <trkpt lat="48.04389" lon="6.56734">
        <ele>555</ele>
        <time>2018-04-28T07:09:23.000Z</time>
      </trkpt>
      <trkpt lat="48.0439" lon="6.56732">
        <ele>555</ele>
        <time>2018-04-28T07:09:24.000Z</time>
      </trkpt>
      <trkpt lat="48.04391" lon="6.5673">
        <ele>555</ele>
        <time>2018-04-28T07:09:25.000Z</time>
      </trkpt>
      <trkpt lat="48.04392" lon="6.56728">
        <ele>555</ele>
        <time>2018-04-28T07:09:26.000Z</time>
      </trkpt>
      <trkpt lat="48.04393" lon="6.56727">
        <ele>555</ele>
        <time>2018-04-28T07:09:27.000Z</time>
      </trkpt>
      <trkpt lat="48.04394" lon="6.56725">
        <ele>555</ele>
        <time>2018-04-28T07:09:28.000Z</time>
      </trkpt>
      <trkpt lat="48.04395" lon="6.56724">
        <ele>555</ele>
        <time>2018-04-28T07:09:29.000Z</time>
      </trkpt>
      <trkpt lat="48.04396" lon="6.56723">
        <ele>555</ele>
        <time>2018-04-28T07:09:30.000Z</time>
      </trkpt>
      <trkpt lat="48.04397" lon="6.56722">
        <ele>555</ele>
        <time>2018-04-28T07:09:31.000Z</time>
      </trkpt>
      <trkpt lat="48.04398" lon="6.56721">
        <ele>555</ele>
        <time>2018-04-28T07:09:32.000Z</time>
      </trkpt>
      <trkpt lat="48.04399" lon="6.5672">
        <ele>555</ele>
        <time>2018-04-28T07:09:33.000Z</time>
      </trkpt>
      <trkpt lat="48.044" lon="6.56719">
        <ele>555</ele>
        <time>2018-04-28T07:09:34.000Z</time>
      </trkpt>
      <trkpt lat="48.04402" lon="6.56717">
        <ele>555</ele>
        <time>2018-04-28T07:09:35.000Z</time>
      </trkpt>
      <trkpt lat="48.04403" lon="6.56715">
        <ele>555</ele>
        <time>2018-04-28T07:09:36.000Z</time>
      </trkpt>
      <trkpt lat="48.04403" lon="6.56713">
        <ele>555</ele>
        <time>2018-04-28T07:09:37.000Z</time>
      </trkpt>
      <trkpt lat="48.04404" lon="6.56711">
        <ele>555</ele>
        <time>2018-04-28T07:09:38.000Z</time>
      </trkpt>
      <trkpt lat="48.04405" lon="6.56709">
        <ele>554</ele>
        <time>2018-04-28T07:09:39.000Z</time>
      </trkpt>
      <trkpt lat="48.04406" lon="6.56707">
        <ele>554</ele>
        <time>2018-04-28T07:09:40.000Z</time>
      </trkpt>
      <trkpt lat="48.04407" lon="6.56705">
        <ele>554</ele>
        <time>2018-04-28T07:09:41.000Z</time>
      </trkpt>
      <trkpt lat="48.04408" lon="6.56703">
        <ele>554</ele>
        <time>2018-04-28T07:09:42.000Z</time>
      </trkpt>
      <trkpt lat="48.04409" lon="6.56702">
        <ele>554</ele>
        <time>2018-04-28T07:09:43.000Z</time>
      </trkpt>
      <trkpt lat="48.0441" lon="6.567">
        <ele>554</ele>
        <time>2018-04-28T07:09:44.000Z</time>
      </trkpt>
      <trkpt lat="48.04411" lon="6.56698">
        <ele>554</ele>
        <time>2018-04-28T07:09:45.000Z</time>
      </trkpt>
      <trkpt lat="48.04412" lon="6.56697">
        <ele>554</ele>
        <time>2018-04-28T07:09:46.000Z</time>
      </trkpt>
      <trkpt lat="48.04413" lon="6.56695">
        <ele>554</ele>
        <time>2018-04-28T07:09:47.000Z</time>
      </trkpt>
      <trkpt lat="48.04415" lon="6.56694">
        <ele>554</ele>
        <time>2018-04-28T07:09:48.000Z</time>
      </trkpt>
      <trkpt lat="48.04416" lon="6.56692">
        <ele>553</ele>
        <time>2018-04-28T07:09:49.000Z</time>
      </trkpt>
      <trkpt lat="48.04417" lon="6.5669">
        <ele>557</ele>
        <time>2018-04-28T07:09:50.000Z</time>
      </trkpt>
      <trkpt lat="48.04418" lon="6.56688">
        <ele>557</ele>
        <time>2018-04-28T07:09:51.000Z</time>
      </trkpt>
      <trkpt lat="48.04419" lon="6.56686">
        <ele>556</ele>
        <time>2018-04-28T07:09:52.000Z</time>
      </trkpt>
      <trkpt lat="48.0442" lon="6.56685">
        <ele>556</ele>
        <time>2018-04-28T07:09:53.000Z</time>
      </trkpt>
      <trkpt lat="48.04422" lon="6.56683">
        <ele>556</ele>
        <time>2018-04-28T07:09:54.000Z</time>
      </trkpt>
      <trkpt lat="48.04423" lon="6.56682">
        <ele>556</ele>
        <time>2018-04-28T07:09:55.000Z</time>
      </trkpt>
      <trkpt lat="48.04424" lon="6.5668">
        <ele>556</ele>
        <time>2018-04-28T07:09:56.000Z</time>
      </trkpt>
      <trkpt lat="48.04426" lon="6.56679">
        <ele>556</ele>
        <time>2018-04-28T07:09:57.000Z</time>
      </trkpt>
      <trkpt lat="48.04427" lon="6.56678">
        <ele>556</ele>
        <time>2018-04-28T07:09:58.000Z</time>
      </trkpt>
      <trkpt lat="48.04428" lon="6.56676">
        <ele>556</ele>
        <time>2018-04-28T07:09:59.000Z</time>
      </trkpt>
      <trkpt lat="48.04429" lon="6.56675">
        <ele>556</ele>
        <time>2018-04-28T07:10:00.000Z</time>
      </trkpt>
      <trkpt lat="48.0443" lon="6.56674">
        <ele>556</ele>
        <time>2018-04-28T07:10:01.000Z</time>
      </trkpt>
      <trkpt lat="48.04431" lon="6.56673">
        <ele>556</ele>
        <time>2018-04-28T07:10:02.000Z</time>
      </trkpt>
      <trkpt lat="48.04433" lon="6.56672">
        <ele>556</ele>
        <time>2018-04-28T07:10:03.000Z</time>
      </trkpt>
      <trkpt lat="48.04434" lon="6.56671">
        <ele>556</ele>
        <time>2018-04-28T07:10:04.000Z</time>
      </trkpt>
      <trkpt lat="48.04435" lon="6.56669">
        <ele>556</ele>
        <time>2018-04-28T07:10:05.000Z</time>
      </trkpt>
      <trkpt lat="48.04436" lon="6.56668">
        <ele>556</ele>
        <time>2018-04-28T07:10:06.000Z</time>
      </trkpt>
      <trkpt lat="48.04437" lon="6.56666">
        <ele>553</ele>
        <time>2018-04-28T07:10:07.000Z</time>
      </trkpt>
      <trkpt lat="48.04439" lon="6.56664">
        <ele>553</ele>
        <time>2018-04-28T07:10:08.000Z</time>
      </trkpt>
      <trkpt lat="48.0444" lon="6.56662">
        <ele>553</ele>
        <time>2018-04-28T07:10:09.000Z</time>
      </trkpt>
      <trkpt lat="48.0444" lon="6.56661">
        <ele>553</ele>
        <time>2018-04-28T07:10:10.000Z</time>
      </trkpt>
      <trkpt lat="48.04441" lon="6.5666">
        <ele>553</ele>
        <time>2018-04-28T07:10:11.000Z</time>
      </trkpt>
      <trkpt lat="48.04441" lon="6.56658">
        <ele>553</ele>
        <time>2018-04-28T07:10:12.000Z</time>
      </trkpt>
      <trkpt lat="48.04442" lon="6.56657">
        <ele>553</ele>
        <time>2018-04-28T07:10:13.000Z</time>
      </trkpt>
      <trkpt lat="48.04443" lon="6.56655">
        <ele>553</ele>
        <time>2018-04-28T07:10:14.000Z</time>
      </trkpt>
      <trkpt lat="48.04444" lon="6.56654">
        <ele>553</ele>
        <time>2018-04-28T07:10:15.000Z</time>
      </trkpt>
      <trkpt lat="48.04445" lon="6.56652">
        <ele>553</ele>
        <time>2018-04-28T07:10:16.000Z</time>
      </trkpt>
      <trkpt lat="48.04446" lon="6.56651">
        <ele>553</ele>
        <time>2018-04-28T07:10:17.000Z</time>
      </trkpt>
      <trkpt lat="48.04446" lon="6.56649">
        <ele>553</ele>
        <time>2018-04-28T07:10:18.000Z</time>
      </trkpt>
      <trkpt lat="48.04447" lon="6.56647">
        <ele>553</ele>
        <time>2018-04-28T07:10:19.000Z</time>
      </trkpt>
      <trkpt lat="48.04448" lon="6.56646">
        <ele>553</ele>
        <time>2018-04-28T07:10:20.000Z</time>
      </trkpt>
      <trkpt lat="48.04449" lon="6.56644">
        <ele>553</ele>
        <time>2018-04-28T07:10:21.000Z</time>
      </trkpt>
      <trkpt lat="48.0445" lon="6.56641">
        <ele>553</ele>
        <time>2018-04-28T07:10:22.000Z</time>
      </trkpt>
      <trkpt lat="48.04451" lon="6.56638">
        <ele>553</ele>
        <time>2018-04-28T07:10:23.000Z</time>
      </trkpt>
      <trkpt lat="48.04452" lon="6.56636">
        <ele>553</ele>
        <time>2018-04-28T07:10:24.000Z</time>
      </trkpt>
      <trkpt lat="48.04453" lon="6.56634">
        <ele>553</ele>
        <time>2018-04-28T07:10:25.000Z</time>
      </trkpt>
      <trkpt lat="48.04454" lon="6.56631">
        <ele>553</ele>
        <time>2018-04-28T07:10:26.000Z</time>
      </trkpt>
      <trkpt lat="48.04456" lon="6.56629">
        <ele>553</ele>
        <time>2018-04-28T07:10:27.000Z</time>
      </trkpt>
      <trkpt lat="48.04457" lon="6.56626">
        <ele>553</ele>
        <time>2018-04-28T07:10:28.000Z</time>
      </trkpt>
      <trkpt lat="48.04458" lon="6.56623">
        <ele>553</ele>
        <time>2018-04-28T07:10:29.000Z</time>
      </trkpt>
      <trkpt lat="48.04459" lon="6.56621">
        <ele>553</ele>
        <time>2018-04-28T07:10:30.000Z</time>
      </trkpt>
      <trkpt lat="48.04461" lon="6.56618">
        <ele>553</ele>
        <time>2018-04-28T07:10:31.000Z</time>
      </trkpt>
      <trkpt lat="48.04462" lon="6.56615">
        <ele>553</ele>
        <time>2018-04-28T07:10:32.000Z</time>
      </trkpt>
      <trkpt lat="48.04463" lon="6.56612">
        <ele>553</ele>
        <time>2018-04-28T07:10:33.000Z</time>
      </trkpt>
      <trkpt lat="48.04464" lon="6.56609">
        <ele>553</ele>
        <time>2018-04-28T07:10:34.000Z</time>
      </trkpt>
      <trkpt lat="48.04465" lon="6.56607">
        <ele>553</ele>
        <time>2018-04-28T07:10:35.000Z</time>
      </trkpt>
      <trkpt lat="48.04466" lon="6.56604">
        <ele>553</ele>
        <time>2018-04-28T07:10:36.000Z</time>
      </trkpt>
      <trkpt lat="48.04466" lon="6.56601">
        <ele>553</ele>
        <time>2018-04-28T07:10:37.000Z</time>
      </trkpt>
      <trkpt lat="48.04467" lon="6.56598">
        <ele>553</ele>
        <time>2018-04-28T07:10:38.000Z</time>
      </trkpt>
      <trkpt lat="48.04468" lon="6.56596">
        <ele>553</ele>
        <time>2018-04-28T07:10:39.000Z</time>
      </trkpt>
      <trkpt lat="48.04469" lon="6.56594">
        <ele>553</ele>
        <time>2018-04-28T07:10:40.000Z</time>
      </trkpt>
      <trkpt lat="48.04469" lon="6.56591">
        <ele>553</ele>
        <time>2018-04-28T07:10:41.000Z</time>
      </trkpt>
      <trkpt lat="48.0447" lon="6.56589">
        <ele>553</ele>
        <time>2018-04-28T07:10:42.000Z</time>
      </trkpt>
      <trkpt lat="48.0447" lon="6.56586">
        <ele>553</ele>
        <time>2018-04-28T07:10:43.000Z</time>
      </trkpt>
      <trkpt lat="48.04471" lon="6.56584">
        <ele>553</ele>
        <time>2018-04-28T07:10:44.000Z</time>
      </trkpt>
      <trkpt lat="48.04472" lon="6.56581">
        <ele>549</ele>
        <time>2018-04-28T07:10:45.000Z</time>
      </trkpt>
      <trkpt lat="48.04473" lon="6.56579">
        <ele>549</ele>
        <time>2018-04-28T07:10:46.000Z</time>
      </trkpt>
      <trkpt lat="48.04474" lon="6.56577">
        <ele>549</ele>
        <time>2018-04-28T07:10:47.000Z</time>
      </trkpt>
      <trkpt lat="48.04475" lon="6.56575">
        <ele>549</ele>
        <time>2018-04-28T07:10:48.000Z</time>
      </trkpt>
      <trkpt lat="48.04476" lon="6.56573">
        <ele>549</ele>
        <time>2018-04-28T07:10:49.000Z</time>
      </trkpt>
      <trkpt lat="48.04477" lon="6.56571">
        <ele>549</ele>
        <time>2018-04-28T07:10:50.000Z</time>
      </trkpt>
      <trkpt lat="48.04478" lon="6.56569">
        <ele>549</ele>
        <time>2018-04-28T07:10:51.000Z</time>
      </trkpt>
      <trkpt lat="48.04479" lon="6.56568">
        <ele>549</ele>
        <time>2018-04-28T07:10:52.000Z</time>
      </trkpt>
      <trkpt lat="48.0448" lon="6.56566">
        <ele>549</ele>
        <time>2018-04-28T07:10:53.000Z</time>
      </trkpt>
      <trkpt lat="48.0448" lon="6.56564">
        <ele>549</ele>
        <time>2018-04-28T07:10:54.000Z</time>
      </trkpt>
      <trkpt lat="48.04481" lon="6.56562">
        <ele>549</ele>
        <time>2018-04-28T07:10:55.000Z</time>
      </trkpt>
      <trkpt lat="48.04483" lon="6.5656">
        <ele>549</ele>
        <time>2018-04-28T07:10:56.000Z</time>
      </trkpt>
      <trkpt lat="48.04484" lon="6.56558">
        <ele>549</ele>
        <time>2018-04-28T07:10:57.000Z</time>
      </trkpt>
      <trkpt lat="48.04485" lon="6.56556">
        <ele>549</ele>
        <time>2018-04-28T07:10:58.000Z</time>
      </trkpt>
      <trkpt lat="48.04486" lon="6.56555">
        <ele>549</ele>
        <time>2018-04-28T07:10:59.000Z</time>
      </trkpt>
      <trkpt lat="48.04487" lon="6.56553">
        <ele>549</ele>
        <time>2018-04-28T07:11:00.000Z</time>
      </trkpt>
      <trkpt lat="48.04488" lon="6.56551">
        <ele>549</ele>
        <time>2018-04-28T07:11:01.000Z</time>
      </trkpt>
      <trkpt lat="48.04489" lon="6.56549">
        <ele>549</ele>
        <time>2018-04-28T07:11:02.000Z</time>
      </trkpt>
      <trkpt lat="48.0449" lon="6.56547">
        <ele>549</ele>
        <time>2018-04-28T07:11:03.000Z</time>
      </trkpt>
      <trkpt lat="48.04492" lon="6.56545">
        <ele>548</ele>
        <time>2018-04-28T07:11:04.000Z</time>
      </trkpt>
      <trkpt lat="48.04493" lon="6.56543">
        <ele>548</ele>
        <time>2018-04-28T07:11:05.000Z</time>
      </trkpt>
      <trkpt lat="48.04495" lon="6.56541">
        <ele>548</ele>
        <time>2018-04-28T07:11:06.000Z</time>
      </trkpt>
      <trkpt lat="48.04496" lon="6.56539">
        <ele>548</ele>
        <time>2018-04-28T07:11:07.000Z</time>
      </trkpt>
      <trkpt lat="48.04497" lon="6.56537">
        <ele>548</ele>
        <time>2018-04-28T07:11:08.000Z</time>
      </trkpt>
      <trkpt lat="48.04498" lon="6.56535">
        <ele>548</ele>
        <time>2018-04-28T07:11:09.000Z</time>
      </trkpt>
      <trkpt lat="48.04499" lon="6.56534">
        <ele>548</ele>
        <time>2018-04-28T07:11:10.000Z</time>
      </trkpt>
      <trkpt lat="48.045" lon="6.56532">
        <ele>548</ele>
        <time>2018-04-28T07:11:11.000Z</time>
      </trkpt>
      <trkpt lat="48.04501" lon="6.56529">
        <ele>554</ele>
        <time>2018-04-28T07:11:12.000Z</time>
      </trkpt>
      <trkpt lat="48.04501" lon="6.56527">
        <ele>553</ele>
        <time>2018-04-28T07:11:13.000Z</time>
      </trkpt>
      <trkpt lat="48.04502" lon="6.56525">
        <ele>553</ele>
        <time>2018-04-28T07:11:14.000Z</time>
      </trkpt>
      <trkpt lat="48.04503" lon="6.56522">
        <ele>553</ele>
        <time>2018-04-28T07:11:15.000Z</time>
      </trkpt>
      <trkpt lat="48.04504" lon="6.56519">
        <ele>552</ele>
        <time>2018-04-28T07:11:16.000Z</time>
      </trkpt>
      <trkpt lat="48.04504" lon="6.56517">
        <ele>552</ele>
        <time>2018-04-28T07:11:17.000Z</time>
      </trkpt>
      <trkpt lat="48.04505" lon="6.56515">
        <ele>551</ele>
        <time>2018-04-28T07:11:18.000Z</time>
      </trkpt>
      <trkpt lat="48.04506" lon="6.56512">
        <ele>551</ele>
        <time>2018-04-28T07:11:19.000Z</time>
      </trkpt>
      <trkpt lat="48.04507" lon="6.5651">
        <ele>550</ele>
        <time>2018-04-28T07:11:20.000Z</time>
      </trkpt>
      <trkpt lat="48.04507" lon="6.56508">
        <ele>550</ele>
        <time>2018-04-28T07:11:21.000Z</time>
      </trkpt>
      <trkpt lat="48.04508" lon="6.56505">
        <ele>549</ele>
        <time>2018-04-28T07:11:22.000Z</time>
      </trkpt>
      <trkpt lat="48.04509" lon="6.56503">
        <ele>549</ele>
        <time>2018-04-28T07:11:23.000Z</time>
      </trkpt>
      <trkpt lat="48.0451" lon="6.56501">
        <ele>550</ele>
        <time>2018-04-28T07:11:24.000Z</time>
      </trkpt>
      <trkpt lat="48.04511" lon="6.56499">
        <ele>548</ele>
        <time>2018-04-28T07:11:25.000Z</time>
      </trkpt>
      <trkpt lat="48.04512" lon="6.56497">
        <ele>548</ele>
        <time>2018-04-28T07:11:26.000Z</time>
      </trkpt>
      <trkpt lat="48.04512" lon="6.56495">
        <ele>548</ele>
        <time>2018-04-28T07:11:27.000Z</time>
      </trkpt>
      <trkpt lat="48.04513" lon="6.56494">
        <ele>549</ele>
        <time>2018-04-28T07:11:28.000Z</time>
      </trkpt>
      <trkpt lat="48.04514" lon="6.56492">
        <ele>549</ele>
        <time>2018-04-28T07:11:29.000Z</time>
      </trkpt>
      <trkpt lat="48.04515" lon="6.56489">
        <ele>549</ele>
        <time>2018-04-28T07:11:30.000Z</time>
      </trkpt>
      <trkpt lat="48.04516" lon="6.56487">
        <ele>549</ele>
        <time>2018-04-28T07:11:31.000Z</time>
      </trkpt>
      <trkpt lat="48.04517" lon="6.56485">
        <ele>550</ele>
        <time>2018-04-28T07:11:32.000Z</time>
      </trkpt>
      <trkpt lat="48.04519" lon="6.56484">
        <ele>550</ele>
        <time>2018-04-28T07:11:33.000Z</time>
      </trkpt>
      <trkpt lat="48.0452" lon="6.56482">
        <ele>550</ele>
        <time>2018-04-28T07:11:34.000Z</time>
      </trkpt>
      <trkpt lat="48.04521" lon="6.5648">
        <ele>550</ele>
        <time>2018-04-28T07:11:35.000Z</time>
      </trkpt>
      <trkpt lat="48.04522" lon="6.56479">
        <ele>551</ele>
        <time>2018-04-28T07:11:36.000Z</time>
      </trkpt>
      <trkpt lat="48.04524" lon="6.56477">
        <ele>551</ele>
        <time>2018-04-28T07:11:37.000Z</time>
      </trkpt>
      <trkpt lat="48.04525" lon="6.56475">
        <ele>551</ele>
        <time>2018-04-28T07:11:38.000Z</time>
      </trkpt>
      <trkpt lat="48.04525" lon="6.56473">
        <ele>551</ele>
        <time>2018-04-28T07:11:39.000Z</time>
      </trkpt>
      <trkpt lat="48.04526" lon="6.56471">
        <ele>551</ele>
        <time>2018-04-28T07:11:40.000Z</time>
      </trkpt>
      <trkpt lat="48.04528" lon="6.5647">
        <ele>551</ele>
        <time>2018-04-28T07:11:41.000Z</time>
      </trkpt>
      <trkpt lat="48.04528" lon="6.56468">
        <ele>551</ele>
        <time>2018-04-28T07:11:42.000Z</time>
      </trkpt>
      <trkpt lat="48.04529" lon="6.56466">
        <ele>551</ele>
        <time>2018-04-28T07:11:43.000Z</time>
      </trkpt>
      <trkpt lat="48.0453" lon="6.56465">
        <ele>552</ele>
        <time>2018-04-28T07:11:44.000Z</time>
      </trkpt>
      <trkpt lat="48.04531" lon="6.56464">
        <ele>552</ele>
        <time>2018-04-28T07:11:45.000Z</time>
      </trkpt>
      <trkpt lat="48.04532" lon="6.56462">
        <ele>552</ele>
        <time>2018-04-28T07:11:46.000Z</time>
      </trkpt>
      <trkpt lat="48.04533" lon="6.56461">
        <ele>552</ele>
        <time>2018-04-28T07:11:47.000Z</time>
      </trkpt>
      <trkpt lat="48.04533" lon="6.5646">
        <ele>552</ele>
        <time>2018-04-28T07:11:48.000Z</time>
      </trkpt>
      <trkpt lat="48.04534" lon="6.56459">
        <ele>552</ele>
        <time>2018-04-28T07:11:49.000Z</time>
      </trkpt>
      <trkpt lat="48.04535" lon="6.56458">
        <ele>552</ele>
        <time>2018-04-28T07:11:50.000Z</time>
      </trkpt>
      <trkpt lat="48.04535" lon="6.56457">
        <ele>552</ele>
        <time>2018-04-28T07:11:51.000Z</time>
      </trkpt>
      <trkpt lat="48.04536" lon="6.56457">
        <ele>552</ele>
        <time>2018-04-28T07:11:52.000Z</time>
      </trkpt>
      <trkpt lat="48.04538" lon="6.56457">
        <ele>552</ele>
        <time>2018-04-28T07:11:53.000Z</time>
      </trkpt>
      <trkpt lat="48.04539" lon="6.56457">
        <ele>552</ele>
        <time>2018-04-28T07:11:54.000Z</time>
      </trkpt>
      <trkpt lat="48.0454" lon="6.56457">
        <ele>552</ele>
        <time>2018-04-28T07:11:55.000Z</time>
      </trkpt>
      <trkpt lat="48.04541" lon="6.56456">
        <ele>553</ele>
        <time>2018-04-28T07:11:56.000Z</time>
      </trkpt>
      <trkpt lat="48.04542" lon="6.56455">
        <ele>553</ele>
        <time>2018-04-28T07:11:57.000Z</time>
      </trkpt>
      <trkpt lat="48.04544" lon="6.56454">
        <ele>553</ele>
        <time>2018-04-28T07:11:58.000Z</time>
      </trkpt>
      <trkpt lat="48.04545" lon="6.56454">
        <ele>553</ele>
        <time>2018-04-28T07:11:59.000Z</time>
      </trkpt>
      <trkpt lat="48.04546" lon="6.56453">
        <ele>553</ele>
        <time>2018-04-28T07:12:00.000Z</time>
      </trkpt>
      <trkpt lat="48.04547" lon="6.56451">
        <ele>553</ele>
        <time>2018-04-28T07:12:01.000Z</time>
      </trkpt>
      <trkpt lat="48.04548" lon="6.56449">
        <ele>553</ele>
        <time>2018-04-28T07:12:02.000Z</time>
      </trkpt>
      <trkpt lat="48.04549" lon="6.56448">
        <ele>553</ele>
        <time>2018-04-28T07:12:03.000Z</time>
      </trkpt>
      <trkpt lat="48.0455" lon="6.56446">
        <ele>553</ele>
        <time>2018-04-28T07:12:04.000Z</time>
      </trkpt>
      <trkpt lat="48.04551" lon="6.56444">
        <ele>554</ele>
        <time>2018-04-28T07:12:05.000Z</time>
      </trkpt>
      <trkpt lat="48.04552" lon="6.56443">
        <ele>554</ele>
        <time>2018-04-28T07:12:06.000Z</time>
      </trkpt>
      <trkpt lat="48.04553" lon="6.56441">
        <ele>554</ele>
        <time>2018-04-28T07:12:07.000Z</time>
      </trkpt>
      <trkpt lat="48.04554" lon="6.56439">
        <ele>554</ele>
        <time>2018-04-28T07:12:08.000Z</time>
      </trkpt>
      <trkpt lat="48.04555" lon="6.56438">
        <ele>554</ele>
        <time>2018-04-28T07:12:09.000Z</time>
      </trkpt>
      <trkpt lat="48.04555" lon="6.56436">
        <ele>554</ele>
        <time>2018-04-28T07:12:10.000Z</time>
      </trkpt>
      <trkpt lat="48.04556" lon="6.56434">
        <ele>554</ele>
        <time>2018-04-28T07:12:11.000Z</time>
      </trkpt>
      <trkpt lat="48.04557" lon="6.56432">
        <ele>554</ele>
        <time>2018-04-28T07:12:12.000Z</time>
      </trkpt>
      <trkpt lat="48.04557" lon="6.56431">
        <ele>555</ele>
        <time>2018-04-28T07:12:13.000Z</time>
      </trkpt>
      <trkpt lat="48.04558" lon="6.56429">
        <ele>555</ele>
        <time>2018-04-28T07:12:14.000Z</time>
      </trkpt>
      <trkpt lat="48.04559" lon="6.56427">
        <ele>555</ele>
        <time>2018-04-28T07:12:15.000Z</time>
      </trkpt>
      <trkpt lat="48.0456" lon="6.56425">
        <ele>555</ele>
        <time>2018-04-28T07:12:16.000Z</time>
      </trkpt>
      <trkpt lat="48.04561" lon="6.56424">
        <ele>555</ele>
        <time>2018-04-28T07:12:17.000Z</time>
      </trkpt>
      <trkpt lat="48.04561" lon="6.56422">
        <ele>555</ele>
        <time>2018-04-28T07:12:18.000Z</time>
      </trkpt>
      <trkpt lat="48.04562" lon="6.5642">
        <ele>556</ele>
        <time>2018-04-28T07:12:19.000Z</time>
      </trkpt>
      <trkpt lat="48.04563" lon="6.56418">
        <ele>556</ele>
        <time>2018-04-28T07:12:20.000Z</time>
      </trkpt>
      <trkpt lat="48.04564" lon="6.56416">
        <ele>553</ele>
        <time>2018-04-28T07:12:21.000Z</time>
      </trkpt>
      <trkpt lat="48.04565" lon="6.56414">
        <ele>553</ele>
        <time>2018-04-28T07:12:22.000Z</time>
      </trkpt>
      <trkpt lat="48.04566" lon="6.56412">
        <ele>554</ele>
        <time>2018-04-28T07:12:23.000Z</time>
      </trkpt>
      <trkpt lat="48.04567" lon="6.5641">
        <ele>554</ele>
        <time>2018-04-28T07:12:24.000Z</time>
      </trkpt>
      <trkpt lat="48.04568" lon="6.56409">
        <ele>554</ele>
        <time>2018-04-28T07:12:25.000Z</time>
      </trkpt>
      <trkpt lat="48.04569" lon="6.56407">
        <ele>554</ele>
        <time>2018-04-28T07:12:26.000Z</time>
      </trkpt>
      <trkpt lat="48.0457" lon="6.56405">
        <ele>554</ele>
        <time>2018-04-28T07:12:27.000Z</time>
      </trkpt>
      <trkpt lat="48.04572" lon="6.56404">
        <ele>554</ele>
        <time>2018-04-28T07:12:28.000Z</time>
      </trkpt>
      <trkpt lat="48.04573" lon="6.56402">
        <ele>554</ele>
        <time>2018-04-28T07:12:29.000Z</time>
      </trkpt>
      <trkpt lat="48.04574" lon="6.56401">
        <ele>553</ele>
        <time>2018-04-28T07:12:30.000Z</time>
      </trkpt>
      <trkpt lat="48.04575" lon="6.56399">
        <ele>553</ele>
        <time>2018-04-28T07:12:31.000Z</time>
      </trkpt>
      <trkpt lat="48.04576" lon="6.56398">
        <ele>553</ele>
        <time>2018-04-28T07:12:32.000Z</time>
      </trkpt>
      <trkpt lat="48.04576" lon="6.56396">
        <ele>553</ele>
        <time>2018-04-28T07:12:33.000Z</time>
      </trkpt>
      <trkpt lat="48.04577" lon="6.56394">
        <ele>552</ele>
        <time>2018-04-28T07:12:34.000Z</time>
      </trkpt>
      <trkpt lat="48.04578" lon="6.56392">
        <ele>552</ele>
        <time>2018-04-28T07:12:35.000Z</time>
      </trkpt>
      <trkpt lat="48.04578" lon="6.56391">
        <ele>552</ele>
        <time>2018-04-28T07:12:36.000Z</time>
      </trkpt>
      <trkpt lat="48.04579" lon="6.5639">
        <ele>552</ele>
        <time>2018-04-28T07:12:37.000Z</time>
      </trkpt>
      <trkpt lat="48.0458" lon="6.56389">
        <ele>552</ele>
        <time>2018-04-28T07:12:38.000Z</time>
      </trkpt>
      <trkpt lat="48.04581" lon="6.56388">
        <ele>552</ele>
        <time>2018-04-28T07:12:39.000Z</time>
      </trkpt>
      <trkpt lat="48.04582" lon="6.56387">
        <ele>552</ele>
        <time>2018-04-28T07:12:40.000Z</time>
      </trkpt>
      <trkpt lat="48.04583" lon="6.56386">
        <ele>551</ele>
        <time>2018-04-28T07:12:41.000Z</time>
      </trkpt>
      <trkpt lat="48.04583" lon="6.56385">
        <ele>551</ele>
        <time>2018-04-28T07:12:42.000Z</time>
      </trkpt>
      <trkpt lat="48.04584" lon="6.56384">
        <ele>564</ele>
        <time>2018-04-28T07:12:43.000Z</time>
      </trkpt>
      <trkpt lat="48.04586" lon="6.56383">
        <ele>564</ele>
        <time>2018-04-28T07:12:44.000Z</time>
      </trkpt>
      <trkpt lat="48.04586" lon="6.56382">
        <ele>564</ele>
        <time>2018-04-28T07:12:45.000Z</time>
      </trkpt>
      <trkpt lat="48.04587" lon="6.56381">
        <ele>564</ele>
        <time>2018-04-28T07:12:46.000Z</time>
      </trkpt>
      <trkpt lat="48.04588" lon="6.5638">
        <ele>564</ele>
        <time>2018-04-28T07:12:47.000Z</time>
      </trkpt>
      <trkpt lat="48.04589" lon="6.56378">
        <ele>564</ele>
        <time>2018-04-28T07:12:48.000Z</time>
      </trkpt>
      <trkpt lat="48.0459" lon="6.56377">
        <ele>564</ele>
        <time>2018-04-28T07:12:49.000Z</time>
      </trkpt>
      <trkpt lat="48.04591" lon="6.56376">
        <ele>564</ele>
        <time>2018-04-28T07:12:50.000Z</time>
      </trkpt>
      <trkpt lat="48.04592" lon="6.56374">
        <ele>564</ele>
        <time>2018-04-28T07:12:51.000Z</time>
      </trkpt>
      <trkpt lat="48.04593" lon="6.56373">
        <ele>564</ele>
        <time>2018-04-28T07:12:52.000Z</time>
      </trkpt>
      <trkpt lat="48.04594" lon="6.56371">
        <ele>564</ele>
        <time>2018-04-28T07:12:53.000Z</time>
      </trkpt>
      <trkpt lat="48.04595" lon="6.5637">
        <ele>564</ele>
        <time>2018-04-28T07:12:54.000Z</time>
      </trkpt>
      <trkpt lat="48.04596" lon="6.56369">
        <ele>564</ele>
        <time>2018-04-28T07:12:55.000Z</time>
      </trkpt>
      <trkpt lat="48.04597" lon="6.56367">
        <ele>564</ele>
        <time>2018-04-28T07:12:56.000Z</time>
      </trkpt>
      <trkpt lat="48.04598" lon="6.56366">
        <ele>564</ele>
        <time>2018-04-28T07:12:57.000Z</time>
      </trkpt>
      <trkpt lat="48.04598" lon="6.56365">
        <ele>564</ele>
        <time>2018-04-28T07:12:58.000Z</time>
      </trkpt>
      <trkpt lat="48.04599" lon="6.56363">
        <ele>564</ele>
        <time>2018-04-28T07:12:59.000Z</time>
      </trkpt>
      <trkpt lat="48.046" lon="6.56362">
        <ele>564</ele>
        <time>2018-04-28T07:13:00.000Z</time>
      </trkpt>
      <trkpt lat="48.04602" lon="6.5636">
        <ele>563</ele>
        <time>2018-04-28T07:13:01.000Z</time>
      </trkpt>
      <trkpt lat="48.04603" lon="6.56359">
        <ele>563</ele>
        <time>2018-04-28T07:13:02.000Z</time>
      </trkpt>
      <trkpt lat="48.04604" lon="6.56357">
        <ele>563</ele>
        <time>2018-04-28T07:13:03.000Z</time>
      </trkpt>
      <trkpt lat="48.04605" lon="6.56356">
        <ele>563</ele>
        <time>2018-04-28T07:13:04.000Z</time>
      </trkpt>
      <trkpt lat="48.04606" lon="6.56354">
        <ele>563</ele>
        <time>2018-04-28T07:13:05.000Z</time>
      </trkpt>
      <trkpt lat="48.04607" lon="6.56353">
        <ele>563</ele>
        <time>2018-04-28T07:13:06.000Z</time>
      </trkpt>
      <trkpt lat="48.04608" lon="6.56351">
        <ele>563</ele>
        <time>2018-04-28T07:13:07.000Z</time>
      </trkpt>
      <trkpt lat="48.04609" lon="6.56349">
        <ele>564</ele>
        <time>2018-04-28T07:13:08.000Z</time>
      </trkpt>
      <trkpt lat="48.0461" lon="6.56348">
        <ele>564</ele>
        <time>2018-04-28T07:13:09.000Z</time>
      </trkpt>
      <trkpt lat="48.04611" lon="6.56346">
        <ele>564</ele>
        <time>2018-04-28T07:13:10.000Z</time>
      </trkpt>
      <trkpt lat="48.04612" lon="6.56345">
        <ele>564</ele>
        <time>2018-04-28T07:13:11.000Z</time>
      </trkpt>
      <trkpt lat="48.04613" lon="6.56343">
        <ele>564</ele>
        <time>2018-04-28T07:13:12.000Z</time>
      </trkpt>
      <trkpt lat="48.04614" lon="6.56342">
        <ele>564</ele>
        <time>2018-04-28T07:13:13.000Z</time>
      </trkpt>
      <trkpt lat="48.04615" lon="6.5634">
        <ele>564</ele>
        <time>2018-04-28T07:13:14.000Z</time>
      </trkpt>
      <trkpt lat="48.04616" lon="6.56338">
        <ele>564</ele>
        <time>2018-04-28T07:13:15.000Z</time>
      </trkpt>
      <trkpt lat="48.04617" lon="6.56336">
        <ele>565</ele>
        <time>2018-04-28T07:13:16.000Z</time>
      </trkpt>
      <trkpt lat="48.04617" lon="6.56334">
        <ele>565</ele>
        <time>2018-04-28T07:13:17.000Z</time>
      </trkpt>
      <trkpt lat="48.04618" lon="6.56333">
        <ele>557</ele>
        <time>2018-04-28T07:13:18.000Z</time>
      </trkpt>
      <trkpt lat="48.04619" lon="6.56331">
        <ele>558</ele>
        <time>2018-04-28T07:13:19.000Z</time>
      </trkpt>
      <trkpt lat="48.0462" lon="6.56329">
        <ele>558</ele>
        <time>2018-04-28T07:13:20.000Z</time>
      </trkpt>
      <trkpt lat="48.04621" lon="6.56327">
        <ele>558</ele>
        <time>2018-04-28T07:13:21.000Z</time>
      </trkpt>
      <trkpt lat="48.04622" lon="6.56326">
        <ele>558</ele>
        <time>2018-04-28T07:13:22.000Z</time>
      </trkpt>
      <trkpt lat="48.04623" lon="6.56324">
        <ele>558</ele>
        <time>2018-04-28T07:13:23.000Z</time>
      </trkpt>
      <trkpt lat="48.04624" lon="6.56323">
        <ele>559</ele>
        <time>2018-04-28T07:13:24.000Z</time>
      </trkpt>
      <trkpt lat="48.04625" lon="6.56322">
        <ele>559</ele>
        <time>2018-04-28T07:13:25.000Z</time>
      </trkpt>
      <trkpt lat="48.04626" lon="6.56321">
        <ele>559</ele>
        <time>2018-04-28T07:13:26.000Z</time>
      </trkpt>
      <trkpt lat="48.04627" lon="6.5632">
        <ele>559</ele>
        <time>2018-04-28T07:13:27.000Z</time>
      </trkpt>
      <trkpt lat="48.04628" lon="6.56318">
        <ele>559</ele>
        <time>2018-04-28T07:13:28.000Z</time>
      </trkpt>
      <trkpt lat="48.04629" lon="6.56317">
        <ele>559</ele>
        <time>2018-04-28T07:13:29.000Z</time>
      </trkpt>
      <trkpt lat="48.0463" lon="6.56315">
        <ele>559</ele>
        <time>2018-04-28T07:13:30.000Z</time>
      </trkpt>
      <trkpt lat="48.04631" lon="6.56314">
        <ele>560</ele>
        <time>2018-04-28T07:13:31.000Z</time>
      </trkpt>
      <trkpt lat="48.04632" lon="6.56312">
        <ele>560</ele>
        <time>2018-04-28T07:13:32.000Z</time>
      </trkpt>
      <trkpt lat="48.04633" lon="6.56311">
        <ele>560</ele>
        <time>2018-04-28T07:13:33.000Z</time>
      </trkpt>
      <trkpt lat="48.04634" lon="6.56309">
        <ele>560</ele>
        <time>2018-04-28T07:13:34.000Z</time>
      </trkpt>
      <trkpt lat="48.04635" lon="6.56308">
        <ele>560</ele>
        <time>2018-04-28T07:13:35.000Z</time>
      </trkpt>
      <trkpt lat="48.04636" lon="6.56307">
        <ele>560</ele>
        <time>2018-04-28T07:13:36.000Z</time>
      </trkpt>
      <trkpt lat="48.04637" lon="6.56306">
        <ele>560</ele>
        <time>2018-04-28T07:13:37.000Z</time>
      </trkpt>
      <trkpt lat="48.04638" lon="6.56304">
        <ele>560</ele>
        <time>2018-04-28T07:13:38.000Z</time>
      </trkpt>
      <trkpt lat="48.04639" lon="6.56303">
        <ele>560</ele>
        <time>2018-04-28T07:13:39.000Z</time>
      </trkpt>
      <trkpt lat="48.0464" lon="6.56302">
        <ele>560</ele>
        <time>2018-04-28T07:13:40.000Z</time>
      </trkpt>
      <trkpt lat="48.04641" lon="6.563">
        <ele>560</ele>
        <time>2018-04-28T07:13:41.000Z</time>
      </trkpt>
      <trkpt lat="48.04643" lon="6.56299">
        <ele>560</ele>
        <time>2018-04-28T07:13:42.000Z</time>
      </trkpt>
      <trkpt lat="48.04644" lon="6.56298">
        <ele>560</ele>
        <time>2018-04-28T07:13:43.000Z</time>
      </trkpt>
      <trkpt lat="48.04645" lon="6.56297">
        <ele>560</ele>
        <time>2018-04-28T07:13:44.000Z</time>
      </trkpt>
      <trkpt lat="48.04646" lon="6.56295">
        <ele>560</ele>
        <time>2018-04-28T07:13:45.000Z</time>
      </trkpt>
      <trkpt lat="48.04647" lon="6.56293">
        <ele>560</ele>
        <time>2018-04-28T07:13:46.000Z</time>
      </trkpt>
      <trkpt lat="48.04648" lon="6.56291">
        <ele>560</ele>
        <time>2018-04-28T07:13:47.000Z</time>
      </trkpt>
      <trkpt lat="48.04648" lon="6.56289">
        <ele>560</ele>
        <time>2018-04-28T07:13:48.000Z</time>
      </trkpt>
      <trkpt lat="48.04649" lon="6.56288">
        <ele>560</ele>
        <time>2018-04-28T07:13:49.000Z</time>
      </trkpt>
      <trkpt lat="48.0465" lon="6.56286">
        <ele>560</ele>
        <time>2018-04-28T07:13:50.000Z</time>
      </trkpt>
      <trkpt lat="48.04651" lon="6.56284">
        <ele>560</ele>
        <time>2018-04-28T07:13:51.000Z</time>
      </trkpt>
      <trkpt lat="48.04652" lon="6.56283">
        <ele>560</ele>
        <time>2018-04-28T07:13:52.000Z</time>
      </trkpt>
      <trkpt lat="48.04652" lon="6.56281">
        <ele>560</ele>
        <time>2018-04-28T07:13:53.000Z</time>
      </trkpt>
      <trkpt lat="48.04653" lon="6.56279">
        <ele>560</ele>
        <time>2018-04-28T07:13:54.000Z</time>
      </trkpt>
      <trkpt lat="48.04654" lon="6.56278">
        <ele>560</ele>
        <time>2018-04-28T07:13:55.000Z</time>
      </trkpt>
      <trkpt lat="48.04655" lon="6.56276">
        <ele>560</ele>
        <time>2018-04-28T07:13:56.000Z</time>
      </trkpt>
      <trkpt lat="48.04656" lon="6.56274">
        <ele>560</ele>
        <time>2018-04-28T07:13:57.000Z</time>
      </trkpt>
      <trkpt lat="48.04657" lon="6.56272">
        <ele>560</ele>
        <time>2018-04-28T07:13:58.000Z</time>
      </trkpt>
      <trkpt lat="48.04657" lon="6.5627">
        <ele>560</ele>
        <time>2018-04-28T07:13:59.000Z</time>
      </trkpt>
      <trkpt lat="48.04658" lon="6.56268">
        <ele>560</ele>
        <time>2018-04-28T07:14:00.000Z</time>
      </trkpt>
      <trkpt lat="48.04659" lon="6.56267">
        <ele>560</ele>
        <time>2018-04-28T07:14:01.000Z</time>
      </trkpt>
      <trkpt lat="48.04661" lon="6.56265">
        <ele>560</ele>
        <time>2018-04-28T07:14:02.000Z</time>
      </trkpt>
      <trkpt lat="48.04662" lon="6.56263">
        <ele>561</ele>
        <time>2018-04-28T07:14:03.000Z</time>
      </trkpt>
      <trkpt lat="48.04663" lon="6.56262">
        <ele>561</ele>
        <time>2018-04-28T07:14:04.000Z</time>
      </trkpt>
      <trkpt lat="48.04664" lon="6.5626">
        <ele>561</ele>
        <time>2018-04-28T07:14:05.000Z</time>
      </trkpt>
      <trkpt lat="48.04665" lon="6.56259">
        <ele>561</ele>
        <time>2018-04-28T07:14:06.000Z</time>
      </trkpt>
      <trkpt lat="48.04666" lon="6.56257">
        <ele>562</ele>
        <time>2018-04-28T07:14:07.000Z</time>
      </trkpt>
      <trkpt lat="48.04667" lon="6.56255">
        <ele>562</ele>
        <time>2018-04-28T07:14:08.000Z</time>
      </trkpt>
      <trkpt lat="48.04668" lon="6.56254">
        <ele>566</ele>
        <time>2018-04-28T07:14:09.000Z</time>
      </trkpt>
      <trkpt lat="48.04668" lon="6.56252">
        <ele>565</ele>
        <time>2018-04-28T07:14:10.000Z</time>
      </trkpt>
      <trkpt lat="48.04669" lon="6.5625">
        <ele>565</ele>
        <time>2018-04-28T07:14:11.000Z</time>
      </trkpt>
      <trkpt lat="48.0467" lon="6.56249">
        <ele>564</ele>
        <time>2018-04-28T07:14:12.000Z</time>
      </trkpt>
      <trkpt lat="48.04672" lon="6.56247">
        <ele>565</ele>
        <time>2018-04-28T07:14:13.000Z</time>
      </trkpt>
      <trkpt lat="48.04673" lon="6.56244">
        <ele>565</ele>
        <time>2018-04-28T07:14:14.000Z</time>
      </trkpt>
      <trkpt lat="48.04674" lon="6.56242">
        <ele>566</ele>
        <time>2018-04-28T07:14:15.000Z</time>
      </trkpt>
      <trkpt lat="48.04675" lon="6.5624">
        <ele>566</ele>
        <time>2018-04-28T07:14:16.000Z</time>
      </trkpt>
      <trkpt lat="48.04676" lon="6.56238">
        <ele>566</ele>
        <time>2018-04-28T07:14:17.000Z</time>
      </trkpt>
      <trkpt lat="48.04677" lon="6.56236">
        <ele>567</ele>
        <time>2018-04-28T07:14:18.000Z</time>
      </trkpt>
      <trkpt lat="48.04678" lon="6.56234">
        <ele>567</ele>
        <time>2018-04-28T07:14:19.000Z</time>
      </trkpt>
      <trkpt lat="48.04678" lon="6.56232">
        <ele>567</ele>
        <time>2018-04-28T07:14:20.000Z</time>
      </trkpt>
      <trkpt lat="48.04679" lon="6.5623">
        <ele>567</ele>
        <time>2018-04-28T07:14:21.000Z</time>
      </trkpt>
      <trkpt lat="48.0468" lon="6.56229">
        <ele>568</ele>
        <time>2018-04-28T07:14:22.000Z</time>
      </trkpt>
      <trkpt lat="48.04681" lon="6.56227">
        <ele>568</ele>
        <time>2018-04-28T07:14:23.000Z</time>
      </trkpt>
      <trkpt lat="48.04682" lon="6.56225">
        <ele>568</ele>
        <time>2018-04-28T07:14:24.000Z</time>
      </trkpt>
      <trkpt lat="48.04683" lon="6.56224">
        <ele>568</ele>
        <time>2018-04-28T07:14:25.000Z</time>
      </trkpt>
      <trkpt lat="48.04684" lon="6.56222">
        <ele>568</ele>
        <time>2018-04-28T07:14:26.000Z</time>
      </trkpt>
      <trkpt lat="48.04685" lon="6.5622">
        <ele>568</ele>
        <time>2018-04-28T07:14:27.000Z</time>
      </trkpt>
      <trkpt lat="48.04686" lon="6.56218">
        <ele>568</ele>
        <time>2018-04-28T07:14:28.000Z</time>
      </trkpt>
      <trkpt lat="48.04687" lon="6.56216">
        <ele>568</ele>
        <time>2018-04-28T07:14:29.000Z</time>
      </trkpt>
      <trkpt lat="48.04688" lon="6.56214">
        <ele>568</ele>
        <time>2018-04-28T07:14:30.000Z</time>
      </trkpt>
      <trkpt lat="48.04689" lon="6.56212">
        <ele>568</ele>
        <time>2018-04-28T07:14:31.000Z</time>
      </trkpt>
      <trkpt lat="48.0469" lon="6.5621">
        <ele>568</ele>
        <time>2018-04-28T07:14:32.000Z</time>
      </trkpt>
      <trkpt lat="48.04691" lon="6.56208">
        <ele>568</ele>
        <time>2018-04-28T07:14:33.000Z</time>
      </trkpt>
      <trkpt lat="48.04692" lon="6.56206">
        <ele>568</ele>
        <time>2018-04-28T07:14:34.000Z</time>
      </trkpt>
      <trkpt lat="48.04693" lon="6.56204">
        <ele>568</ele>
        <time>2018-04-28T07:14:35.000Z</time>
      </trkpt>
      <trkpt lat="48.04694" lon="6.56202">
        <ele>568</ele>
        <time>2018-04-28T07:14:36.000Z</time>
      </trkpt>
      <trkpt lat="48.04694" lon="6.562">
        <ele>568</ele>
        <time>2018-04-28T07:14:37.000Z</time>
      </trkpt>
      <trkpt lat="48.04695" lon="6.56198">
        <ele>568</ele>
        <time>2018-04-28T07:14:38.000Z</time>
      </trkpt>
      <trkpt lat="48.04696" lon="6.56197">
        <ele>568</ele>
        <time>2018-04-28T07:14:39.000Z</time>
      </trkpt>
      <trkpt lat="48.04697" lon="6.56195">
        <ele>568</ele>
        <time>2018-04-28T07:14:40.000Z</time>
      </trkpt>
      <trkpt lat="48.04698" lon="6.56193">
        <ele>568</ele>
        <time>2018-04-28T07:14:41.000Z</time>
      </trkpt>
      <trkpt lat="48.04699" lon="6.56192">
        <ele>568</ele>
        <time>2018-04-28T07:14:42.000Z</time>
      </trkpt>
      <trkpt lat="48.047" lon="6.5619">
        <ele>568</ele>
        <time>2018-04-28T07:14:43.000Z</time>
      </trkpt>
      <trkpt lat="48.04701" lon="6.56189">
        <ele>568</ele>
        <time>2018-04-28T07:14:44.000Z</time>
      </trkpt>
      <trkpt lat="48.04702" lon="6.56187">
        <ele>568</ele>
        <time>2018-04-28T07:14:45.000Z</time>
      </trkpt>
      <trkpt lat="48.04703" lon="6.56186">
        <ele>568</ele>
        <time>2018-04-28T07:14:46.000Z</time>
      </trkpt>
      <trkpt lat="48.04704" lon="6.56184">
        <ele>568</ele>
        <time>2018-04-28T07:14:47.000Z</time>
      </trkpt>
      <trkpt lat="48.04705" lon="6.56182">
        <ele>568</ele>
        <time>2018-04-28T07:14:48.000Z</time>
      </trkpt>
      <trkpt lat="48.04706" lon="6.56181">
        <ele>568</ele>
        <time>2018-04-28T07:14:49.000Z</time>
      </trkpt>
      <trkpt lat="48.04707" lon="6.56179">
        <ele>568</ele>
        <time>2018-04-28T07:14:50.000Z</time>
      </trkpt>
      <trkpt lat="48.04708" lon="6.56178">
        <ele>569</ele>
        <time>2018-04-28T07:14:51.000Z</time>
      </trkpt>
      <trkpt lat="48.04709" lon="6.56176">
        <ele>569</ele>
        <time>2018-04-28T07:14:52.000Z</time>
      </trkpt>
      <trkpt lat="48.0471" lon="6.56175">
        <ele>569</ele>
        <time>2018-04-28T07:14:53.000Z</time>
      </trkpt>
      <trkpt lat="48.04711" lon="6.56173">
        <ele>569</ele>
        <time>2018-04-28T07:14:54.000Z</time>
      </trkpt>
      <trkpt lat="48.04712" lon="6.56171">
        <ele>569</ele>
        <time>2018-04-28T07:14:55.000Z</time>
      </trkpt>
      <trkpt lat="48.04713" lon="6.56169">
        <ele>570</ele>
        <time>2018-04-28T07:14:56.000Z</time>
      </trkpt>
      <trkpt lat="48.04714" lon="6.56168">
        <ele>570</ele>
        <time>2018-04-28T07:14:57.000Z</time>
      </trkpt>
      <trkpt lat="48.04716" lon="6.56166">
        <ele>561</ele>
        <time>2018-04-28T07:14:58.000Z</time>
      </trkpt>
      <trkpt lat="48.04717" lon="6.56165">
        <ele>561</ele>
        <time>2018-04-28T07:14:59.000Z</time>
      </trkpt>
      <trkpt lat="48.04718" lon="6.56163">
        <ele>561</ele>
        <time>2018-04-28T07:15:00.000Z</time>
      </trkpt>
      <trkpt lat="48.04719" lon="6.56162">
        <ele>562</ele>
        <time>2018-04-28T07:15:01.000Z</time>
      </trkpt>
      <trkpt lat="48.0472" lon="6.5616">
        <ele>562</ele>
        <time>2018-04-28T07:15:02.000Z</time>
      </trkpt>
      <trkpt lat="48.04721" lon="6.56158">
        <ele>562</ele>
        <time>2018-04-28T07:15:03.000Z</time>
      </trkpt>
      <trkpt lat="48.04722" lon="6.56157">
        <ele>562</ele>
        <time>2018-04-28T07:15:04.000Z</time>
      </trkpt>
      <trkpt lat="48.04723" lon="6.56156">
        <ele>562</ele>
        <time>2018-04-28T07:15:05.000Z</time>
      </trkpt>
      <trkpt lat="48.04724" lon="6.56154">
        <ele>562</ele>
        <time>2018-04-28T07:15:06.000Z</time>
      </trkpt>
      <trkpt lat="48.04725" lon="6.56153">
        <ele>563</ele>
        <time>2018-04-28T07:15:07.000Z</time>
      </trkpt>
      <trkpt lat="48.04726" lon="6.56152">
        <ele>563</ele>
        <time>2018-04-28T07:15:08.000Z</time>
      </trkpt>
      <trkpt lat="48.04727" lon="6.56151">
        <ele>563</ele>
        <time>2018-04-28T07:15:09.000Z</time>
      </trkpt>
      <trkpt lat="48.04728" lon="6.5615">
        <ele>563</ele>
        <time>2018-04-28T07:15:10.000Z</time>
      </trkpt>
      <trkpt lat="48.04729" lon="6.56148">
        <ele>563</ele>
        <time>2018-04-28T07:15:11.000Z</time>
      </trkpt>
      <trkpt lat="48.0473" lon="6.56147">
        <ele>563</ele>
        <time>2018-04-28T07:15:12.000Z</time>
      </trkpt>
      <trkpt lat="48.04732" lon="6.56146">
        <ele>563</ele>
        <time>2018-04-28T07:15:13.000Z</time>
      </trkpt>
      <trkpt lat="48.04733" lon="6.56145">
        <ele>563</ele>
        <time>2018-04-28T07:15:14.000Z</time>
      </trkpt>
      <trkpt lat="48.04735" lon="6.56143">
        <ele>563</ele>
        <time>2018-04-28T07:15:15.000Z</time>
      </trkpt>
      <trkpt lat="48.04736" lon="6.56142">
        <ele>563</ele>
        <time>2018-04-28T07:15:16.000Z</time>
      </trkpt>
      <trkpt lat="48.04737" lon="6.5614">
        <ele>563</ele>
        <time>2018-04-28T07:15:17.000Z</time>
      </trkpt>
      <trkpt lat="48.04738" lon="6.56138">
        <ele>562</ele>
        <time>2018-04-28T07:15:18.000Z</time>
      </trkpt>
      <trkpt lat="48.04739" lon="6.56137">
        <ele>562</ele>
        <time>2018-04-28T07:15:19.000Z</time>
      </trkpt>
      <trkpt lat="48.04741" lon="6.56135">
        <ele>562</ele>
        <time>2018-04-28T07:15:20.000Z</time>
      </trkpt>
      <trkpt lat="48.04742" lon="6.56133">
        <ele>561</ele>
        <time>2018-04-28T07:15:21.000Z</time>
      </trkpt>
      <trkpt lat="48.04743" lon="6.56131">
        <ele>561</ele>
        <time>2018-04-28T07:15:22.000Z</time>
      </trkpt>
      <trkpt lat="48.04745" lon="6.56129">
        <ele>561</ele>
        <time>2018-04-28T07:15:23.000Z</time>
      </trkpt>
      <trkpt lat="48.04746" lon="6.56127">
        <ele>561</ele>
        <time>2018-04-28T07:15:24.000Z</time>
      </trkpt>
      <trkpt lat="48.04747" lon="6.56125">
        <ele>560</ele>
        <time>2018-04-28T07:15:25.000Z</time>
      </trkpt>
      <trkpt lat="48.04749" lon="6.56124">
        <ele>560</ele>
        <time>2018-04-28T07:15:26.000Z</time>
      </trkpt>
      <trkpt lat="48.0475" lon="6.56122">
        <ele>560</ele>
        <time>2018-04-28T07:15:27.000Z</time>
      </trkpt>
      <trkpt lat="48.04751" lon="6.5612">
        <ele>573</ele>
        <time>2018-04-28T07:15:28.000Z</time>
      </trkpt>
      <trkpt lat="48.04752" lon="6.56119">
        <ele>573</ele>
        <time>2018-04-28T07:15:29.000Z</time>
      </trkpt>
      <trkpt lat="48.04753" lon="6.56117">
        <ele>572</ele>
        <time>2018-04-28T07:15:30.000Z</time>
      </trkpt>
      <trkpt lat="48.04755" lon="6.56116">
        <ele>572</ele>
        <time>2018-04-28T07:15:31.000Z</time>
      </trkpt>
      <trkpt lat="48.04756" lon="6.56114">
        <ele>572</ele>
        <time>2018-04-28T07:15:32.000Z</time>
      </trkpt>
      <trkpt lat="48.04757" lon="6.56113">
        <ele>572</ele>
        <time>2018-04-28T07:15:33.000Z</time>
      </trkpt>
      <trkpt lat="48.04758" lon="6.56112">
        <ele>571</ele>
        <time>2018-04-28T07:15:34.000Z</time>
      </trkpt>
      <trkpt lat="48.04759" lon="6.5611">
        <ele>571</ele>
        <time>2018-04-28T07:15:35.000Z</time>
      </trkpt>
      <trkpt lat="48.0476" lon="6.56108">
        <ele>571</ele>
        <time>2018-04-28T07:15:36.000Z</time>
      </trkpt>
      <trkpt lat="48.04761" lon="6.56107">
        <ele>570</ele>
        <time>2018-04-28T07:15:37.000Z</time>
      </trkpt>
      <trkpt lat="48.04762" lon="6.56106">
        <ele>570</ele>
        <time>2018-04-28T07:15:38.000Z</time>
      </trkpt>
      <trkpt lat="48.04763" lon="6.56104">
        <ele>570</ele>
        <time>2018-04-28T07:15:39.000Z</time>
      </trkpt>
      <trkpt lat="48.04764" lon="6.56103">
        <ele>570</ele>
        <time>2018-04-28T07:15:40.000Z</time>
      </trkpt>
      <trkpt lat="48.04765" lon="6.56102">
        <ele>570</ele>
        <time>2018-04-28T07:15:41.000Z</time>
      </trkpt>
      <trkpt lat="48.04766" lon="6.561">
        <ele>570</ele>
        <time>2018-04-28T07:15:42.000Z</time>
      </trkpt>
      <trkpt lat="48.04767" lon="6.56099">
        <ele>570</ele>
        <time>2018-04-28T07:15:43.000Z</time>
      </trkpt>
      <trkpt lat="48.04768" lon="6.56098">
        <ele>570</ele>
        <time>2018-04-28T07:15:44.000Z</time>
      </trkpt>
      <trkpt lat="48.0477" lon="6.56096">
        <ele>570</ele>
        <time>2018-04-28T07:15:45.000Z</time>
      </trkpt>
      <trkpt lat="48.04771" lon="6.56095">
        <ele>570</ele>
        <time>2018-04-28T07:15:46.000Z</time>
      </trkpt>
      <trkpt lat="48.04773" lon="6.56093">
        <ele>570</ele>
        <time>2018-04-28T07:15:47.000Z</time>
      </trkpt>
      <trkpt lat="48.04774" lon="6.56091">
        <ele>570</ele>
        <time>2018-04-28T07:15:48.000Z</time>
      </trkpt>
      <trkpt lat="48.04775" lon="6.56089">
        <ele>570</ele>
        <time>2018-04-28T07:15:49.000Z</time>
      </trkpt>
      <trkpt lat="48.04777" lon="6.56088">
        <ele>570</ele>
        <time>2018-04-28T07:15:50.000Z</time>
      </trkpt>
      <trkpt lat="48.04778" lon="6.56086">
        <ele>571</ele>
        <time>2018-04-28T07:15:51.000Z</time>
      </trkpt>
      <trkpt lat="48.04779" lon="6.56084">
        <ele>571</ele>
        <time>2018-04-28T07:15:52.000Z</time>
      </trkpt>
      <trkpt lat="48.04781" lon="6.56083">
        <ele>562</ele>
        <time>2018-04-28T07:15:53.000Z</time>
      </trkpt>
      <trkpt lat="48.04782" lon="6.56081">
        <ele>562</ele>
        <time>2018-04-28T07:15:54.000Z</time>
      </trkpt>
      <trkpt lat="48.04784" lon="6.56079">
        <ele>562</ele>
        <time>2018-04-28T07:15:55.000Z</time>
      </trkpt>
      <trkpt lat="48.04785" lon="6.56078">
        <ele>563</ele>
        <time>2018-04-28T07:15:56.000Z</time>
      </trkpt>
      <trkpt lat="48.04786" lon="6.56076">
        <ele>563</ele>
        <time>2018-04-28T07:15:57.000Z</time>
      </trkpt>
      <trkpt lat="48.04787" lon="6.56075">
        <ele>563</ele>
        <time>2018-04-28T07:15:58.000Z</time>
      </trkpt>
      <trkpt lat="48.04788" lon="6.56074">
        <ele>563</ele>
        <time>2018-04-28T07:15:59.000Z</time>
      </trkpt>
      <trkpt lat="48.04789" lon="6.56072">
        <ele>563</ele>
        <time>2018-04-28T07:16:00.000Z</time>
      </trkpt>
      <trkpt lat="48.04791" lon="6.56071">
        <ele>563</ele>
        <time>2018-04-28T07:16:01.000Z</time>
      </trkpt>
      <trkpt lat="48.04792" lon="6.5607">
        <ele>563</ele>
        <time>2018-04-28T07:16:02.000Z</time>
      </trkpt>
      <trkpt lat="48.04793" lon="6.56068">
        <ele>563</ele>
        <time>2018-04-28T07:16:03.000Z</time>
      </trkpt>
      <trkpt lat="48.04794" lon="6.56067">
        <ele>564</ele>
        <time>2018-04-28T07:16:04.000Z</time>
      </trkpt>
      <trkpt lat="48.04795" lon="6.56066">
        <ele>564</ele>
        <time>2018-04-28T07:16:05.000Z</time>
      </trkpt>
      <trkpt lat="48.04797" lon="6.56064">
        <ele>564</ele>
        <time>2018-04-28T07:16:06.000Z</time>
      </trkpt>
      <trkpt lat="48.04798" lon="6.56062">
        <ele>564</ele>
        <time>2018-04-28T07:16:07.000Z</time>
      </trkpt>
      <trkpt lat="48.04799" lon="6.56061">
        <ele>564</ele>
        <time>2018-04-28T07:16:08.000Z</time>
      </trkpt>
      <trkpt lat="48.04801" lon="6.5606">
        <ele>564</ele>
        <time>2018-04-28T07:16:09.000Z</time>
      </trkpt>
      <trkpt lat="48.04802" lon="6.56059">
        <ele>564</ele>
        <time>2018-04-28T07:16:10.000Z</time>
      </trkpt>
      <trkpt lat="48.04803" lon="6.56057">
        <ele>564</ele>
        <time>2018-04-28T07:16:11.000Z</time>
      </trkpt>
      <trkpt lat="48.04804" lon="6.56056">
        <ele>564</ele>
        <time>2018-04-28T07:16:12.000Z</time>
      </trkpt>
      <trkpt lat="48.04806" lon="6.56055">
        <ele>564</ele>
        <time>2018-04-28T07:16:13.000Z</time>
      </trkpt>
      <trkpt lat="48.04807" lon="6.56053">
        <ele>564</ele>
        <time>2018-04-28T07:16:14.000Z</time>
      </trkpt>
      <trkpt lat="48.04808" lon="6.56051">
        <ele>564</ele>
        <time>2018-04-28T07:16:15.000Z</time>
      </trkpt>
      <trkpt lat="48.04809" lon="6.5605">
        <ele>564</ele>
        <time>2018-04-28T07:16:16.000Z</time>
      </trkpt>
      <trkpt lat="48.04811" lon="6.56048">
        <ele>564</ele>
        <time>2018-04-28T07:16:17.000Z</time>
      </trkpt>
      <trkpt lat="48.04812" lon="6.56046">
        <ele>564</ele>
        <time>2018-04-28T07:16:18.000Z</time>
      </trkpt>
      <trkpt lat="48.04813" lon="6.56044">
        <ele>564</ele>
        <time>2018-04-28T07:16:19.000Z</time>
      </trkpt>
      <trkpt lat="48.04814" lon="6.56042">
        <ele>564</ele>
        <time>2018-04-28T07:16:20.000Z</time>
      </trkpt>
      <trkpt lat="48.04815" lon="6.5604">
        <ele>564</ele>
        <time>2018-04-28T07:16:21.000Z</time>
      </trkpt>
      <trkpt lat="48.04817" lon="6.56039">
        <ele>564</ele>
        <time>2018-04-28T07:16:22.000Z</time>
      </trkpt>
      <trkpt lat="48.04818" lon="6.56037">
        <ele>564</ele>
        <time>2018-04-28T07:16:23.000Z</time>
      </trkpt>
      <trkpt lat="48.04819" lon="6.56036">
        <ele>564</ele>
        <time>2018-04-28T07:16:24.000Z</time>
      </trkpt>
      <trkpt lat="48.04821" lon="6.56035">
        <ele>564</ele>
        <time>2018-04-28T07:16:25.000Z</time>
      </trkpt>
      <trkpt lat="48.04822" lon="6.56033">
        <ele>564</ele>
        <time>2018-04-28T07:16:26.000Z</time>
      </trkpt>
      <trkpt lat="48.04823" lon="6.56032">
        <ele>564</ele>
        <time>2018-04-28T07:16:27.000Z</time>
      </trkpt>
      <trkpt lat="48.04824" lon="6.56031">
        <ele>564</ele>
        <time>2018-04-28T07:16:28.000Z</time>
      </trkpt>
      <trkpt lat="48.04825" lon="6.56029">
        <ele>564</ele>
        <time>2018-04-28T07:16:29.000Z</time>
      </trkpt>
      <trkpt lat="48.04827" lon="6.56028">
        <ele>564</ele>
        <time>2018-04-28T07:16:30.000Z</time>
      </trkpt>
      <trkpt lat="48.04828" lon="6.56027">
        <ele>564</ele>
        <time>2018-04-28T07:16:31.000Z</time>
      </trkpt>
      <trkpt lat="48.04829" lon="6.56026">
        <ele>564</ele>
        <time>2018-04-28T07:16:32.000Z</time>
      </trkpt>
      <trkpt lat="48.0483" lon="6.56025">
        <ele>564</ele>
        <time>2018-04-28T07:16:33.000Z</time>
      </trkpt>
      <trkpt lat="48.04831" lon="6.56023">
        <ele>564</ele>
        <time>2018-04-28T07:16:34.000Z</time>
      </trkpt>
      <trkpt lat="48.04832" lon="6.56022">
        <ele>565</ele>
        <time>2018-04-28T07:16:35.000Z</time>
      </trkpt>
      <trkpt lat="48.04833" lon="6.56021">
        <ele>565</ele>
        <time>2018-04-28T07:16:36.000Z</time>
      </trkpt>
      <trkpt lat="48.04834" lon="6.56019">
        <ele>574</ele>
        <time>2018-04-28T07:16:37.000Z</time>
      </trkpt>
      <trkpt lat="48.04835" lon="6.56018">
        <ele>574</ele>
        <time>2018-04-28T07:16:38.000Z</time>
      </trkpt>
      <trkpt lat="48.04837" lon="6.56016">
        <ele>573</ele>
        <time>2018-04-28T07:16:39.000Z</time>
      </trkpt>
      <trkpt lat="48.04838" lon="6.56015">
        <ele>573</ele>
        <time>2018-04-28T07:16:40.000Z</time>
      </trkpt>
      <trkpt lat="48.04839" lon="6.56014">
        <ele>573</ele>
        <time>2018-04-28T07:16:41.000Z</time>
      </trkpt>
      <trkpt lat="48.04841" lon="6.56013">
        <ele>573</ele>
        <time>2018-04-28T07:16:42.000Z</time>
      </trkpt>
      <trkpt lat="48.04842" lon="6.56012">
        <ele>573</ele>
        <time>2018-04-28T07:16:43.000Z</time>
      </trkpt>
      <trkpt lat="48.04843" lon="6.56011">
        <ele>573</ele>
        <time>2018-04-28T07:16:44.000Z</time>
      </trkpt>
      <trkpt lat="48.04844" lon="6.56009">
        <ele>573</ele>
        <time>2018-04-28T07:16:45.000Z</time>
      </trkpt>
      <trkpt lat="48.04845" lon="6.56008">
        <ele>573</ele>
        <time>2018-04-28T07:16:46.000Z</time>
      </trkpt>
      <trkpt lat="48.04847" lon="6.56006">
        <ele>573</ele>
        <time>2018-04-28T07:16:47.000Z</time>
      </trkpt>
      <trkpt lat="48.04848" lon="6.56005">
        <ele>573</ele>
        <time>2018-04-28T07:16:48.000Z</time>
      </trkpt>
      <trkpt lat="48.04849" lon="6.56004">
        <ele>574</ele>
        <time>2018-04-28T07:16:49.000Z</time>
      </trkpt>
      <trkpt lat="48.04851" lon="6.56003">
        <ele>574</ele>
        <time>2018-04-28T07:16:50.000Z</time>
      </trkpt>
      <trkpt lat="48.04852" lon="6.56002">
        <ele>574</ele>
        <time>2018-04-28T07:16:51.000Z</time>
      </trkpt>
      <trkpt lat="48.04853" lon="6.56001">
        <ele>574</ele>
        <time>2018-04-28T07:16:52.000Z</time>
      </trkpt>
      <trkpt lat="48.04854" lon="6.56">
        <ele>570</ele>
        <time>2018-04-28T07:16:53.000Z</time>
      </trkpt>
      <trkpt lat="48.04855" lon="6.55999">
        <ele>570</ele>
        <time>2018-04-28T07:16:54.000Z</time>
      </trkpt>
      <trkpt lat="48.04857" lon="6.55998">
        <ele>570</ele>
        <time>2018-04-28T07:16:55.000Z</time>
      </trkpt>
      <trkpt lat="48.04858" lon="6.55998">
        <ele>571</ele>
        <time>2018-04-28T07:16:56.000Z</time>
      </trkpt>
      <trkpt lat="48.04859" lon="6.55997">
        <ele>571</ele>
        <time>2018-04-28T07:16:57.000Z</time>
      </trkpt>
      <trkpt lat="48.0486" lon="6.55996">
        <ele>571</ele>
        <time>2018-04-28T07:16:58.000Z</time>
      </trkpt>
      <trkpt lat="48.04861" lon="6.55995">
        <ele>571</ele>
        <time>2018-04-28T07:16:59.000Z</time>
      </trkpt>
      <trkpt lat="48.04863" lon="6.55994">
        <ele>571</ele>
        <time>2018-04-28T07:17:00.000Z</time>
      </trkpt>
      <trkpt lat="48.04864" lon="6.55993">
        <ele>571</ele>
        <time>2018-04-28T07:17:01.000Z</time>
      </trkpt>
      <trkpt lat="48.04865" lon="6.55991">
        <ele>572</ele>
        <time>2018-04-28T07:17:02.000Z</time>
      </trkpt>
      <trkpt lat="48.04866" lon="6.5599">
        <ele>572</ele>
        <time>2018-04-28T07:17:03.000Z</time>
      </trkpt>
      <trkpt lat="48.04867" lon="6.55989">
        <ele>572</ele>
        <time>2018-04-28T07:17:04.000Z</time>
      </trkpt>
      <trkpt lat="48.04868" lon="6.55988">
        <ele>572</ele>
        <time>2018-04-28T07:17:05.000Z</time>
      </trkpt>
      <trkpt lat="48.04869" lon="6.55987">
        <ele>572</ele>
        <time>2018-04-28T07:17:06.000Z</time>
      </trkpt>
      <trkpt lat="48.0487" lon="6.55986">
        <ele>572</ele>
        <time>2018-04-28T07:17:07.000Z</time>
      </trkpt>
      <trkpt lat="48.04871" lon="6.55985">
        <ele>572</ele>
        <time>2018-04-28T07:17:08.000Z</time>
      </trkpt>
      <trkpt lat="48.04872" lon="6.55984">
        <ele>572</ele>
        <time>2018-04-28T07:17:09.000Z</time>
      </trkpt>
      <trkpt lat="48.04873" lon="6.55983">
        <ele>572</ele>
        <time>2018-04-28T07:17:10.000Z</time>
      </trkpt>
      <trkpt lat="48.04873" lon="6.55982">
        <ele>572</ele>
        <time>2018-04-28T07:17:11.000Z</time>
      </trkpt>
      <trkpt lat="48.04874" lon="6.55981">
        <ele>572</ele>
        <time>2018-04-28T07:17:12.000Z</time>
      </trkpt>
      <trkpt lat="48.04874" lon="6.55981">
        <ele>572</ele>
        <time>2018-04-28T07:17:13.000Z</time>
      </trkpt>
      <trkpt lat="48.04875" lon="6.5598">
        <ele>573</ele>
        <time>2018-04-28T07:17:14.000Z</time>
      </trkpt>
      <trkpt lat="48.04876" lon="6.55978">
        <ele>573</ele>
        <time>2018-04-28T07:17:15.000Z</time>
      </trkpt>
      <trkpt lat="48.04877" lon="6.55977">
        <ele>573</ele>
        <time>2018-04-28T07:17:16.000Z</time>
      </trkpt>
      <trkpt lat="48.04878" lon="6.55976">
        <ele>573</ele>
        <time>2018-04-28T07:17:17.000Z</time>
      </trkpt>
      <trkpt lat="48.04879" lon="6.55974">
        <ele>573</ele>
        <time>2018-04-28T07:17:18.000Z</time>
      </trkpt>
      <trkpt lat="48.0488" lon="6.55973">
        <ele>573</ele>
        <time>2018-04-28T07:17:19.000Z</time>
      </trkpt>
      <trkpt lat="48.04881" lon="6.55972">
        <ele>573</ele>
        <time>2018-04-28T07:17:20.000Z</time>
      </trkpt>
      <trkpt lat="48.04882" lon="6.5597">
        <ele>573</ele>
        <time>2018-04-28T07:17:21.000Z</time>
      </trkpt>
      <trkpt lat="48.04883" lon="6.55969">
        <ele>573</ele>
        <time>2018-04-28T07:17:22.000Z</time>
      </trkpt>
      <trkpt lat="48.04884" lon="6.55967">
        <ele>573</ele>
        <time>2018-04-28T07:17:23.000Z</time>
      </trkpt>
      <trkpt lat="48.04885" lon="6.55966">
        <ele>573</ele>
        <time>2018-04-28T07:17:24.000Z</time>
      </trkpt>
      <trkpt lat="48.04886" lon="6.55965">
        <ele>573</ele>
        <time>2018-04-28T07:17:25.000Z</time>
      </trkpt>
      <trkpt lat="48.04887" lon="6.55963">
        <ele>573</ele>
        <time>2018-04-28T07:17:26.000Z</time>
      </trkpt>
      <trkpt lat="48.04888" lon="6.55962">
        <ele>573</ele>
        <time>2018-04-28T07:17:27.000Z</time>
      </trkpt>
      <trkpt lat="48.04889" lon="6.55961">
        <ele>573</ele>
        <time>2018-04-28T07:17:28.000Z</time>
      </trkpt>
      <trkpt lat="48.04889" lon="6.5596">
        <ele>573</ele>
        <time>2018-04-28T07:17:29.000Z</time>
      </trkpt>
      <trkpt lat="48.0489" lon="6.55959">
        <ele>573</ele>
        <time>2018-04-28T07:17:30.000Z</time>
      </trkpt>
      <trkpt lat="48.04891" lon="6.55958">
        <ele>573</ele>
        <time>2018-04-28T07:17:31.000Z</time>
      </trkpt>
      <trkpt lat="48.04892" lon="6.55956">
        <ele>573</ele>
        <time>2018-04-28T07:17:32.000Z</time>
      </trkpt>
      <trkpt lat="48.04893" lon="6.55955">
        <ele>573</ele>
        <time>2018-04-28T07:17:33.000Z</time>
      </trkpt>
      <trkpt lat="48.04894" lon="6.55953">
        <ele>573</ele>
        <time>2018-04-28T07:17:34.000Z</time>
      </trkpt>
      <trkpt lat="48.04895" lon="6.55952">
        <ele>573</ele>
        <time>2018-04-28T07:17:35.000Z</time>
      </trkpt>
      <trkpt lat="48.04896" lon="6.5595">
        <ele>573</ele>
        <time>2018-04-28T07:17:36.000Z</time>
      </trkpt>
      <trkpt lat="48.04897" lon="6.55948">
        <ele>573</ele>
        <time>2018-04-28T07:17:37.000Z</time>
      </trkpt>
      <trkpt lat="48.04898" lon="6.55946">
        <ele>573</ele>
        <time>2018-04-28T07:17:38.000Z</time>
      </trkpt>
      <trkpt lat="48.04899" lon="6.55945">
        <ele>573</ele>
        <time>2018-04-28T07:17:39.000Z</time>
      </trkpt>
      <trkpt lat="48.04901" lon="6.55943">
        <ele>573</ele>
        <time>2018-04-28T07:17:40.000Z</time>
      </trkpt>
      <trkpt lat="48.04902" lon="6.55941">
        <ele>573</ele>
        <time>2018-04-28T07:17:41.000Z</time>
      </trkpt>
      <trkpt lat="48.04903" lon="6.55939">
        <ele>573</ele>
        <time>2018-04-28T07:17:42.000Z</time>
      </trkpt>
      <trkpt lat="48.04904" lon="6.55938">
        <ele>573</ele>
        <time>2018-04-28T07:17:43.000Z</time>
      </trkpt>
      <trkpt lat="48.04905" lon="6.55936">
        <ele>573</ele>
        <time>2018-04-28T07:17:44.000Z</time>
      </trkpt>
      <trkpt lat="48.04906" lon="6.55935">
        <ele>573</ele>
        <time>2018-04-28T07:17:45.000Z</time>
      </trkpt>
      <trkpt lat="48.04906" lon="6.55933">
        <ele>573</ele>
        <time>2018-04-28T07:17:46.000Z</time>
      </trkpt>
      <trkpt lat="48.04907" lon="6.55932">
        <ele>573</ele>
        <time>2018-04-28T07:17:47.000Z</time>
      </trkpt>
      <trkpt lat="48.04908" lon="6.55931">
        <ele>574</ele>
        <time>2018-04-28T07:17:48.000Z</time>
      </trkpt>
      <trkpt lat="48.04909" lon="6.55929">
        <ele>574</ele>
        <time>2018-04-28T07:17:49.000Z</time>
      </trkpt>
      <trkpt lat="48.0491" lon="6.55928">
        <ele>574</ele>
        <time>2018-04-28T07:17:50.000Z</time>
      </trkpt>
      <trkpt lat="48.04911" lon="6.55926">
        <ele>574</ele>
        <time>2018-04-28T07:17:51.000Z</time>
      </trkpt>
      <trkpt lat="48.04912" lon="6.55925">
        <ele>574</ele>
        <time>2018-04-28T07:17:52.000Z</time>
      </trkpt>
      <trkpt lat="48.04913" lon="6.55924">
        <ele>574</ele>
        <time>2018-04-28T07:17:53.000Z</time>
      </trkpt>
      <trkpt lat="48.04915" lon="6.55922">
        <ele>574</ele>
        <time>2018-04-28T07:17:54.000Z</time>
      </trkpt>
      <trkpt lat="48.04916" lon="6.55921">
        <ele>574</ele>
        <time>2018-04-28T07:17:55.000Z</time>
      </trkpt>
      <trkpt lat="48.04917" lon="6.5592">
        <ele>576</ele>
        <time>2018-04-28T07:17:56.000Z</time>
      </trkpt>
      <trkpt lat="48.04918" lon="6.55918">
        <ele>576</ele>
        <time>2018-04-28T07:17:57.000Z</time>
      </trkpt>
      <trkpt lat="48.04919" lon="6.55918">
        <ele>576</ele>
        <time>2018-04-28T07:17:58.000Z</time>
      </trkpt>
      <trkpt lat="48.0492" lon="6.55917">
        <ele>576</ele>
        <time>2018-04-28T07:17:59.000Z</time>
      </trkpt>
      <trkpt lat="48.04921" lon="6.55916">
        <ele>575</ele>
        <time>2018-04-28T07:18:00.000Z</time>
      </trkpt>
      <trkpt lat="48.04922" lon="6.55915">
        <ele>575</ele>
        <time>2018-04-28T07:18:01.000Z</time>
      </trkpt>
      <trkpt lat="48.04923" lon="6.55915">
        <ele>575</ele>
        <time>2018-04-28T07:18:02.000Z</time>
      </trkpt>
      <trkpt lat="48.04925" lon="6.55914">
        <ele>575</ele>
        <time>2018-04-28T07:18:03.000Z</time>
      </trkpt>
      <trkpt lat="48.04926" lon="6.55912">
        <ele>575</ele>
        <time>2018-04-28T07:18:04.000Z</time>
      </trkpt>
      <trkpt lat="48.04927" lon="6.55911">
        <ele>575</ele>
        <time>2018-04-28T07:18:05.000Z</time>
      </trkpt>
      <trkpt lat="48.04928" lon="6.5591">
        <ele>575</ele>
        <time>2018-04-28T07:18:06.000Z</time>
      </trkpt>
      <trkpt lat="48.04929" lon="6.55908">
        <ele>575</ele>
        <time>2018-04-28T07:18:07.000Z</time>
      </trkpt>
      <trkpt lat="48.04929" lon="6.55908">
        <ele>575</ele>
        <time>2018-04-28T07:18:08.000Z</time>
      </trkpt>
      <trkpt lat="48.04929" lon="6.55907">
        <ele>575</ele>
        <time>2018-04-28T07:18:09.000Z</time>
      </trkpt>
      <trkpt lat="48.0493" lon="6.55906">
        <ele>575</ele>
        <time>2018-04-28T07:18:10.000Z</time>
      </trkpt>
      <trkpt lat="48.04931" lon="6.55905">
        <ele>575</ele>
        <time>2018-04-28T07:18:11.000Z</time>
      </trkpt>
      <trkpt lat="48.04932" lon="6.55904">
        <ele>575</ele>
        <time>2018-04-28T07:18:12.000Z</time>
      </trkpt>
      <trkpt lat="48.04933" lon="6.55904">
        <ele>575</ele>
        <time>2018-04-28T07:18:13.000Z</time>
      </trkpt>
      <trkpt lat="48.04934" lon="6.55903">
        <ele>575</ele>
        <time>2018-04-28T07:18:14.000Z</time>
      </trkpt>
      <trkpt lat="48.04935" lon="6.55902">
        <ele>575</ele>
        <time>2018-04-28T07:18:15.000Z</time>
      </trkpt>
      <trkpt lat="48.04936" lon="6.55901">
        <ele>575</ele>
        <time>2018-04-28T07:18:16.000Z</time>
      </trkpt>
      <trkpt lat="48.04938" lon="6.55901">
        <ele>575</ele>
        <time>2018-04-28T07:18:17.000Z</time>
      </trkpt>
      <trkpt lat="48.04939" lon="6.559">
        <ele>576</ele>
        <time>2018-04-28T07:18:18.000Z</time>
      </trkpt>
      <trkpt lat="48.0494" lon="6.55899">
        <ele>576</ele>
        <time>2018-04-28T07:18:19.000Z</time>
      </trkpt>
      <trkpt lat="48.04942" lon="6.55898">
        <ele>576</ele>
        <time>2018-04-28T07:18:20.000Z</time>
      </trkpt>
      <trkpt lat="48.04943" lon="6.55898">
        <ele>576</ele>
        <time>2018-04-28T07:18:21.000Z</time>
      </trkpt>
      <trkpt lat="48.04944" lon="6.55897">
        <ele>576</ele>
        <time>2018-04-28T07:18:22.000Z</time>
      </trkpt>
      <trkpt lat="48.04945" lon="6.55896">
        <ele>576</ele>
        <time>2018-04-28T07:18:23.000Z</time>
      </trkpt>
      <trkpt lat="48.04947" lon="6.55895">
        <ele>576</ele>
        <time>2018-04-28T07:18:24.000Z</time>
      </trkpt>
      <trkpt lat="48.04948" lon="6.55894">
        <ele>576</ele>
        <time>2018-04-28T07:18:25.000Z</time>
      </trkpt>
      <trkpt lat="48.0495" lon="6.55893">
        <ele>576</ele>
        <time>2018-04-28T07:18:26.000Z</time>
      </trkpt>
      <trkpt lat="48.04951" lon="6.55892">
        <ele>576</ele>
        <time>2018-04-28T07:18:27.000Z</time>
      </trkpt>
      <trkpt lat="48.04953" lon="6.55891">
        <ele>576</ele>
        <time>2018-04-28T07:18:28.000Z</time>
      </trkpt>
      <trkpt lat="48.04955" lon="6.5589">
        <ele>576</ele>
        <time>2018-04-28T07:18:29.000Z</time>
      </trkpt>
      <trkpt lat="48.04956" lon="6.55889">
        <ele>576</ele>
        <time>2018-04-28T07:18:30.000Z</time>
      </trkpt>
      <trkpt lat="48.04958" lon="6.55888">
        <ele>576</ele>
        <time>2018-04-28T07:18:31.000Z</time>
      </trkpt>
      <trkpt lat="48.04959" lon="6.55887">
        <ele>576</ele>
        <time>2018-04-28T07:18:32.000Z</time>
      </trkpt>
      <trkpt lat="48.04961" lon="6.55886">
        <ele>576</ele>
        <time>2018-04-28T07:18:33.000Z</time>
      </trkpt>
      <trkpt lat="48.04962" lon="6.55885">
        <ele>576</ele>
        <time>2018-04-28T07:18:34.000Z</time>
      </trkpt>
      <trkpt lat="48.04963" lon="6.55884">
        <ele>577</ele>
        <time>2018-04-28T07:18:35.000Z</time>
      </trkpt>
      <trkpt lat="48.04965" lon="6.55883">
        <ele>577</ele>
        <time>2018-04-28T07:18:36.000Z</time>
      </trkpt>
      <trkpt lat="48.04966" lon="6.55882">
        <ele>577</ele>
        <time>2018-04-28T07:18:37.000Z</time>
      </trkpt>
      <trkpt lat="48.04968" lon="6.55881">
        <ele>577</ele>
        <time>2018-04-28T07:18:38.000Z</time>
      </trkpt>
      <trkpt lat="48.04969" lon="6.5588">
        <ele>577</ele>
        <time>2018-04-28T07:18:39.000Z</time>
      </trkpt>
      <trkpt lat="48.0497" lon="6.55879">
        <ele>577</ele>
        <time>2018-04-28T07:18:40.000Z</time>
      </trkpt>
      <trkpt lat="48.04971" lon="6.55878">
        <ele>577</ele>
        <time>2018-04-28T07:18:41.000Z</time>
      </trkpt>
      <trkpt lat="48.04973" lon="6.55877">
        <ele>577</ele>
        <time>2018-04-28T07:18:42.000Z</time>
      </trkpt>
      <trkpt lat="48.04974" lon="6.55876">
        <ele>577</ele>
        <time>2018-04-28T07:18:43.000Z</time>
      </trkpt>
      <trkpt lat="48.04976" lon="6.55875">
        <ele>577</ele>
        <time>2018-04-28T07:18:44.000Z</time>
      </trkpt>
      <trkpt lat="48.04977" lon="6.55874">
        <ele>577</ele>
        <time>2018-04-28T07:18:45.000Z</time>
      </trkpt>
      <trkpt lat="48.04978" lon="6.55873">
        <ele>577</ele>
        <time>2018-04-28T07:18:46.000Z</time>
      </trkpt>
      <trkpt lat="48.04979" lon="6.55872">
        <ele>577</ele>
        <time>2018-04-28T07:18:47.000Z</time>
      </trkpt>
      <trkpt lat="48.04981" lon="6.55871">
        <ele>577</ele>
        <time>2018-04-28T07:18:48.000Z</time>
      </trkpt>
      <trkpt lat="48.04982" lon="6.55869">
        <ele>577</ele>
        <time>2018-04-28T07:18:49.000Z</time>
      </trkpt>
      <trkpt lat="48.04983" lon="6.55868">
        <ele>577</ele>
        <time>2018-04-28T07:18:50.000Z</time>
      </trkpt>
      <trkpt lat="48.04985" lon="6.55867">
        <ele>577</ele>
        <time>2018-04-28T07:18:51.000Z</time>
      </trkpt>
      <trkpt lat="48.04987" lon="6.55865">
        <ele>577</ele>
        <time>2018-04-28T07:18:52.000Z</time>
      </trkpt>
      <trkpt lat="48.04988" lon="6.55864">
        <ele>577</ele>
        <time>2018-04-28T07:18:53.000Z</time>
      </trkpt>
      <trkpt lat="48.04989" lon="6.55862">
        <ele>577</ele>
        <time>2018-04-28T07:18:54.000Z</time>
      </trkpt>
      <trkpt lat="48.04991" lon="6.5586">
        <ele>577</ele>
        <time>2018-04-28T07:18:55.000Z</time>
      </trkpt>
      <trkpt lat="48.04992" lon="6.55858">
        <ele>577</ele>
        <time>2018-04-28T07:18:56.000Z</time>
      </trkpt>
      <trkpt lat="48.04994" lon="6.55856">
        <ele>577</ele>
        <time>2018-04-28T07:18:57.000Z</time>
      </trkpt>
      <trkpt lat="48.04995" lon="6.55855">
        <ele>577</ele>
        <time>2018-04-28T07:18:58.000Z</time>
      </trkpt>
      <trkpt lat="48.04996" lon="6.55853">
        <ele>577</ele>
        <time>2018-04-28T07:18:59.000Z</time>
      </trkpt>
      <trkpt lat="48.04998" lon="6.55852">
        <ele>577</ele>
        <time>2018-04-28T07:19:00.000Z</time>
      </trkpt>
      <trkpt lat="48.04999" lon="6.55851">
        <ele>577</ele>
        <time>2018-04-28T07:19:01.000Z</time>
      </trkpt>
      <trkpt lat="48.05" lon="6.5585">
        <ele>582</ele>
        <time>2018-04-28T07:19:02.000Z</time>
      </trkpt>
      <trkpt lat="48.05002" lon="6.55849">
        <ele>581</ele>
        <time>2018-04-28T07:19:03.000Z</time>
      </trkpt>
      <trkpt lat="48.05003" lon="6.55848">
        <ele>581</ele>
        <time>2018-04-28T07:19:04.000Z</time>
      </trkpt>
      <trkpt lat="48.05004" lon="6.55847">
        <ele>581</ele>
        <time>2018-04-28T07:19:05.000Z</time>
      </trkpt>
      <trkpt lat="48.05005" lon="6.55845">
        <ele>581</ele>
        <time>2018-04-28T07:19:06.000Z</time>
      </trkpt>
      <trkpt lat="48.05006" lon="6.55844">
        <ele>581</ele>
        <time>2018-04-28T07:19:07.000Z</time>
      </trkpt>
      <trkpt lat="48.05007" lon="6.55842">
        <ele>580</ele>
        <time>2018-04-28T07:19:08.000Z</time>
      </trkpt>
      <trkpt lat="48.05008" lon="6.55841">
        <ele>580</ele>
        <time>2018-04-28T07:19:09.000Z</time>
      </trkpt>
      <trkpt lat="48.05009" lon="6.55839">
        <ele>580</ele>
        <time>2018-04-28T07:19:10.000Z</time>
      </trkpt>
      <trkpt lat="48.05011" lon="6.55837">
        <ele>581</ele>
        <time>2018-04-28T07:19:11.000Z</time>
      </trkpt>
      <trkpt lat="48.05012" lon="6.55836">
        <ele>581</ele>
        <time>2018-04-28T07:19:12.000Z</time>
      </trkpt>
      <trkpt lat="48.05013" lon="6.55835">
        <ele>581</ele>
        <time>2018-04-28T07:19:13.000Z</time>
      </trkpt>
      <trkpt lat="48.05015" lon="6.55833">
        <ele>578</ele>
        <time>2018-04-28T07:19:14.000Z</time>
      </trkpt>
      <trkpt lat="48.05016" lon="6.55832">
        <ele>578</ele>
        <time>2018-04-28T07:19:15.000Z</time>
      </trkpt>
      <trkpt lat="48.05017" lon="6.55831">
        <ele>578</ele>
        <time>2018-04-28T07:19:16.000Z</time>
      </trkpt>
      <trkpt lat="48.05018" lon="6.5583">
        <ele>578</ele>
        <time>2018-04-28T07:19:17.000Z</time>
      </trkpt>
      <trkpt lat="48.05019" lon="6.55829">
        <ele>578</ele>
        <time>2018-04-28T07:19:18.000Z</time>
      </trkpt>
      <trkpt lat="48.0502" lon="6.55827">
        <ele>578</ele>
        <time>2018-04-28T07:19:19.000Z</time>
      </trkpt>
      <trkpt lat="48.05021" lon="6.55826">
        <ele>579</ele>
        <time>2018-04-28T07:19:20.000Z</time>
      </trkpt>
      <trkpt lat="48.05022" lon="6.55824">
        <ele>579</ele>
        <time>2018-04-28T07:19:21.000Z</time>
      </trkpt>
      <trkpt lat="48.05023" lon="6.55822">
        <ele>579</ele>
        <time>2018-04-28T07:19:22.000Z</time>
      </trkpt>
      <trkpt lat="48.05024" lon="6.55821">
        <ele>579</ele>
        <time>2018-04-28T07:19:23.000Z</time>
      </trkpt>
      <trkpt lat="48.05025" lon="6.55819">
        <ele>579</ele>
        <time>2018-04-28T07:19:24.000Z</time>
      </trkpt>
      <trkpt lat="48.05027" lon="6.55818">
        <ele>579</ele>
        <time>2018-04-28T07:19:25.000Z</time>
      </trkpt>
      <trkpt lat="48.05028" lon="6.55817">
        <ele>579</ele>
        <time>2018-04-28T07:19:26.000Z</time>
      </trkpt>
      <trkpt lat="48.05029" lon="6.55815">
        <ele>579</ele>
        <time>2018-04-28T07:19:27.000Z</time>
      </trkpt>
      <trkpt lat="48.0503" lon="6.55814">
        <ele>579</ele>
        <time>2018-04-28T07:19:28.000Z</time>
      </trkpt>
      <trkpt lat="48.05031" lon="6.55812">
        <ele>579</ele>
        <time>2018-04-28T07:19:29.000Z</time>
      </trkpt>
      <trkpt lat="48.05033" lon="6.55811">
        <ele>579</ele>
        <time>2018-04-28T07:19:30.000Z</time>
      </trkpt>
      <trkpt lat="48.05034" lon="6.55809">
        <ele>579</ele>
        <time>2018-04-28T07:19:31.000Z</time>
      </trkpt>
      <trkpt lat="48.05035" lon="6.55807">
        <ele>579</ele>
        <time>2018-04-28T07:19:32.000Z</time>
      </trkpt>
      <trkpt lat="48.05036" lon="6.55806">
        <ele>579</ele>
        <time>2018-04-28T07:19:33.000Z</time>
      </trkpt>
      <trkpt lat="48.05037" lon="6.55804">
        <ele>579</ele>
        <time>2018-04-28T07:19:34.000Z</time>
      </trkpt>
      <trkpt lat="48.05039" lon="6.55802">
        <ele>579</ele>
        <time>2018-04-28T07:19:35.000Z</time>
      </trkpt>
      <trkpt lat="48.0504" lon="6.558">
        <ele>579</ele>
        <time>2018-04-28T07:19:36.000Z</time>
      </trkpt>
      <trkpt lat="48.05041" lon="6.55799">
        <ele>579</ele>
        <time>2018-04-28T07:19:37.000Z</time>
      </trkpt>
      <trkpt lat="48.05043" lon="6.55797">
        <ele>580</ele>
        <time>2018-04-28T07:19:38.000Z</time>
      </trkpt>
      <trkpt lat="48.05044" lon="6.55795">
        <ele>580</ele>
        <time>2018-04-28T07:19:39.000Z</time>
      </trkpt>
      <trkpt lat="48.05045" lon="6.55794">
        <ele>580</ele>
        <time>2018-04-28T07:19:40.000Z</time>
      </trkpt>
      <trkpt lat="48.05047" lon="6.55792">
        <ele>580</ele>
        <time>2018-04-28T07:19:41.000Z</time>
      </trkpt>
      <trkpt lat="48.05048" lon="6.5579">
        <ele>580</ele>
        <time>2018-04-28T07:19:42.000Z</time>
      </trkpt>
      <trkpt lat="48.05049" lon="6.55787">
        <ele>580</ele>
        <time>2018-04-28T07:19:43.000Z</time>
      </trkpt>
      <trkpt lat="48.0505" lon="6.55785">
        <ele>580</ele>
        <time>2018-04-28T07:19:44.000Z</time>
      </trkpt>
      <trkpt lat="48.05051" lon="6.55783">
        <ele>580</ele>
        <time>2018-04-28T07:19:45.000Z</time>
      </trkpt>
      <trkpt lat="48.05052" lon="6.55781">
        <ele>580</ele>
        <time>2018-04-28T07:19:46.000Z</time>
      </trkpt>
      <trkpt lat="48.05053" lon="6.55779">
        <ele>580</ele>
        <time>2018-04-28T07:19:47.000Z</time>
      </trkpt>
      <trkpt lat="48.05054" lon="6.55776">
        <ele>580</ele>
        <time>2018-04-28T07:19:48.000Z</time>
      </trkpt>
      <trkpt lat="48.05055" lon="6.55774">
        <ele>580</ele>
        <time>2018-04-28T07:19:49.000Z</time>
      </trkpt>
      <trkpt lat="48.05055" lon="6.55773">
        <ele>580</ele>
        <time>2018-04-28T07:19:50.000Z</time>
      </trkpt>
      <trkpt lat="48.05056" lon="6.55771">
        <ele>580</ele>
        <time>2018-04-28T07:19:51.000Z</time>
      </trkpt>
      <trkpt lat="48.05057" lon="6.55769">
        <ele>580</ele>
        <time>2018-04-28T07:19:52.000Z</time>
      </trkpt>
      <trkpt lat="48.05058" lon="6.55768">
        <ele>580</ele>
        <time>2018-04-28T07:19:53.000Z</time>
      </trkpt>
      <trkpt lat="48.05058" lon="6.55766">
        <ele>580</ele>
        <time>2018-04-28T07:19:54.000Z</time>
      </trkpt>
      <trkpt lat="48.0506" lon="6.55764">
        <ele>581</ele>
        <time>2018-04-28T07:19:55.000Z</time>
      </trkpt>
      <trkpt lat="48.05061" lon="6.55762">
        <ele>581</ele>
        <time>2018-04-28T07:19:56.000Z</time>
      </trkpt>
      <trkpt lat="48.05062" lon="6.5576">
        <ele>581</ele>
        <time>2018-04-28T07:19:57.000Z</time>
      </trkpt>
      <trkpt lat="48.05063" lon="6.55758">
        <ele>581</ele>
        <time>2018-04-28T07:19:58.000Z</time>
      </trkpt>
      <trkpt lat="48.05064" lon="6.55756">
        <ele>581</ele>
        <time>2018-04-28T07:19:59.000Z</time>
      </trkpt>
      <trkpt lat="48.05064" lon="6.55754">
        <ele>581</ele>
        <time>2018-04-28T07:20:00.000Z</time>
      </trkpt>
      <trkpt lat="48.05065" lon="6.55752">
        <ele>581</ele>
        <time>2018-04-28T07:20:01.000Z</time>
      </trkpt>
      <trkpt lat="48.05066" lon="6.55749">
        <ele>579</ele>
        <time>2018-04-28T07:20:02.000Z</time>
      </trkpt>
      <trkpt lat="48.05067" lon="6.55747">
        <ele>579</ele>
        <time>2018-04-28T07:20:03.000Z</time>
      </trkpt>
      <trkpt lat="48.05067" lon="6.55745">
        <ele>579</ele>
        <time>2018-04-28T07:20:04.000Z</time>
      </trkpt>
      <trkpt lat="48.05068" lon="6.55743">
        <ele>579</ele>
        <time>2018-04-28T07:20:05.000Z</time>
      </trkpt>
      <trkpt lat="48.05069" lon="6.55741">
        <ele>579</ele>
        <time>2018-04-28T07:20:06.000Z</time>
      </trkpt>
      <trkpt lat="48.0507" lon="6.55739">
        <ele>579</ele>
        <time>2018-04-28T07:20:07.000Z</time>
      </trkpt>
      <trkpt lat="48.05071" lon="6.55736">
        <ele>579</ele>
        <time>2018-04-28T07:20:08.000Z</time>
      </trkpt>
      <trkpt lat="48.05072" lon="6.55734">
        <ele>579</ele>
        <time>2018-04-28T07:20:09.000Z</time>
      </trkpt>
      <trkpt lat="48.05072" lon="6.55731">
        <ele>579</ele>
        <time>2018-04-28T07:20:10.000Z</time>
      </trkpt>
      <trkpt lat="48.05073" lon="6.55729">
        <ele>578</ele>
        <time>2018-04-28T07:20:11.000Z</time>
      </trkpt>
      <trkpt lat="48.05074" lon="6.55727">
        <ele>578</ele>
        <time>2018-04-28T07:20:12.000Z</time>
      </trkpt>
      <trkpt lat="48.05075" lon="6.55725">
        <ele>578</ele>
        <time>2018-04-28T07:20:13.000Z</time>
      </trkpt>
      <trkpt lat="48.05075" lon="6.55723">
        <ele>578</ele>
        <time>2018-04-28T07:20:14.000Z</time>
      </trkpt>
      <trkpt lat="48.05076" lon="6.5572">
        <ele>578</ele>
        <time>2018-04-28T07:20:15.000Z</time>
      </trkpt>
      <trkpt lat="48.05077" lon="6.55718">
        <ele>577</ele>
        <time>2018-04-28T07:20:16.000Z</time>
      </trkpt>
      <trkpt lat="48.05078" lon="6.55716">
        <ele>577</ele>
        <time>2018-04-28T07:20:17.000Z</time>
      </trkpt>
      <trkpt lat="48.05079" lon="6.55714">
        <ele>577</ele>
        <time>2018-04-28T07:20:18.000Z</time>
      </trkpt>
      <trkpt lat="48.0508" lon="6.55712">
        <ele>577</ele>
        <time>2018-04-28T07:20:19.000Z</time>
      </trkpt>
      <trkpt lat="48.05081" lon="6.5571">
        <ele>577</ele>
        <time>2018-04-28T07:20:20.000Z</time>
      </trkpt>
      <trkpt lat="48.05081" lon="6.55708">
        <ele>577</ele>
        <time>2018-04-28T07:20:21.000Z</time>
      </trkpt>
      <trkpt lat="48.05082" lon="6.55707">
        <ele>577</ele>
        <time>2018-04-28T07:20:22.000Z</time>
      </trkpt>
      <trkpt lat="48.05083" lon="6.55705">
        <ele>577</ele>
        <time>2018-04-28T07:20:23.000Z</time>
      </trkpt>
      <trkpt lat="48.05084" lon="6.55703">
        <ele>588</ele>
        <time>2018-04-28T07:20:24.000Z</time>
      </trkpt>
      <trkpt lat="48.05085" lon="6.55701">
        <ele>588</ele>
        <time>2018-04-28T07:20:25.000Z</time>
      </trkpt>
      <trkpt lat="48.05085" lon="6.557">
        <ele>588</ele>
        <time>2018-04-28T07:20:26.000Z</time>
      </trkpt>
      <trkpt lat="48.05086" lon="6.55698">
        <ele>587</ele>
        <time>2018-04-28T07:20:27.000Z</time>
      </trkpt>
      <trkpt lat="48.05087" lon="6.55695">
        <ele>587</ele>
        <time>2018-04-28T07:20:28.000Z</time>
      </trkpt>
      <trkpt lat="48.05087" lon="6.55693">
        <ele>587</ele>
        <time>2018-04-28T07:20:29.000Z</time>
      </trkpt>
      <trkpt lat="48.05088" lon="6.55691">
        <ele>587</ele>
        <time>2018-04-28T07:20:30.000Z</time>
      </trkpt>
      <trkpt lat="48.05089" lon="6.55689">
        <ele>587</ele>
        <time>2018-04-28T07:20:31.000Z</time>
      </trkpt>
      <trkpt lat="48.0509" lon="6.55687">
        <ele>586</ele>
        <time>2018-04-28T07:20:32.000Z</time>
      </trkpt>
      <trkpt lat="48.05091" lon="6.55685">
        <ele>586</ele>
        <time>2018-04-28T07:20:33.000Z</time>
      </trkpt>
      <trkpt lat="48.05092" lon="6.55684">
        <ele>586</ele>
        <time>2018-04-28T07:20:34.000Z</time>
      </trkpt>
      <trkpt lat="48.05093" lon="6.55682">
        <ele>586</ele>
        <time>2018-04-28T07:20:35.000Z</time>
      </trkpt>
      <trkpt lat="48.05094" lon="6.5568">
        <ele>586</ele>
        <time>2018-04-28T07:20:36.000Z</time>
      </trkpt>
      <trkpt lat="48.05094" lon="6.55678">
        <ele>586</ele>
        <time>2018-04-28T07:20:37.000Z</time>
      </trkpt>
      <trkpt lat="48.05095" lon="6.55676">
        <ele>586</ele>
        <time>2018-04-28T07:20:38.000Z</time>
      </trkpt>
      <trkpt lat="48.05096" lon="6.55675">
        <ele>585</ele>
        <time>2018-04-28T07:20:39.000Z</time>
      </trkpt>
      <trkpt lat="48.05096" lon="6.55673">
        <ele>585</ele>
        <time>2018-04-28T07:20:40.000Z</time>
      </trkpt>
      <trkpt lat="48.05097" lon="6.55671">
        <ele>585</ele>
        <time>2018-04-28T07:20:41.000Z</time>
      </trkpt>
      <trkpt lat="48.05097" lon="6.55669">
        <ele>585</ele>
        <time>2018-04-28T07:20:42.000Z</time>
      </trkpt>
      <trkpt lat="48.05098" lon="6.55667">
        <ele>586</ele>
        <time>2018-04-28T07:20:43.000Z</time>
      </trkpt>
      <trkpt lat="48.05099" lon="6.55665">
        <ele>584</ele>
        <time>2018-04-28T07:20:44.000Z</time>
      </trkpt>
      <trkpt lat="48.05099" lon="6.55663">
        <ele>584</ele>
        <time>2018-04-28T07:20:45.000Z</time>
      </trkpt>
      <trkpt lat="48.051" lon="6.55661">
        <ele>584</ele>
        <time>2018-04-28T07:20:46.000Z</time>
      </trkpt>
      <trkpt lat="48.051" lon="6.55659">
        <ele>585</ele>
        <time>2018-04-28T07:20:47.000Z</time>
      </trkpt>
      <trkpt lat="48.05101" lon="6.55657">
        <ele>585</ele>
        <time>2018-04-28T07:20:48.000Z</time>
      </trkpt>
      <trkpt lat="48.05101" lon="6.55655">
        <ele>585</ele>
        <time>2018-04-28T07:20:49.000Z</time>
      </trkpt>
      <trkpt lat="48.05102" lon="6.55653">
        <ele>585</ele>
        <time>2018-04-28T07:20:50.000Z</time>
      </trkpt>
      <trkpt lat="48.05102" lon="6.55651">
        <ele>585</ele>
        <time>2018-04-28T07:20:51.000Z</time>
      </trkpt>
      <trkpt lat="48.05102" lon="6.55649">
        <ele>585</ele>
        <time>2018-04-28T07:20:52.000Z</time>
      </trkpt>
      <trkpt lat="48.05103" lon="6.55648">
        <ele>585</ele>
        <time>2018-04-28T07:20:53.000Z</time>
      </trkpt>
      <trkpt lat="48.05103" lon="6.55646">
        <ele>585</ele>
        <time>2018-04-28T07:20:54.000Z</time>
      </trkpt>
      <trkpt lat="48.05104" lon="6.55645">
        <ele>585</ele>
        <time>2018-04-28T07:20:55.000Z</time>
      </trkpt>
      <trkpt lat="48.05104" lon="6.55643">
        <ele>585</ele>
        <time>2018-04-28T07:20:56.000Z</time>
      </trkpt>
      <trkpt lat="48.05104" lon="6.55642">
        <ele>585</ele>
        <time>2018-04-28T07:20:57.000Z</time>
      </trkpt>
      <trkpt lat="48.05104" lon="6.55641">
        <ele>585</ele>
        <time>2018-04-28T07:20:58.000Z</time>
      </trkpt>
      <trkpt lat="48.05104" lon="6.5564">
        <ele>585</ele>
        <time>2018-04-28T07:20:59.000Z</time>
      </trkpt>
      <trkpt lat="48.05104" lon="6.55638">
        <ele>586</ele>
        <time>2018-04-28T07:21:00.000Z</time>
      </trkpt>
      <trkpt lat="48.05104" lon="6.55637">
        <ele>586</ele>
        <time>2018-04-28T07:21:01.000Z</time>
      </trkpt>
      <trkpt lat="48.05104" lon="6.55635">
        <ele>586</ele>
        <time>2018-04-28T07:21:02.000Z</time>
      </trkpt>
      <trkpt lat="48.05104" lon="6.55634">
        <ele>585</ele>
        <time>2018-04-28T07:21:03.000Z</time>
      </trkpt>
      <trkpt lat="48.05104" lon="6.55632">
        <ele>585</ele>
        <time>2018-04-28T07:21:04.000Z</time>
      </trkpt>
      <trkpt lat="48.05104" lon="6.55631">
        <ele>585</ele>
        <time>2018-04-28T07:21:05.000Z</time>
      </trkpt>
      <trkpt lat="48.05104" lon="6.5563">
        <ele>585</ele>
        <time>2018-04-28T07:21:06.000Z</time>
      </trkpt>
      <trkpt lat="48.05104" lon="6.55629">
        <ele>585</ele>
        <time>2018-04-28T07:21:07.000Z</time>
      </trkpt>
      <trkpt lat="48.05104" lon="6.55628">
        <ele>585</ele>
        <time>2018-04-28T07:21:08.000Z</time>
      </trkpt>
      <trkpt lat="48.05104" lon="6.55628">
        <ele>585</ele>
        <time>2018-04-28T07:21:09.000Z</time>
      </trkpt>
      <trkpt lat="48.05104" lon="6.55627">
        <ele>585</ele>
        <time>2018-04-28T07:21:10.000Z</time>
      </trkpt>
      <trkpt lat="48.05104" lon="6.55627">
        <ele>585</ele>
        <time>2018-04-28T07:21:11.000Z</time>
      </trkpt>
      <trkpt lat="48.05103" lon="6.55625">
        <ele>585</ele>
        <time>2018-04-28T07:21:12.000Z</time>
      </trkpt>
      <trkpt lat="48.05102" lon="6.55623">
        <ele>585</ele>
        <time>2018-04-28T07:21:13.000Z</time>
      </trkpt>
      <trkpt lat="48.05102" lon="6.55621">
        <ele>585</ele>
        <time>2018-04-28T07:21:14.000Z</time>
      </trkpt>
      <trkpt lat="48.05101" lon="6.5562">
        <ele>585</ele>
        <time>2018-04-28T07:21:15.000Z</time>
      </trkpt>
      <trkpt lat="48.05101" lon="6.55619">
        <ele>585</ele>
        <time>2018-04-28T07:21:16.000Z</time>
      </trkpt>
      <trkpt lat="48.051" lon="6.55617">
        <ele>585</ele>
        <time>2018-04-28T07:21:17.000Z</time>
      </trkpt>
      <trkpt lat="48.051" lon="6.55615">
        <ele>585</ele>
        <time>2018-04-28T07:21:18.000Z</time>
      </trkpt>
      <trkpt lat="48.051" lon="6.55613">
        <ele>584</ele>
        <time>2018-04-28T07:21:19.000Z</time>
      </trkpt>
      <trkpt lat="48.051" lon="6.55612">
        <ele>584</ele>
        <time>2018-04-28T07:21:20.000Z</time>
      </trkpt>
      <trkpt lat="48.051" lon="6.5561">
        <ele>584</ele>
        <time>2018-04-28T07:21:21.000Z</time>
      </trkpt>
      <trkpt lat="48.051" lon="6.55608">
        <ele>584</ele>
        <time>2018-04-28T07:21:22.000Z</time>
      </trkpt>
      <trkpt lat="48.051" lon="6.55605">
        <ele>584</ele>
        <time>2018-04-28T07:21:23.000Z</time>
      </trkpt>
      <trkpt lat="48.051" lon="6.55603">
        <ele>584</ele>
        <time>2018-04-28T07:21:24.000Z</time>
      </trkpt>
      <trkpt lat="48.051" lon="6.55601">
        <ele>583</ele>
        <time>2018-04-28T07:21:25.000Z</time>
      </trkpt>
      <trkpt lat="48.051" lon="6.55599">
        <ele>583</ele>
        <time>2018-04-28T07:21:26.000Z</time>
      </trkpt>
      <trkpt lat="48.051" lon="6.55597">
        <ele>583</ele>
        <time>2018-04-28T07:21:27.000Z</time>
      </trkpt>
      <trkpt lat="48.05099" lon="6.55595">
        <ele>583</ele>
        <time>2018-04-28T07:21:28.000Z</time>
      </trkpt>
      <trkpt lat="48.05099" lon="6.55593">
        <ele>582</ele>
        <time>2018-04-28T07:21:29.000Z</time>
      </trkpt>
      <trkpt lat="48.05099" lon="6.55592">
        <ele>582</ele>
        <time>2018-04-28T07:21:30.000Z</time>
      </trkpt>
      <trkpt lat="48.05099" lon="6.5559">
        <ele>582</ele>
        <time>2018-04-28T07:21:31.000Z</time>
      </trkpt>
      <trkpt lat="48.051" lon="6.55587">
        <ele>582</ele>
        <time>2018-04-28T07:21:32.000Z</time>
      </trkpt>
      <trkpt lat="48.051" lon="6.55585">
        <ele>582</ele>
        <time>2018-04-28T07:21:33.000Z</time>
      </trkpt>
      <trkpt lat="48.051" lon="6.55583">
        <ele>579</ele>
        <time>2018-04-28T07:21:34.000Z</time>
      </trkpt>
      <trkpt lat="48.051" lon="6.55581">
        <ele>579</ele>
        <time>2018-04-28T07:21:35.000Z</time>
      </trkpt>
      <trkpt lat="48.05101" lon="6.55578">
        <ele>579</ele>
        <time>2018-04-28T07:21:36.000Z</time>
      </trkpt>
      <trkpt lat="48.05101" lon="6.55575">
        <ele>579</ele>
        <time>2018-04-28T07:21:37.000Z</time>
      </trkpt>
      <trkpt lat="48.05101" lon="6.55573">
        <ele>580</ele>
        <time>2018-04-28T07:21:38.000Z</time>
      </trkpt>
      <trkpt lat="48.05101" lon="6.5557">
        <ele>580</ele>
        <time>2018-04-28T07:21:39.000Z</time>
      </trkpt>
      <trkpt lat="48.05101" lon="6.55568">
        <ele>580</ele>
        <time>2018-04-28T07:21:40.000Z</time>
      </trkpt>
      <trkpt lat="48.05102" lon="6.55566">
        <ele>580</ele>
        <time>2018-04-28T07:21:41.000Z</time>
      </trkpt>
      <trkpt lat="48.05102" lon="6.55563">
        <ele>580</ele>
        <time>2018-04-28T07:21:42.000Z</time>
      </trkpt>
      <trkpt lat="48.05103" lon="6.55561">
        <ele>580</ele>
        <time>2018-04-28T07:21:43.000Z</time>
      </trkpt>
      <trkpt lat="48.05103" lon="6.55558">
        <ele>580</ele>
        <time>2018-04-28T07:21:44.000Z</time>
      </trkpt>
      <trkpt lat="48.05103" lon="6.55556">
        <ele>580</ele>
        <time>2018-04-28T07:21:45.000Z</time>
      </trkpt>
      <trkpt lat="48.05103" lon="6.55553">
        <ele>580</ele>
        <time>2018-04-28T07:21:46.000Z</time>
      </trkpt>
      <trkpt lat="48.05104" lon="6.55551">
        <ele>580</ele>
        <time>2018-04-28T07:21:47.000Z</time>
      </trkpt>
      <trkpt lat="48.05104" lon="6.55548">
        <ele>580</ele>
        <time>2018-04-28T07:21:48.000Z</time>
      </trkpt>
      <trkpt lat="48.05104" lon="6.55546">
        <ele>580</ele>
        <time>2018-04-28T07:21:49.000Z</time>
      </trkpt>
      <trkpt lat="48.05104" lon="6.55543">
        <ele>579</ele>
        <time>2018-04-28T07:21:50.000Z</time>
      </trkpt>
      <trkpt lat="48.05105" lon="6.55541">
        <ele>579</ele>
        <time>2018-04-28T07:21:51.000Z</time>
      </trkpt>
      <trkpt lat="48.05105" lon="6.55539">
        <ele>579</ele>
        <time>2018-04-28T07:21:52.000Z</time>
      </trkpt>
      <trkpt lat="48.05105" lon="6.55536">
        <ele>579</ele>
        <time>2018-04-28T07:21:53.000Z</time>
      </trkpt>
      <trkpt lat="48.05106" lon="6.55533">
        <ele>579</ele>
        <time>2018-04-28T07:21:54.000Z</time>
      </trkpt>
      <trkpt lat="48.05107" lon="6.55531">
        <ele>579</ele>
        <time>2018-04-28T07:21:55.000Z</time>
      </trkpt>
      <trkpt lat="48.05107" lon="6.55528">
        <ele>579</ele>
        <time>2018-04-28T07:21:56.000Z</time>
      </trkpt>
      <trkpt lat="48.05108" lon="6.55525">
        <ele>579</ele>
        <time>2018-04-28T07:21:57.000Z</time>
      </trkpt>
      <trkpt lat="48.05109" lon="6.55522">
        <ele>579</ele>
        <time>2018-04-28T07:21:58.000Z</time>
      </trkpt>
      <trkpt lat="48.0511" lon="6.5552">
        <ele>578</ele>
        <time>2018-04-28T07:21:59.000Z</time>
      </trkpt>
      <trkpt lat="48.05111" lon="6.55517">
        <ele>578</ele>
        <time>2018-04-28T07:22:00.000Z</time>
      </trkpt>
      <trkpt lat="48.05112" lon="6.55515">
        <ele>578</ele>
        <time>2018-04-28T07:22:01.000Z</time>
      </trkpt>
      <trkpt lat="48.05113" lon="6.55514">
        <ele>578</ele>
        <time>2018-04-28T07:22:02.000Z</time>
      </trkpt>
      <trkpt lat="48.05114" lon="6.55512">
        <ele>578</ele>
        <time>2018-04-28T07:22:03.000Z</time>
      </trkpt>
      <trkpt lat="48.05115" lon="6.5551">
        <ele>578</ele>
        <time>2018-04-28T07:22:04.000Z</time>
      </trkpt>
      <trkpt lat="48.05116" lon="6.55508">
        <ele>579</ele>
        <time>2018-04-28T07:22:05.000Z</time>
      </trkpt>
      <trkpt lat="48.05117" lon="6.55506">
        <ele>579</ele>
        <time>2018-04-28T07:22:06.000Z</time>
      </trkpt>
      <trkpt lat="48.05118" lon="6.55505">
        <ele>579</ele>
        <time>2018-04-28T07:22:07.000Z</time>
      </trkpt>
      <trkpt lat="48.0512" lon="6.55503">
        <ele>579</ele>
        <time>2018-04-28T07:22:08.000Z</time>
      </trkpt>
      <trkpt lat="48.05121" lon="6.55501">
        <ele>579</ele>
        <time>2018-04-28T07:22:09.000Z</time>
      </trkpt>
      <trkpt lat="48.05122" lon="6.555">
        <ele>573</ele>
        <time>2018-04-28T07:22:10.000Z</time>
      </trkpt>
      <trkpt lat="48.05123" lon="6.55499">
        <ele>573</ele>
        <time>2018-04-28T07:22:11.000Z</time>
      </trkpt>
      <trkpt lat="48.05124" lon="6.55497">
        <ele>573</ele>
        <time>2018-04-28T07:22:12.000Z</time>
      </trkpt>
      <trkpt lat="48.05125" lon="6.55496">
        <ele>573</ele>
        <time>2018-04-28T07:22:13.000Z</time>
      </trkpt>
      <trkpt lat="48.05126" lon="6.55495">
        <ele>573</ele>
        <time>2018-04-28T07:22:14.000Z</time>
      </trkpt>
      <trkpt lat="48.05127" lon="6.55494">
        <ele>573</ele>
        <time>2018-04-28T07:22:15.000Z</time>
      </trkpt>
      <trkpt lat="48.05128" lon="6.55493">
        <ele>574</ele>
        <time>2018-04-28T07:22:16.000Z</time>
      </trkpt>
      <trkpt lat="48.05129" lon="6.55491">
        <ele>574</ele>
        <time>2018-04-28T07:22:17.000Z</time>
      </trkpt>
      <trkpt lat="48.05131" lon="6.5549">
        <ele>574</ele>
        <time>2018-04-28T07:22:18.000Z</time>
      </trkpt>
      <trkpt lat="48.05132" lon="6.55489">
        <ele>574</ele>
        <time>2018-04-28T07:22:19.000Z</time>
      </trkpt>
      <trkpt lat="48.05134" lon="6.55487">
        <ele>574</ele>
        <time>2018-04-28T07:22:20.000Z</time>
      </trkpt>
      <trkpt lat="48.05135" lon="6.55486">
        <ele>574</ele>
        <time>2018-04-28T07:22:21.000Z</time>
      </trkpt>
      <trkpt lat="48.05137" lon="6.55484">
        <ele>574</ele>
        <time>2018-04-28T07:22:22.000Z</time>
      </trkpt>
      <trkpt lat="48.05138" lon="6.55483">
        <ele>574</ele>
        <time>2018-04-28T07:22:23.000Z</time>
      </trkpt>
      <trkpt lat="48.05139" lon="6.55481">
        <ele>574</ele>
        <time>2018-04-28T07:22:24.000Z</time>
      </trkpt>
      <trkpt lat="48.05141" lon="6.55479">
        <ele>574</ele>
        <time>2018-04-28T07:22:25.000Z</time>
      </trkpt>
      <trkpt lat="48.05142" lon="6.55478">
        <ele>574</ele>
        <time>2018-04-28T07:22:26.000Z</time>
      </trkpt>
      <trkpt lat="48.05143" lon="6.55476">
        <ele>574</ele>
        <time>2018-04-28T07:22:27.000Z</time>
      </trkpt>
      <trkpt lat="48.05144" lon="6.55475">
        <ele>574</ele>
        <time>2018-04-28T07:22:28.000Z</time>
      </trkpt>
      <trkpt lat="48.05145" lon="6.55473">
        <ele>574</ele>
        <time>2018-04-28T07:22:29.000Z</time>
      </trkpt>
      <trkpt lat="48.05147" lon="6.55472">
        <ele>574</ele>
        <time>2018-04-28T07:22:30.000Z</time>
      </trkpt>
      <trkpt lat="48.05148" lon="6.55471">
        <ele>574</ele>
        <time>2018-04-28T07:22:31.000Z</time>
      </trkpt>
      <trkpt lat="48.05149" lon="6.55469">
        <ele>574</ele>
        <time>2018-04-28T07:22:32.000Z</time>
      </trkpt>
      <trkpt lat="48.0515" lon="6.55468">
        <ele>574</ele>
        <time>2018-04-28T07:22:33.000Z</time>
      </trkpt>
      <trkpt lat="48.05151" lon="6.55466">
        <ele>573</ele>
        <time>2018-04-28T07:22:34.000Z</time>
      </trkpt>
      <trkpt lat="48.05152" lon="6.55464">
        <ele>573</ele>
        <time>2018-04-28T07:22:35.000Z</time>
      </trkpt>
      <trkpt lat="48.05153" lon="6.55463">
        <ele>573</ele>
        <time>2018-04-28T07:22:36.000Z</time>
      </trkpt>
      <trkpt lat="48.05154" lon="6.55461">
        <ele>573</ele>
        <time>2018-04-28T07:22:37.000Z</time>
      </trkpt>
      <trkpt lat="48.05155" lon="6.55459">
        <ele>573</ele>
        <time>2018-04-28T07:22:38.000Z</time>
      </trkpt>
      <trkpt lat="48.05156" lon="6.55457">
        <ele>573</ele>
        <time>2018-04-28T07:22:39.000Z</time>
      </trkpt>
      <trkpt lat="48.05157" lon="6.55455">
        <ele>572</ele>
        <time>2018-04-28T07:22:40.000Z</time>
      </trkpt>
      <trkpt lat="48.05158" lon="6.55453">
        <ele>572</ele>
        <time>2018-04-28T07:22:41.000Z</time>
      </trkpt>
      <trkpt lat="48.05159" lon="6.55451">
        <ele>572</ele>
        <time>2018-04-28T07:22:42.000Z</time>
      </trkpt>
      <trkpt lat="48.05161" lon="6.55449">
        <ele>572</ele>
        <time>2018-04-28T07:22:43.000Z</time>
      </trkpt>
      <trkpt lat="48.05162" lon="6.55448">
        <ele>572</ele>
        <time>2018-04-28T07:22:44.000Z</time>
      </trkpt>
      <trkpt lat="48.05163" lon="6.55446">
        <ele>572</ele>
        <time>2018-04-28T07:22:45.000Z</time>
      </trkpt>
      <trkpt lat="48.05164" lon="6.55444">
        <ele>571</ele>
        <time>2018-04-28T07:22:46.000Z</time>
      </trkpt>
      <trkpt lat="48.05165" lon="6.55442">
        <ele>571</ele>
        <time>2018-04-28T07:22:47.000Z</time>
      </trkpt>
      <trkpt lat="48.05167" lon="6.5544">
        <ele>576</ele>
        <time>2018-04-28T07:22:48.000Z</time>
      </trkpt>
      <trkpt lat="48.05168" lon="6.55438">
        <ele>576</ele>
        <time>2018-04-28T07:22:49.000Z</time>
      </trkpt>
      <trkpt lat="48.05169" lon="6.55436">
        <ele>576</ele>
        <time>2018-04-28T07:22:50.000Z</time>
      </trkpt>
      <trkpt lat="48.0517" lon="6.55434">
        <ele>575</ele>
        <time>2018-04-28T07:22:51.000Z</time>
      </trkpt>
      <trkpt lat="48.05171" lon="6.55433">
        <ele>575</ele>
        <time>2018-04-28T07:22:52.000Z</time>
      </trkpt>
      <trkpt lat="48.05172" lon="6.55431">
        <ele>575</ele>
        <time>2018-04-28T07:22:53.000Z</time>
      </trkpt>
      <trkpt lat="48.05174" lon="6.55429">
        <ele>575</ele>
        <time>2018-04-28T07:22:54.000Z</time>
      </trkpt>
      <trkpt lat="48.05175" lon="6.55428">
        <ele>574</ele>
        <time>2018-04-28T07:22:55.000Z</time>
      </trkpt>
      <trkpt lat="48.05176" lon="6.55427">
        <ele>574</ele>
        <time>2018-04-28T07:22:56.000Z</time>
      </trkpt>
      <trkpt lat="48.05177" lon="6.55425">
        <ele>574</ele>
        <time>2018-04-28T07:22:57.000Z</time>
      </trkpt>
      <trkpt lat="48.05179" lon="6.55423">
        <ele>574</ele>
        <time>2018-04-28T07:22:58.000Z</time>
      </trkpt>
      <trkpt lat="48.0518" lon="6.55422">
        <ele>574</ele>
        <time>2018-04-28T07:22:59.000Z</time>
      </trkpt>
      <trkpt lat="48.05181" lon="6.5542">
        <ele>574</ele>
        <time>2018-04-28T07:23:00.000Z</time>
      </trkpt>
      <trkpt lat="48.05182" lon="6.55419">
        <ele>575</ele>
        <time>2018-04-28T07:23:01.000Z</time>
      </trkpt>
      <trkpt lat="48.05183" lon="6.55417">
        <ele>575</ele>
        <time>2018-04-28T07:23:02.000Z</time>
      </trkpt>
      <trkpt lat="48.05184" lon="6.55416">
        <ele>570</ele>
        <time>2018-04-28T07:23:03.000Z</time>
      </trkpt>
      <trkpt lat="48.05185" lon="6.55414">
        <ele>570</ele>
        <time>2018-04-28T07:23:04.000Z</time>
      </trkpt>
      <trkpt lat="48.05186" lon="6.55412">
        <ele>570</ele>
        <time>2018-04-28T07:23:05.000Z</time>
      </trkpt>
      <trkpt lat="48.05187" lon="6.5541">
        <ele>570</ele>
        <time>2018-04-28T07:23:06.000Z</time>
      </trkpt>
      <trkpt lat="48.05188" lon="6.55408">
        <ele>570</ele>
        <time>2018-04-28T07:23:07.000Z</time>
      </trkpt>
      <trkpt lat="48.05189" lon="6.55406">
        <ele>570</ele>
        <time>2018-04-28T07:23:08.000Z</time>
      </trkpt>
      <trkpt lat="48.0519" lon="6.55405">
        <ele>570</ele>
        <time>2018-04-28T07:23:09.000Z</time>
      </trkpt>
      <trkpt lat="48.05191" lon="6.55403">
        <ele>570</ele>
        <time>2018-04-28T07:23:10.000Z</time>
      </trkpt>
      <trkpt lat="48.05192" lon="6.55402">
        <ele>570</ele>
        <time>2018-04-28T07:23:11.000Z</time>
      </trkpt>
      <trkpt lat="48.05193" lon="6.55401">
        <ele>570</ele>
        <time>2018-04-28T07:23:12.000Z</time>
      </trkpt>
      <trkpt lat="48.05194" lon="6.55399">
        <ele>570</ele>
        <time>2018-04-28T07:23:13.000Z</time>
      </trkpt>
      <trkpt lat="48.05195" lon="6.55398">
        <ele>570</ele>
        <time>2018-04-28T07:23:14.000Z</time>
      </trkpt>
      <trkpt lat="48.05196" lon="6.55397">
        <ele>570</ele>
        <time>2018-04-28T07:23:15.000Z</time>
      </trkpt>
      <trkpt lat="48.05197" lon="6.55395">
        <ele>570</ele>
        <time>2018-04-28T07:23:16.000Z</time>
      </trkpt>
      <trkpt lat="48.05198" lon="6.55394">
        <ele>570</ele>
        <time>2018-04-28T07:23:17.000Z</time>
      </trkpt>
      <trkpt lat="48.05199" lon="6.55392">
        <ele>570</ele>
        <time>2018-04-28T07:23:18.000Z</time>
      </trkpt>
      <trkpt lat="48.052" lon="6.55389">
        <ele>570</ele>
        <time>2018-04-28T07:23:19.000Z</time>
      </trkpt>
      <trkpt lat="48.052" lon="6.55387">
        <ele>570</ele>
        <time>2018-04-28T07:23:20.000Z</time>
      </trkpt>
      <trkpt lat="48.05201" lon="6.55385">
        <ele>570</ele>
        <time>2018-04-28T07:23:21.000Z</time>
      </trkpt>
      <trkpt lat="48.05202" lon="6.55383">
        <ele>570</ele>
        <time>2018-04-28T07:23:22.000Z</time>
      </trkpt>
      <trkpt lat="48.05203" lon="6.55381">
        <ele>570</ele>
        <time>2018-04-28T07:23:23.000Z</time>
      </trkpt>
      <trkpt lat="48.05204" lon="6.55378">
        <ele>570</ele>
        <time>2018-04-28T07:23:24.000Z</time>
      </trkpt>
      <trkpt lat="48.05206" lon="6.55376">
        <ele>570</ele>
        <time>2018-04-28T07:23:25.000Z</time>
      </trkpt>
      <trkpt lat="48.05207" lon="6.55374">
        <ele>570</ele>
        <time>2018-04-28T07:23:26.000Z</time>
      </trkpt>
      <trkpt lat="48.05208" lon="6.55372">
        <ele>569</ele>
        <time>2018-04-28T07:23:27.000Z</time>
      </trkpt>
      <trkpt lat="48.05209" lon="6.5537">
        <ele>569</ele>
        <time>2018-04-28T07:23:28.000Z</time>
      </trkpt>
      <trkpt lat="48.0521" lon="6.55368">
        <ele>569</ele>
        <time>2018-04-28T07:23:29.000Z</time>
      </trkpt>
      <trkpt lat="48.05212" lon="6.55366">
        <ele>569</ele>
        <time>2018-04-28T07:23:30.000Z</time>
      </trkpt>
      <trkpt lat="48.05213" lon="6.55363">
        <ele>569</ele>
        <time>2018-04-28T07:23:31.000Z</time>
      </trkpt>
      <trkpt lat="48.05214" lon="6.55361">
        <ele>569</ele>
        <time>2018-04-28T07:23:32.000Z</time>
      </trkpt>
      <trkpt lat="48.05216" lon="6.5536">
        <ele>569</ele>
        <time>2018-04-28T07:23:33.000Z</time>
      </trkpt>
      <trkpt lat="48.05217" lon="6.55358">
        <ele>569</ele>
        <time>2018-04-28T07:23:34.000Z</time>
      </trkpt>
      <trkpt lat="48.05219" lon="6.55356">
        <ele>569</ele>
        <time>2018-04-28T07:23:35.000Z</time>
      </trkpt>
      <trkpt lat="48.0522" lon="6.55354">
        <ele>569</ele>
        <time>2018-04-28T07:23:36.000Z</time>
      </trkpt>
      <trkpt lat="48.05221" lon="6.55352">
        <ele>570</ele>
        <time>2018-04-28T07:23:37.000Z</time>
      </trkpt>
      <trkpt lat="48.05223" lon="6.5535">
        <ele>570</ele>
        <time>2018-04-28T07:23:38.000Z</time>
      </trkpt>
      <trkpt lat="48.05224" lon="6.55349">
        <ele>570</ele>
        <time>2018-04-28T07:23:39.000Z</time>
      </trkpt>
      <trkpt lat="48.05225" lon="6.55348">
        <ele>570</ele>
        <time>2018-04-28T07:23:40.000Z</time>
      </trkpt>
      <trkpt lat="48.05226" lon="6.55346">
        <ele>570</ele>
        <time>2018-04-28T07:23:41.000Z</time>
      </trkpt>
      <trkpt lat="48.05227" lon="6.55345">
        <ele>570</ele>
        <time>2018-04-28T07:23:42.000Z</time>
      </trkpt>
      <trkpt lat="48.05229" lon="6.55344">
        <ele>570</ele>
        <time>2018-04-28T07:23:43.000Z</time>
      </trkpt>
      <trkpt lat="48.0523" lon="6.55342">
        <ele>570</ele>
        <time>2018-04-28T07:23:44.000Z</time>
      </trkpt>
      <trkpt lat="48.05231" lon="6.55341">
        <ele>570</ele>
        <time>2018-04-28T07:23:45.000Z</time>
      </trkpt>
      <trkpt lat="48.05232" lon="6.55339">
        <ele>570</ele>
        <time>2018-04-28T07:23:46.000Z</time>
      </trkpt>
      <trkpt lat="48.05233" lon="6.55337">
        <ele>570</ele>
        <time>2018-04-28T07:23:47.000Z</time>
      </trkpt>
      <trkpt lat="48.05234" lon="6.55335">
        <ele>570</ele>
        <time>2018-04-28T07:23:48.000Z</time>
      </trkpt>
      <trkpt lat="48.05235" lon="6.55333">
        <ele>567</ele>
        <time>2018-04-28T07:23:49.000Z</time>
      </trkpt>
      <trkpt lat="48.05236" lon="6.55331">
        <ele>567</ele>
        <time>2018-04-28T07:23:50.000Z</time>
      </trkpt>
      <trkpt lat="48.05237" lon="6.55328">
        <ele>567</ele>
        <time>2018-04-28T07:23:51.000Z</time>
      </trkpt>
      <trkpt lat="48.05237" lon="6.55326">
        <ele>567</ele>
        <time>2018-04-28T07:23:52.000Z</time>
      </trkpt>
      <trkpt lat="48.05238" lon="6.55324">
        <ele>566</ele>
        <time>2018-04-28T07:23:53.000Z</time>
      </trkpt>
      <trkpt lat="48.05239" lon="6.55322">
        <ele>566</ele>
        <time>2018-04-28T07:23:54.000Z</time>
      </trkpt>
      <trkpt lat="48.0524" lon="6.55319">
        <ele>566</ele>
        <time>2018-04-28T07:23:55.000Z</time>
      </trkpt>
      <trkpt lat="48.0524" lon="6.55317">
        <ele>566</ele>
        <time>2018-04-28T07:23:56.000Z</time>
      </trkpt>
      <trkpt lat="48.05241" lon="6.55315">
        <ele>565</ele>
        <time>2018-04-28T07:23:57.000Z</time>
      </trkpt>
      <trkpt lat="48.05241" lon="6.55313">
        <ele>565</ele>
        <time>2018-04-28T07:23:58.000Z</time>
      </trkpt>
      <trkpt lat="48.05241" lon="6.5531">
        <ele>565</ele>
        <time>2018-04-28T07:23:59.000Z</time>
      </trkpt>
      <trkpt lat="48.05241" lon="6.55308">
        <ele>565</ele>
        <time>2018-04-28T07:24:00.000Z</time>
      </trkpt>
      <trkpt lat="48.05242" lon="6.55305">
        <ele>564</ele>
        <time>2018-04-28T07:24:01.000Z</time>
      </trkpt>
      <trkpt lat="48.05242" lon="6.55303">
        <ele>564</ele>
        <time>2018-04-28T07:24:02.000Z</time>
      </trkpt>
      <trkpt lat="48.05243" lon="6.55301">
        <ele>564</ele>
        <time>2018-04-28T07:24:03.000Z</time>
      </trkpt>
      <trkpt lat="48.05243" lon="6.55298">
        <ele>564</ele>
        <time>2018-04-28T07:24:04.000Z</time>
      </trkpt>
      <trkpt lat="48.05244" lon="6.55296">
        <ele>564</ele>
        <time>2018-04-28T07:24:05.000Z</time>
      </trkpt>
      <trkpt lat="48.05244" lon="6.55293">
        <ele>563</ele>
        <time>2018-04-28T07:24:06.000Z</time>
      </trkpt>
      <trkpt lat="48.05245" lon="6.5529">
        <ele>563</ele>
        <time>2018-04-28T07:24:07.000Z</time>
      </trkpt>
      <trkpt lat="48.05245" lon="6.55288">
        <ele>563</ele>
        <time>2018-04-28T07:24:08.000Z</time>
      </trkpt>
      <trkpt lat="48.05245" lon="6.55286">
        <ele>563</ele>
        <time>2018-04-28T07:24:09.000Z</time>
      </trkpt>
      <trkpt lat="48.05245" lon="6.55283">
        <ele>563</ele>
        <time>2018-04-28T07:24:10.000Z</time>
      </trkpt>
      <trkpt lat="48.05245" lon="6.55281">
        <ele>563</ele>
        <time>2018-04-28T07:24:11.000Z</time>
      </trkpt>
      <trkpt lat="48.05246" lon="6.55278">
        <ele>563</ele>
        <time>2018-04-28T07:24:12.000Z</time>
      </trkpt>
      <trkpt lat="48.05246" lon="6.55276">
        <ele>563</ele>
        <time>2018-04-28T07:24:13.000Z</time>
      </trkpt>
      <trkpt lat="48.05247" lon="6.55273">
        <ele>563</ele>
        <time>2018-04-28T07:24:14.000Z</time>
      </trkpt>
      <trkpt lat="48.05247" lon="6.55271">
        <ele>563</ele>
        <time>2018-04-28T07:24:15.000Z</time>
      </trkpt>
      <trkpt lat="48.05247" lon="6.55268">
        <ele>563</ele>
        <time>2018-04-28T07:24:16.000Z</time>
      </trkpt>
      <trkpt lat="48.05248" lon="6.55266">
        <ele>563</ele>
        <time>2018-04-28T07:24:17.000Z</time>
      </trkpt>
      <trkpt lat="48.05248" lon="6.55264">
        <ele>563</ele>
        <time>2018-04-28T07:24:18.000Z</time>
      </trkpt>
      <trkpt lat="48.05248" lon="6.55261">
        <ele>563</ele>
        <time>2018-04-28T07:24:19.000Z</time>
      </trkpt>
      <trkpt lat="48.05249" lon="6.55259">
        <ele>563</ele>
        <time>2018-04-28T07:24:20.000Z</time>
      </trkpt>
      <trkpt lat="48.05249" lon="6.55257">
        <ele>563</ele>
        <time>2018-04-28T07:24:21.000Z</time>
      </trkpt>
      <trkpt lat="48.05249" lon="6.55254">
        <ele>564</ele>
        <time>2018-04-28T07:24:22.000Z</time>
      </trkpt>
      <trkpt lat="48.0525" lon="6.55252">
        <ele>564</ele>
        <time>2018-04-28T07:24:23.000Z</time>
      </trkpt>
      <trkpt lat="48.0525" lon="6.55249">
        <ele>564</ele>
        <time>2018-04-28T07:24:24.000Z</time>
      </trkpt>
      <trkpt lat="48.05251" lon="6.55246">
        <ele>565</ele>
        <time>2018-04-28T07:24:25.000Z</time>
      </trkpt>
      <trkpt lat="48.05251" lon="6.55244">
        <ele>565</ele>
        <time>2018-04-28T07:24:26.000Z</time>
      </trkpt>
      <trkpt lat="48.05251" lon="6.55242">
        <ele>566</ele>
        <time>2018-04-28T07:24:27.000Z</time>
      </trkpt>
      <trkpt lat="48.05252" lon="6.55241">
        <ele>566</ele>
        <time>2018-04-28T07:24:28.000Z</time>
      </trkpt>
      <trkpt lat="48.05252" lon="6.55239">
        <ele>566</ele>
        <time>2018-04-28T07:24:29.000Z</time>
      </trkpt>
      <trkpt lat="48.05253" lon="6.55238">
        <ele>566</ele>
        <time>2018-04-28T07:24:30.000Z</time>
      </trkpt>
      <trkpt lat="48.05253" lon="6.55236">
        <ele>566</ele>
        <time>2018-04-28T07:24:31.000Z</time>
      </trkpt>
      <trkpt lat="48.05253" lon="6.55234">
        <ele>567</ele>
        <time>2018-04-28T07:24:32.000Z</time>
      </trkpt>
      <trkpt lat="48.05253" lon="6.55232">
        <ele>567</ele>
        <time>2018-04-28T07:24:33.000Z</time>
      </trkpt>
      <trkpt lat="48.05253" lon="6.55229">
        <ele>567</ele>
        <time>2018-04-28T07:24:34.000Z</time>
      </trkpt>
      <trkpt lat="48.05253" lon="6.55227">
        <ele>567</ele>
        <time>2018-04-28T07:24:35.000Z</time>
      </trkpt>
      <trkpt lat="48.05254" lon="6.55225">
        <ele>567</ele>
        <time>2018-04-28T07:24:36.000Z</time>
      </trkpt>
      <trkpt lat="48.05254" lon="6.55223">
        <ele>567</ele>
        <time>2018-04-28T07:24:37.000Z</time>
      </trkpt>
      <trkpt lat="48.05254" lon="6.5522">
        <ele>567</ele>
        <time>2018-04-28T07:24:38.000Z</time>
      </trkpt>
      <trkpt lat="48.05254" lon="6.55218">
        <ele>567</ele>
        <time>2018-04-28T07:24:39.000Z</time>
      </trkpt>
      <trkpt lat="48.05255" lon="6.55216">
        <ele>567</ele>
        <time>2018-04-28T07:24:40.000Z</time>
      </trkpt>
      <trkpt lat="48.05255" lon="6.55213">
        <ele>567</ele>
        <time>2018-04-28T07:24:41.000Z</time>
      </trkpt>
      <trkpt lat="48.05256" lon="6.55211">
        <ele>567</ele>
        <time>2018-04-28T07:24:42.000Z</time>
      </trkpt>
      <trkpt lat="48.05256" lon="6.55209">
        <ele>567</ele>
        <time>2018-04-28T07:24:43.000Z</time>
      </trkpt>
      <trkpt lat="48.05257" lon="6.55206">
        <ele>567</ele>
        <time>2018-04-28T07:24:44.000Z</time>
      </trkpt>
      <trkpt lat="48.05257" lon="6.55204">
        <ele>567</ele>
        <time>2018-04-28T07:24:45.000Z</time>
      </trkpt>
      <trkpt lat="48.05258" lon="6.55202">
        <ele>567</ele>
        <time>2018-04-28T07:24:46.000Z</time>
      </trkpt>
      <trkpt lat="48.05258" lon="6.552">
        <ele>567</ele>
        <time>2018-04-28T07:24:47.000Z</time>
      </trkpt>
      <trkpt lat="48.05259" lon="6.55198">
        <ele>567</ele>
        <time>2018-04-28T07:24:48.000Z</time>
      </trkpt>
      <trkpt lat="48.05259" lon="6.55195">
        <ele>566</ele>
        <time>2018-04-28T07:24:49.000Z</time>
      </trkpt>
      <trkpt lat="48.0526" lon="6.55192">
        <ele>566</ele>
        <time>2018-04-28T07:24:50.000Z</time>
      </trkpt>
      <trkpt lat="48.05261" lon="6.5519">
        <ele>566</ele>
        <time>2018-04-28T07:24:51.000Z</time>
      </trkpt>
      <trkpt lat="48.05261" lon="6.55187">
        <ele>565</ele>
        <time>2018-04-28T07:24:52.000Z</time>
      </trkpt>
      <trkpt lat="48.05261" lon="6.55184">
        <ele>565</ele>
        <time>2018-04-28T07:24:53.000Z</time>
      </trkpt>
      <trkpt lat="48.05262" lon="6.55181">
        <ele>565</ele>
        <time>2018-04-28T07:24:54.000Z</time>
      </trkpt>
      <trkpt lat="48.05262" lon="6.55179">
        <ele>564</ele>
        <time>2018-04-28T07:24:55.000Z</time>
      </trkpt>
      <trkpt lat="48.05263" lon="6.55176">
        <ele>564</ele>
        <time>2018-04-28T07:24:56.000Z</time>
      </trkpt>
      <trkpt lat="48.05263" lon="6.55174">
        <ele>564</ele>
        <time>2018-04-28T07:24:57.000Z</time>
      </trkpt>
      <trkpt lat="48.05264" lon="6.55172">
        <ele>564</ele>
        <time>2018-04-28T07:24:58.000Z</time>
      </trkpt>
      <trkpt lat="48.05265" lon="6.5517">
        <ele>564</ele>
        <time>2018-04-28T07:24:59.000Z</time>
      </trkpt>
      <trkpt lat="48.05266" lon="6.55168">
        <ele>564</ele>
        <time>2018-04-28T07:25:00.000Z</time>
      </trkpt>
      <trkpt lat="48.05266" lon="6.55165">
        <ele>563</ele>
        <time>2018-04-28T07:25:01.000Z</time>
      </trkpt>
      <trkpt lat="48.05266" lon="6.55163">
        <ele>563</ele>
        <time>2018-04-28T07:25:02.000Z</time>
      </trkpt>
      <trkpt lat="48.05267" lon="6.55161">
        <ele>563</ele>
        <time>2018-04-28T07:25:03.000Z</time>
      </trkpt>
      <trkpt lat="48.05268" lon="6.55159">
        <ele>563</ele>
        <time>2018-04-28T07:25:04.000Z</time>
      </trkpt>
      <trkpt lat="48.05268" lon="6.55157">
        <ele>564</ele>
        <time>2018-04-28T07:25:05.000Z</time>
      </trkpt>
      <trkpt lat="48.05269" lon="6.55155">
        <ele>564</ele>
        <time>2018-04-28T07:25:06.000Z</time>
      </trkpt>
      <trkpt lat="48.05269" lon="6.55153">
        <ele>564</ele>
        <time>2018-04-28T07:25:07.000Z</time>
      </trkpt>
      <trkpt lat="48.0527" lon="6.55151">
        <ele>564</ele>
        <time>2018-04-28T07:25:08.000Z</time>
      </trkpt>
      <trkpt lat="48.0527" lon="6.55149">
        <ele>564</ele>
        <time>2018-04-28T07:25:09.000Z</time>
      </trkpt>
      <trkpt lat="48.05271" lon="6.55146">
        <ele>565</ele>
        <time>2018-04-28T07:25:10.000Z</time>
      </trkpt>
      <trkpt lat="48.05271" lon="6.55144">
        <ele>565</ele>
        <time>2018-04-28T07:25:11.000Z</time>
      </trkpt>
      <trkpt lat="48.05271" lon="6.55142">
        <ele>565</ele>
        <time>2018-04-28T07:25:12.000Z</time>
      </trkpt>
      <trkpt lat="48.05271" lon="6.55141">
        <ele>565</ele>
        <time>2018-04-28T07:25:13.000Z</time>
      </trkpt>
      <trkpt lat="48.05271" lon="6.55139">
        <ele>565</ele>
        <time>2018-04-28T07:25:14.000Z</time>
      </trkpt>
      <trkpt lat="48.05271" lon="6.55136">
        <ele>565</ele>
        <time>2018-04-28T07:25:15.000Z</time>
      </trkpt>
      <trkpt lat="48.05272" lon="6.55134">
        <ele>565</ele>
        <time>2018-04-28T07:25:16.000Z</time>
      </trkpt>
      <trkpt lat="48.05272" lon="6.55132">
        <ele>565</ele>
        <time>2018-04-28T07:25:17.000Z</time>
      </trkpt>
      <trkpt lat="48.05273" lon="6.5513">
        <ele>565</ele>
        <time>2018-04-28T07:25:18.000Z</time>
      </trkpt>
      <trkpt lat="48.05273" lon="6.55128">
        <ele>565</ele>
        <time>2018-04-28T07:25:19.000Z</time>
      </trkpt>
      <trkpt lat="48.05273" lon="6.55125">
        <ele>565</ele>
        <time>2018-04-28T07:25:20.000Z</time>
      </trkpt>
      <trkpt lat="48.05273" lon="6.55123">
        <ele>565</ele>
        <time>2018-04-28T07:25:21.000Z</time>
      </trkpt>
      <trkpt lat="48.05273" lon="6.55121">
        <ele>565</ele>
        <time>2018-04-28T07:25:22.000Z</time>
      </trkpt>
      <trkpt lat="48.05273" lon="6.55119">
        <ele>565</ele>
        <time>2018-04-28T07:25:23.000Z</time>
      </trkpt>
      <trkpt lat="48.05273" lon="6.55117">
        <ele>565</ele>
        <time>2018-04-28T07:25:24.000Z</time>
      </trkpt>
      <trkpt lat="48.05274" lon="6.55115">
        <ele>565</ele>
        <time>2018-04-28T07:25:25.000Z</time>
      </trkpt>
      <trkpt lat="48.05274" lon="6.55113">
        <ele>565</ele>
        <time>2018-04-28T07:25:26.000Z</time>
      </trkpt>
      <trkpt lat="48.05274" lon="6.55111">
        <ele>565</ele>
        <time>2018-04-28T07:25:27.000Z</time>
      </trkpt>
      <trkpt lat="48.05275" lon="6.5511">
        <ele>565</ele>
        <time>2018-04-28T07:25:28.000Z</time>
      </trkpt>
      <trkpt lat="48.05275" lon="6.55108">
        <ele>565</ele>
        <time>2018-04-28T07:25:29.000Z</time>
      </trkpt>
      <trkpt lat="48.05276" lon="6.55106">
        <ele>565</ele>
        <time>2018-04-28T07:25:30.000Z</time>
      </trkpt>
      <trkpt lat="48.05276" lon="6.55104">
        <ele>565</ele>
        <time>2018-04-28T07:25:31.000Z</time>
      </trkpt>
      <trkpt lat="48.05276" lon="6.55101">
        <ele>564</ele>
        <time>2018-04-28T07:25:32.000Z</time>
      </trkpt>
      <trkpt lat="48.05276" lon="6.55099">
        <ele>564</ele>
        <time>2018-04-28T07:25:33.000Z</time>
      </trkpt>
      <trkpt lat="48.05276" lon="6.55097">
        <ele>564</ele>
        <time>2018-04-28T07:25:34.000Z</time>
      </trkpt>
      <trkpt lat="48.05277" lon="6.55095">
        <ele>564</ele>
        <time>2018-04-28T07:25:35.000Z</time>
      </trkpt>
      <trkpt lat="48.05277" lon="6.55093">
        <ele>564</ele>
        <time>2018-04-28T07:25:36.000Z</time>
      </trkpt>
      <trkpt lat="48.05277" lon="6.55091">
        <ele>564</ele>
        <time>2018-04-28T07:25:37.000Z</time>
      </trkpt>
      <trkpt lat="48.05278" lon="6.5509">
        <ele>564</ele>
        <time>2018-04-28T07:25:38.000Z</time>
      </trkpt>
      <trkpt lat="48.05278" lon="6.55088">
        <ele>564</ele>
        <time>2018-04-28T07:25:39.000Z</time>
      </trkpt>
      <trkpt lat="48.05278" lon="6.55087">
        <ele>564</ele>
        <time>2018-04-28T07:25:40.000Z</time>
      </trkpt>
      <trkpt lat="48.05278" lon="6.55086">
        <ele>564</ele>
        <time>2018-04-28T07:25:41.000Z</time>
      </trkpt>
      <trkpt lat="48.05278" lon="6.55084">
        <ele>564</ele>
        <time>2018-04-28T07:25:42.000Z</time>
      </trkpt>
      <trkpt lat="48.05279" lon="6.55083">
        <ele>564</ele>
        <time>2018-04-28T07:25:43.000Z</time>
      </trkpt>
      <trkpt lat="48.05279" lon="6.55081">
        <ele>564</ele>
        <time>2018-04-28T07:25:44.000Z</time>
      </trkpt>
      <trkpt lat="48.05279" lon="6.55079">
        <ele>564</ele>
        <time>2018-04-28T07:25:45.000Z</time>
      </trkpt>
      <trkpt lat="48.05279" lon="6.55077">
        <ele>564</ele>
        <time>2018-04-28T07:25:46.000Z</time>
      </trkpt>
      <trkpt lat="48.05279" lon="6.55075">
        <ele>564</ele>
        <time>2018-04-28T07:25:47.000Z</time>
      </trkpt>
      <trkpt lat="48.0528" lon="6.55073">
        <ele>564</ele>
        <time>2018-04-28T07:25:48.000Z</time>
      </trkpt>
      <trkpt lat="48.0528" lon="6.55071">
        <ele>564</ele>
        <time>2018-04-28T07:25:49.000Z</time>
      </trkpt>
      <trkpt lat="48.05281" lon="6.55069">
        <ele>564</ele>
        <time>2018-04-28T07:25:50.000Z</time>
      </trkpt>
      <trkpt lat="48.05281" lon="6.55067">
        <ele>564</ele>
        <time>2018-04-28T07:25:51.000Z</time>
      </trkpt>
      <trkpt lat="48.05282" lon="6.55065">
        <ele>565</ele>
        <time>2018-04-28T07:25:52.000Z</time>
      </trkpt>
      <trkpt lat="48.05283" lon="6.55062">
        <ele>565</ele>
        <time>2018-04-28T07:25:53.000Z</time>
      </trkpt>
      <trkpt lat="48.05283" lon="6.5506">
        <ele>565</ele>
        <time>2018-04-28T07:25:54.000Z</time>
      </trkpt>
      <trkpt lat="48.05284" lon="6.55058">
        <ele>565</ele>
        <time>2018-04-28T07:25:55.000Z</time>
      </trkpt>
      <trkpt lat="48.05284" lon="6.55057">
        <ele>565</ele>
        <time>2018-04-28T07:25:56.000Z</time>
      </trkpt>
      <trkpt lat="48.05284" lon="6.55054">
        <ele>565</ele>
        <time>2018-04-28T07:25:57.000Z</time>
      </trkpt>
      <trkpt lat="48.05285" lon="6.55053">
        <ele>565</ele>
        <time>2018-04-28T07:25:58.000Z</time>
      </trkpt>
      <trkpt lat="48.05285" lon="6.55051">
        <ele>565</ele>
        <time>2018-04-28T07:25:59.000Z</time>
      </trkpt>
      <trkpt lat="48.05286" lon="6.55049">
        <ele>565</ele>
        <time>2018-04-28T07:26:00.000Z</time>
      </trkpt>
      <trkpt lat="48.05286" lon="6.55047">
        <ele>565</ele>
        <time>2018-04-28T07:26:01.000Z</time>
      </trkpt>
      <trkpt lat="48.05287" lon="6.55044">
        <ele>566</ele>
        <time>2018-04-28T07:26:02.000Z</time>
      </trkpt>
      <trkpt lat="48.05287" lon="6.55042">
        <ele>566</ele>
        <time>2018-04-28T07:26:03.000Z</time>
      </trkpt>
      <trkpt lat="48.05288" lon="6.5504">
        <ele>566</ele>
        <time>2018-04-28T07:26:04.000Z</time>
      </trkpt>
      <trkpt lat="48.05288" lon="6.55037">
        <ele>566</ele>
        <time>2018-04-28T07:26:05.000Z</time>
      </trkpt>
      <trkpt lat="48.05288" lon="6.55036">
        <ele>566</ele>
        <time>2018-04-28T07:26:06.000Z</time>
      </trkpt>
      <trkpt lat="48.05288" lon="6.55033">
        <ele>566</ele>
        <time>2018-04-28T07:26:07.000Z</time>
      </trkpt>
      <trkpt lat="48.05289" lon="6.55031">
        <ele>566</ele>
        <time>2018-04-28T07:26:08.000Z</time>
      </trkpt>
      <trkpt lat="48.0529" lon="6.55028">
        <ele>566</ele>
        <time>2018-04-28T07:26:09.000Z</time>
      </trkpt>
      <trkpt lat="48.05291" lon="6.55026">
        <ele>566</ele>
        <time>2018-04-28T07:26:10.000Z</time>
      </trkpt>
      <trkpt lat="48.05291" lon="6.55023">
        <ele>566</ele>
        <time>2018-04-28T07:26:11.000Z</time>
      </trkpt>
      <trkpt lat="48.05292" lon="6.55021">
        <ele>566</ele>
        <time>2018-04-28T07:26:12.000Z</time>
      </trkpt>
      <trkpt lat="48.05293" lon="6.55018">
        <ele>566</ele>
        <time>2018-04-28T07:26:13.000Z</time>
      </trkpt>
      <trkpt lat="48.05293" lon="6.55016">
        <ele>566</ele>
        <time>2018-04-28T07:26:14.000Z</time>
      </trkpt>
      <trkpt lat="48.05294" lon="6.55014">
        <ele>567</ele>
        <time>2018-04-28T07:26:15.000Z</time>
      </trkpt>
      <trkpt lat="48.05294" lon="6.55012">
        <ele>567</ele>
        <time>2018-04-28T07:26:16.000Z</time>
      </trkpt>
      <trkpt lat="48.05295" lon="6.5501">
        <ele>567</ele>
        <time>2018-04-28T07:26:17.000Z</time>
      </trkpt>
      <trkpt lat="48.05296" lon="6.55008">
        <ele>567</ele>
        <time>2018-04-28T07:26:18.000Z</time>
      </trkpt>
      <trkpt lat="48.05296" lon="6.55006">
        <ele>567</ele>
        <time>2018-04-28T07:26:19.000Z</time>
      </trkpt>
      <trkpt lat="48.05297" lon="6.55004">
        <ele>567</ele>
        <time>2018-04-28T07:26:20.000Z</time>
      </trkpt>
      <trkpt lat="48.05298" lon="6.55002">
        <ele>567</ele>
        <time>2018-04-28T07:26:21.000Z</time>
      </trkpt>
      <trkpt lat="48.05299" lon="6.55001">
        <ele>568</ele>
        <time>2018-04-28T07:26:22.000Z</time>
      </trkpt>
      <trkpt lat="48.05299" lon="6.54999">
        <ele>566</ele>
        <time>2018-04-28T07:26:23.000Z</time>
      </trkpt>
      <trkpt lat="48.053" lon="6.54997">
        <ele>566</ele>
        <time>2018-04-28T07:26:24.000Z</time>
      </trkpt>
      <trkpt lat="48.053" lon="6.54995">
        <ele>566</ele>
        <time>2018-04-28T07:26:25.000Z</time>
      </trkpt>
      <trkpt lat="48.05301" lon="6.54993">
        <ele>566</ele>
        <time>2018-04-28T07:26:26.000Z</time>
      </trkpt>
      <trkpt lat="48.05302" lon="6.54992">
        <ele>566</ele>
        <time>2018-04-28T07:26:27.000Z</time>
      </trkpt>
      <trkpt lat="48.05302" lon="6.5499">
        <ele>566</ele>
        <time>2018-04-28T07:26:28.000Z</time>
      </trkpt>
      <trkpt lat="48.05303" lon="6.54988">
        <ele>566</ele>
        <time>2018-04-28T07:26:29.000Z</time>
      </trkpt>
      <trkpt lat="48.05304" lon="6.54986">
        <ele>566</ele>
        <time>2018-04-28T07:26:30.000Z</time>
      </trkpt>
      <trkpt lat="48.05304" lon="6.54985">
        <ele>566</ele>
        <time>2018-04-28T07:26:31.000Z</time>
      </trkpt>
      <trkpt lat="48.05305" lon="6.54983">
        <ele>566</ele>
        <time>2018-04-28T07:26:32.000Z</time>
      </trkpt>
      <trkpt lat="48.05306" lon="6.54981">
        <ele>566</ele>
        <time>2018-04-28T07:26:33.000Z</time>
      </trkpt>
      <trkpt lat="48.05306" lon="6.54979">
        <ele>566</ele>
        <time>2018-04-28T07:26:34.000Z</time>
      </trkpt>
      <trkpt lat="48.05306" lon="6.54977">
        <ele>566</ele>
        <time>2018-04-28T07:26:35.000Z</time>
      </trkpt>
      <trkpt lat="48.05307" lon="6.54975">
        <ele>566</ele>
        <time>2018-04-28T07:26:36.000Z</time>
      </trkpt>
      <trkpt lat="48.05308" lon="6.54974">
        <ele>566</ele>
        <time>2018-04-28T07:26:37.000Z</time>
      </trkpt>
      <trkpt lat="48.05308" lon="6.54972">
        <ele>566</ele>
        <time>2018-04-28T07:26:38.000Z</time>
      </trkpt>
      <trkpt lat="48.05309" lon="6.5497">
        <ele>566</ele>
        <time>2018-04-28T07:26:39.000Z</time>
      </trkpt>
      <trkpt lat="48.05309" lon="6.54968">
        <ele>566</ele>
        <time>2018-04-28T07:26:40.000Z</time>
      </trkpt>
      <trkpt lat="48.0531" lon="6.54967">
        <ele>566</ele>
        <time>2018-04-28T07:26:41.000Z</time>
      </trkpt>
      <trkpt lat="48.05311" lon="6.54965">
        <ele>566</ele>
        <time>2018-04-28T07:26:42.000Z</time>
      </trkpt>
      <trkpt lat="48.05312" lon="6.54963">
        <ele>566</ele>
        <time>2018-04-28T07:26:43.000Z</time>
      </trkpt>
      <trkpt lat="48.05313" lon="6.54961">
        <ele>566</ele>
        <time>2018-04-28T07:26:44.000Z</time>
      </trkpt>
      <trkpt lat="48.05314" lon="6.54958">
        <ele>566</ele>
        <time>2018-04-28T07:26:45.000Z</time>
      </trkpt>
      <trkpt lat="48.05315" lon="6.54956">
        <ele>566</ele>
        <time>2018-04-28T07:26:46.000Z</time>
      </trkpt>
      <trkpt lat="48.05316" lon="6.54953">
        <ele>566</ele>
        <time>2018-04-28T07:26:47.000Z</time>
      </trkpt>
      <trkpt lat="48.05316" lon="6.54951">
        <ele>566</ele>
        <time>2018-04-28T07:26:48.000Z</time>
      </trkpt>
      <trkpt lat="48.05317" lon="6.54948">
        <ele>566</ele>
        <time>2018-04-28T07:26:49.000Z</time>
      </trkpt>
      <trkpt lat="48.05318" lon="6.54946">
        <ele>566</ele>
        <time>2018-04-28T07:26:50.000Z</time>
      </trkpt>
      <trkpt lat="48.05319" lon="6.54944">
        <ele>566</ele>
        <time>2018-04-28T07:26:51.000Z</time>
      </trkpt>
      <trkpt lat="48.0532" lon="6.54942">
        <ele>567</ele>
        <time>2018-04-28T07:26:52.000Z</time>
      </trkpt>
      <trkpt lat="48.05321" lon="6.54939">
        <ele>567</ele>
        <time>2018-04-28T07:26:53.000Z</time>
      </trkpt>
      <trkpt lat="48.05322" lon="6.54936">
        <ele>567</ele>
        <time>2018-04-28T07:26:54.000Z</time>
      </trkpt>
      <trkpt lat="48.05323" lon="6.54934">
        <ele>567</ele>
        <time>2018-04-28T07:26:55.000Z</time>
      </trkpt>
      <trkpt lat="48.05324" lon="6.54932">
        <ele>568</ele>
        <time>2018-04-28T07:26:56.000Z</time>
      </trkpt>
      <trkpt lat="48.05324" lon="6.54929">
        <ele>568</ele>
        <time>2018-04-28T07:26:57.000Z</time>
      </trkpt>
      <trkpt lat="48.05325" lon="6.54927">
        <ele>568</ele>
        <time>2018-04-28T07:26:58.000Z</time>
      </trkpt>
      <trkpt lat="48.05326" lon="6.54924">
        <ele>569</ele>
        <time>2018-04-28T07:26:59.000Z</time>
      </trkpt>
      <trkpt lat="48.05327" lon="6.54922">
        <ele>569</ele>
        <time>2018-04-28T07:27:00.000Z</time>
      </trkpt>
      <trkpt lat="48.05328" lon="6.54919">
        <ele>570</ele>
        <time>2018-04-28T07:27:01.000Z</time>
      </trkpt>
      <trkpt lat="48.05328" lon="6.54917">
        <ele>570</ele>
        <time>2018-04-28T07:27:02.000Z</time>
      </trkpt>
      <trkpt lat="48.05329" lon="6.54914">
        <ele>569</ele>
        <time>2018-04-28T07:27:03.000Z</time>
      </trkpt>
      <trkpt lat="48.0533" lon="6.54912">
        <ele>569</ele>
        <time>2018-04-28T07:27:04.000Z</time>
      </trkpt>
      <trkpt lat="48.05331" lon="6.5491">
        <ele>568</ele>
        <time>2018-04-28T07:27:05.000Z</time>
      </trkpt>
      <trkpt lat="48.05332" lon="6.54907">
        <ele>568</ele>
        <time>2018-04-28T07:27:06.000Z</time>
      </trkpt>
      <trkpt lat="48.05333" lon="6.54905">
        <ele>567</ele>
        <time>2018-04-28T07:27:07.000Z</time>
      </trkpt>
      <trkpt lat="48.05333" lon="6.54902">
        <ele>566</ele>
        <time>2018-04-28T07:27:08.000Z</time>
      </trkpt>
      <trkpt lat="48.05334" lon="6.54901">
        <ele>574</ele>
        <time>2018-04-28T07:27:09.000Z</time>
      </trkpt>
      <trkpt lat="48.05335" lon="6.54899">
        <ele>575</ele>
        <time>2018-04-28T07:27:10.000Z</time>
      </trkpt>
      <trkpt lat="48.05336" lon="6.54897">
        <ele>575</ele>
        <time>2018-04-28T07:27:11.000Z</time>
      </trkpt>
      <trkpt lat="48.05337" lon="6.54895">
        <ele>575</ele>
        <time>2018-04-28T07:27:12.000Z</time>
      </trkpt>
      <trkpt lat="48.05338" lon="6.54893">
        <ele>575</ele>
        <time>2018-04-28T07:27:13.000Z</time>
      </trkpt>
      <trkpt lat="48.05339" lon="6.54892">
        <ele>575</ele>
        <time>2018-04-28T07:27:14.000Z</time>
      </trkpt>
      <trkpt lat="48.0534" lon="6.5489">
        <ele>575</ele>
        <time>2018-04-28T07:27:15.000Z</time>
      </trkpt>
      <trkpt lat="48.0534" lon="6.54888">
        <ele>575</ele>
        <time>2018-04-28T07:27:16.000Z</time>
      </trkpt>
      <trkpt lat="48.05341" lon="6.54887">
        <ele>575</ele>
        <time>2018-04-28T07:27:17.000Z</time>
      </trkpt>
      <trkpt lat="48.05342" lon="6.54885">
        <ele>575</ele>
        <time>2018-04-28T07:27:18.000Z</time>
      </trkpt>
      <trkpt lat="48.05343" lon="6.54884">
        <ele>575</ele>
        <time>2018-04-28T07:27:19.000Z</time>
      </trkpt>
      <trkpt lat="48.05344" lon="6.54882">
        <ele>575</ele>
        <time>2018-04-28T07:27:20.000Z</time>
      </trkpt>
      <trkpt lat="48.05345" lon="6.54881">
        <ele>575</ele>
        <time>2018-04-28T07:27:21.000Z</time>
      </trkpt>
      <trkpt lat="48.05347" lon="6.54879">
        <ele>575</ele>
        <time>2018-04-28T07:27:22.000Z</time>
      </trkpt>
      <trkpt lat="48.05348" lon="6.54877">
        <ele>575</ele>
        <time>2018-04-28T07:27:23.000Z</time>
      </trkpt>
      <trkpt lat="48.05349" lon="6.54876">
        <ele>575</ele>
        <time>2018-04-28T07:27:24.000Z</time>
      </trkpt>
      <trkpt lat="48.0535" lon="6.54874">
        <ele>575</ele>
        <time>2018-04-28T07:27:25.000Z</time>
      </trkpt>
      <trkpt lat="48.05352" lon="6.54873">
        <ele>576</ele>
        <time>2018-04-28T07:27:26.000Z</time>
      </trkpt>
      <trkpt lat="48.05353" lon="6.54871">
        <ele>576</ele>
        <time>2018-04-28T07:27:27.000Z</time>
      </trkpt>
      <trkpt lat="48.05354" lon="6.5487">
        <ele>576</ele>
        <time>2018-04-28T07:27:28.000Z</time>
      </trkpt>
      <trkpt lat="48.05355" lon="6.54868">
        <ele>576</ele>
        <time>2018-04-28T07:27:29.000Z</time>
      </trkpt>
      <trkpt lat="48.05355" lon="6.54866">
        <ele>575</ele>
        <time>2018-04-28T07:27:30.000Z</time>
      </trkpt>
      <trkpt lat="48.05356" lon="6.54864">
        <ele>575</ele>
        <time>2018-04-28T07:27:31.000Z</time>
      </trkpt>
      <trkpt lat="48.05357" lon="6.54862">
        <ele>575</ele>
        <time>2018-04-28T07:27:32.000Z</time>
      </trkpt>
      <trkpt lat="48.05358" lon="6.54861">
        <ele>575</ele>
        <time>2018-04-28T07:27:33.000Z</time>
      </trkpt>
      <trkpt lat="48.05359" lon="6.54859">
        <ele>575</ele>
        <time>2018-04-28T07:27:34.000Z</time>
      </trkpt>
      <trkpt lat="48.05359" lon="6.54857">
        <ele>575</ele>
        <time>2018-04-28T07:27:35.000Z</time>
      </trkpt>
      <trkpt lat="48.0536" lon="6.54855">
        <ele>575</ele>
        <time>2018-04-28T07:27:36.000Z</time>
      </trkpt>
      <trkpt lat="48.05361" lon="6.54853">
        <ele>575</ele>
        <time>2018-04-28T07:27:37.000Z</time>
      </trkpt>
      <trkpt lat="48.05362" lon="6.54852">
        <ele>575</ele>
        <time>2018-04-28T07:27:38.000Z</time>
      </trkpt>
      <trkpt lat="48.05364" lon="6.5485">
        <ele>575</ele>
        <time>2018-04-28T07:27:39.000Z</time>
      </trkpt>
      <trkpt lat="48.05365" lon="6.54848">
        <ele>575</ele>
        <time>2018-04-28T07:27:40.000Z</time>
      </trkpt>
      <trkpt lat="48.05365" lon="6.54846">
        <ele>575</ele>
        <time>2018-04-28T07:27:41.000Z</time>
      </trkpt>
      <trkpt lat="48.05366" lon="6.54845">
        <ele>575</ele>
        <time>2018-04-28T07:27:42.000Z</time>
      </trkpt>
      <trkpt lat="48.05367" lon="6.54843">
        <ele>576</ele>
        <time>2018-04-28T07:27:43.000Z</time>
      </trkpt>
      <trkpt lat="48.05368" lon="6.54842">
        <ele>576</ele>
        <time>2018-04-28T07:27:44.000Z</time>
      </trkpt>
      <trkpt lat="48.05368" lon="6.54841">
        <ele>576</ele>
        <time>2018-04-28T07:27:45.000Z</time>
      </trkpt>
      <trkpt lat="48.05369" lon="6.54839">
        <ele>576</ele>
        <time>2018-04-28T07:27:46.000Z</time>
      </trkpt>
      <trkpt lat="48.0537" lon="6.54837">
        <ele>576</ele>
        <time>2018-04-28T07:27:47.000Z</time>
      </trkpt>
      <trkpt lat="48.05371" lon="6.54835">
        <ele>576</ele>
        <time>2018-04-28T07:27:48.000Z</time>
      </trkpt>
      <trkpt lat="48.05372" lon="6.54833">
        <ele>572</ele>
        <time>2018-04-28T07:27:49.000Z</time>
      </trkpt>
      <trkpt lat="48.05372" lon="6.54832">
        <ele>572</ele>
        <time>2018-04-28T07:27:50.000Z</time>
      </trkpt>
      <trkpt lat="48.05373" lon="6.5483">
        <ele>572</ele>
        <time>2018-04-28T07:27:51.000Z</time>
      </trkpt>
      <trkpt lat="48.05374" lon="6.54828">
        <ele>572</ele>
        <time>2018-04-28T07:27:52.000Z</time>
      </trkpt>
      <trkpt lat="48.05375" lon="6.54826">
        <ele>573</ele>
        <time>2018-04-28T07:27:53.000Z</time>
      </trkpt>
      <trkpt lat="48.05376" lon="6.54824">
        <ele>573</ele>
        <time>2018-04-28T07:27:54.000Z</time>
      </trkpt>
      <trkpt lat="48.05377" lon="6.54822">
        <ele>573</ele>
        <time>2018-04-28T07:27:55.000Z</time>
      </trkpt>
      <trkpt lat="48.05378" lon="6.5482">
        <ele>573</ele>
        <time>2018-04-28T07:27:56.000Z</time>
      </trkpt>
      <trkpt lat="48.05379" lon="6.54818">
        <ele>573</ele>
        <time>2018-04-28T07:27:57.000Z</time>
      </trkpt>
      <trkpt lat="48.05379" lon="6.54816">
        <ele>573</ele>
        <time>2018-04-28T07:27:58.000Z</time>
      </trkpt>
      <trkpt lat="48.0538" lon="6.54813">
        <ele>573</ele>
        <time>2018-04-28T07:27:59.000Z</time>
      </trkpt>
      <trkpt lat="48.05381" lon="6.54811">
        <ele>573</ele>
        <time>2018-04-28T07:28:00.000Z</time>
      </trkpt>
      <trkpt lat="48.05382" lon="6.5481">
        <ele>573</ele>
        <time>2018-04-28T07:28:01.000Z</time>
      </trkpt>
      <trkpt lat="48.05383" lon="6.54808">
        <ele>573</ele>
        <time>2018-04-28T07:28:02.000Z</time>
      </trkpt>
      <trkpt lat="48.05384" lon="6.54806">
        <ele>573</ele>
        <time>2018-04-28T07:28:03.000Z</time>
      </trkpt>
      <trkpt lat="48.05386" lon="6.54803">
        <ele>573</ele>
        <time>2018-04-28T07:28:04.000Z</time>
      </trkpt>
      <trkpt lat="48.05387" lon="6.54802">
        <ele>573</ele>
        <time>2018-04-28T07:28:05.000Z</time>
      </trkpt>
      <trkpt lat="48.05388" lon="6.548">
        <ele>573</ele>
        <time>2018-04-28T07:28:06.000Z</time>
      </trkpt>
      <trkpt lat="48.0539" lon="6.54798">
        <ele>573</ele>
        <time>2018-04-28T07:28:07.000Z</time>
      </trkpt>
      <trkpt lat="48.05391" lon="6.54796">
        <ele>573</ele>
        <time>2018-04-28T07:28:08.000Z</time>
      </trkpt>
      <trkpt lat="48.05392" lon="6.54795">
        <ele>573</ele>
        <time>2018-04-28T07:28:09.000Z</time>
      </trkpt>
      <trkpt lat="48.05393" lon="6.54793">
        <ele>573</ele>
        <time>2018-04-28T07:28:10.000Z</time>
      </trkpt>
      <trkpt lat="48.05394" lon="6.54792">
        <ele>573</ele>
        <time>2018-04-28T07:28:11.000Z</time>
      </trkpt>
      <trkpt lat="48.05395" lon="6.54791">
        <ele>573</ele>
        <time>2018-04-28T07:28:12.000Z</time>
      </trkpt>
      <trkpt lat="48.05396" lon="6.54789">
        <ele>573</ele>
        <time>2018-04-28T07:28:13.000Z</time>
      </trkpt>
      <trkpt lat="48.05398" lon="6.54788">
        <ele>573</ele>
        <time>2018-04-28T07:28:14.000Z</time>
      </trkpt>
      <trkpt lat="48.05399" lon="6.54787">
        <ele>573</ele>
        <time>2018-04-28T07:28:15.000Z</time>
      </trkpt>
      <trkpt lat="48.054" lon="6.54786">
        <ele>573</ele>
        <time>2018-04-28T07:28:16.000Z</time>
      </trkpt>
      <trkpt lat="48.05401" lon="6.54784">
        <ele>573</ele>
        <time>2018-04-28T07:28:17.000Z</time>
      </trkpt>
      <trkpt lat="48.05402" lon="6.54783">
        <ele>573</ele>
        <time>2018-04-28T07:28:18.000Z</time>
      </trkpt>
      <trkpt lat="48.05403" lon="6.54782">
        <ele>573</ele>
        <time>2018-04-28T07:28:19.000Z</time>
      </trkpt>
      <trkpt lat="48.05404" lon="6.5478">
        <ele>573</ele>
        <time>2018-04-28T07:28:20.000Z</time>
      </trkpt>
      <trkpt lat="48.05406" lon="6.54779">
        <ele>573</ele>
        <time>2018-04-28T07:28:21.000Z</time>
      </trkpt>
      <trkpt lat="48.05407" lon="6.54777">
        <ele>573</ele>
        <time>2018-04-28T07:28:22.000Z</time>
      </trkpt>
      <trkpt lat="48.05408" lon="6.54776">
        <ele>573</ele>
        <time>2018-04-28T07:28:23.000Z</time>
      </trkpt>
      <trkpt lat="48.05409" lon="6.54774">
        <ele>573</ele>
        <time>2018-04-28T07:28:24.000Z</time>
      </trkpt>
      <trkpt lat="48.0541" lon="6.54773">
        <ele>573</ele>
        <time>2018-04-28T07:28:25.000Z</time>
      </trkpt>
      <trkpt lat="48.05412" lon="6.54772">
        <ele>573</ele>
        <time>2018-04-28T07:28:26.000Z</time>
      </trkpt>
      <trkpt lat="48.05413" lon="6.54771">
        <ele>574</ele>
        <time>2018-04-28T07:28:27.000Z</time>
      </trkpt>
      <trkpt lat="48.05414" lon="6.5477">
        <ele>574</ele>
        <time>2018-04-28T07:28:28.000Z</time>
      </trkpt>
      <trkpt lat="48.05415" lon="6.54769">
        <ele>574</ele>
        <time>2018-04-28T07:28:29.000Z</time>
      </trkpt>
      <trkpt lat="48.05416" lon="6.54768">
        <ele>574</ele>
        <time>2018-04-28T07:28:30.000Z</time>
      </trkpt>
      <trkpt lat="48.05417" lon="6.54767">
        <ele>574</ele>
        <time>2018-04-28T07:28:31.000Z</time>
      </trkpt>
      <trkpt lat="48.05417" lon="6.54766">
        <ele>576</ele>
        <time>2018-04-28T07:28:32.000Z</time>
      </trkpt>
      <trkpt lat="48.05419" lon="6.54765">
        <ele>576</ele>
        <time>2018-04-28T07:28:33.000Z</time>
      </trkpt>
      <trkpt lat="48.0542" lon="6.54765">
        <ele>576</ele>
        <time>2018-04-28T07:28:34.000Z</time>
      </trkpt>
      <trkpt lat="48.05421" lon="6.54764">
        <ele>576</ele>
        <time>2018-04-28T07:28:35.000Z</time>
      </trkpt>
      <trkpt lat="48.05422" lon="6.54763">
        <ele>576</ele>
        <time>2018-04-28T07:28:36.000Z</time>
      </trkpt>
      <trkpt lat="48.05423" lon="6.54763">
        <ele>576</ele>
        <time>2018-04-28T07:28:37.000Z</time>
      </trkpt>
      <trkpt lat="48.05424" lon="6.54762">
        <ele>576</ele>
        <time>2018-04-28T07:28:38.000Z</time>
      </trkpt>
      <trkpt lat="48.05425" lon="6.54761">
        <ele>576</ele>
        <time>2018-04-28T07:28:39.000Z</time>
      </trkpt>
      <trkpt lat="48.05426" lon="6.54759">
        <ele>576</ele>
        <time>2018-04-28T07:28:40.000Z</time>
      </trkpt>
      <trkpt lat="48.05427" lon="6.54758">
        <ele>576</ele>
        <time>2018-04-28T07:28:41.000Z</time>
      </trkpt>
      <trkpt lat="48.05428" lon="6.54757">
        <ele>576</ele>
        <time>2018-04-28T07:28:42.000Z</time>
      </trkpt>
      <trkpt lat="48.05429" lon="6.54756">
        <ele>576</ele>
        <time>2018-04-28T07:28:43.000Z</time>
      </trkpt>
      <trkpt lat="48.0543" lon="6.54755">
        <ele>576</ele>
        <time>2018-04-28T07:28:44.000Z</time>
      </trkpt>
      <trkpt lat="48.05432" lon="6.54753">
        <ele>576</ele>
        <time>2018-04-28T07:28:45.000Z</time>
      </trkpt>
      <trkpt lat="48.05433" lon="6.54752">
        <ele>576</ele>
        <time>2018-04-28T07:28:46.000Z</time>
      </trkpt>
      <trkpt lat="48.05434" lon="6.54751">
        <ele>576</ele>
        <time>2018-04-28T07:28:47.000Z</time>
      </trkpt>
      <trkpt lat="48.05435" lon="6.5475">
        <ele>572</ele>
        <time>2018-04-28T07:28:48.000Z</time>
      </trkpt>
      <trkpt lat="48.05436" lon="6.54748">
        <ele>572</ele>
        <time>2018-04-28T07:28:49.000Z</time>
      </trkpt>
      <trkpt lat="48.05438" lon="6.54747">
        <ele>572</ele>
        <time>2018-04-28T07:28:50.000Z</time>
      </trkpt>
      <trkpt lat="48.05439" lon="6.54745">
        <ele>571</ele>
        <time>2018-04-28T07:28:51.000Z</time>
      </trkpt>
      <trkpt lat="48.0544" lon="6.54744">
        <ele>571</ele>
        <time>2018-04-28T07:28:52.000Z</time>
      </trkpt>
      <trkpt lat="48.05441" lon="6.54742">
        <ele>571</ele>
        <time>2018-04-28T07:28:53.000Z</time>
      </trkpt>
      <trkpt lat="48.05442" lon="6.54741">
        <ele>571</ele>
        <time>2018-04-28T07:28:54.000Z</time>
      </trkpt>
      <trkpt lat="48.05443" lon="6.5474">
        <ele>571</ele>
        <time>2018-04-28T07:28:55.000Z</time>
      </trkpt>
      <trkpt lat="48.05445" lon="6.54739">
        <ele>571</ele>
        <time>2018-04-28T07:28:56.000Z</time>
      </trkpt>
      <trkpt lat="48.05446" lon="6.54738">
        <ele>571</ele>
        <time>2018-04-28T07:28:57.000Z</time>
      </trkpt>
      <trkpt lat="48.05447" lon="6.54736">
        <ele>571</ele>
        <time>2018-04-28T07:28:58.000Z</time>
      </trkpt>
      <trkpt lat="48.05448" lon="6.54735">
        <ele>570</ele>
        <time>2018-04-28T07:28:59.000Z</time>
      </trkpt>
      <trkpt lat="48.05449" lon="6.54735">
        <ele>570</ele>
        <time>2018-04-28T07:29:00.000Z</time>
      </trkpt>
      <trkpt lat="48.05451" lon="6.54734">
        <ele>570</ele>
        <time>2018-04-28T07:29:01.000Z</time>
      </trkpt>
      <trkpt lat="48.05452" lon="6.54732">
        <ele>570</ele>
        <time>2018-04-28T07:29:02.000Z</time>
      </trkpt>
      <trkpt lat="48.05453" lon="6.54731">
        <ele>570</ele>
        <time>2018-04-28T07:29:03.000Z</time>
      </trkpt>
      <trkpt lat="48.05455" lon="6.5473">
        <ele>570</ele>
        <time>2018-04-28T07:29:04.000Z</time>
      </trkpt>
      <trkpt lat="48.05457" lon="6.54729">
        <ele>570</ele>
        <time>2018-04-28T07:29:05.000Z</time>
      </trkpt>
      <trkpt lat="48.05459" lon="6.54728">
        <ele>570</ele>
        <time>2018-04-28T07:29:06.000Z</time>
      </trkpt>
      <trkpt lat="48.0546" lon="6.54727">
        <ele>570</ele>
        <time>2018-04-28T07:29:07.000Z</time>
      </trkpt>
      <trkpt lat="48.05462" lon="6.54726">
        <ele>570</ele>
        <time>2018-04-28T07:29:08.000Z</time>
      </trkpt>
      <trkpt lat="48.05464" lon="6.54726">
        <ele>570</ele>
        <time>2018-04-28T07:29:09.000Z</time>
      </trkpt>
      <trkpt lat="48.05465" lon="6.54726">
        <ele>570</ele>
        <time>2018-04-28T07:29:10.000Z</time>
      </trkpt>
      <trkpt lat="48.05467" lon="6.54726">
        <ele>570</ele>
        <time>2018-04-28T07:29:11.000Z</time>
      </trkpt>
      <trkpt lat="48.05469" lon="6.54725">
        <ele>570</ele>
        <time>2018-04-28T07:29:12.000Z</time>
      </trkpt>
      <trkpt lat="48.05471" lon="6.54725">
        <ele>570</ele>
        <time>2018-04-28T07:29:13.000Z</time>
      </trkpt>
      <trkpt lat="48.05472" lon="6.54725">
        <ele>570</ele>
        <time>2018-04-28T07:29:14.000Z</time>
      </trkpt>
      <trkpt lat="48.05474" lon="6.54725">
        <ele>570</ele>
        <time>2018-04-28T07:29:15.000Z</time>
      </trkpt>
      <trkpt lat="48.05476" lon="6.54726">
        <ele>570</ele>
        <time>2018-04-28T07:29:16.000Z</time>
      </trkpt>
      <trkpt lat="48.05478" lon="6.54726">
        <ele>570</ele>
        <time>2018-04-28T07:29:17.000Z</time>
      </trkpt>
      <trkpt lat="48.0548" lon="6.54727">
        <ele>570</ele>
        <time>2018-04-28T07:29:18.000Z</time>
      </trkpt>
      <trkpt lat="48.05482" lon="6.54728">
        <ele>570</ele>
        <time>2018-04-28T07:29:19.000Z</time>
      </trkpt>
      <trkpt lat="48.05484" lon="6.54729">
        <ele>570</ele>
        <time>2018-04-28T07:29:20.000Z</time>
      </trkpt>
      <trkpt lat="48.05486" lon="6.5473">
        <ele>570</ele>
        <time>2018-04-28T07:29:21.000Z</time>
      </trkpt>
      <trkpt lat="48.05488" lon="6.54731">
        <ele>570</ele>
        <time>2018-04-28T07:29:22.000Z</time>
      </trkpt>
      <trkpt lat="48.05489" lon="6.54732">
        <ele>570</ele>
        <time>2018-04-28T07:29:23.000Z</time>
      </trkpt>
      <trkpt lat="48.05491" lon="6.54733">
        <ele>570</ele>
        <time>2018-04-28T07:29:24.000Z</time>
      </trkpt>
      <trkpt lat="48.05493" lon="6.54735">
        <ele>570</ele>
        <time>2018-04-28T07:29:25.000Z</time>
      </trkpt>
      <trkpt lat="48.05495" lon="6.54736">
        <ele>571</ele>
        <time>2018-04-28T07:29:26.000Z</time>
      </trkpt>
      <trkpt lat="48.05496" lon="6.54737">
        <ele>571</ele>
        <time>2018-04-28T07:29:27.000Z</time>
      </trkpt>
      <trkpt lat="48.05498" lon="6.54739">
        <ele>571</ele>
        <time>2018-04-28T07:29:28.000Z</time>
      </trkpt>
      <trkpt lat="48.05499" lon="6.5474">
        <ele>571</ele>
        <time>2018-04-28T07:29:29.000Z</time>
      </trkpt>
      <trkpt lat="48.05501" lon="6.54741">
        <ele>569</ele>
        <time>2018-04-28T07:29:30.000Z</time>
      </trkpt>
      <trkpt lat="48.05503" lon="6.54742">
        <ele>569</ele>
        <time>2018-04-28T07:29:31.000Z</time>
      </trkpt>
      <trkpt lat="48.05504" lon="6.54742">
        <ele>569</ele>
        <time>2018-04-28T07:29:32.000Z</time>
      </trkpt>
      <trkpt lat="48.05506" lon="6.54743">
        <ele>569</ele>
        <time>2018-04-28T07:29:33.000Z</time>
      </trkpt>
      <trkpt lat="48.05508" lon="6.54744">
        <ele>569</ele>
        <time>2018-04-28T07:29:34.000Z</time>
      </trkpt>
      <trkpt lat="48.0551" lon="6.54744">
        <ele>568</ele>
        <time>2018-04-28T07:29:35.000Z</time>
      </trkpt>
      <trkpt lat="48.05511" lon="6.54744">
        <ele>568</ele>
        <time>2018-04-28T07:29:36.000Z</time>
      </trkpt>
      <trkpt lat="48.05513" lon="6.54744">
        <ele>568</ele>
        <time>2018-04-28T07:29:37.000Z</time>
      </trkpt>
      <trkpt lat="48.05515" lon="6.54744">
        <ele>567</ele>
        <time>2018-04-28T07:29:38.000Z</time>
      </trkpt>
      <trkpt lat="48.05517" lon="6.54743">
        <ele>567</ele>
        <time>2018-04-28T07:29:39.000Z</time>
      </trkpt>
      <trkpt lat="48.05518" lon="6.54743">
        <ele>567</ele>
        <time>2018-04-28T07:29:40.000Z</time>
      </trkpt>
      <trkpt lat="48.0552" lon="6.54742">
        <ele>566</ele>
        <time>2018-04-28T07:29:41.000Z</time>
      </trkpt>
      <trkpt lat="48.05521" lon="6.54741">
        <ele>566</ele>
        <time>2018-04-28T07:29:42.000Z</time>
      </trkpt>
      <trkpt lat="48.05523" lon="6.54739">
        <ele>566</ele>
        <time>2018-04-28T07:29:43.000Z</time>
      </trkpt>
      <trkpt lat="48.05524" lon="6.54737">
        <ele>565</ele>
        <time>2018-04-28T07:29:44.000Z</time>
      </trkpt>
      <trkpt lat="48.05525" lon="6.54736">
        <ele>565</ele>
        <time>2018-04-28T07:29:45.000Z</time>
      </trkpt>
      <trkpt lat="48.05526" lon="6.54734">
        <ele>565</ele>
        <time>2018-04-28T07:29:46.000Z</time>
      </trkpt>
      <trkpt lat="48.05527" lon="6.54732">
        <ele>565</ele>
        <time>2018-04-28T07:29:47.000Z</time>
      </trkpt>
      <trkpt lat="48.05529" lon="6.5473">
        <ele>564</ele>
        <time>2018-04-28T07:29:48.000Z</time>
      </trkpt>
      <trkpt lat="48.0553" lon="6.54729">
        <ele>564</ele>
        <time>2018-04-28T07:29:49.000Z</time>
      </trkpt>
      <trkpt lat="48.05531" lon="6.54727">
        <ele>564</ele>
        <time>2018-04-28T07:29:50.000Z</time>
      </trkpt>
      <trkpt lat="48.05532" lon="6.54725">
        <ele>564</ele>
        <time>2018-04-28T07:29:51.000Z</time>
      </trkpt>
      <trkpt lat="48.05533" lon="6.54723">
        <ele>564</ele>
        <time>2018-04-28T07:29:52.000Z</time>
      </trkpt>
      <trkpt lat="48.05534" lon="6.54721">
        <ele>563</ele>
        <time>2018-04-28T07:29:53.000Z</time>
      </trkpt>
      <trkpt lat="48.05535" lon="6.54719">
        <ele>563</ele>
        <time>2018-04-28T07:29:54.000Z</time>
      </trkpt>
      <trkpt lat="48.05536" lon="6.54717">
        <ele>563</ele>
        <time>2018-04-28T07:29:55.000Z</time>
      </trkpt>
      <trkpt lat="48.05537" lon="6.54715">
        <ele>563</ele>
        <time>2018-04-28T07:29:56.000Z</time>
      </trkpt>
      <trkpt lat="48.05539" lon="6.54713">
        <ele>563</ele>
        <time>2018-04-28T07:29:57.000Z</time>
      </trkpt>
      <trkpt lat="48.0554" lon="6.54711">
        <ele>563</ele>
        <time>2018-04-28T07:29:58.000Z</time>
      </trkpt>
      <trkpt lat="48.05541" lon="6.5471">
        <ele>563</ele>
        <time>2018-04-28T07:29:59.000Z</time>
      </trkpt>
      <trkpt lat="48.05543" lon="6.54708">
        <ele>562</ele>
        <time>2018-04-28T07:30:00.000Z</time>
      </trkpt>
      <trkpt lat="48.05544" lon="6.54707">
        <ele>562</ele>
        <time>2018-04-28T07:30:01.000Z</time>
      </trkpt>
      <trkpt lat="48.05546" lon="6.54705">
        <ele>562</ele>
        <time>2018-04-28T07:30:02.000Z</time>
      </trkpt>
      <trkpt lat="48.05547" lon="6.54705">
        <ele>562</ele>
        <time>2018-04-28T07:30:03.000Z</time>
      </trkpt>
      <trkpt lat="48.05549" lon="6.54704">
        <ele>562</ele>
        <time>2018-04-28T07:30:04.000Z</time>
      </trkpt>
      <trkpt lat="48.0555" lon="6.54703">
        <ele>562</ele>
        <time>2018-04-28T07:30:05.000Z</time>
      </trkpt>
      <trkpt lat="48.05552" lon="6.54702">
        <ele>562</ele>
        <time>2018-04-28T07:30:06.000Z</time>
      </trkpt>
      <trkpt lat="48.05553" lon="6.54701">
        <ele>562</ele>
        <time>2018-04-28T07:30:07.000Z</time>
      </trkpt>
      <trkpt lat="48.05555" lon="6.54701">
        <ele>562</ele>
        <time>2018-04-28T07:30:08.000Z</time>
      </trkpt>
      <trkpt lat="48.05556" lon="6.54701">
        <ele>562</ele>
        <time>2018-04-28T07:30:09.000Z</time>
      </trkpt>
      <trkpt lat="48.05558" lon="6.547">
        <ele>561</ele>
        <time>2018-04-28T07:30:10.000Z</time>
      </trkpt>
      <trkpt lat="48.0556" lon="6.547">
        <ele>561</ele>
        <time>2018-04-28T07:30:11.000Z</time>
      </trkpt>
      <trkpt lat="48.05561" lon="6.547">
        <ele>561</ele>
        <time>2018-04-28T07:30:12.000Z</time>
      </trkpt>
      <trkpt lat="48.05563" lon="6.54699">
        <ele>561</ele>
        <time>2018-04-28T07:30:13.000Z</time>
      </trkpt>
      <trkpt lat="48.05564" lon="6.54699">
        <ele>561</ele>
        <time>2018-04-28T07:30:14.000Z</time>
      </trkpt>
      <trkpt lat="48.05566" lon="6.54699">
        <ele>561</ele>
        <time>2018-04-28T07:30:15.000Z</time>
      </trkpt>
      <trkpt lat="48.05567" lon="6.54699">
        <ele>561</ele>
        <time>2018-04-28T07:30:16.000Z</time>
      </trkpt>
      <trkpt lat="48.05569" lon="6.547">
        <ele>561</ele>
        <time>2018-04-28T07:30:17.000Z</time>
      </trkpt>
      <trkpt lat="48.05571" lon="6.547">
        <ele>561</ele>
        <time>2018-04-28T07:30:18.000Z</time>
      </trkpt>
      <trkpt lat="48.05573" lon="6.547">
        <ele>561</ele>
        <time>2018-04-28T07:30:19.000Z</time>
      </trkpt>
      <trkpt lat="48.05574" lon="6.54701">
        <ele>561</ele>
        <time>2018-04-28T07:30:20.000Z</time>
      </trkpt>
      <trkpt lat="48.05576" lon="6.54701">
        <ele>561</ele>
        <time>2018-04-28T07:30:21.000Z</time>
      </trkpt>
      <trkpt lat="48.05578" lon="6.54702">
        <ele>561</ele>
        <time>2018-04-28T07:30:22.000Z</time>
      </trkpt>
      <trkpt lat="48.05579" lon="6.54702">
        <ele>561</ele>
        <time>2018-04-28T07:30:23.000Z</time>
      </trkpt>
      <trkpt lat="48.05581" lon="6.54703">
        <ele>560</ele>
        <time>2018-04-28T07:30:24.000Z</time>
      </trkpt>
      <trkpt lat="48.05583" lon="6.54704">
        <ele>560</ele>
        <time>2018-04-28T07:30:25.000Z</time>
      </trkpt>
      <trkpt lat="48.05584" lon="6.54705">
        <ele>551</ele>
        <time>2018-04-28T07:30:26.000Z</time>
      </trkpt>
      <trkpt lat="48.05586" lon="6.54707">
        <ele>551</ele>
        <time>2018-04-28T07:30:27.000Z</time>
      </trkpt>
      <trkpt lat="48.05587" lon="6.54708">
        <ele>551</ele>
        <time>2018-04-28T07:30:28.000Z</time>
      </trkpt>
      <trkpt lat="48.05588" lon="6.5471">
        <ele>551</ele>
        <time>2018-04-28T07:30:29.000Z</time>
      </trkpt>
      <trkpt lat="48.05589" lon="6.54711">
        <ele>550</ele>
        <time>2018-04-28T07:30:30.000Z</time>
      </trkpt>
      <trkpt lat="48.05591" lon="6.54713">
        <ele>550</ele>
        <time>2018-04-28T07:30:31.000Z</time>
      </trkpt>
      <trkpt lat="48.05592" lon="6.54715">
        <ele>550</ele>
        <time>2018-04-28T07:30:32.000Z</time>
      </trkpt>
      <trkpt lat="48.05593" lon="6.54716">
        <ele>550</ele>
        <time>2018-04-28T07:30:33.000Z</time>
      </trkpt>
      <trkpt lat="48.05594" lon="6.54718">
        <ele>550</ele>
        <time>2018-04-28T07:30:34.000Z</time>
      </trkpt>
      <trkpt lat="48.05594" lon="6.5472">
        <ele>550</ele>
        <time>2018-04-28T07:30:35.000Z</time>
      </trkpt>
      <trkpt lat="48.05595" lon="6.54721">
        <ele>550</ele>
        <time>2018-04-28T07:30:36.000Z</time>
      </trkpt>
      <trkpt lat="48.05596" lon="6.54723">
        <ele>550</ele>
        <time>2018-04-28T07:30:37.000Z</time>
      </trkpt>
      <trkpt lat="48.05597" lon="6.54725">
        <ele>550</ele>
        <time>2018-04-28T07:30:38.000Z</time>
      </trkpt>
      <trkpt lat="48.05597" lon="6.54727">
        <ele>550</ele>
        <time>2018-04-28T07:30:39.000Z</time>
      </trkpt>
      <trkpt lat="48.05598" lon="6.54729">
        <ele>550</ele>
        <time>2018-04-28T07:30:40.000Z</time>
      </trkpt>
      <trkpt lat="48.05599" lon="6.54732">
        <ele>550</ele>
        <time>2018-04-28T07:30:41.000Z</time>
      </trkpt>
      <trkpt lat="48.056" lon="6.54734">
        <ele>551</ele>
        <time>2018-04-28T07:30:42.000Z</time>
      </trkpt>
      <trkpt lat="48.056" lon="6.54736">
        <ele>551</ele>
        <time>2018-04-28T07:30:43.000Z</time>
      </trkpt>
      <trkpt lat="48.056" lon="6.54738">
        <ele>551</ele>
        <time>2018-04-28T07:30:44.000Z</time>
      </trkpt>
      <trkpt lat="48.05601" lon="6.5474">
        <ele>551</ele>
        <time>2018-04-28T07:30:45.000Z</time>
      </trkpt>
      <trkpt lat="48.05601" lon="6.54742">
        <ele>551</ele>
        <time>2018-04-28T07:30:46.000Z</time>
      </trkpt>
      <trkpt lat="48.05602" lon="6.54745">
        <ele>551</ele>
        <time>2018-04-28T07:30:47.000Z</time>
      </trkpt>
      <trkpt lat="48.05602" lon="6.54746">
        <ele>551</ele>
        <time>2018-04-28T07:30:48.000Z</time>
      </trkpt>
      <trkpt lat="48.05603" lon="6.54748">
        <ele>551</ele>
        <time>2018-04-28T07:30:49.000Z</time>
      </trkpt>
      <trkpt lat="48.05603" lon="6.54751">
        <ele>551</ele>
        <time>2018-04-28T07:30:50.000Z</time>
      </trkpt>
      <trkpt lat="48.05604" lon="6.54753">
        <ele>551</ele>
        <time>2018-04-28T07:30:51.000Z</time>
      </trkpt>
      <trkpt lat="48.05604" lon="6.54755">
        <ele>551</ele>
        <time>2018-04-28T07:30:52.000Z</time>
      </trkpt>
      <trkpt lat="48.05604" lon="6.54758">
        <ele>551</ele>
        <time>2018-04-28T07:30:53.000Z</time>
      </trkpt>
      <trkpt lat="48.05605" lon="6.5476">
        <ele>551</ele>
        <time>2018-04-28T07:30:54.000Z</time>
      </trkpt>
      <trkpt lat="48.05605" lon="6.54763">
        <ele>551</ele>
        <time>2018-04-28T07:30:55.000Z</time>
      </trkpt>
      <trkpt lat="48.05606" lon="6.54765">
        <ele>551</ele>
        <time>2018-04-28T07:30:56.000Z</time>
      </trkpt>
      <trkpt lat="48.05606" lon="6.54767">
        <ele>551</ele>
        <time>2018-04-28T07:30:57.000Z</time>
      </trkpt>
      <trkpt lat="48.05606" lon="6.54769">
        <ele>550</ele>
        <time>2018-04-28T07:30:58.000Z</time>
      </trkpt>
      <trkpt lat="48.05606" lon="6.54771">
        <ele>550</ele>
        <time>2018-04-28T07:30:59.000Z</time>
      </trkpt>
      <trkpt lat="48.05606" lon="6.54774">
        <ele>550</ele>
        <time>2018-04-28T07:31:00.000Z</time>
      </trkpt>
      <trkpt lat="48.05607" lon="6.54776">
        <ele>550</ele>
        <time>2018-04-28T07:31:01.000Z</time>
      </trkpt>
      <trkpt lat="48.05607" lon="6.54779">
        <ele>550</ele>
        <time>2018-04-28T07:31:02.000Z</time>
      </trkpt>
      <trkpt lat="48.05608" lon="6.54781">
        <ele>550</ele>
        <time>2018-04-28T07:31:03.000Z</time>
      </trkpt>
      <trkpt lat="48.05609" lon="6.54784">
        <ele>550</ele>
        <time>2018-04-28T07:31:04.000Z</time>
      </trkpt>
      <trkpt lat="48.0561" lon="6.54786">
        <ele>550</ele>
        <time>2018-04-28T07:31:05.000Z</time>
      </trkpt>
      <trkpt lat="48.05612" lon="6.54789">
        <ele>550</ele>
        <time>2018-04-28T07:31:06.000Z</time>
      </trkpt>
      <trkpt lat="48.05613" lon="6.54791">
        <ele>550</ele>
        <time>2018-04-28T07:31:07.000Z</time>
      </trkpt>
      <trkpt lat="48.05615" lon="6.54794">
        <ele>550</ele>
        <time>2018-04-28T07:31:08.000Z</time>
      </trkpt>
      <trkpt lat="48.05616" lon="6.54796">
        <ele>549</ele>
        <time>2018-04-28T07:31:09.000Z</time>
      </trkpt>
      <trkpt lat="48.05618" lon="6.54798">
        <ele>549</ele>
        <time>2018-04-28T07:31:10.000Z</time>
      </trkpt>
      <trkpt lat="48.05619" lon="6.54801">
        <ele>549</ele>
        <time>2018-04-28T07:31:11.000Z</time>
      </trkpt>
      <trkpt lat="48.05621" lon="6.54803">
        <ele>549</ele>
        <time>2018-04-28T07:31:12.000Z</time>
      </trkpt>
      <trkpt lat="48.05622" lon="6.54806">
        <ele>549</ele>
        <time>2018-04-28T07:31:13.000Z</time>
      </trkpt>
      <trkpt lat="48.05624" lon="6.54808">
        <ele>549</ele>
        <time>2018-04-28T07:31:14.000Z</time>
      </trkpt>
      <trkpt lat="48.05625" lon="6.5481">
        <ele>549</ele>
        <time>2018-04-28T07:31:15.000Z</time>
      </trkpt>
      <trkpt lat="48.05627" lon="6.54812">
        <ele>549</ele>
        <time>2018-04-28T07:31:16.000Z</time>
      </trkpt>
      <trkpt lat="48.05628" lon="6.54814">
        <ele>549</ele>
        <time>2018-04-28T07:31:17.000Z</time>
      </trkpt>
      <trkpt lat="48.0563" lon="6.54817">
        <ele>549</ele>
        <time>2018-04-28T07:31:18.000Z</time>
      </trkpt>
      <trkpt lat="48.05632" lon="6.54819">
        <ele>548</ele>
        <time>2018-04-28T07:31:19.000Z</time>
      </trkpt>
      <trkpt lat="48.05633" lon="6.54821">
        <ele>548</ele>
        <time>2018-04-28T07:31:20.000Z</time>
      </trkpt>
      <trkpt lat="48.05634" lon="6.54824">
        <ele>548</ele>
        <time>2018-04-28T07:31:21.000Z</time>
      </trkpt>
      <trkpt lat="48.05635" lon="6.54826">
        <ele>548</ele>
        <time>2018-04-28T07:31:22.000Z</time>
      </trkpt>
      <trkpt lat="48.05636" lon="6.54828">
        <ele>548</ele>
        <time>2018-04-28T07:31:23.000Z</time>
      </trkpt>
      <trkpt lat="48.05637" lon="6.5483">
        <ele>548</ele>
        <time>2018-04-28T07:31:24.000Z</time>
      </trkpt>
      <trkpt lat="48.05638" lon="6.54833">
        <ele>548</ele>
        <time>2018-04-28T07:31:25.000Z</time>
      </trkpt>
      <trkpt lat="48.05639" lon="6.54835">
        <ele>553</ele>
        <time>2018-04-28T07:31:26.000Z</time>
      </trkpt>
      <trkpt lat="48.0564" lon="6.54837">
        <ele>553</ele>
        <time>2018-04-28T07:31:27.000Z</time>
      </trkpt>
      <trkpt lat="48.05642" lon="6.54839">
        <ele>553</ele>
        <time>2018-04-28T07:31:28.000Z</time>
      </trkpt>
      <trkpt lat="48.05643" lon="6.54842">
        <ele>553</ele>
        <time>2018-04-28T07:31:29.000Z</time>
      </trkpt>
      <trkpt lat="48.05644" lon="6.54844">
        <ele>553</ele>
        <time>2018-04-28T07:31:30.000Z</time>
      </trkpt>
      <trkpt lat="48.05646" lon="6.54846">
        <ele>553</ele>
        <time>2018-04-28T07:31:31.000Z</time>
      </trkpt>
      <trkpt lat="48.05647" lon="6.54848">
        <ele>553</ele>
        <time>2018-04-28T07:31:32.000Z</time>
      </trkpt>
      <trkpt lat="48.05648" lon="6.54849">
        <ele>553</ele>
        <time>2018-04-28T07:31:33.000Z</time>
      </trkpt>
      <trkpt lat="48.05649" lon="6.54851">
        <ele>553</ele>
        <time>2018-04-28T07:31:34.000Z</time>
      </trkpt>
      <trkpt lat="48.0565" lon="6.54853">
        <ele>553</ele>
        <time>2018-04-28T07:31:35.000Z</time>
      </trkpt>
      <trkpt lat="48.05651" lon="6.54854">
        <ele>553</ele>
        <time>2018-04-28T07:31:36.000Z</time>
      </trkpt>
      <trkpt lat="48.05653" lon="6.54856">
        <ele>554</ele>
        <time>2018-04-28T07:31:37.000Z</time>
      </trkpt>
      <trkpt lat="48.05654" lon="6.54858">
        <ele>554</ele>
        <time>2018-04-28T07:31:38.000Z</time>
      </trkpt>
      <trkpt lat="48.05655" lon="6.5486">
        <ele>554</ele>
        <time>2018-04-28T07:31:39.000Z</time>
      </trkpt>
      <trkpt lat="48.05656" lon="6.54863">
        <ele>554</ele>
        <time>2018-04-28T07:31:40.000Z</time>
      </trkpt>
      <trkpt lat="48.05656" lon="6.54865">
        <ele>555</ele>
        <time>2018-04-28T07:31:41.000Z</time>
      </trkpt>
      <trkpt lat="48.05657" lon="6.54867">
        <ele>555</ele>
        <time>2018-04-28T07:31:42.000Z</time>
      </trkpt>
      <trkpt lat="48.05658" lon="6.54869">
        <ele>555</ele>
        <time>2018-04-28T07:31:43.000Z</time>
      </trkpt>
      <trkpt lat="48.05658" lon="6.54871">
        <ele>556</ele>
        <time>2018-04-28T07:31:44.000Z</time>
      </trkpt>
      <trkpt lat="48.05659" lon="6.54873">
        <ele>556</ele>
        <time>2018-04-28T07:31:45.000Z</time>
      </trkpt>
      <trkpt lat="48.05659" lon="6.54875">
        <ele>556</ele>
        <time>2018-04-28T07:31:46.000Z</time>
      </trkpt>
      <trkpt lat="48.0566" lon="6.54877">
        <ele>556</ele>
        <time>2018-04-28T07:31:47.000Z</time>
      </trkpt>
      <trkpt lat="48.0566" lon="6.54878">
        <ele>556</ele>
        <time>2018-04-28T07:31:48.000Z</time>
      </trkpt>
      <trkpt lat="48.0566" lon="6.54881">
        <ele>557</ele>
        <time>2018-04-28T07:31:49.000Z</time>
      </trkpt>
      <trkpt lat="48.05661" lon="6.54883">
        <ele>557</ele>
        <time>2018-04-28T07:31:50.000Z</time>
      </trkpt>
      <trkpt lat="48.05661" lon="6.54885">
        <ele>557</ele>
        <time>2018-04-28T07:31:51.000Z</time>
      </trkpt>
      <trkpt lat="48.05661" lon="6.54887">
        <ele>557</ele>
        <time>2018-04-28T07:31:52.000Z</time>
      </trkpt>
      <trkpt lat="48.05661" lon="6.54889">
        <ele>558</ele>
        <time>2018-04-28T07:31:53.000Z</time>
      </trkpt>
      <trkpt lat="48.05661" lon="6.54891">
        <ele>558</ele>
        <time>2018-04-28T07:31:54.000Z</time>
      </trkpt>
      <trkpt lat="48.05661" lon="6.54893">
        <ele>558</ele>
        <time>2018-04-28T07:31:55.000Z</time>
      </trkpt>
      <trkpt lat="48.05662" lon="6.54895">
        <ele>558</ele>
        <time>2018-04-28T07:31:56.000Z</time>
      </trkpt>
      <trkpt lat="48.05661" lon="6.54897">
        <ele>558</ele>
        <time>2018-04-28T07:31:57.000Z</time>
      </trkpt>
      <trkpt lat="48.05662" lon="6.54899">
        <ele>558</ele>
        <time>2018-04-28T07:31:58.000Z</time>
      </trkpt>
      <trkpt lat="48.05662" lon="6.549">
        <ele>558</ele>
        <time>2018-04-28T07:31:59.000Z</time>
      </trkpt>
      <trkpt lat="48.05662" lon="6.54902">
        <ele>558</ele>
        <time>2018-04-28T07:32:00.000Z</time>
      </trkpt>
      <trkpt lat="48.05663" lon="6.54904">
        <ele>559</ele>
        <time>2018-04-28T07:32:01.000Z</time>
      </trkpt>
      <trkpt lat="48.05664" lon="6.54906">
        <ele>559</ele>
        <time>2018-04-28T07:32:02.000Z</time>
      </trkpt>
      <trkpt lat="48.05664" lon="6.54907">
        <ele>559</ele>
        <time>2018-04-28T07:32:03.000Z</time>
      </trkpt>
      <trkpt lat="48.05665" lon="6.54908">
        <ele>559</ele>
        <time>2018-04-28T07:32:04.000Z</time>
      </trkpt>
      <trkpt lat="48.05665" lon="6.5491">
        <ele>559</ele>
        <time>2018-04-28T07:32:05.000Z</time>
      </trkpt>
      <trkpt lat="48.05666" lon="6.54911">
        <ele>559</ele>
        <time>2018-04-28T07:32:06.000Z</time>
      </trkpt>
      <trkpt lat="48.05667" lon="6.54913">
        <ele>558</ele>
        <time>2018-04-28T07:32:07.000Z</time>
      </trkpt>
      <trkpt lat="48.05668" lon="6.54915">
        <ele>559</ele>
        <time>2018-04-28T07:32:08.000Z</time>
      </trkpt>
      <trkpt lat="48.05669" lon="6.54917">
        <ele>560</ele>
        <time>2018-04-28T07:32:09.000Z</time>
      </trkpt>
      <trkpt lat="48.05669" lon="6.5492">
        <ele>560</ele>
        <time>2018-04-28T07:32:10.000Z</time>
      </trkpt>
      <trkpt lat="48.0567" lon="6.54922">
        <ele>561</ele>
        <time>2018-04-28T07:32:11.000Z</time>
      </trkpt>
      <trkpt lat="48.0567" lon="6.54924">
        <ele>561</ele>
        <time>2018-04-28T07:32:12.000Z</time>
      </trkpt>
      <trkpt lat="48.05671" lon="6.54927">
        <ele>562</ele>
        <time>2018-04-28T07:32:13.000Z</time>
      </trkpt>
      <trkpt lat="48.05671" lon="6.54929">
        <ele>562</ele>
        <time>2018-04-28T07:32:14.000Z</time>
      </trkpt>
      <trkpt lat="48.05671" lon="6.54931">
        <ele>563</ele>
        <time>2018-04-28T07:32:15.000Z</time>
      </trkpt>
      <trkpt lat="48.05672" lon="6.54933">
        <ele>563</ele>
        <time>2018-04-28T07:32:16.000Z</time>
      </trkpt>
      <trkpt lat="48.05672" lon="6.54935">
        <ele>563</ele>
        <time>2018-04-28T07:32:17.000Z</time>
      </trkpt>
      <trkpt lat="48.05672" lon="6.54936">
        <ele>563</ele>
        <time>2018-04-28T07:32:18.000Z</time>
      </trkpt>
      <trkpt lat="48.05672" lon="6.54937">
        <ele>564</ele>
        <time>2018-04-28T07:32:19.000Z</time>
      </trkpt>
      <trkpt lat="48.05673" lon="6.54938">
        <ele>564</ele>
        <time>2018-04-28T07:32:20.000Z</time>
      </trkpt>
      <trkpt lat="48.05673" lon="6.54939">
        <ele>564</ele>
        <time>2018-04-28T07:32:21.000Z</time>
      </trkpt>
      <trkpt lat="48.05673" lon="6.5494">
        <ele>564</ele>
        <time>2018-04-28T07:32:22.000Z</time>
      </trkpt>
      <trkpt lat="48.05674" lon="6.5494">
        <ele>564</ele>
        <time>2018-04-28T07:32:23.000Z</time>
      </trkpt>
      <trkpt lat="48.05674" lon="6.5494">
        <ele>564</ele>
        <time>2018-04-28T07:32:24.000Z</time>
      </trkpt>
      <trkpt lat="48.05675" lon="6.54941">
        <ele>564</ele>
        <time>2018-04-28T07:32:25.000Z</time>
      </trkpt>
      <trkpt lat="48.05676" lon="6.5494">
        <ele>564</ele>
        <time>2018-04-28T07:32:26.000Z</time>
      </trkpt>
      <trkpt lat="48.05677" lon="6.5494">
        <ele>564</ele>
        <time>2018-04-28T07:32:27.000Z</time>
      </trkpt>
      <trkpt lat="48.05679" lon="6.5494">
        <ele>564</ele>
        <time>2018-04-28T07:32:28.000Z</time>
      </trkpt>
      <trkpt lat="48.0568" lon="6.54939">
        <ele>564</ele>
        <time>2018-04-28T07:32:29.000Z</time>
      </trkpt>
      <trkpt lat="48.05681" lon="6.54939">
        <ele>564</ele>
        <time>2018-04-28T07:32:30.000Z</time>
      </trkpt>
      <trkpt lat="48.05683" lon="6.54939">
        <ele>564</ele>
        <time>2018-04-28T07:32:31.000Z</time>
      </trkpt>
      <trkpt lat="48.05684" lon="6.54938">
        <ele>564</ele>
        <time>2018-04-28T07:32:32.000Z</time>
      </trkpt>
      <trkpt lat="48.05686" lon="6.54938">
        <ele>564</ele>
        <time>2018-04-28T07:32:33.000Z</time>
      </trkpt>
      <trkpt lat="48.05687" lon="6.54936">
        <ele>564</ele>
        <time>2018-04-28T07:32:34.000Z</time>
      </trkpt>
      <trkpt lat="48.05688" lon="6.54935">
        <ele>564</ele>
        <time>2018-04-28T07:32:35.000Z</time>
      </trkpt>
      <trkpt lat="48.05688" lon="6.54933">
        <ele>564</ele>
        <time>2018-04-28T07:32:36.000Z</time>
      </trkpt>
      <trkpt lat="48.05689" lon="6.54932">
        <ele>564</ele>
        <time>2018-04-28T07:32:37.000Z</time>
      </trkpt>
      <trkpt lat="48.0569" lon="6.5493">
        <ele>564</ele>
        <time>2018-04-28T07:32:38.000Z</time>
      </trkpt>
      <trkpt lat="48.05691" lon="6.54929">
        <ele>564</ele>
        <time>2018-04-28T07:32:39.000Z</time>
      </trkpt>
      <trkpt lat="48.05692" lon="6.54928">
        <ele>564</ele>
        <time>2018-04-28T07:32:40.000Z</time>
      </trkpt>
      <trkpt lat="48.05693" lon="6.54926">
        <ele>564</ele>
        <time>2018-04-28T07:32:41.000Z</time>
      </trkpt>
      <trkpt lat="48.05694" lon="6.54925">
        <ele>564</ele>
        <time>2018-04-28T07:32:42.000Z</time>
      </trkpt>
      <trkpt lat="48.05695" lon="6.54923">
        <ele>564</ele>
        <time>2018-04-28T07:32:43.000Z</time>
      </trkpt>
      <trkpt lat="48.05696" lon="6.54921">
        <ele>564</ele>
        <time>2018-04-28T07:32:44.000Z</time>
      </trkpt>
      <trkpt lat="48.05697" lon="6.54919">
        <ele>564</ele>
        <time>2018-04-28T07:32:45.000Z</time>
      </trkpt>
      <trkpt lat="48.05698" lon="6.54917">
        <ele>564</ele>
        <time>2018-04-28T07:32:46.000Z</time>
      </trkpt>
      <trkpt lat="48.05699" lon="6.54915">
        <ele>557</ele>
        <time>2018-04-28T07:32:47.000Z</time>
      </trkpt>
      <trkpt lat="48.057" lon="6.54913">
        <ele>557</ele>
        <time>2018-04-28T07:32:48.000Z</time>
      </trkpt>
      <trkpt lat="48.05701" lon="6.54911">
        <ele>557</ele>
        <time>2018-04-28T07:32:49.000Z</time>
      </trkpt>
      <trkpt lat="48.05702" lon="6.54909">
        <ele>557</ele>
        <time>2018-04-28T07:32:50.000Z</time>
      </trkpt>
      <trkpt lat="48.05703" lon="6.54907">
        <ele>557</ele>
        <time>2018-04-28T07:32:51.000Z</time>
      </trkpt>
      <trkpt lat="48.05704" lon="6.54905">
        <ele>557</ele>
        <time>2018-04-28T07:32:52.000Z</time>
      </trkpt>
      <trkpt lat="48.05704" lon="6.54903">
        <ele>557</ele>
        <time>2018-04-28T07:32:53.000Z</time>
      </trkpt>
      <trkpt lat="48.05705" lon="6.54901">
        <ele>557</ele>
        <time>2018-04-28T07:32:54.000Z</time>
      </trkpt>
      <trkpt lat="48.05706" lon="6.54899">
        <ele>557</ele>
        <time>2018-04-28T07:32:55.000Z</time>
      </trkpt>
      <trkpt lat="48.05707" lon="6.54897">
        <ele>557</ele>
        <time>2018-04-28T07:32:56.000Z</time>
      </trkpt>
      <trkpt lat="48.05708" lon="6.54895">
        <ele>557</ele>
        <time>2018-04-28T07:32:57.000Z</time>
      </trkpt>
      <trkpt lat="48.05709" lon="6.54893">
        <ele>556</ele>
        <time>2018-04-28T07:32:58.000Z</time>
      </trkpt>
      <trkpt lat="48.0571" lon="6.5489">
        <ele>556</ele>
        <time>2018-04-28T07:32:59.000Z</time>
      </trkpt>
      <trkpt lat="48.0571" lon="6.54888">
        <ele>556</ele>
        <time>2018-04-28T07:33:00.000Z</time>
      </trkpt>
      <trkpt lat="48.05711" lon="6.54886">
        <ele>556</ele>
        <time>2018-04-28T07:33:01.000Z</time>
      </trkpt>
      <trkpt lat="48.05712" lon="6.54884">
        <ele>556</ele>
        <time>2018-04-28T07:33:02.000Z</time>
      </trkpt>
      <trkpt lat="48.05713" lon="6.54882">
        <ele>556</ele>
        <time>2018-04-28T07:33:03.000Z</time>
      </trkpt>
      <trkpt lat="48.05713" lon="6.5488">
        <ele>556</ele>
        <time>2018-04-28T07:33:04.000Z</time>
      </trkpt>
      <trkpt lat="48.05714" lon="6.54879">
        <ele>556</ele>
        <time>2018-04-28T07:33:05.000Z</time>
      </trkpt>
      <trkpt lat="48.05715" lon="6.54877">
        <ele>555</ele>
        <time>2018-04-28T07:33:06.000Z</time>
      </trkpt>
      <trkpt lat="48.05715" lon="6.54875">
        <ele>555</ele>
        <time>2018-04-28T07:33:07.000Z</time>
      </trkpt>
      <trkpt lat="48.05716" lon="6.54874">
        <ele>555</ele>
        <time>2018-04-28T07:33:08.000Z</time>
      </trkpt>
      <trkpt lat="48.05717" lon="6.54872">
        <ele>555</ele>
        <time>2018-04-28T07:33:09.000Z</time>
      </trkpt>
      <trkpt lat="48.05718" lon="6.5487">
        <ele>555</ele>
        <time>2018-04-28T07:33:10.000Z</time>
      </trkpt>
      <trkpt lat="48.05718" lon="6.54869">
        <ele>555</ele>
        <time>2018-04-28T07:33:11.000Z</time>
      </trkpt>
      <trkpt lat="48.05719" lon="6.54867">
        <ele>555</ele>
        <time>2018-04-28T07:33:12.000Z</time>
      </trkpt>
      <trkpt lat="48.0572" lon="6.54865">
        <ele>555</ele>
        <time>2018-04-28T07:33:13.000Z</time>
      </trkpt>
      <trkpt lat="48.05721" lon="6.54864">
        <ele>555</ele>
        <time>2018-04-28T07:33:14.000Z</time>
      </trkpt>
      <trkpt lat="48.05721" lon="6.54862">
        <ele>554</ele>
        <time>2018-04-28T07:33:15.000Z</time>
      </trkpt>
      <trkpt lat="48.05722" lon="6.54861">
        <ele>554</ele>
        <time>2018-04-28T07:33:16.000Z</time>
      </trkpt>
      <trkpt lat="48.05723" lon="6.54859">
        <ele>554</ele>
        <time>2018-04-28T07:33:17.000Z</time>
      </trkpt>
      <trkpt lat="48.05724" lon="6.54857">
        <ele>554</ele>
        <time>2018-04-28T07:33:18.000Z</time>
      </trkpt>
      <trkpt lat="48.05726" lon="6.54855">
        <ele>554</ele>
        <time>2018-04-28T07:33:19.000Z</time>
      </trkpt>
      <trkpt lat="48.05727" lon="6.54854">
        <ele>554</ele>
        <time>2018-04-28T07:33:20.000Z</time>
      </trkpt>
      <trkpt lat="48.05728" lon="6.54852">
        <ele>554</ele>
        <time>2018-04-28T07:33:21.000Z</time>
      </trkpt>
      <trkpt lat="48.05729" lon="6.54851">
        <ele>554</ele>
        <time>2018-04-28T07:33:22.000Z</time>
      </trkpt>
      <trkpt lat="48.0573" lon="6.5485">
        <ele>554</ele>
        <time>2018-04-28T07:33:23.000Z</time>
      </trkpt>
      <trkpt lat="48.05731" lon="6.54848">
        <ele>554</ele>
        <time>2018-04-28T07:33:24.000Z</time>
      </trkpt>
      <trkpt lat="48.05732" lon="6.54846">
        <ele>554</ele>
        <time>2018-04-28T07:33:25.000Z</time>
      </trkpt>
      <trkpt lat="48.05734" lon="6.54845">
        <ele>553</ele>
        <time>2018-04-28T07:33:26.000Z</time>
      </trkpt>
      <trkpt lat="48.05735" lon="6.54843">
        <ele>553</ele>
        <time>2018-04-28T07:33:27.000Z</time>
      </trkpt>
      <trkpt lat="48.05736" lon="6.54842">
        <ele>553</ele>
        <time>2018-04-28T07:33:28.000Z</time>
      </trkpt>
      <trkpt lat="48.05737" lon="6.5484">
        <ele>553</ele>
        <time>2018-04-28T07:33:29.000Z</time>
      </trkpt>
      <trkpt lat="48.05738" lon="6.54839">
        <ele>553</ele>
        <time>2018-04-28T07:33:30.000Z</time>
      </trkpt>
      <trkpt lat="48.05739" lon="6.54838">
        <ele>553</ele>
        <time>2018-04-28T07:33:31.000Z</time>
      </trkpt>
      <trkpt lat="48.0574" lon="6.54836">
        <ele>553</ele>
        <time>2018-04-28T07:33:32.000Z</time>
      </trkpt>
      <trkpt lat="48.05741" lon="6.54835">
        <ele>553</ele>
        <time>2018-04-28T07:33:33.000Z</time>
      </trkpt>
      <trkpt lat="48.05743" lon="6.54834">
        <ele>553</ele>
        <time>2018-04-28T07:33:34.000Z</time>
      </trkpt>
      <trkpt lat="48.05744" lon="6.54832">
        <ele>550</ele>
        <time>2018-04-28T07:33:35.000Z</time>
      </trkpt>
      <trkpt lat="48.05745" lon="6.54831">
        <ele>550</ele>
        <time>2018-04-28T07:33:36.000Z</time>
      </trkpt>
      <trkpt lat="48.05746" lon="6.54829">
        <ele>550</ele>
        <time>2018-04-28T07:33:37.000Z</time>
      </trkpt>
      <trkpt lat="48.05748" lon="6.54827">
        <ele>550</ele>
        <time>2018-04-28T07:33:38.000Z</time>
      </trkpt>
      <trkpt lat="48.05749" lon="6.54824">
        <ele>549</ele>
        <time>2018-04-28T07:33:39.000Z</time>
      </trkpt>
      <trkpt lat="48.0575" lon="6.54822">
        <ele>552</ele>
        <time>2018-04-28T07:33:40.000Z</time>
      </trkpt>
      <trkpt lat="48.05752" lon="6.54821">
        <ele>553</ele>
        <time>2018-04-28T07:33:41.000Z</time>
      </trkpt>
      <trkpt lat="48.05753" lon="6.54819">
        <ele>553</ele>
        <time>2018-04-28T07:33:42.000Z</time>
      </trkpt>
      <trkpt lat="48.05754" lon="6.54818">
        <ele>553</ele>
        <time>2018-04-28T07:33:43.000Z</time>
      </trkpt>
      <trkpt lat="48.05755" lon="6.54817">
        <ele>553</ele>
        <time>2018-04-28T07:33:44.000Z</time>
      </trkpt>
      <trkpt lat="48.05756" lon="6.54815">
        <ele>553</ele>
        <time>2018-04-28T07:33:45.000Z</time>
      </trkpt>
      <trkpt lat="48.05757" lon="6.54814">
        <ele>553</ele>
        <time>2018-04-28T07:33:46.000Z</time>
      </trkpt>
      <trkpt lat="48.05758" lon="6.54813">
        <ele>553</ele>
        <time>2018-04-28T07:33:47.000Z</time>
      </trkpt>
      <trkpt lat="48.0576" lon="6.54811">
        <ele>553</ele>
        <time>2018-04-28T07:33:48.000Z</time>
      </trkpt>
      <trkpt lat="48.05761" lon="6.5481">
        <ele>553</ele>
        <time>2018-04-28T07:33:49.000Z</time>
      </trkpt>
      <trkpt lat="48.05762" lon="6.54809">
        <ele>553</ele>
        <time>2018-04-28T07:33:50.000Z</time>
      </trkpt>
      <trkpt lat="48.05763" lon="6.54807">
        <ele>553</ele>
        <time>2018-04-28T07:33:51.000Z</time>
      </trkpt>
      <trkpt lat="48.05764" lon="6.54806">
        <ele>553</ele>
        <time>2018-04-28T07:33:52.000Z</time>
      </trkpt>
      <trkpt lat="48.05764" lon="6.54805">
        <ele>553</ele>
        <time>2018-04-28T07:33:53.000Z</time>
      </trkpt>
      <trkpt lat="48.05766" lon="6.54803">
        <ele>553</ele>
        <time>2018-04-28T07:33:54.000Z</time>
      </trkpt>
      <trkpt lat="48.05767" lon="6.54801">
        <ele>552</ele>
        <time>2018-04-28T07:33:55.000Z</time>
      </trkpt>
      <trkpt lat="48.05768" lon="6.548">
        <ele>552</ele>
        <time>2018-04-28T07:33:56.000Z</time>
      </trkpt>
      <trkpt lat="48.05769" lon="6.54799">
        <ele>552</ele>
        <time>2018-04-28T07:33:57.000Z</time>
      </trkpt>
      <trkpt lat="48.0577" lon="6.54797">
        <ele>552</ele>
        <time>2018-04-28T07:33:58.000Z</time>
      </trkpt>
      <trkpt lat="48.05771" lon="6.54796">
        <ele>552</ele>
        <time>2018-04-28T07:33:59.000Z</time>
      </trkpt>
      <trkpt lat="48.05772" lon="6.54794">
        <ele>552</ele>
        <time>2018-04-28T07:34:00.000Z</time>
      </trkpt>
      <trkpt lat="48.05773" lon="6.54792">
        <ele>552</ele>
        <time>2018-04-28T07:34:01.000Z</time>
      </trkpt>
      <trkpt lat="48.05774" lon="6.5479">
        <ele>552</ele>
        <time>2018-04-28T07:34:02.000Z</time>
      </trkpt>
      <trkpt lat="48.05775" lon="6.54788">
        <ele>552</ele>
        <time>2018-04-28T07:34:03.000Z</time>
      </trkpt>
      <trkpt lat="48.05777" lon="6.54787">
        <ele>552</ele>
        <time>2018-04-28T07:34:04.000Z</time>
      </trkpt>
      <trkpt lat="48.05778" lon="6.54785">
        <ele>552</ele>
        <time>2018-04-28T07:34:05.000Z</time>
      </trkpt>
      <trkpt lat="48.05779" lon="6.54784">
        <ele>552</ele>
        <time>2018-04-28T07:34:06.000Z</time>
      </trkpt>
      <trkpt lat="48.0578" lon="6.54782">
        <ele>552</ele>
        <time>2018-04-28T07:34:07.000Z</time>
      </trkpt>
      <trkpt lat="48.05782" lon="6.54781">
        <ele>552</ele>
        <time>2018-04-28T07:34:08.000Z</time>
      </trkpt>
      <trkpt lat="48.05783" lon="6.5478">
        <ele>552</ele>
        <time>2018-04-28T07:34:09.000Z</time>
      </trkpt>
      <trkpt lat="48.05784" lon="6.54778">
        <ele>552</ele>
        <time>2018-04-28T07:34:10.000Z</time>
      </trkpt>
      <trkpt lat="48.05785" lon="6.54776">
        <ele>552</ele>
        <time>2018-04-28T07:34:11.000Z</time>
      </trkpt>
      <trkpt lat="48.05787" lon="6.54774">
        <ele>552</ele>
        <time>2018-04-28T07:34:12.000Z</time>
      </trkpt>
      <trkpt lat="48.05788" lon="6.54773">
        <ele>552</ele>
        <time>2018-04-28T07:34:13.000Z</time>
      </trkpt>
      <trkpt lat="48.05789" lon="6.54771">
        <ele>552</ele>
        <time>2018-04-28T07:34:14.000Z</time>
      </trkpt>
      <trkpt lat="48.0579" lon="6.54769">
        <ele>552</ele>
        <time>2018-04-28T07:34:15.000Z</time>
      </trkpt>
      <trkpt lat="48.0579" lon="6.54768">
        <ele>552</ele>
        <time>2018-04-28T07:34:16.000Z</time>
      </trkpt>
      <trkpt lat="48.05791" lon="6.54766">
        <ele>552</ele>
        <time>2018-04-28T07:34:17.000Z</time>
      </trkpt>
      <trkpt lat="48.05791" lon="6.54765">
        <ele>552</ele>
        <time>2018-04-28T07:34:18.000Z</time>
      </trkpt>
      <trkpt lat="48.05792" lon="6.54763">
        <ele>552</ele>
        <time>2018-04-28T07:34:19.000Z</time>
      </trkpt>
      <trkpt lat="48.05792" lon="6.54762">
        <ele>552</ele>
        <time>2018-04-28T07:34:20.000Z</time>
      </trkpt>
      <trkpt lat="48.05793" lon="6.5476">
        <ele>552</ele>
        <time>2018-04-28T07:34:21.000Z</time>
      </trkpt>
      <trkpt lat="48.05794" lon="6.54759">
        <ele>553</ele>
        <time>2018-04-28T07:34:22.000Z</time>
      </trkpt>
      <trkpt lat="48.05794" lon="6.54758">
        <ele>553</ele>
        <time>2018-04-28T07:34:23.000Z</time>
      </trkpt>
      <trkpt lat="48.05794" lon="6.54757">
        <ele>553</ele>
        <time>2018-04-28T07:34:24.000Z</time>
      </trkpt>
      <trkpt lat="48.05794" lon="6.54757">
        <ele>553</ele>
        <time>2018-04-28T07:34:25.000Z</time>
      </trkpt>
      <trkpt lat="48.05796" lon="6.54752">
        <ele>553</ele>
        <time>2018-04-28T07:34:26.000Z</time>
      </trkpt>
      <trkpt lat="48.05796" lon="6.54751">
        <ele>553</ele>
        <time>2018-04-28T07:34:27.000Z</time>
      </trkpt>
      <trkpt lat="48.05796" lon="6.5475">
        <ele>545</ele>
        <time>2018-04-28T07:34:28.000Z</time>
      </trkpt>
      <trkpt lat="48.05797" lon="6.54749">
        <ele>545</ele>
        <time>2018-04-28T07:34:29.000Z</time>
      </trkpt>
      <trkpt lat="48.05797" lon="6.54747">
        <ele>545</ele>
        <time>2018-04-28T07:34:30.000Z</time>
      </trkpt>
      <trkpt lat="48.05798" lon="6.54746">
        <ele>546</ele>
        <time>2018-04-28T07:34:31.000Z</time>
      </trkpt>
      <trkpt lat="48.05798" lon="6.54745">
        <ele>546</ele>
        <time>2018-04-28T07:34:32.000Z</time>
      </trkpt>
      <trkpt lat="48.05799" lon="6.54743">
        <ele>546</ele>
        <time>2018-04-28T07:34:33.000Z</time>
      </trkpt>
      <trkpt lat="48.05799" lon="6.54742">
        <ele>546</ele>
        <time>2018-04-28T07:34:34.000Z</time>
      </trkpt>
      <trkpt lat="48.058" lon="6.54739">
        <ele>546</ele>
        <time>2018-04-28T07:34:35.000Z</time>
      </trkpt>
      <trkpt lat="48.058" lon="6.54738">
        <ele>546</ele>
        <time>2018-04-28T07:34:36.000Z</time>
      </trkpt>
      <trkpt lat="48.05801" lon="6.54736">
        <ele>546</ele>
        <time>2018-04-28T07:34:37.000Z</time>
      </trkpt>
      <trkpt lat="48.05802" lon="6.54734">
        <ele>546</ele>
        <time>2018-04-28T07:34:38.000Z</time>
      </trkpt>
      <trkpt lat="48.05803" lon="6.54732">
        <ele>546</ele>
        <time>2018-04-28T07:34:39.000Z</time>
      </trkpt>
      <trkpt lat="48.05804" lon="6.5473">
        <ele>546</ele>
        <time>2018-04-28T07:34:40.000Z</time>
      </trkpt>
      <trkpt lat="48.05804" lon="6.54728">
        <ele>546</ele>
        <time>2018-04-28T07:34:41.000Z</time>
      </trkpt>
      <trkpt lat="48.05805" lon="6.54726">
        <ele>546</ele>
        <time>2018-04-28T07:34:42.000Z</time>
      </trkpt>
      <trkpt lat="48.05806" lon="6.54724">
        <ele>545</ele>
        <time>2018-04-28T07:34:43.000Z</time>
      </trkpt>
      <trkpt lat="48.05807" lon="6.54723">
        <ele>546</ele>
        <time>2018-04-28T07:34:44.000Z</time>
      </trkpt>
      <trkpt lat="48.05808" lon="6.54722">
        <ele>545</ele>
        <time>2018-04-28T07:34:45.000Z</time>
      </trkpt>
      <trkpt lat="48.05809" lon="6.5472">
        <ele>545</ele>
        <time>2018-04-28T07:34:46.000Z</time>
      </trkpt>
      <trkpt lat="48.05811" lon="6.54719">
        <ele>545</ele>
        <time>2018-04-28T07:34:47.000Z</time>
      </trkpt>
      <trkpt lat="48.05812" lon="6.54717">
        <ele>545</ele>
        <time>2018-04-28T07:34:48.000Z</time>
      </trkpt>
      <trkpt lat="48.05813" lon="6.54715">
        <ele>545</ele>
        <time>2018-04-28T07:34:49.000Z</time>
      </trkpt>
      <trkpt lat="48.05814" lon="6.54713">
        <ele>545</ele>
        <time>2018-04-28T07:34:50.000Z</time>
      </trkpt>
      <trkpt lat="48.05815" lon="6.54712">
        <ele>545</ele>
        <time>2018-04-28T07:34:51.000Z</time>
      </trkpt>
      <trkpt lat="48.05816" lon="6.5471">
        <ele>545</ele>
        <time>2018-04-28T07:34:52.000Z</time>
      </trkpt>
      <trkpt lat="48.05817" lon="6.54709">
        <ele>545</ele>
        <time>2018-04-28T07:34:53.000Z</time>
      </trkpt>
      <trkpt lat="48.05818" lon="6.54707">
        <ele>545</ele>
        <time>2018-04-28T07:34:54.000Z</time>
      </trkpt>
      <trkpt lat="48.05819" lon="6.54705">
        <ele>545</ele>
        <time>2018-04-28T07:34:55.000Z</time>
      </trkpt>
      <trkpt lat="48.0582" lon="6.54704">
        <ele>545</ele>
        <time>2018-04-28T07:34:56.000Z</time>
      </trkpt>
      <trkpt lat="48.05821" lon="6.54702">
        <ele>545</ele>
        <time>2018-04-28T07:34:57.000Z</time>
      </trkpt>
      <trkpt lat="48.05822" lon="6.547">
        <ele>545</ele>
        <time>2018-04-28T07:34:58.000Z</time>
      </trkpt>
      <trkpt lat="48.05823" lon="6.54698">
        <ele>544</ele>
        <time>2018-04-28T07:34:59.000Z</time>
      </trkpt>
      <trkpt lat="48.05824" lon="6.54696">
        <ele>544</ele>
        <time>2018-04-28T07:35:00.000Z</time>
      </trkpt>
      <trkpt lat="48.05825" lon="6.54694">
        <ele>544</ele>
        <time>2018-04-28T07:35:01.000Z</time>
      </trkpt>
      <trkpt lat="48.05826" lon="6.54693">
        <ele>544</ele>
        <time>2018-04-28T07:35:02.000Z</time>
      </trkpt>
      <trkpt lat="48.05828" lon="6.54692">
        <ele>544</ele>
        <time>2018-04-28T07:35:03.000Z</time>
      </trkpt>
      <trkpt lat="48.05829" lon="6.54691">
        <ele>544</ele>
        <time>2018-04-28T07:35:04.000Z</time>
      </trkpt>
      <trkpt lat="48.0583" lon="6.5469">
        <ele>544</ele>
        <time>2018-04-28T07:35:05.000Z</time>
      </trkpt>
      <trkpt lat="48.05832" lon="6.5469">
        <ele>544</ele>
        <time>2018-04-28T07:35:06.000Z</time>
      </trkpt>
      <trkpt lat="48.05833" lon="6.54689">
        <ele>544</ele>
        <time>2018-04-28T07:35:07.000Z</time>
      </trkpt>
      <trkpt lat="48.05833" lon="6.54689">
        <ele>544</ele>
        <time>2018-04-28T07:35:08.000Z</time>
      </trkpt>
      <trkpt lat="48.05834" lon="6.54688">
        <ele>552</ele>
        <time>2018-04-28T07:35:09.000Z</time>
      </trkpt>
      <trkpt lat="48.05834" lon="6.54688">
        <ele>552</ele>
        <time>2018-04-28T07:35:10.000Z</time>
      </trkpt>
      <trkpt lat="48.05834" lon="6.54688">
        <ele>552</ele>
        <time>2018-04-28T07:35:11.000Z</time>
      </trkpt>
      <trkpt lat="48.05836" lon="6.54685">
        <ele>551</ele>
        <time>2018-04-28T07:35:12.000Z</time>
      </trkpt>
      <trkpt lat="48.05836" lon="6.54684">
        <ele>551</ele>
        <time>2018-04-28T07:35:13.000Z</time>
      </trkpt>
      <trkpt lat="48.05837" lon="6.54683">
        <ele>551</ele>
        <time>2018-04-28T07:35:14.000Z</time>
      </trkpt>
      <trkpt lat="48.05838" lon="6.54682">
        <ele>551</ele>
        <time>2018-04-28T07:35:15.000Z</time>
      </trkpt>
      <trkpt lat="48.05839" lon="6.54681">
        <ele>551</ele>
        <time>2018-04-28T07:35:16.000Z</time>
      </trkpt>
      <trkpt lat="48.05839" lon="6.5468">
        <ele>551</ele>
        <time>2018-04-28T07:35:17.000Z</time>
      </trkpt>
      <trkpt lat="48.0584" lon="6.54679">
        <ele>550</ele>
        <time>2018-04-28T07:35:18.000Z</time>
      </trkpt>
      <trkpt lat="48.05842" lon="6.54678">
        <ele>550</ele>
        <time>2018-04-28T07:35:19.000Z</time>
      </trkpt>
      <trkpt lat="48.05843" lon="6.54677">
        <ele>550</ele>
        <time>2018-04-28T07:35:20.000Z</time>
      </trkpt>
      <trkpt lat="48.05844" lon="6.54676">
        <ele>551</ele>
        <time>2018-04-28T07:35:21.000Z</time>
      </trkpt>
      <trkpt lat="48.05845" lon="6.54675">
        <ele>551</ele>
        <time>2018-04-28T07:35:22.000Z</time>
      </trkpt>
      <trkpt lat="48.05847" lon="6.54674">
        <ele>551</ele>
        <time>2018-04-28T07:35:23.000Z</time>
      </trkpt>
      <trkpt lat="48.05848" lon="6.54673">
        <ele>551</ele>
        <time>2018-04-28T07:35:24.000Z</time>
      </trkpt>
      <trkpt lat="48.05849" lon="6.54672">
        <ele>551</ele>
        <time>2018-04-28T07:35:25.000Z</time>
      </trkpt>
      <trkpt lat="48.0585" lon="6.54671">
        <ele>551</ele>
        <time>2018-04-28T07:35:26.000Z</time>
      </trkpt>
      <trkpt lat="48.05851" lon="6.5467">
        <ele>551</ele>
        <time>2018-04-28T07:35:27.000Z</time>
      </trkpt>
      <trkpt lat="48.05852" lon="6.54669">
        <ele>552</ele>
        <time>2018-04-28T07:35:28.000Z</time>
      </trkpt>
      <trkpt lat="48.05853" lon="6.54668">
        <ele>552</ele>
        <time>2018-04-28T07:35:29.000Z</time>
      </trkpt>
      <trkpt lat="48.05854" lon="6.54668">
        <ele>552</ele>
        <time>2018-04-28T07:35:30.000Z</time>
      </trkpt>
      <trkpt lat="48.05856" lon="6.54667">
        <ele>547</ele>
        <time>2018-04-28T07:35:31.000Z</time>
      </trkpt>
      <trkpt lat="48.05857" lon="6.54666">
        <ele>548</ele>
        <time>2018-04-28T07:35:32.000Z</time>
      </trkpt>
      <trkpt lat="48.05858" lon="6.54664">
        <ele>548</ele>
        <time>2018-04-28T07:35:33.000Z</time>
      </trkpt>
      <trkpt lat="48.05859" lon="6.54663">
        <ele>548</ele>
        <time>2018-04-28T07:35:34.000Z</time>
      </trkpt>
      <trkpt lat="48.05861" lon="6.54662">
        <ele>548</ele>
        <time>2018-04-28T07:35:35.000Z</time>
      </trkpt>
      <trkpt lat="48.05862" lon="6.54661">
        <ele>548</ele>
        <time>2018-04-28T07:35:36.000Z</time>
      </trkpt>
      <trkpt lat="48.05864" lon="6.5466">
        <ele>548</ele>
        <time>2018-04-28T07:35:37.000Z</time>
      </trkpt>
      <trkpt lat="48.05865" lon="6.54658">
        <ele>548</ele>
        <time>2018-04-28T07:35:38.000Z</time>
      </trkpt>
      <trkpt lat="48.05866" lon="6.54657">
        <ele>548</ele>
        <time>2018-04-28T07:35:39.000Z</time>
      </trkpt>
      <trkpt lat="48.05868" lon="6.54656">
        <ele>549</ele>
        <time>2018-04-28T07:35:40.000Z</time>
      </trkpt>
      <trkpt lat="48.05869" lon="6.54654">
        <ele>549</ele>
        <time>2018-04-28T07:35:41.000Z</time>
      </trkpt>
      <trkpt lat="48.05871" lon="6.54653">
        <ele>549</ele>
        <time>2018-04-28T07:35:42.000Z</time>
      </trkpt>
      <trkpt lat="48.05872" lon="6.54651">
        <ele>549</ele>
        <time>2018-04-28T07:35:43.000Z</time>
      </trkpt>
      <trkpt lat="48.05873" lon="6.5465">
        <ele>549</ele>
        <time>2018-04-28T07:35:44.000Z</time>
      </trkpt>
      <trkpt lat="48.05874" lon="6.54649">
        <ele>549</ele>
        <time>2018-04-28T07:35:45.000Z</time>
      </trkpt>
      <trkpt lat="48.05875" lon="6.54648">
        <ele>549</ele>
        <time>2018-04-28T07:35:46.000Z</time>
      </trkpt>
      <trkpt lat="48.05876" lon="6.54647">
        <ele>549</ele>
        <time>2018-04-28T07:35:47.000Z</time>
      </trkpt>
      <trkpt lat="48.05877" lon="6.54646">
        <ele>549</ele>
        <time>2018-04-28T07:35:48.000Z</time>
      </trkpt>
      <trkpt lat="48.05878" lon="6.54645">
        <ele>549</ele>
        <time>2018-04-28T07:35:49.000Z</time>
      </trkpt>
      <trkpt lat="48.05879" lon="6.54643">
        <ele>549</ele>
        <time>2018-04-28T07:35:50.000Z</time>
      </trkpt>
      <trkpt lat="48.0588" lon="6.54642">
        <ele>550</ele>
        <time>2018-04-28T07:35:51.000Z</time>
      </trkpt>
      <trkpt lat="48.05881" lon="6.5464">
        <ele>550</ele>
        <time>2018-04-28T07:35:52.000Z</time>
      </trkpt>
      <trkpt lat="48.05882" lon="6.54639">
        <ele>550</ele>
        <time>2018-04-28T07:35:53.000Z</time>
      </trkpt>
      <trkpt lat="48.05883" lon="6.54637">
        <ele>550</ele>
        <time>2018-04-28T07:35:54.000Z</time>
      </trkpt>
      <trkpt lat="48.05885" lon="6.54635">
        <ele>550</ele>
        <time>2018-04-28T07:35:55.000Z</time>
      </trkpt>
      <trkpt lat="48.05886" lon="6.54633">
        <ele>550</ele>
        <time>2018-04-28T07:35:56.000Z</time>
      </trkpt>
      <trkpt lat="48.05886" lon="6.54631">
        <ele>550</ele>
        <time>2018-04-28T07:35:57.000Z</time>
      </trkpt>
      <trkpt lat="48.05887" lon="6.54629">
        <ele>550</ele>
        <time>2018-04-28T07:35:58.000Z</time>
      </trkpt>
      <trkpt lat="48.05888" lon="6.54627">
        <ele>550</ele>
        <time>2018-04-28T07:35:59.000Z</time>
      </trkpt>
      <trkpt lat="48.0589" lon="6.54626">
        <ele>550</ele>
        <time>2018-04-28T07:36:00.000Z</time>
      </trkpt>
      <trkpt lat="48.05891" lon="6.54624">
        <ele>550</ele>
        <time>2018-04-28T07:36:01.000Z</time>
      </trkpt>
      <trkpt lat="48.05892" lon="6.54623">
        <ele>550</ele>
        <time>2018-04-28T07:36:02.000Z</time>
      </trkpt>
      <trkpt lat="48.05893" lon="6.54621">
        <ele>550</ele>
        <time>2018-04-28T07:36:03.000Z</time>
      </trkpt>
      <trkpt lat="48.05895" lon="6.5462">
        <ele>550</ele>
        <time>2018-04-28T07:36:04.000Z</time>
      </trkpt>
      <trkpt lat="48.05896" lon="6.54619">
        <ele>550</ele>
        <time>2018-04-28T07:36:05.000Z</time>
      </trkpt>
      <trkpt lat="48.05897" lon="6.54619">
        <ele>550</ele>
        <time>2018-04-28T07:36:06.000Z</time>
      </trkpt>
      <trkpt lat="48.05898" lon="6.54618">
        <ele>550</ele>
        <time>2018-04-28T07:36:07.000Z</time>
      </trkpt>
      <trkpt lat="48.05899" lon="6.54617">
        <ele>550</ele>
        <time>2018-04-28T07:36:08.000Z</time>
      </trkpt>
      <trkpt lat="48.05901" lon="6.54616">
        <ele>550</ele>
        <time>2018-04-28T07:36:09.000Z</time>
      </trkpt>
      <trkpt lat="48.05902" lon="6.54615">
        <ele>550</ele>
        <time>2018-04-28T07:36:10.000Z</time>
      </trkpt>
      <trkpt lat="48.05904" lon="6.54614">
        <ele>550</ele>
        <time>2018-04-28T07:36:11.000Z</time>
      </trkpt>
      <trkpt lat="48.05905" lon="6.54613">
        <ele>551</ele>
        <time>2018-04-28T07:36:12.000Z</time>
      </trkpt>
      <trkpt lat="48.05906" lon="6.54611">
        <ele>551</ele>
        <time>2018-04-28T07:36:13.000Z</time>
      </trkpt>
      <trkpt lat="48.05907" lon="6.5461">
        <ele>551</ele>
        <time>2018-04-28T07:36:14.000Z</time>
      </trkpt>
      <trkpt lat="48.05908" lon="6.54609">
        <ele>551</ele>
        <time>2018-04-28T07:36:15.000Z</time>
      </trkpt>
      <trkpt lat="48.05909" lon="6.54607">
        <ele>551</ele>
        <time>2018-04-28T07:36:16.000Z</time>
      </trkpt>
      <trkpt lat="48.05911" lon="6.54606">
        <ele>551</ele>
        <time>2018-04-28T07:36:17.000Z</time>
      </trkpt>
      <trkpt lat="48.05912" lon="6.54604">
        <ele>551</ele>
        <time>2018-04-28T07:36:18.000Z</time>
      </trkpt>
      <trkpt lat="48.05913" lon="6.54603">
        <ele>551</ele>
        <time>2018-04-28T07:36:19.000Z</time>
      </trkpt>
      <trkpt lat="48.05915" lon="6.54601">
        <ele>551</ele>
        <time>2018-04-28T07:36:20.000Z</time>
      </trkpt>
      <trkpt lat="48.05916" lon="6.546">
        <ele>552</ele>
        <time>2018-04-28T07:36:21.000Z</time>
      </trkpt>
      <trkpt lat="48.05917" lon="6.54598">
        <ele>557</ele>
        <time>2018-04-28T07:36:22.000Z</time>
      </trkpt>
      <trkpt lat="48.05919" lon="6.54597">
        <ele>556</ele>
        <time>2018-04-28T07:36:23.000Z</time>
      </trkpt>
      <trkpt lat="48.0592" lon="6.54596">
        <ele>556</ele>
        <time>2018-04-28T07:36:24.000Z</time>
      </trkpt>
      <trkpt lat="48.05922" lon="6.54594">
        <ele>556</ele>
        <time>2018-04-28T07:36:25.000Z</time>
      </trkpt>
      <trkpt lat="48.05924" lon="6.54593">
        <ele>556</ele>
        <time>2018-04-28T07:36:26.000Z</time>
      </trkpt>
      <trkpt lat="48.05925" lon="6.54592">
        <ele>556</ele>
        <time>2018-04-28T07:36:27.000Z</time>
      </trkpt>
      <trkpt lat="48.05927" lon="6.54591">
        <ele>556</ele>
        <time>2018-04-28T07:36:28.000Z</time>
      </trkpt>
      <trkpt lat="48.05928" lon="6.54589">
        <ele>556</ele>
        <time>2018-04-28T07:36:29.000Z</time>
      </trkpt>
      <trkpt lat="48.0593" lon="6.54588">
        <ele>556</ele>
        <time>2018-04-28T07:36:30.000Z</time>
      </trkpt>
      <trkpt lat="48.05931" lon="6.54587">
        <ele>557</ele>
        <time>2018-04-28T07:36:31.000Z</time>
      </trkpt>
      <trkpt lat="48.05933" lon="6.54586">
        <ele>557</ele>
        <time>2018-04-28T07:36:32.000Z</time>
      </trkpt>
      <trkpt lat="48.05935" lon="6.54584">
        <ele>557</ele>
        <time>2018-04-28T07:36:33.000Z</time>
      </trkpt>
      <trkpt lat="48.05937" lon="6.54583">
        <ele>555</ele>
        <time>2018-04-28T07:36:34.000Z</time>
      </trkpt>
      <trkpt lat="48.05938" lon="6.54582">
        <ele>555</ele>
        <time>2018-04-28T07:36:35.000Z</time>
      </trkpt>
      <trkpt lat="48.0594" lon="6.5458">
        <ele>555</ele>
        <time>2018-04-28T07:36:36.000Z</time>
      </trkpt>
      <trkpt lat="48.05941" lon="6.54579">
        <ele>555</ele>
        <time>2018-04-28T07:36:37.000Z</time>
      </trkpt>
      <trkpt lat="48.05943" lon="6.54578">
        <ele>555</ele>
        <time>2018-04-28T07:36:38.000Z</time>
      </trkpt>
      <trkpt lat="48.05945" lon="6.54577">
        <ele>555</ele>
        <time>2018-04-28T07:36:39.000Z</time>
      </trkpt>
      <trkpt lat="48.05946" lon="6.54576">
        <ele>555</ele>
        <time>2018-04-28T07:36:40.000Z</time>
      </trkpt>
      <trkpt lat="48.05948" lon="6.54575">
        <ele>555</ele>
        <time>2018-04-28T07:36:41.000Z</time>
      </trkpt>
      <trkpt lat="48.0595" lon="6.54574">
        <ele>555</ele>
        <time>2018-04-28T07:36:42.000Z</time>
      </trkpt>
      <trkpt lat="48.05951" lon="6.54573">
        <ele>555</ele>
        <time>2018-04-28T07:36:43.000Z</time>
      </trkpt>
      <trkpt lat="48.05953" lon="6.54572">
        <ele>555</ele>
        <time>2018-04-28T07:36:44.000Z</time>
      </trkpt>
      <trkpt lat="48.05954" lon="6.54572">
        <ele>555</ele>
        <time>2018-04-28T07:36:45.000Z</time>
      </trkpt>
      <trkpt lat="48.05956" lon="6.54572">
        <ele>555</ele>
        <time>2018-04-28T07:36:46.000Z</time>
      </trkpt>
      <trkpt lat="48.05957" lon="6.54572">
        <ele>556</ele>
        <time>2018-04-28T07:36:47.000Z</time>
      </trkpt>
      <trkpt lat="48.05958" lon="6.54571">
        <ele>556</ele>
        <time>2018-04-28T07:36:48.000Z</time>
      </trkpt>
      <trkpt lat="48.05959" lon="6.54571">
        <ele>556</ele>
        <time>2018-04-28T07:36:49.000Z</time>
      </trkpt>
      <trkpt lat="48.05961" lon="6.54571">
        <ele>556</ele>
        <time>2018-04-28T07:36:50.000Z</time>
      </trkpt>
      <trkpt lat="48.05962" lon="6.5457">
        <ele>556</ele>
        <time>2018-04-28T07:36:51.000Z</time>
      </trkpt>
      <trkpt lat="48.05964" lon="6.5457">
        <ele>556</ele>
        <time>2018-04-28T07:36:52.000Z</time>
      </trkpt>
      <trkpt lat="48.05965" lon="6.5457">
        <ele>556</ele>
        <time>2018-04-28T07:36:53.000Z</time>
      </trkpt>
      <trkpt lat="48.05966" lon="6.54569">
        <ele>556</ele>
        <time>2018-04-28T07:36:54.000Z</time>
      </trkpt>
      <trkpt lat="48.05968" lon="6.54568">
        <ele>556</ele>
        <time>2018-04-28T07:36:55.000Z</time>
      </trkpt>
      <trkpt lat="48.05969" lon="6.54567">
        <ele>556</ele>
        <time>2018-04-28T07:36:56.000Z</time>
      </trkpt>
      <trkpt lat="48.05971" lon="6.54566">
        <ele>556</ele>
        <time>2018-04-28T07:36:57.000Z</time>
      </trkpt>
      <trkpt lat="48.05972" lon="6.54565">
        <ele>556</ele>
        <time>2018-04-28T07:36:58.000Z</time>
      </trkpt>
      <trkpt lat="48.05974" lon="6.54565">
        <ele>556</ele>
        <time>2018-04-28T07:36:59.000Z</time>
      </trkpt>
      <trkpt lat="48.05975" lon="6.54564">
        <ele>556</ele>
        <time>2018-04-28T07:37:00.000Z</time>
      </trkpt>
      <trkpt lat="48.05976" lon="6.54563">
        <ele>556</ele>
        <time>2018-04-28T07:37:01.000Z</time>
      </trkpt>
      <trkpt lat="48.05978" lon="6.54562">
        <ele>556</ele>
        <time>2018-04-28T07:37:02.000Z</time>
      </trkpt>
      <trkpt lat="48.0598" lon="6.54561">
        <ele>557</ele>
        <time>2018-04-28T07:37:03.000Z</time>
      </trkpt>
      <trkpt lat="48.05982" lon="6.5456">
        <ele>557</ele>
        <time>2018-04-28T07:37:04.000Z</time>
      </trkpt>
      <trkpt lat="48.05984" lon="6.54559">
        <ele>557</ele>
        <time>2018-04-28T07:37:05.000Z</time>
      </trkpt>
      <trkpt lat="48.05986" lon="6.54558">
        <ele>557</ele>
        <time>2018-04-28T07:37:06.000Z</time>
      </trkpt>
      <trkpt lat="48.05988" lon="6.54557">
        <ele>557</ele>
        <time>2018-04-28T07:37:07.000Z</time>
      </trkpt>
      <trkpt lat="48.0599" lon="6.54556">
        <ele>557</ele>
        <time>2018-04-28T07:37:08.000Z</time>
      </trkpt>
      <trkpt lat="48.05992" lon="6.54555">
        <ele>557</ele>
        <time>2018-04-28T07:37:09.000Z</time>
      </trkpt>
      <trkpt lat="48.05993" lon="6.54554">
        <ele>557</ele>
        <time>2018-04-28T07:37:10.000Z</time>
      </trkpt>
      <trkpt lat="48.05995" lon="6.54553">
        <ele>556</ele>
        <time>2018-04-28T07:37:11.000Z</time>
      </trkpt>
      <trkpt lat="48.05996" lon="6.54552">
        <ele>556</ele>
        <time>2018-04-28T07:37:12.000Z</time>
      </trkpt>
      <trkpt lat="48.05998" lon="6.54551">
        <ele>556</ele>
        <time>2018-04-28T07:37:13.000Z</time>
      </trkpt>
      <trkpt lat="48.05999" lon="6.54549">
        <ele>556</ele>
        <time>2018-04-28T07:37:14.000Z</time>
      </trkpt>
      <trkpt lat="48.06" lon="6.54548">
        <ele>560</ele>
        <time>2018-04-28T07:37:15.000Z</time>
      </trkpt>
      <trkpt lat="48.06001" lon="6.54547">
        <ele>560</ele>
        <time>2018-04-28T07:37:16.000Z</time>
      </trkpt>
      <trkpt lat="48.06003" lon="6.54545">
        <ele>560</ele>
        <time>2018-04-28T07:37:17.000Z</time>
      </trkpt>
      <trkpt lat="48.06004" lon="6.54544">
        <ele>560</ele>
        <time>2018-04-28T07:37:18.000Z</time>
      </trkpt>
      <trkpt lat="48.06006" lon="6.54542">
        <ele>559</ele>
        <time>2018-04-28T07:37:19.000Z</time>
      </trkpt>
      <trkpt lat="48.06007" lon="6.54541">
        <ele>559</ele>
        <time>2018-04-28T07:37:20.000Z</time>
      </trkpt>
      <trkpt lat="48.06009" lon="6.54539">
        <ele>559</ele>
        <time>2018-04-28T07:37:21.000Z</time>
      </trkpt>
      <trkpt lat="48.0601" lon="6.54538">
        <ele>559</ele>
        <time>2018-04-28T07:37:22.000Z</time>
      </trkpt>
      <trkpt lat="48.06012" lon="6.54537">
        <ele>559</ele>
        <time>2018-04-28T07:37:23.000Z</time>
      </trkpt>
      <trkpt lat="48.06014" lon="6.54536">
        <ele>559</ele>
        <time>2018-04-28T07:37:24.000Z</time>
      </trkpt>
      <trkpt lat="48.06015" lon="6.54535">
        <ele>559</ele>
        <time>2018-04-28T07:37:25.000Z</time>
      </trkpt>
      <trkpt lat="48.06016" lon="6.54534">
        <ele>559</ele>
        <time>2018-04-28T07:37:26.000Z</time>
      </trkpt>
      <trkpt lat="48.06018" lon="6.54533">
        <ele>559</ele>
        <time>2018-04-28T07:37:27.000Z</time>
      </trkpt>
      <trkpt lat="48.06019" lon="6.54532">
        <ele>559</ele>
        <time>2018-04-28T07:37:28.000Z</time>
      </trkpt>
      <trkpt lat="48.0602" lon="6.5453">
        <ele>559</ele>
        <time>2018-04-28T07:37:29.000Z</time>
      </trkpt>
      <trkpt lat="48.06022" lon="6.54529">
        <ele>559</ele>
        <time>2018-04-28T07:37:30.000Z</time>
      </trkpt>
      <trkpt lat="48.06023" lon="6.54528">
        <ele>559</ele>
        <time>2018-04-28T07:37:31.000Z</time>
      </trkpt>
      <trkpt lat="48.06025" lon="6.54527">
        <ele>559</ele>
        <time>2018-04-28T07:37:32.000Z</time>
      </trkpt>
      <trkpt lat="48.06026" lon="6.54525">
        <ele>559</ele>
        <time>2018-04-28T07:37:33.000Z</time>
      </trkpt>
      <trkpt lat="48.06028" lon="6.54524">
        <ele>559</ele>
        <time>2018-04-28T07:37:34.000Z</time>
      </trkpt>
      <trkpt lat="48.0603" lon="6.54523">
        <ele>559</ele>
        <time>2018-04-28T07:37:35.000Z</time>
      </trkpt>
      <trkpt lat="48.06031" lon="6.54522">
        <ele>559</ele>
        <time>2018-04-28T07:37:36.000Z</time>
      </trkpt>
      <trkpt lat="48.06033" lon="6.54521">
        <ele>559</ele>
        <time>2018-04-28T07:37:37.000Z</time>
      </trkpt>
      <trkpt lat="48.06034" lon="6.5452">
        <ele>559</ele>
        <time>2018-04-28T07:37:38.000Z</time>
      </trkpt>
      <trkpt lat="48.06035" lon="6.5452">
        <ele>559</ele>
        <time>2018-04-28T07:37:39.000Z</time>
      </trkpt>
      <trkpt lat="48.06036" lon="6.54519">
        <ele>559</ele>
        <time>2018-04-28T07:37:40.000Z</time>
      </trkpt>
      <trkpt lat="48.06037" lon="6.54518">
        <ele>559</ele>
        <time>2018-04-28T07:37:41.000Z</time>
      </trkpt>
      <trkpt lat="48.06039" lon="6.54517">
        <ele>559</ele>
        <time>2018-04-28T07:37:42.000Z</time>
      </trkpt>
      <trkpt lat="48.0604" lon="6.54516">
        <ele>559</ele>
        <time>2018-04-28T07:37:43.000Z</time>
      </trkpt>
      <trkpt lat="48.06042" lon="6.54514">
        <ele>559</ele>
        <time>2018-04-28T07:37:44.000Z</time>
      </trkpt>
      <trkpt lat="48.06043" lon="6.54513">
        <ele>560</ele>
        <time>2018-04-28T07:37:45.000Z</time>
      </trkpt>
      <trkpt lat="48.06044" lon="6.54512">
        <ele>560</ele>
        <time>2018-04-28T07:37:46.000Z</time>
      </trkpt>
      <trkpt lat="48.06045" lon="6.54511">
        <ele>560</ele>
        <time>2018-04-28T07:37:47.000Z</time>
      </trkpt>
      <trkpt lat="48.06046" lon="6.54511">
        <ele>560</ele>
        <time>2018-04-28T07:37:48.000Z</time>
      </trkpt>
      <trkpt lat="48.06047" lon="6.5451">
        <ele>560</ele>
        <time>2018-04-28T07:37:49.000Z</time>
      </trkpt>
      <trkpt lat="48.06049" lon="6.5451">
        <ele>560</ele>
        <time>2018-04-28T07:37:50.000Z</time>
      </trkpt>
      <trkpt lat="48.0605" lon="6.54509">
        <ele>560</ele>
        <time>2018-04-28T07:37:51.000Z</time>
      </trkpt>
      <trkpt lat="48.06051" lon="6.54508">
        <ele>560</ele>
        <time>2018-04-28T07:37:52.000Z</time>
      </trkpt>
      <trkpt lat="48.06053" lon="6.54507">
        <ele>560</ele>
        <time>2018-04-28T07:37:53.000Z</time>
      </trkpt>
      <trkpt lat="48.06054" lon="6.54506">
        <ele>560</ele>
        <time>2018-04-28T07:37:54.000Z</time>
      </trkpt>
      <trkpt lat="48.06055" lon="6.54505">
        <ele>560</ele>
        <time>2018-04-28T07:37:55.000Z</time>
      </trkpt>
      <trkpt lat="48.06057" lon="6.54504">
        <ele>560</ele>
        <time>2018-04-28T07:37:56.000Z</time>
      </trkpt>
      <trkpt lat="48.06058" lon="6.54503">
        <ele>560</ele>
        <time>2018-04-28T07:37:57.000Z</time>
      </trkpt>
      <trkpt lat="48.0606" lon="6.54502">
        <ele>560</ele>
        <time>2018-04-28T07:37:58.000Z</time>
      </trkpt>
      <trkpt lat="48.06061" lon="6.54501">
        <ele>560</ele>
        <time>2018-04-28T07:37:59.000Z</time>
      </trkpt>
      <trkpt lat="48.06063" lon="6.545">
        <ele>558</ele>
        <time>2018-04-28T07:38:00.000Z</time>
      </trkpt>
      <trkpt lat="48.06064" lon="6.54499">
        <ele>558</ele>
        <time>2018-04-28T07:38:01.000Z</time>
      </trkpt>
      <trkpt lat="48.06065" lon="6.54497">
        <ele>558</ele>
        <time>2018-04-28T07:38:02.000Z</time>
      </trkpt>
      <trkpt lat="48.06067" lon="6.54496">
        <ele>558</ele>
        <time>2018-04-28T07:38:03.000Z</time>
      </trkpt>
      <trkpt lat="48.06068" lon="6.54494">
        <ele>558</ele>
        <time>2018-04-28T07:38:04.000Z</time>
      </trkpt>
      <trkpt lat="48.0607" lon="6.54492">
        <ele>558</ele>
        <time>2018-04-28T07:38:05.000Z</time>
      </trkpt>
      <trkpt lat="48.06071" lon="6.54491">
        <ele>558</ele>
        <time>2018-04-28T07:38:06.000Z</time>
      </trkpt>
      <trkpt lat="48.06072" lon="6.5449">
        <ele>558</ele>
        <time>2018-04-28T07:38:07.000Z</time>
      </trkpt>
      <trkpt lat="48.06073" lon="6.54489">
        <ele>558</ele>
        <time>2018-04-28T07:38:08.000Z</time>
      </trkpt>
      <trkpt lat="48.06075" lon="6.54488">
        <ele>558</ele>
        <time>2018-04-28T07:38:09.000Z</time>
      </trkpt>
      <trkpt lat="48.06076" lon="6.54487">
        <ele>558</ele>
        <time>2018-04-28T07:38:10.000Z</time>
      </trkpt>
      <trkpt lat="48.06077" lon="6.54485">
        <ele>558</ele>
        <time>2018-04-28T07:38:11.000Z</time>
      </trkpt>
      <trkpt lat="48.06079" lon="6.54484">
        <ele>558</ele>
        <time>2018-04-28T07:38:12.000Z</time>
      </trkpt>
      <trkpt lat="48.0608" lon="6.54482">
        <ele>558</ele>
        <time>2018-04-28T07:38:13.000Z</time>
      </trkpt>
      <trkpt lat="48.06081" lon="6.54481">
        <ele>558</ele>
        <time>2018-04-28T07:38:14.000Z</time>
      </trkpt>
      <trkpt lat="48.06082" lon="6.5448">
        <ele>558</ele>
        <time>2018-04-28T07:38:15.000Z</time>
      </trkpt>
      <trkpt lat="48.06083" lon="6.54479">
        <ele>558</ele>
        <time>2018-04-28T07:38:16.000Z</time>
      </trkpt>
      <trkpt lat="48.06085" lon="6.54478">
        <ele>560</ele>
        <time>2018-04-28T07:38:17.000Z</time>
      </trkpt>
      <trkpt lat="48.06086" lon="6.54477">
        <ele>560</ele>
        <time>2018-04-28T07:38:18.000Z</time>
      </trkpt>
      <trkpt lat="48.06087" lon="6.54476">
        <ele>560</ele>
        <time>2018-04-28T07:38:19.000Z</time>
      </trkpt>
      <trkpt lat="48.06088" lon="6.54475">
        <ele>560</ele>
        <time>2018-04-28T07:38:20.000Z</time>
      </trkpt>
      <trkpt lat="48.06089" lon="6.54474">
        <ele>560</ele>
        <time>2018-04-28T07:38:21.000Z</time>
      </trkpt>
      <trkpt lat="48.0609" lon="6.54473">
        <ele>560</ele>
        <time>2018-04-28T07:38:22.000Z</time>
      </trkpt>
      <trkpt lat="48.06092" lon="6.54472">
        <ele>560</ele>
        <time>2018-04-28T07:38:23.000Z</time>
      </trkpt>
      <trkpt lat="48.06093" lon="6.54471">
        <ele>560</ele>
        <time>2018-04-28T07:38:24.000Z</time>
      </trkpt>
      <trkpt lat="48.06094" lon="6.5447">
        <ele>560</ele>
        <time>2018-04-28T07:38:25.000Z</time>
      </trkpt>
      <trkpt lat="48.06096" lon="6.54469">
        <ele>560</ele>
        <time>2018-04-28T07:38:26.000Z</time>
      </trkpt>
      <trkpt lat="48.06097" lon="6.54467">
        <ele>560</ele>
        <time>2018-04-28T07:38:27.000Z</time>
      </trkpt>
      <trkpt lat="48.06098" lon="6.54466">
        <ele>559</ele>
        <time>2018-04-28T07:38:28.000Z</time>
      </trkpt>
      <trkpt lat="48.061" lon="6.54465">
        <ele>559</ele>
        <time>2018-04-28T07:38:29.000Z</time>
      </trkpt>
      <trkpt lat="48.06101" lon="6.54463">
        <ele>559</ele>
        <time>2018-04-28T07:38:30.000Z</time>
      </trkpt>
      <trkpt lat="48.06103" lon="6.54462">
        <ele>559</ele>
        <time>2018-04-28T07:38:31.000Z</time>
      </trkpt>
      <trkpt lat="48.06104" lon="6.54461">
        <ele>559</ele>
        <time>2018-04-28T07:38:32.000Z</time>
      </trkpt>
      <trkpt lat="48.06105" lon="6.54459">
        <ele>559</ele>
        <time>2018-04-28T07:38:33.000Z</time>
      </trkpt>
      <trkpt lat="48.06107" lon="6.54458">
        <ele>559</ele>
        <time>2018-04-28T07:38:34.000Z</time>
      </trkpt>
      <trkpt lat="48.06108" lon="6.54456">
        <ele>559</ele>
        <time>2018-04-28T07:38:35.000Z</time>
      </trkpt>
      <trkpt lat="48.06109" lon="6.54455">
        <ele>559</ele>
        <time>2018-04-28T07:38:36.000Z</time>
      </trkpt>
      <trkpt lat="48.06111" lon="6.54453">
        <ele>559</ele>
        <time>2018-04-28T07:38:37.000Z</time>
      </trkpt>
      <trkpt lat="48.06112" lon="6.54451">
        <ele>559</ele>
        <time>2018-04-28T07:38:38.000Z</time>
      </trkpt>
      <trkpt lat="48.06113" lon="6.54449">
        <ele>559</ele>
        <time>2018-04-28T07:38:39.000Z</time>
      </trkpt>
      <trkpt lat="48.06115" lon="6.54448">
        <ele>559</ele>
        <time>2018-04-28T07:38:40.000Z</time>
      </trkpt>
      <trkpt lat="48.06116" lon="6.54446">
        <ele>559</ele>
        <time>2018-04-28T07:38:41.000Z</time>
      </trkpt>
      <trkpt lat="48.06117" lon="6.54445">
        <ele>559</ele>
        <time>2018-04-28T07:38:42.000Z</time>
      </trkpt>
      <trkpt lat="48.06118" lon="6.54444">
        <ele>559</ele>
        <time>2018-04-28T07:38:43.000Z</time>
      </trkpt>
      <trkpt lat="48.06119" lon="6.54442">
        <ele>559</ele>
        <time>2018-04-28T07:38:44.000Z</time>
      </trkpt>
      <trkpt lat="48.06121" lon="6.54441">
        <ele>559</ele>
        <time>2018-04-28T07:38:45.000Z</time>
      </trkpt>
      <trkpt lat="48.06122" lon="6.54439">
        <ele>559</ele>
        <time>2018-04-28T07:38:46.000Z</time>
      </trkpt>
      <trkpt lat="48.06124" lon="6.54437">
        <ele>559</ele>
        <time>2018-04-28T07:38:47.000Z</time>
      </trkpt>
      <trkpt lat="48.06125" lon="6.54436">
        <ele>559</ele>
        <time>2018-04-28T07:38:48.000Z</time>
      </trkpt>
      <trkpt lat="48.06127" lon="6.54434">
        <ele>559</ele>
        <time>2018-04-28T07:38:49.000Z</time>
      </trkpt>
      <trkpt lat="48.06129" lon="6.54432">
        <ele>559</ele>
        <time>2018-04-28T07:38:50.000Z</time>
      </trkpt>
      <trkpt lat="48.0613" lon="6.5443">
        <ele>559</ele>
        <time>2018-04-28T07:38:51.000Z</time>
      </trkpt>
      <trkpt lat="48.06132" lon="6.54428">
        <ele>559</ele>
        <time>2018-04-28T07:38:52.000Z</time>
      </trkpt>
      <trkpt lat="48.06134" lon="6.54427">
        <ele>559</ele>
        <time>2018-04-28T07:38:53.000Z</time>
      </trkpt>
      <trkpt lat="48.06136" lon="6.54425">
        <ele>559</ele>
        <time>2018-04-28T07:38:54.000Z</time>
      </trkpt>
      <trkpt lat="48.06137" lon="6.54423">
        <ele>559</ele>
        <time>2018-04-28T07:38:55.000Z</time>
      </trkpt>
      <trkpt lat="48.06139" lon="6.54422">
        <ele>559</ele>
        <time>2018-04-28T07:38:56.000Z</time>
      </trkpt>
      <trkpt lat="48.0614" lon="6.54419">
        <ele>559</ele>
        <time>2018-04-28T07:38:57.000Z</time>
      </trkpt>
      <trkpt lat="48.06141" lon="6.54418">
        <ele>559</ele>
        <time>2018-04-28T07:38:58.000Z</time>
      </trkpt>
      <trkpt lat="48.06142" lon="6.54416">
        <ele>556</ele>
        <time>2018-04-28T07:38:59.000Z</time>
      </trkpt>
      <trkpt lat="48.06144" lon="6.54414">
        <ele>556</ele>
        <time>2018-04-28T07:39:00.000Z</time>
      </trkpt>
      <trkpt lat="48.06145" lon="6.54412">
        <ele>556</ele>
        <time>2018-04-28T07:39:01.000Z</time>
      </trkpt>
      <trkpt lat="48.06146" lon="6.54411">
        <ele>556</ele>
        <time>2018-04-28T07:39:02.000Z</time>
      </trkpt>
      <trkpt lat="48.06148" lon="6.54409">
        <ele>556</ele>
        <time>2018-04-28T07:39:03.000Z</time>
      </trkpt>
      <trkpt lat="48.06149" lon="6.54408">
        <ele>556</ele>
        <time>2018-04-28T07:39:04.000Z</time>
      </trkpt>
      <trkpt lat="48.0615" lon="6.54405">
        <ele>556</ele>
        <time>2018-04-28T07:39:05.000Z</time>
      </trkpt>
      <trkpt lat="48.06151" lon="6.54404">
        <ele>556</ele>
        <time>2018-04-28T07:39:06.000Z</time>
      </trkpt>
      <trkpt lat="48.06152" lon="6.54402">
        <ele>556</ele>
        <time>2018-04-28T07:39:07.000Z</time>
      </trkpt>
      <trkpt lat="48.06153" lon="6.544">
        <ele>555</ele>
        <time>2018-04-28T07:39:08.000Z</time>
      </trkpt>
      <trkpt lat="48.06154" lon="6.54398">
        <ele>555</ele>
        <time>2018-04-28T07:39:09.000Z</time>
      </trkpt>
      <trkpt lat="48.06155" lon="6.54396">
        <ele>555</ele>
        <time>2018-04-28T07:39:10.000Z</time>
      </trkpt>
      <trkpt lat="48.06156" lon="6.54394">
        <ele>555</ele>
        <time>2018-04-28T07:39:11.000Z</time>
      </trkpt>
      <trkpt lat="48.06157" lon="6.54392">
        <ele>555</ele>
        <time>2018-04-28T07:39:12.000Z</time>
      </trkpt>
      <trkpt lat="48.06158" lon="6.54391">
        <ele>555</ele>
        <time>2018-04-28T07:39:13.000Z</time>
      </trkpt>
      <trkpt lat="48.06159" lon="6.5439">
        <ele>555</ele>
        <time>2018-04-28T07:39:14.000Z</time>
      </trkpt>
      <trkpt lat="48.06161" lon="6.54388">
        <ele>555</ele>
        <time>2018-04-28T07:39:15.000Z</time>
      </trkpt>
      <trkpt lat="48.06162" lon="6.54387">
        <ele>555</ele>
        <time>2018-04-28T07:39:16.000Z</time>
      </trkpt>
      <trkpt lat="48.06163" lon="6.54385">
        <ele>555</ele>
        <time>2018-04-28T07:39:17.000Z</time>
      </trkpt>
      <trkpt lat="48.06164" lon="6.54384">
        <ele>554</ele>
        <time>2018-04-28T07:39:18.000Z</time>
      </trkpt>
      <trkpt lat="48.06166" lon="6.54382">
        <ele>554</ele>
        <time>2018-04-28T07:39:19.000Z</time>
      </trkpt>
      <trkpt lat="48.06167" lon="6.54381">
        <ele>556</ele>
        <time>2018-04-28T07:39:20.000Z</time>
      </trkpt>
      <trkpt lat="48.06168" lon="6.54379">
        <ele>556</ele>
        <time>2018-04-28T07:39:21.000Z</time>
      </trkpt>
      <trkpt lat="48.06169" lon="6.54378">
        <ele>556</ele>
        <time>2018-04-28T07:39:22.000Z</time>
      </trkpt>
      <trkpt lat="48.0617" lon="6.54376">
        <ele>556</ele>
        <time>2018-04-28T07:39:23.000Z</time>
      </trkpt>
      <trkpt lat="48.06171" lon="6.54375">
        <ele>556</ele>
        <time>2018-04-28T07:39:24.000Z</time>
      </trkpt>
      <trkpt lat="48.06172" lon="6.54373">
        <ele>556</ele>
        <time>2018-04-28T07:39:25.000Z</time>
      </trkpt>
      <trkpt lat="48.06173" lon="6.54371">
        <ele>555</ele>
        <time>2018-04-28T07:39:26.000Z</time>
      </trkpt>
      <trkpt lat="48.06174" lon="6.54369">
        <ele>555</ele>
        <time>2018-04-28T07:39:27.000Z</time>
      </trkpt>
      <trkpt lat="48.06175" lon="6.54367">
        <ele>555</ele>
        <time>2018-04-28T07:39:28.000Z</time>
      </trkpt>
      <trkpt lat="48.06176" lon="6.54365">
        <ele>555</ele>
        <time>2018-04-28T07:39:29.000Z</time>
      </trkpt>
      <trkpt lat="48.06178" lon="6.54363">
        <ele>555</ele>
        <time>2018-04-28T07:39:30.000Z</time>
      </trkpt>
      <trkpt lat="48.06179" lon="6.54361">
        <ele>555</ele>
        <time>2018-04-28T07:39:31.000Z</time>
      </trkpt>
      <trkpt lat="48.0618" lon="6.54359">
        <ele>555</ele>
        <time>2018-04-28T07:39:32.000Z</time>
      </trkpt>
      <trkpt lat="48.06181" lon="6.54357">
        <ele>555</ele>
        <time>2018-04-28T07:39:33.000Z</time>
      </trkpt>
      <trkpt lat="48.06182" lon="6.54354">
        <ele>554</ele>
        <time>2018-04-28T07:39:34.000Z</time>
      </trkpt>
      <trkpt lat="48.06183" lon="6.54352">
        <ele>554</ele>
        <time>2018-04-28T07:39:35.000Z</time>
      </trkpt>
      <trkpt lat="48.06184" lon="6.5435">
        <ele>554</ele>
        <time>2018-04-28T07:39:36.000Z</time>
      </trkpt>
      <trkpt lat="48.06185" lon="6.54347">
        <ele>554</ele>
        <time>2018-04-28T07:39:37.000Z</time>
      </trkpt>
      <trkpt lat="48.06186" lon="6.54345">
        <ele>554</ele>
        <time>2018-04-28T07:39:38.000Z</time>
      </trkpt>
      <trkpt lat="48.06187" lon="6.54343">
        <ele>554</ele>
        <time>2018-04-28T07:39:39.000Z</time>
      </trkpt>
      <trkpt lat="48.06187" lon="6.54341">
        <ele>554</ele>
        <time>2018-04-28T07:39:40.000Z</time>
      </trkpt>
      <trkpt lat="48.06188" lon="6.54339">
        <ele>554</ele>
        <time>2018-04-28T07:39:41.000Z</time>
      </trkpt>
      <trkpt lat="48.06188" lon="6.54337">
        <ele>554</ele>
        <time>2018-04-28T07:39:42.000Z</time>
      </trkpt>
      <trkpt lat="48.06188" lon="6.54335">
        <ele>554</ele>
        <time>2018-04-28T07:39:43.000Z</time>
      </trkpt>
      <trkpt lat="48.06189" lon="6.54333">
        <ele>550</ele>
        <time>2018-04-28T07:39:44.000Z</time>
      </trkpt>
      <trkpt lat="48.06189" lon="6.54331">
        <ele>550</ele>
        <time>2018-04-28T07:39:45.000Z</time>
      </trkpt>
      <trkpt lat="48.06189" lon="6.54328">
        <ele>550</ele>
        <time>2018-04-28T07:39:46.000Z</time>
      </trkpt>
      <trkpt lat="48.0619" lon="6.54327">
        <ele>550</ele>
        <time>2018-04-28T07:39:47.000Z</time>
      </trkpt>
      <trkpt lat="48.0619" lon="6.54325">
        <ele>550</ele>
        <time>2018-04-28T07:39:48.000Z</time>
      </trkpt>
      <trkpt lat="48.06191" lon="6.54323">
        <ele>550</ele>
        <time>2018-04-28T07:39:49.000Z</time>
      </trkpt>
      <trkpt lat="48.06191" lon="6.5432">
        <ele>550</ele>
        <time>2018-04-28T07:39:50.000Z</time>
      </trkpt>
      <trkpt lat="48.06192" lon="6.54318">
        <ele>550</ele>
        <time>2018-04-28T07:39:51.000Z</time>
      </trkpt>
      <trkpt lat="48.06193" lon="6.54316">
        <ele>550</ele>
        <time>2018-04-28T07:39:52.000Z</time>
      </trkpt>
      <trkpt lat="48.06193" lon="6.54315">
        <ele>550</ele>
        <time>2018-04-28T07:39:53.000Z</time>
      </trkpt>
      <trkpt lat="48.06194" lon="6.54314">
        <ele>550</ele>
        <time>2018-04-28T07:39:54.000Z</time>
      </trkpt>
      <trkpt lat="48.06195" lon="6.54312">
        <ele>550</ele>
        <time>2018-04-28T07:39:55.000Z</time>
      </trkpt>
      <trkpt lat="48.06196" lon="6.54311">
        <ele>550</ele>
        <time>2018-04-28T07:39:56.000Z</time>
      </trkpt>
      <trkpt lat="48.06197" lon="6.54311">
        <ele>550</ele>
        <time>2018-04-28T07:39:57.000Z</time>
      </trkpt>
      <trkpt lat="48.06198" lon="6.5431">
        <ele>550</ele>
        <time>2018-04-28T07:39:58.000Z</time>
      </trkpt>
      <trkpt lat="48.06198" lon="6.5431">
        <ele>550</ele>
        <time>2018-04-28T07:39:59.000Z</time>
      </trkpt>
      <trkpt lat="48.06199" lon="6.54309">
        <ele>550</ele>
        <time>2018-04-28T07:40:00.000Z</time>
      </trkpt>
      <trkpt lat="48.06199" lon="6.54309">
        <ele>550</ele>
        <time>2018-04-28T07:40:01.000Z</time>
      </trkpt>
      <trkpt lat="48.062" lon="6.54308">
        <ele>550</ele>
        <time>2018-04-28T07:40:02.000Z</time>
      </trkpt>
      <trkpt lat="48.06201" lon="6.54307">
        <ele>550</ele>
        <time>2018-04-28T07:40:03.000Z</time>
      </trkpt>
      <trkpt lat="48.06202" lon="6.54306">
        <ele>550</ele>
        <time>2018-04-28T07:40:04.000Z</time>
      </trkpt>
      <trkpt lat="48.06203" lon="6.54305">
        <ele>550</ele>
        <time>2018-04-28T07:40:05.000Z</time>
      </trkpt>
      <trkpt lat="48.06203" lon="6.54303">
        <ele>550</ele>
        <time>2018-04-28T07:40:06.000Z</time>
      </trkpt>
      <trkpt lat="48.06204" lon="6.54302">
        <ele>550</ele>
        <time>2018-04-28T07:40:07.000Z</time>
      </trkpt>
      <trkpt lat="48.06205" lon="6.54301">
        <ele>550</ele>
        <time>2018-04-28T07:40:08.000Z</time>
      </trkpt>
      <trkpt lat="48.06206" lon="6.543">
        <ele>550</ele>
        <time>2018-04-28T07:40:09.000Z</time>
      </trkpt>
      <trkpt lat="48.06208" lon="6.54299">
        <ele>550</ele>
        <time>2018-04-28T07:40:10.000Z</time>
      </trkpt>
      <trkpt lat="48.06209" lon="6.54298">
        <ele>550</ele>
        <time>2018-04-28T07:40:11.000Z</time>
      </trkpt>
      <trkpt lat="48.0621" lon="6.54297">
        <ele>550</ele>
        <time>2018-04-28T07:40:12.000Z</time>
      </trkpt>
      <trkpt lat="48.06212" lon="6.54296">
        <ele>550</ele>
        <time>2018-04-28T07:40:13.000Z</time>
      </trkpt>
      <trkpt lat="48.06213" lon="6.54295">
        <ele>550</ele>
        <time>2018-04-28T07:40:14.000Z</time>
      </trkpt>
      <trkpt lat="48.06214" lon="6.54294">
        <ele>550</ele>
        <time>2018-04-28T07:40:15.000Z</time>
      </trkpt>
      <trkpt lat="48.06215" lon="6.54294">
        <ele>550</ele>
        <time>2018-04-28T07:40:16.000Z</time>
      </trkpt>
      <trkpt lat="48.06216" lon="6.54293">
        <ele>550</ele>
        <time>2018-04-28T07:40:17.000Z</time>
      </trkpt>
      <trkpt lat="48.06218" lon="6.54293">
        <ele>550</ele>
        <time>2018-04-28T07:40:18.000Z</time>
      </trkpt>
      <trkpt lat="48.06219" lon="6.54292">
        <ele>550</ele>
        <time>2018-04-28T07:40:19.000Z</time>
      </trkpt>
      <trkpt lat="48.0622" lon="6.54292">
        <ele>550</ele>
        <time>2018-04-28T07:40:20.000Z</time>
      </trkpt>
      <trkpt lat="48.06221" lon="6.54292">
        <ele>550</ele>
        <time>2018-04-28T07:40:21.000Z</time>
      </trkpt>
      <trkpt lat="48.06223" lon="6.54291">
        <ele>550</ele>
        <time>2018-04-28T07:40:22.000Z</time>
      </trkpt>
      <trkpt lat="48.06224" lon="6.54291">
        <ele>550</ele>
        <time>2018-04-28T07:40:23.000Z</time>
      </trkpt>
      <trkpt lat="48.06225" lon="6.5429">
        <ele>550</ele>
        <time>2018-04-28T07:40:24.000Z</time>
      </trkpt>
      <trkpt lat="48.06227" lon="6.5429">
        <ele>550</ele>
        <time>2018-04-28T07:40:25.000Z</time>
      </trkpt>
      <trkpt lat="48.06228" lon="6.5429">
        <ele>550</ele>
        <time>2018-04-28T07:40:26.000Z</time>
      </trkpt>
      <trkpt lat="48.0623" lon="6.54289">
        <ele>550</ele>
        <time>2018-04-28T07:40:27.000Z</time>
      </trkpt>
      <trkpt lat="48.06231" lon="6.54289">
        <ele>550</ele>
        <time>2018-04-28T07:40:28.000Z</time>
      </trkpt>
      <trkpt lat="48.06233" lon="6.54288">
        <ele>550</ele>
        <time>2018-04-28T07:40:29.000Z</time>
      </trkpt>
      <trkpt lat="48.06235" lon="6.54287">
        <ele>550</ele>
        <time>2018-04-28T07:40:30.000Z</time>
      </trkpt>
      <trkpt lat="48.06236" lon="6.54287">
        <ele>550</ele>
        <time>2018-04-28T07:40:31.000Z</time>
      </trkpt>
      <trkpt lat="48.06238" lon="6.54286">
        <ele>550</ele>
        <time>2018-04-28T07:40:32.000Z</time>
      </trkpt>
      <trkpt lat="48.0624" lon="6.54286">
        <ele>550</ele>
        <time>2018-04-28T07:40:33.000Z</time>
      </trkpt>
      <trkpt lat="48.06241" lon="6.54285">
        <ele>550</ele>
        <time>2018-04-28T07:40:34.000Z</time>
      </trkpt>
      <trkpt lat="48.06243" lon="6.54284">
        <ele>550</ele>
        <time>2018-04-28T07:40:35.000Z</time>
      </trkpt>
      <trkpt lat="48.06245" lon="6.54283">
        <ele>550</ele>
        <time>2018-04-28T07:40:36.000Z</time>
      </trkpt>
      <trkpt lat="48.06246" lon="6.54283">
        <ele>550</ele>
        <time>2018-04-28T07:40:37.000Z</time>
      </trkpt>
      <trkpt lat="48.06247" lon="6.54282">
        <ele>550</ele>
        <time>2018-04-28T07:40:38.000Z</time>
      </trkpt>
      <trkpt lat="48.06249" lon="6.54281">
        <ele>550</ele>
        <time>2018-04-28T07:40:39.000Z</time>
      </trkpt>
      <trkpt lat="48.0625" lon="6.5428">
        <ele>550</ele>
        <time>2018-04-28T07:40:40.000Z</time>
      </trkpt>
      <trkpt lat="48.06251" lon="6.5428">
        <ele>552</ele>
        <time>2018-04-28T07:40:41.000Z</time>
      </trkpt>
      <trkpt lat="48.06252" lon="6.54279">
        <ele>552</ele>
        <time>2018-04-28T07:40:42.000Z</time>
      </trkpt>
      <trkpt lat="48.06254" lon="6.54278">
        <ele>551</ele>
        <time>2018-04-28T07:40:43.000Z</time>
      </trkpt>
      <trkpt lat="48.06256" lon="6.54277">
        <ele>551</ele>
        <time>2018-04-28T07:40:44.000Z</time>
      </trkpt>
      <trkpt lat="48.06257" lon="6.54276">
        <ele>551</ele>
        <time>2018-04-28T07:40:45.000Z</time>
      </trkpt>
      <trkpt lat="48.06259" lon="6.54275">
        <ele>551</ele>
        <time>2018-04-28T07:40:46.000Z</time>
      </trkpt>
      <trkpt lat="48.06261" lon="6.54274">
        <ele>551</ele>
        <time>2018-04-28T07:40:47.000Z</time>
      </trkpt>
      <trkpt lat="48.06262" lon="6.54274">
        <ele>551</ele>
        <time>2018-04-28T07:40:48.000Z</time>
      </trkpt>
      <trkpt lat="48.06264" lon="6.54273">
        <ele>551</ele>
        <time>2018-04-28T07:40:49.000Z</time>
      </trkpt>
      <trkpt lat="48.06265" lon="6.54272">
        <ele>551</ele>
        <time>2018-04-28T07:40:50.000Z</time>
      </trkpt>
      <trkpt lat="48.06266" lon="6.54271">
        <ele>551</ele>
        <time>2018-04-28T07:40:51.000Z</time>
      </trkpt>
      <trkpt lat="48.06268" lon="6.5427">
        <ele>551</ele>
        <time>2018-04-28T07:40:52.000Z</time>
      </trkpt>
      <trkpt lat="48.0627" lon="6.54269">
        <ele>551</ele>
        <time>2018-04-28T07:40:53.000Z</time>
      </trkpt>
      <trkpt lat="48.06271" lon="6.54268">
        <ele>551</ele>
        <time>2018-04-28T07:40:54.000Z</time>
      </trkpt>
      <trkpt lat="48.06273" lon="6.54267">
        <ele>551</ele>
        <time>2018-04-28T07:40:55.000Z</time>
      </trkpt>
      <trkpt lat="48.06274" lon="6.54266">
        <ele>551</ele>
        <time>2018-04-28T07:40:56.000Z</time>
      </trkpt>
      <trkpt lat="48.06276" lon="6.54266">
        <ele>551</ele>
        <time>2018-04-28T07:40:57.000Z</time>
      </trkpt>
      <trkpt lat="48.06278" lon="6.54265">
        <ele>551</ele>
        <time>2018-04-28T07:40:58.000Z</time>
      </trkpt>
      <trkpt lat="48.0628" lon="6.54265">
        <ele>551</ele>
        <time>2018-04-28T07:40:59.000Z</time>
      </trkpt>
      <trkpt lat="48.06281" lon="6.54264">
        <ele>551</ele>
        <time>2018-04-28T07:41:00.000Z</time>
      </trkpt>
      <trkpt lat="48.06283" lon="6.54264">
        <ele>552</ele>
        <time>2018-04-28T07:41:01.000Z</time>
      </trkpt>
      <trkpt lat="48.06284" lon="6.54263">
        <ele>552</ele>
        <time>2018-04-28T07:41:02.000Z</time>
      </trkpt>
      <trkpt lat="48.06285" lon="6.54263">
        <ele>552</ele>
        <time>2018-04-28T07:41:03.000Z</time>
      </trkpt>
      <trkpt lat="48.06286" lon="6.54262">
        <ele>552</ele>
        <time>2018-04-28T07:41:04.000Z</time>
      </trkpt>
      <trkpt lat="48.06288" lon="6.54262">
        <ele>552</ele>
        <time>2018-04-28T07:41:05.000Z</time>
      </trkpt>
      <trkpt lat="48.06289" lon="6.54262">
        <ele>552</ele>
        <time>2018-04-28T07:41:06.000Z</time>
      </trkpt>
      <trkpt lat="48.06291" lon="6.54261">
        <ele>552</ele>
        <time>2018-04-28T07:41:07.000Z</time>
      </trkpt>
      <trkpt lat="48.06292" lon="6.5426">
        <ele>552</ele>
        <time>2018-04-28T07:41:08.000Z</time>
      </trkpt>
      <trkpt lat="48.06294" lon="6.5426">
        <ele>552</ele>
        <time>2018-04-28T07:41:09.000Z</time>
      </trkpt>
      <trkpt lat="48.06295" lon="6.54259">
        <ele>552</ele>
        <time>2018-04-28T07:41:10.000Z</time>
      </trkpt>
      <trkpt lat="48.06296" lon="6.54259">
        <ele>552</ele>
        <time>2018-04-28T07:41:11.000Z</time>
      </trkpt>
      <trkpt lat="48.06298" lon="6.54259">
        <ele>552</ele>
        <time>2018-04-28T07:41:12.000Z</time>
      </trkpt>
      <trkpt lat="48.06299" lon="6.54258">
        <ele>552</ele>
        <time>2018-04-28T07:41:13.000Z</time>
      </trkpt>
      <trkpt lat="48.063" lon="6.54256">
        <ele>552</ele>
        <time>2018-04-28T07:41:14.000Z</time>
      </trkpt>
      <trkpt lat="48.06302" lon="6.54255">
        <ele>552</ele>
        <time>2018-04-28T07:41:15.000Z</time>
      </trkpt>
      <trkpt lat="48.06303" lon="6.54255">
        <ele>552</ele>
        <time>2018-04-28T07:41:16.000Z</time>
      </trkpt>
      <trkpt lat="48.06304" lon="6.54254">
        <ele>552</ele>
        <time>2018-04-28T07:41:17.000Z</time>
      </trkpt>
      <trkpt lat="48.06306" lon="6.54253">
        <ele>552</ele>
        <time>2018-04-28T07:41:18.000Z</time>
      </trkpt>
      <trkpt lat="48.06307" lon="6.54252">
        <ele>552</ele>
        <time>2018-04-28T07:41:19.000Z</time>
      </trkpt>
      <trkpt lat="48.06308" lon="6.54251">
        <ele>552</ele>
        <time>2018-04-28T07:41:20.000Z</time>
      </trkpt>
      <trkpt lat="48.06309" lon="6.5425">
        <ele>548</ele>
        <time>2018-04-28T07:41:21.000Z</time>
      </trkpt>
      <trkpt lat="48.0631" lon="6.54249">
        <ele>548</ele>
        <time>2018-04-28T07:41:22.000Z</time>
      </trkpt>
      <trkpt lat="48.06311" lon="6.54248">
        <ele>548</ele>
        <time>2018-04-28T07:41:23.000Z</time>
      </trkpt>
      <trkpt lat="48.06312" lon="6.54247">
        <ele>548</ele>
        <time>2018-04-28T07:41:24.000Z</time>
      </trkpt>
      <trkpt lat="48.06313" lon="6.54246">
        <ele>548</ele>
        <time>2018-04-28T07:41:25.000Z</time>
      </trkpt>
      <trkpt lat="48.06315" lon="6.54245">
        <ele>548</ele>
        <time>2018-04-28T07:41:26.000Z</time>
      </trkpt>
      <trkpt lat="48.06316" lon="6.54245">
        <ele>548</ele>
        <time>2018-04-28T07:41:27.000Z</time>
      </trkpt>
      <trkpt lat="48.06318" lon="6.54244">
        <ele>548</ele>
        <time>2018-04-28T07:41:28.000Z</time>
      </trkpt>
      <trkpt lat="48.0632" lon="6.54243">
        <ele>549</ele>
        <time>2018-04-28T07:41:29.000Z</time>
      </trkpt>
      <trkpt lat="48.06321" lon="6.54242">
        <ele>549</ele>
        <time>2018-04-28T07:41:30.000Z</time>
      </trkpt>
      <trkpt lat="48.06323" lon="6.54241">
        <ele>549</ele>
        <time>2018-04-28T07:41:31.000Z</time>
      </trkpt>
      <trkpt lat="48.06325" lon="6.5424">
        <ele>549</ele>
        <time>2018-04-28T07:41:32.000Z</time>
      </trkpt>
      <trkpt lat="48.06327" lon="6.5424">
        <ele>549</ele>
        <time>2018-04-28T07:41:33.000Z</time>
      </trkpt>
      <trkpt lat="48.06328" lon="6.54239">
        <ele>549</ele>
        <time>2018-04-28T07:41:34.000Z</time>
      </trkpt>
      <trkpt lat="48.0633" lon="6.54238">
        <ele>549</ele>
        <time>2018-04-28T07:41:35.000Z</time>
      </trkpt>
      <trkpt lat="48.06332" lon="6.54238">
        <ele>549</ele>
        <time>2018-04-28T07:41:36.000Z</time>
      </trkpt>
      <trkpt lat="48.06334" lon="6.54238">
        <ele>550</ele>
        <time>2018-04-28T07:41:37.000Z</time>
      </trkpt>
      <trkpt lat="48.06335" lon="6.54237">
        <ele>550</ele>
        <time>2018-04-28T07:41:38.000Z</time>
      </trkpt>
      <trkpt lat="48.06337" lon="6.54237">
        <ele>550</ele>
        <time>2018-04-28T07:41:39.000Z</time>
      </trkpt>
      <trkpt lat="48.06339" lon="6.54237">
        <ele>550</ele>
        <time>2018-04-28T07:41:40.000Z</time>
      </trkpt>
      <trkpt lat="48.0634" lon="6.54236">
        <ele>550</ele>
        <time>2018-04-28T07:41:41.000Z</time>
      </trkpt>
      <trkpt lat="48.06343" lon="6.54236">
        <ele>550</ele>
        <time>2018-04-28T07:41:42.000Z</time>
      </trkpt>
      <trkpt lat="48.06344" lon="6.54236">
        <ele>550</ele>
        <time>2018-04-28T07:41:43.000Z</time>
      </trkpt>
      <trkpt lat="48.06346" lon="6.54236">
        <ele>550</ele>
        <time>2018-04-28T07:41:44.000Z</time>
      </trkpt>
      <trkpt lat="48.06347" lon="6.54236">
        <ele>550</ele>
        <time>2018-04-28T07:41:45.000Z</time>
      </trkpt>
      <trkpt lat="48.06349" lon="6.54235">
        <ele>550</ele>
        <time>2018-04-28T07:41:46.000Z</time>
      </trkpt>
      <trkpt lat="48.06349" lon="6.54234">
        <ele>550</ele>
        <time>2018-04-28T07:41:47.000Z</time>
      </trkpt>
      <trkpt lat="48.0635" lon="6.54234">
        <ele>550</ele>
        <time>2018-04-28T07:41:48.000Z</time>
      </trkpt>
      <trkpt lat="48.06351" lon="6.54233">
        <ele>550</ele>
        <time>2018-04-28T07:41:49.000Z</time>
      </trkpt>
      <trkpt lat="48.06351" lon="6.54233">
        <ele>550</ele>
        <time>2018-04-28T07:41:50.000Z</time>
      </trkpt>
      <trkpt lat="48.06351" lon="6.54233">
        <ele>550</ele>
        <time>2018-04-28T07:41:51.000Z</time>
      </trkpt>
      <trkpt lat="48.06351" lon="6.54233">
        <ele>550</ele>
        <time>2018-04-28T07:41:52.000Z</time>
      </trkpt>
      <trkpt lat="48.06353" lon="6.54237">
        <ele>550</ele>
        <time>2018-04-28T07:41:53.000Z</time>
      </trkpt>
      <trkpt lat="48.06354" lon="6.54237">
        <ele>550</ele>
        <time>2018-04-28T07:41:54.000Z</time>
      </trkpt>
      <trkpt lat="48.06355" lon="6.54238">
        <ele>550</ele>
        <time>2018-04-28T07:41:55.000Z</time>
      </trkpt>
      <trkpt lat="48.06356" lon="6.54238">
        <ele>550</ele>
        <time>2018-04-28T07:41:56.000Z</time>
      </trkpt>
      <trkpt lat="48.06357" lon="6.54239">
        <ele>550</ele>
        <time>2018-04-28T07:41:57.000Z</time>
      </trkpt>
      <trkpt lat="48.06357" lon="6.5424">
        <ele>550</ele>
        <time>2018-04-28T07:41:58.000Z</time>
      </trkpt>
      <trkpt lat="48.06358" lon="6.54241">
        <ele>550</ele>
        <time>2018-04-28T07:41:59.000Z</time>
      </trkpt>
      <trkpt lat="48.06359" lon="6.54242">
        <ele>550</ele>
        <time>2018-04-28T07:42:00.000Z</time>
      </trkpt>
      <trkpt lat="48.0636" lon="6.54243">
        <ele>550</ele>
        <time>2018-04-28T07:42:01.000Z</time>
      </trkpt>
      <trkpt lat="48.06361" lon="6.54244">
        <ele>550</ele>
        <time>2018-04-28T07:42:02.000Z</time>
      </trkpt>
      <trkpt lat="48.06363" lon="6.54246">
        <ele>550</ele>
        <time>2018-04-28T07:42:03.000Z</time>
      </trkpt>
      <trkpt lat="48.06364" lon="6.54247">
        <ele>550</ele>
        <time>2018-04-28T07:42:04.000Z</time>
      </trkpt>
      <trkpt lat="48.06365" lon="6.54248">
        <ele>550</ele>
        <time>2018-04-28T07:42:05.000Z</time>
      </trkpt>
      <trkpt lat="48.06366" lon="6.5425">
        <ele>550</ele>
        <time>2018-04-28T07:42:06.000Z</time>
      </trkpt>
      <trkpt lat="48.06367" lon="6.54251">
        <ele>553</ele>
        <time>2018-04-28T07:42:07.000Z</time>
      </trkpt>
      <trkpt lat="48.06368" lon="6.54253">
        <ele>553</ele>
        <time>2018-04-28T07:42:08.000Z</time>
      </trkpt>
      <trkpt lat="48.06369" lon="6.54254">
        <ele>553</ele>
        <time>2018-04-28T07:42:09.000Z</time>
      </trkpt>
      <trkpt lat="48.0637" lon="6.54256">
        <ele>553</ele>
        <time>2018-04-28T07:42:10.000Z</time>
      </trkpt>
      <trkpt lat="48.06372" lon="6.54257">
        <ele>553</ele>
        <time>2018-04-28T07:42:11.000Z</time>
      </trkpt>
      <trkpt lat="48.06373" lon="6.54259">
        <ele>553</ele>
        <time>2018-04-28T07:42:12.000Z</time>
      </trkpt>
      <trkpt lat="48.06375" lon="6.5426">
        <ele>553</ele>
        <time>2018-04-28T07:42:13.000Z</time>
      </trkpt>
      <trkpt lat="48.06376" lon="6.54262">
        <ele>553</ele>
        <time>2018-04-28T07:42:14.000Z</time>
      </trkpt>
      <trkpt lat="48.06378" lon="6.54263">
        <ele>553</ele>
        <time>2018-04-28T07:42:15.000Z</time>
      </trkpt>
      <trkpt lat="48.0638" lon="6.54265">
        <ele>553</ele>
        <time>2018-04-28T07:42:16.000Z</time>
      </trkpt>
      <trkpt lat="48.06382" lon="6.54266">
        <ele>553</ele>
        <time>2018-04-28T07:42:17.000Z</time>
      </trkpt>
      <trkpt lat="48.06383" lon="6.54268">
        <ele>553</ele>
        <time>2018-04-28T07:42:18.000Z</time>
      </trkpt>
      <trkpt lat="48.06385" lon="6.54269">
        <ele>553</ele>
        <time>2018-04-28T07:42:19.000Z</time>
      </trkpt>
      <trkpt lat="48.06386" lon="6.54269">
        <ele>553</ele>
        <time>2018-04-28T07:42:20.000Z</time>
      </trkpt>
      <trkpt lat="48.06387" lon="6.5427">
        <ele>553</ele>
        <time>2018-04-28T07:42:21.000Z</time>
      </trkpt>
      <trkpt lat="48.06389" lon="6.5427">
        <ele>553</ele>
        <time>2018-04-28T07:42:22.000Z</time>
      </trkpt>
      <trkpt lat="48.0639" lon="6.54271">
        <ele>553</ele>
        <time>2018-04-28T07:42:23.000Z</time>
      </trkpt>
      <trkpt lat="48.06391" lon="6.54271">
        <ele>553</ele>
        <time>2018-04-28T07:42:24.000Z</time>
      </trkpt>
      <trkpt lat="48.06393" lon="6.54272">
        <ele>553</ele>
        <time>2018-04-28T07:42:25.000Z</time>
      </trkpt>
      <trkpt lat="48.06395" lon="6.54273">
        <ele>553</ele>
        <time>2018-04-28T07:42:26.000Z</time>
      </trkpt>
      <trkpt lat="48.06396" lon="6.54273">
        <ele>553</ele>
        <time>2018-04-28T07:42:27.000Z</time>
      </trkpt>
      <trkpt lat="48.06398" lon="6.54273">
        <ele>553</ele>
        <time>2018-04-28T07:42:28.000Z</time>
      </trkpt>
      <trkpt lat="48.06399" lon="6.54273">
        <ele>553</ele>
        <time>2018-04-28T07:42:29.000Z</time>
      </trkpt>
      <trkpt lat="48.064" lon="6.54273">
        <ele>553</ele>
        <time>2018-04-28T07:42:30.000Z</time>
      </trkpt>
      <trkpt lat="48.06401" lon="6.54273">
        <ele>553</ele>
        <time>2018-04-28T07:42:31.000Z</time>
      </trkpt>
      <trkpt lat="48.06402" lon="6.54274">
        <ele>553</ele>
        <time>2018-04-28T07:42:32.000Z</time>
      </trkpt>
      <trkpt lat="48.06403" lon="6.54274">
        <ele>553</ele>
        <time>2018-04-28T07:42:33.000Z</time>
      </trkpt>
      <trkpt lat="48.06404" lon="6.54274">
        <ele>553</ele>
        <time>2018-04-28T07:42:34.000Z</time>
      </trkpt>
      <trkpt lat="48.06406" lon="6.54274">
        <ele>553</ele>
        <time>2018-04-28T07:42:35.000Z</time>
      </trkpt>
      <trkpt lat="48.06407" lon="6.54274">
        <ele>553</ele>
        <time>2018-04-28T07:42:36.000Z</time>
      </trkpt>
      <trkpt lat="48.06408" lon="6.54274">
        <ele>553</ele>
        <time>2018-04-28T07:42:37.000Z</time>
      </trkpt>
      <trkpt lat="48.06409" lon="6.54274">
        <ele>553</ele>
        <time>2018-04-28T07:42:38.000Z</time>
      </trkpt>
      <trkpt lat="48.06411" lon="6.54274">
        <ele>553</ele>
        <time>2018-04-28T07:42:39.000Z</time>
      </trkpt>
      <trkpt lat="48.06412" lon="6.54274">
        <ele>553</ele>
        <time>2018-04-28T07:42:40.000Z</time>
      </trkpt>
      <trkpt lat="48.06413" lon="6.54273">
        <ele>553</ele>
        <time>2018-04-28T07:42:41.000Z</time>
      </trkpt>
      <trkpt lat="48.06414" lon="6.54273">
        <ele>553</ele>
        <time>2018-04-28T07:42:42.000Z</time>
      </trkpt>
      <trkpt lat="48.06415" lon="6.54273">
        <ele>553</ele>
        <time>2018-04-28T07:42:43.000Z</time>
      </trkpt>
      <trkpt lat="48.06417" lon="6.54272">
        <ele>551</ele>
        <time>2018-04-28T07:42:44.000Z</time>
      </trkpt>
      <trkpt lat="48.06418" lon="6.54272">
        <ele>551</ele>
        <time>2018-04-28T07:42:45.000Z</time>
      </trkpt>
      <trkpt lat="48.0642" lon="6.54272">
        <ele>551</ele>
        <time>2018-04-28T07:42:46.000Z</time>
      </trkpt>
      <trkpt lat="48.06421" lon="6.54272">
        <ele>551</ele>
        <time>2018-04-28T07:42:47.000Z</time>
      </trkpt>
      <trkpt lat="48.06423" lon="6.54272">
        <ele>551</ele>
        <time>2018-04-28T07:42:48.000Z</time>
      </trkpt>
      <trkpt lat="48.06424" lon="6.54272">
        <ele>551</ele>
        <time>2018-04-28T07:42:49.000Z</time>
      </trkpt>
      <trkpt lat="48.06425" lon="6.54271">
        <ele>551</ele>
        <time>2018-04-28T07:42:50.000Z</time>
      </trkpt>
      <trkpt lat="48.06426" lon="6.54271">
        <ele>551</ele>
        <time>2018-04-28T07:42:51.000Z</time>
      </trkpt>
      <trkpt lat="48.06427" lon="6.54271">
        <ele>551</ele>
        <time>2018-04-28T07:42:52.000Z</time>
      </trkpt>
      <trkpt lat="48.06428" lon="6.54271">
        <ele>551</ele>
        <time>2018-04-28T07:42:53.000Z</time>
      </trkpt>
      <trkpt lat="48.06429" lon="6.54271">
        <ele>551</ele>
        <time>2018-04-28T07:42:54.000Z</time>
      </trkpt>
      <trkpt lat="48.0643" lon="6.5427">
        <ele>551</ele>
        <time>2018-04-28T07:42:55.000Z</time>
      </trkpt>
      <trkpt lat="48.06431" lon="6.5427">
        <ele>551</ele>
        <time>2018-04-28T07:42:56.000Z</time>
      </trkpt>
      <trkpt lat="48.06432" lon="6.54269">
        <ele>551</ele>
        <time>2018-04-28T07:42:57.000Z</time>
      </trkpt>
      <trkpt lat="48.06433" lon="6.54269">
        <ele>551</ele>
        <time>2018-04-28T07:42:58.000Z</time>
      </trkpt>
      <trkpt lat="48.06435" lon="6.54269">
        <ele>551</ele>
        <time>2018-04-28T07:42:59.000Z</time>
      </trkpt>
      <trkpt lat="48.06436" lon="6.54269">
        <ele>551</ele>
        <time>2018-04-28T07:43:00.000Z</time>
      </trkpt>
      <trkpt lat="48.06437" lon="6.54269">
        <ele>551</ele>
        <time>2018-04-28T07:43:01.000Z</time>
      </trkpt>
      <trkpt lat="48.06439" lon="6.54268">
        <ele>551</ele>
        <time>2018-04-28T07:43:02.000Z</time>
      </trkpt>
      <trkpt lat="48.0644" lon="6.54268">
        <ele>551</ele>
        <time>2018-04-28T07:43:03.000Z</time>
      </trkpt>
      <trkpt lat="48.06442" lon="6.54268">
        <ele>551</ele>
        <time>2018-04-28T07:43:04.000Z</time>
      </trkpt>
      <trkpt lat="48.06443" lon="6.54267">
        <ele>551</ele>
        <time>2018-04-28T07:43:05.000Z</time>
      </trkpt>
      <trkpt lat="48.06445" lon="6.54267">
        <ele>551</ele>
        <time>2018-04-28T07:43:06.000Z</time>
      </trkpt>
      <trkpt lat="48.06446" lon="6.54267">
        <ele>551</ele>
        <time>2018-04-28T07:43:07.000Z</time>
      </trkpt>
      <trkpt lat="48.06448" lon="6.54266">
        <ele>550</ele>
        <time>2018-04-28T07:43:08.000Z</time>
      </trkpt>
      <trkpt lat="48.0645" lon="6.54266">
        <ele>550</ele>
        <time>2018-04-28T07:43:09.000Z</time>
      </trkpt>
      <trkpt lat="48.06451" lon="6.54265">
        <ele>550</ele>
        <time>2018-04-28T07:43:10.000Z</time>
      </trkpt>
      <trkpt lat="48.06453" lon="6.54265">
        <ele>550</ele>
        <time>2018-04-28T07:43:11.000Z</time>
      </trkpt>
      <trkpt lat="48.06454" lon="6.54265">
        <ele>550</ele>
        <time>2018-04-28T07:43:12.000Z</time>
      </trkpt>
      <trkpt lat="48.06455" lon="6.54265">
        <ele>550</ele>
        <time>2018-04-28T07:43:13.000Z</time>
      </trkpt>
      <trkpt lat="48.06456" lon="6.54265">
        <ele>550</ele>
        <time>2018-04-28T07:43:14.000Z</time>
      </trkpt>
      <trkpt lat="48.06458" lon="6.54265">
        <ele>550</ele>
        <time>2018-04-28T07:43:15.000Z</time>
      </trkpt>
      <trkpt lat="48.0646" lon="6.54264">
        <ele>550</ele>
        <time>2018-04-28T07:43:16.000Z</time>
      </trkpt>
      <trkpt lat="48.06461" lon="6.54264">
        <ele>550</ele>
        <time>2018-04-28T07:43:17.000Z</time>
      </trkpt>
      <trkpt lat="48.06463" lon="6.54264">
        <ele>550</ele>
        <time>2018-04-28T07:43:18.000Z</time>
      </trkpt>
      <trkpt lat="48.06464" lon="6.54263">
        <ele>550</ele>
        <time>2018-04-28T07:43:19.000Z</time>
      </trkpt>
      <trkpt lat="48.06466" lon="6.54263">
        <ele>550</ele>
        <time>2018-04-28T07:43:20.000Z</time>
      </trkpt>
      <trkpt lat="48.06467" lon="6.54263">
        <ele>550</ele>
        <time>2018-04-28T07:43:21.000Z</time>
      </trkpt>
      <trkpt lat="48.06469" lon="6.54262">
        <ele>550</ele>
        <time>2018-04-28T07:43:22.000Z</time>
      </trkpt>
      <trkpt lat="48.0647" lon="6.54262">
        <ele>549</ele>
        <time>2018-04-28T07:43:23.000Z</time>
      </trkpt>
      <trkpt lat="48.06471" lon="6.54261">
        <ele>549</ele>
        <time>2018-04-28T07:43:24.000Z</time>
      </trkpt>
      <trkpt lat="48.06473" lon="6.54261">
        <ele>549</ele>
        <time>2018-04-28T07:43:25.000Z</time>
      </trkpt>
      <trkpt lat="48.06474" lon="6.54261">
        <ele>549</ele>
        <time>2018-04-28T07:43:26.000Z</time>
      </trkpt>
      <trkpt lat="48.06475" lon="6.54261">
        <ele>549</ele>
        <time>2018-04-28T07:43:27.000Z</time>
      </trkpt>
      <trkpt lat="48.06477" lon="6.54261">
        <ele>549</ele>
        <time>2018-04-28T07:43:28.000Z</time>
      </trkpt>
      <trkpt lat="48.06478" lon="6.54261">
        <ele>549</ele>
        <time>2018-04-28T07:43:29.000Z</time>
      </trkpt>
      <trkpt lat="48.0648" lon="6.54261">
        <ele>549</ele>
        <time>2018-04-28T07:43:30.000Z</time>
      </trkpt>
      <trkpt lat="48.06481" lon="6.54261">
        <ele>549</ele>
        <time>2018-04-28T07:43:31.000Z</time>
      </trkpt>
      <trkpt lat="48.06483" lon="6.54261">
        <ele>549</ele>
        <time>2018-04-28T07:43:32.000Z</time>
      </trkpt>
      <trkpt lat="48.06485" lon="6.54262">
        <ele>549</ele>
        <time>2018-04-28T07:43:33.000Z</time>
      </trkpt>
      <trkpt lat="48.06486" lon="6.54262">
        <ele>549</ele>
        <time>2018-04-28T07:43:34.000Z</time>
      </trkpt>
      <trkpt lat="48.06487" lon="6.54262">
        <ele>549</ele>
        <time>2018-04-28T07:43:35.000Z</time>
      </trkpt>
      <trkpt lat="48.06489" lon="6.54263">
        <ele>549</ele>
        <time>2018-04-28T07:43:36.000Z</time>
      </trkpt>
      <trkpt lat="48.0649" lon="6.54264">
        <ele>549</ele>
        <time>2018-04-28T07:43:37.000Z</time>
      </trkpt>
      <trkpt lat="48.06491" lon="6.54264">
        <ele>548</ele>
        <time>2018-04-28T07:43:38.000Z</time>
      </trkpt>
      <trkpt lat="48.06492" lon="6.54265">
        <ele>548</ele>
        <time>2018-04-28T07:43:39.000Z</time>
      </trkpt>
      <trkpt lat="48.06494" lon="6.54266">
        <ele>548</ele>
        <time>2018-04-28T07:43:40.000Z</time>
      </trkpt>
      <trkpt lat="48.06496" lon="6.54267">
        <ele>548</ele>
        <time>2018-04-28T07:43:41.000Z</time>
      </trkpt>
      <trkpt lat="48.06497" lon="6.54268">
        <ele>548</ele>
        <time>2018-04-28T07:43:42.000Z</time>
      </trkpt>
      <trkpt lat="48.06499" lon="6.54269">
        <ele>549</ele>
        <time>2018-04-28T07:43:43.000Z</time>
      </trkpt>
      <trkpt lat="48.06501" lon="6.5427">
        <ele>546</ele>
        <time>2018-04-28T07:43:44.000Z</time>
      </trkpt>
      <trkpt lat="48.06503" lon="6.54271">
        <ele>545</ele>
        <time>2018-04-28T07:43:45.000Z</time>
      </trkpt>
      <trkpt lat="48.06505" lon="6.54273">
        <ele>545</ele>
        <time>2018-04-28T07:43:46.000Z</time>
      </trkpt>
      <trkpt lat="48.06508" lon="6.54274">
        <ele>545</ele>
        <time>2018-04-28T07:43:47.000Z</time>
      </trkpt>
      <trkpt lat="48.0651" lon="6.54276">
        <ele>545</ele>
        <time>2018-04-28T07:43:48.000Z</time>
      </trkpt>
      <trkpt lat="48.06512" lon="6.54277">
        <ele>545</ele>
        <time>2018-04-28T07:43:49.000Z</time>
      </trkpt>
      <trkpt lat="48.06514" lon="6.54279">
        <ele>545</ele>
        <time>2018-04-28T07:43:50.000Z</time>
      </trkpt>
      <trkpt lat="48.06516" lon="6.5428">
        <ele>545</ele>
        <time>2018-04-28T07:43:51.000Z</time>
      </trkpt>
      <trkpt lat="48.06518" lon="6.54282">
        <ele>545</ele>
        <time>2018-04-28T07:43:52.000Z</time>
      </trkpt>
      <trkpt lat="48.0652" lon="6.54284">
        <ele>545</ele>
        <time>2018-04-28T07:43:53.000Z</time>
      </trkpt>
      <trkpt lat="48.06522" lon="6.54286">
        <ele>545</ele>
        <time>2018-04-28T07:43:54.000Z</time>
      </trkpt>
      <trkpt lat="48.06524" lon="6.54287">
        <ele>545</ele>
        <time>2018-04-28T07:43:55.000Z</time>
      </trkpt>
      <trkpt lat="48.06525" lon="6.54289">
        <ele>545</ele>
        <time>2018-04-28T07:43:56.000Z</time>
      </trkpt>
      <trkpt lat="48.06527" lon="6.54291">
        <ele>545</ele>
        <time>2018-04-28T07:43:57.000Z</time>
      </trkpt>
      <trkpt lat="48.06529" lon="6.54292">
        <ele>544</ele>
        <time>2018-04-28T07:43:58.000Z</time>
      </trkpt>
      <trkpt lat="48.06531" lon="6.54294">
        <ele>544</ele>
        <time>2018-04-28T07:43:59.000Z</time>
      </trkpt>
      <trkpt lat="48.06534" lon="6.54295">
        <ele>544</ele>
        <time>2018-04-28T07:44:00.000Z</time>
      </trkpt>
      <trkpt lat="48.06536" lon="6.54296">
        <ele>544</ele>
        <time>2018-04-28T07:44:01.000Z</time>
      </trkpt>
      <trkpt lat="48.06538" lon="6.54298">
        <ele>544</ele>
        <time>2018-04-28T07:44:02.000Z</time>
      </trkpt>
      <trkpt lat="48.0654" lon="6.543">
        <ele>544</ele>
        <time>2018-04-28T07:44:03.000Z</time>
      </trkpt>
      <trkpt lat="48.06543" lon="6.54301">
        <ele>544</ele>
        <time>2018-04-28T07:44:04.000Z</time>
      </trkpt>
      <trkpt lat="48.06545" lon="6.54302">
        <ele>544</ele>
        <time>2018-04-28T07:44:05.000Z</time>
      </trkpt>
      <trkpt lat="48.06547" lon="6.54303">
        <ele>544</ele>
        <time>2018-04-28T07:44:06.000Z</time>
      </trkpt>
      <trkpt lat="48.06548" lon="6.54304">
        <ele>544</ele>
        <time>2018-04-28T07:44:07.000Z</time>
      </trkpt>
      <trkpt lat="48.0655" lon="6.54304">
        <ele>544</ele>
        <time>2018-04-28T07:44:08.000Z</time>
      </trkpt>
      <trkpt lat="48.06552" lon="6.54305">
        <ele>543</ele>
        <time>2018-04-28T07:44:09.000Z</time>
      </trkpt>
      <trkpt lat="48.06554" lon="6.54305">
        <ele>543</ele>
        <time>2018-04-28T07:44:10.000Z</time>
      </trkpt>
      <trkpt lat="48.06555" lon="6.54306">
        <ele>543</ele>
        <time>2018-04-28T07:44:11.000Z</time>
      </trkpt>
      <trkpt lat="48.06556" lon="6.54306">
        <ele>543</ele>
        <time>2018-04-28T07:44:12.000Z</time>
      </trkpt>
      <trkpt lat="48.06558" lon="6.54306">
        <ele>543</ele>
        <time>2018-04-28T07:44:13.000Z</time>
      </trkpt>
      <trkpt lat="48.06559" lon="6.54306">
        <ele>543</ele>
        <time>2018-04-28T07:44:14.000Z</time>
      </trkpt>
      <trkpt lat="48.0656" lon="6.54306">
        <ele>543</ele>
        <time>2018-04-28T07:44:15.000Z</time>
      </trkpt>
      <trkpt lat="48.06561" lon="6.54306">
        <ele>543</ele>
        <time>2018-04-28T07:44:16.000Z</time>
      </trkpt>
      <trkpt lat="48.06563" lon="6.54306">
        <ele>543</ele>
        <time>2018-04-28T07:44:17.000Z</time>
      </trkpt>
      <trkpt lat="48.06564" lon="6.54306">
        <ele>543</ele>
        <time>2018-04-28T07:44:18.000Z</time>
      </trkpt>
      <trkpt lat="48.06565" lon="6.54306">
        <ele>543</ele>
        <time>2018-04-28T07:44:19.000Z</time>
      </trkpt>
      <trkpt lat="48.06566" lon="6.54306">
        <ele>543</ele>
        <time>2018-04-28T07:44:20.000Z</time>
      </trkpt>
      <trkpt lat="48.06567" lon="6.54306">
        <ele>543</ele>
        <time>2018-04-28T07:44:21.000Z</time>
      </trkpt>
      <trkpt lat="48.06568" lon="6.54305">
        <ele>543</ele>
        <time>2018-04-28T07:44:22.000Z</time>
      </trkpt>
      <trkpt lat="48.06569" lon="6.54305">
        <ele>543</ele>
        <time>2018-04-28T07:44:23.000Z</time>
      </trkpt>
      <trkpt lat="48.0657" lon="6.54304">
        <ele>543</ele>
        <time>2018-04-28T07:44:24.000Z</time>
      </trkpt>
      <trkpt lat="48.06571" lon="6.54304">
        <ele>543</ele>
        <time>2018-04-28T07:44:25.000Z</time>
      </trkpt>
      <trkpt lat="48.06572" lon="6.54304">
        <ele>543</ele>
        <time>2018-04-28T07:44:26.000Z</time>
      </trkpt>
      <trkpt lat="48.06573" lon="6.54304">
        <ele>543</ele>
        <time>2018-04-28T07:44:27.000Z</time>
      </trkpt>
      <trkpt lat="48.06574" lon="6.54304">
        <ele>543</ele>
        <time>2018-04-28T07:44:28.000Z</time>
      </trkpt>
      <trkpt lat="48.06574" lon="6.54304">
        <ele>543</ele>
        <time>2018-04-28T07:44:29.000Z</time>
      </trkpt>
      <trkpt lat="48.06576" lon="6.54304">
        <ele>543</ele>
        <time>2018-04-28T07:44:30.000Z</time>
      </trkpt>
      <trkpt lat="48.06577" lon="6.54304">
        <ele>543</ele>
        <time>2018-04-28T07:44:31.000Z</time>
      </trkpt>
      <trkpt lat="48.06578" lon="6.54304">
        <ele>543</ele>
        <time>2018-04-28T07:44:32.000Z</time>
      </trkpt>
      <trkpt lat="48.06579" lon="6.54303">
        <ele>543</ele>
        <time>2018-04-28T07:44:33.000Z</time>
      </trkpt>
      <trkpt lat="48.0658" lon="6.54302">
        <ele>543</ele>
        <time>2018-04-28T07:44:34.000Z</time>
      </trkpt>
      <trkpt lat="48.06581" lon="6.54302">
        <ele>543</ele>
        <time>2018-04-28T07:44:35.000Z</time>
      </trkpt>
      <trkpt lat="48.06582" lon="6.54301">
        <ele>543</ele>
        <time>2018-04-28T07:44:36.000Z</time>
      </trkpt>
      <trkpt lat="48.06584" lon="6.543">
        <ele>539</ele>
        <time>2018-04-28T07:44:37.000Z</time>
      </trkpt>
      <trkpt lat="48.06585" lon="6.54299">
        <ele>539</ele>
        <time>2018-04-28T07:44:38.000Z</time>
      </trkpt>
      <trkpt lat="48.06587" lon="6.54299">
        <ele>539</ele>
        <time>2018-04-28T07:44:39.000Z</time>
      </trkpt>
      <trkpt lat="48.06588" lon="6.54299">
        <ele>539</ele>
        <time>2018-04-28T07:44:40.000Z</time>
      </trkpt>
      <trkpt lat="48.0659" lon="6.54298">
        <ele>539</ele>
        <time>2018-04-28T07:44:41.000Z</time>
      </trkpt>
      <trkpt lat="48.06591" lon="6.54298">
        <ele>539</ele>
        <time>2018-04-28T07:44:42.000Z</time>
      </trkpt>
      <trkpt lat="48.06593" lon="6.54298">
        <ele>539</ele>
        <time>2018-04-28T07:44:43.000Z</time>
      </trkpt>
      <trkpt lat="48.06594" lon="6.54298">
        <ele>539</ele>
        <time>2018-04-28T07:44:44.000Z</time>
      </trkpt>
      <trkpt lat="48.06596" lon="6.54298">
        <ele>539</ele>
        <time>2018-04-28T07:44:45.000Z</time>
      </trkpt>
      <trkpt lat="48.06598" lon="6.54298">
        <ele>539</ele>
        <time>2018-04-28T07:44:46.000Z</time>
      </trkpt>
      <trkpt lat="48.06599" lon="6.54298">
        <ele>539</ele>
        <time>2018-04-28T07:44:47.000Z</time>
      </trkpt>
      <trkpt lat="48.06601" lon="6.54298">
        <ele>539</ele>
        <time>2018-04-28T07:44:48.000Z</time>
      </trkpt>
      <trkpt lat="48.06603" lon="6.54297">
        <ele>539</ele>
        <time>2018-04-28T07:44:49.000Z</time>
      </trkpt>
      <trkpt lat="48.06605" lon="6.54297">
        <ele>538</ele>
        <time>2018-04-28T07:44:50.000Z</time>
      </trkpt>
      <trkpt lat="48.06606" lon="6.54297">
        <ele>538</ele>
        <time>2018-04-28T07:44:51.000Z</time>
      </trkpt>
      <trkpt lat="48.06608" lon="6.54296">
        <ele>538</ele>
        <time>2018-04-28T07:44:52.000Z</time>
      </trkpt>
      <trkpt lat="48.06609" lon="6.54296">
        <ele>538</ele>
        <time>2018-04-28T07:44:53.000Z</time>
      </trkpt>
      <trkpt lat="48.06611" lon="6.54296">
        <ele>538</ele>
        <time>2018-04-28T07:44:54.000Z</time>
      </trkpt>
      <trkpt lat="48.06613" lon="6.54296">
        <ele>538</ele>
        <time>2018-04-28T07:44:55.000Z</time>
      </trkpt>
      <trkpt lat="48.06614" lon="6.54296">
        <ele>538</ele>
        <time>2018-04-28T07:44:56.000Z</time>
      </trkpt>
      <trkpt lat="48.06616" lon="6.54296">
        <ele>538</ele>
        <time>2018-04-28T07:44:57.000Z</time>
      </trkpt>
      <trkpt lat="48.06618" lon="6.54296">
        <ele>538</ele>
        <time>2018-04-28T07:44:58.000Z</time>
      </trkpt>
      <trkpt lat="48.06619" lon="6.54296">
        <ele>538</ele>
        <time>2018-04-28T07:44:59.000Z</time>
      </trkpt>
      <trkpt lat="48.06621" lon="6.54296">
        <ele>538</ele>
        <time>2018-04-28T07:45:00.000Z</time>
      </trkpt>
      <trkpt lat="48.06623" lon="6.54296">
        <ele>538</ele>
        <time>2018-04-28T07:45:01.000Z</time>
      </trkpt>
      <trkpt lat="48.06624" lon="6.54297">
        <ele>538</ele>
        <time>2018-04-28T07:45:02.000Z</time>
      </trkpt>
      <trkpt lat="48.06625" lon="6.54296">
        <ele>538</ele>
        <time>2018-04-28T07:45:03.000Z</time>
      </trkpt>
      <trkpt lat="48.06627" lon="6.54297">
        <ele>538</ele>
        <time>2018-04-28T07:45:04.000Z</time>
      </trkpt>
      <trkpt lat="48.06628" lon="6.54297">
        <ele>538</ele>
        <time>2018-04-28T07:45:05.000Z</time>
      </trkpt>
      <trkpt lat="48.06629" lon="6.54297">
        <ele>538</ele>
        <time>2018-04-28T07:45:06.000Z</time>
      </trkpt>
      <trkpt lat="48.0663" lon="6.54298">
        <ele>538</ele>
        <time>2018-04-28T07:45:07.000Z</time>
      </trkpt>
      <trkpt lat="48.06631" lon="6.54298">
        <ele>538</ele>
        <time>2018-04-28T07:45:08.000Z</time>
      </trkpt>
      <trkpt lat="48.06633" lon="6.54299">
        <ele>538</ele>
        <time>2018-04-28T07:45:09.000Z</time>
      </trkpt>
      <trkpt lat="48.06633" lon="6.54299">
        <ele>538</ele>
        <time>2018-04-28T07:45:10.000Z</time>
      </trkpt>
      <trkpt lat="48.06634" lon="6.54299">
        <ele>538</ele>
        <time>2018-04-28T07:45:11.000Z</time>
      </trkpt>
      <trkpt lat="48.06635" lon="6.54299">
        <ele>537</ele>
        <time>2018-04-28T07:45:12.000Z</time>
      </trkpt>
      <trkpt lat="48.06635" lon="6.54299">
        <ele>537</ele>
        <time>2018-04-28T07:45:13.000Z</time>
      </trkpt>
      <trkpt lat="48.06636" lon="6.54299">
        <ele>537</ele>
        <time>2018-04-28T07:45:14.000Z</time>
      </trkpt>
      <trkpt lat="48.06636" lon="6.54299">
        <ele>537</ele>
        <time>2018-04-28T07:45:15.000Z</time>
      </trkpt>
      <trkpt lat="48.0664" lon="6.543">
        <ele>537</ele>
        <time>2018-04-28T07:45:16.000Z</time>
      </trkpt>
      <trkpt lat="48.0664" lon="6.54301">
        <ele>537</ele>
        <time>2018-04-28T07:45:17.000Z</time>
      </trkpt>
      <trkpt lat="48.06641" lon="6.54301">
        <ele>537</ele>
        <time>2018-04-28T07:45:18.000Z</time>
      </trkpt>
      <trkpt lat="48.06642" lon="6.54302">
        <ele>537</ele>
        <time>2018-04-28T07:45:19.000Z</time>
      </trkpt>
      <trkpt lat="48.06643" lon="6.54303">
        <ele>537</ele>
        <time>2018-04-28T07:45:20.000Z</time>
      </trkpt>
      <trkpt lat="48.06644" lon="6.54303">
        <ele>537</ele>
        <time>2018-04-28T07:45:21.000Z</time>
      </trkpt>
      <trkpt lat="48.06645" lon="6.54304">
        <ele>537</ele>
        <time>2018-04-28T07:45:22.000Z</time>
      </trkpt>
      <trkpt lat="48.06646" lon="6.54304">
        <ele>537</ele>
        <time>2018-04-28T07:45:23.000Z</time>
      </trkpt>
      <trkpt lat="48.06647" lon="6.54305">
        <ele>537</ele>
        <time>2018-04-28T07:45:24.000Z</time>
      </trkpt>
      <trkpt lat="48.06648" lon="6.54305">
        <ele>537</ele>
        <time>2018-04-28T07:45:25.000Z</time>
      </trkpt>
      <trkpt lat="48.06649" lon="6.54305">
        <ele>537</ele>
        <time>2018-04-28T07:45:26.000Z</time>
      </trkpt>
      <trkpt lat="48.06649" lon="6.54306">
        <ele>537</ele>
        <time>2018-04-28T07:45:27.000Z</time>
      </trkpt>
      <trkpt lat="48.0665" lon="6.54306">
        <ele>537</ele>
        <time>2018-04-28T07:45:28.000Z</time>
      </trkpt>
      <trkpt lat="48.06651" lon="6.54307">
        <ele>537</ele>
        <time>2018-04-28T07:45:29.000Z</time>
      </trkpt>
      <trkpt lat="48.06652" lon="6.54307">
        <ele>537</ele>
        <time>2018-04-28T07:45:30.000Z</time>
      </trkpt>
      <trkpt lat="48.06653" lon="6.54307">
        <ele>537</ele>
        <time>2018-04-28T07:45:31.000Z</time>
      </trkpt>
      <trkpt lat="48.06654" lon="6.54308">
        <ele>537</ele>
        <time>2018-04-28T07:45:32.000Z</time>
      </trkpt>
      <trkpt lat="48.06655" lon="6.54309">
        <ele>537</ele>
        <time>2018-04-28T07:45:33.000Z</time>
      </trkpt>
      <trkpt lat="48.06656" lon="6.5431">
        <ele>537</ele>
        <time>2018-04-28T07:45:34.000Z</time>
      </trkpt>
      <trkpt lat="48.06657" lon="6.5431">
        <ele>537</ele>
        <time>2018-04-28T07:45:35.000Z</time>
      </trkpt>
      <trkpt lat="48.06658" lon="6.54311">
        <ele>537</ele>
        <time>2018-04-28T07:45:36.000Z</time>
      </trkpt>
      <trkpt lat="48.06659" lon="6.54312">
        <ele>537</ele>
        <time>2018-04-28T07:45:37.000Z</time>
      </trkpt>
      <trkpt lat="48.0666" lon="6.54313">
        <ele>537</ele>
        <time>2018-04-28T07:45:38.000Z</time>
      </trkpt>
      <trkpt lat="48.06662" lon="6.54313">
        <ele>537</ele>
        <time>2018-04-28T07:45:39.000Z</time>
      </trkpt>
      <trkpt lat="48.06663" lon="6.54314">
        <ele>537</ele>
        <time>2018-04-28T07:45:40.000Z</time>
      </trkpt>
      <trkpt lat="48.06664" lon="6.54315">
        <ele>537</ele>
        <time>2018-04-28T07:45:41.000Z</time>
      </trkpt>
      <trkpt lat="48.06666" lon="6.54316">
        <ele>537</ele>
        <time>2018-04-28T07:45:42.000Z</time>
      </trkpt>
      <trkpt lat="48.06667" lon="6.54316">
        <ele>535</ele>
        <time>2018-04-28T07:45:43.000Z</time>
      </trkpt>
      <trkpt lat="48.06669" lon="6.54317">
        <ele>535</ele>
        <time>2018-04-28T07:45:44.000Z</time>
      </trkpt>
      <trkpt lat="48.0667" lon="6.54318">
        <ele>535</ele>
        <time>2018-04-28T07:45:45.000Z</time>
      </trkpt>
      <trkpt lat="48.06671" lon="6.5432">
        <ele>536</ele>
        <time>2018-04-28T07:45:46.000Z</time>
      </trkpt>
      <trkpt lat="48.06673" lon="6.54321">
        <ele>536</ele>
        <time>2018-04-28T07:45:47.000Z</time>
      </trkpt>
      <trkpt lat="48.06674" lon="6.54322">
        <ele>536</ele>
        <time>2018-04-28T07:45:48.000Z</time>
      </trkpt>
      <trkpt lat="48.06675" lon="6.54323">
        <ele>536</ele>
        <time>2018-04-28T07:45:49.000Z</time>
      </trkpt>
      <trkpt lat="48.06677" lon="6.54324">
        <ele>536</ele>
        <time>2018-04-28T07:45:50.000Z</time>
      </trkpt>
      <trkpt lat="48.06678" lon="6.54325">
        <ele>536</ele>
        <time>2018-04-28T07:45:51.000Z</time>
      </trkpt>
      <trkpt lat="48.0668" lon="6.54326">
        <ele>536</ele>
        <time>2018-04-28T07:45:52.000Z</time>
      </trkpt>
      <trkpt lat="48.06681" lon="6.54326">
        <ele>535</ele>
        <time>2018-04-28T07:45:53.000Z</time>
      </trkpt>
      <trkpt lat="48.06682" lon="6.54327">
        <ele>535</ele>
        <time>2018-04-28T07:45:54.000Z</time>
      </trkpt>
      <trkpt lat="48.06683" lon="6.54328">
        <ele>535</ele>
        <time>2018-04-28T07:45:55.000Z</time>
      </trkpt>
      <trkpt lat="48.06685" lon="6.54329">
        <ele>535</ele>
        <time>2018-04-28T07:45:56.000Z</time>
      </trkpt>
      <trkpt lat="48.06686" lon="6.5433">
        <ele>535</ele>
        <time>2018-04-28T07:45:57.000Z</time>
      </trkpt>
      <trkpt lat="48.06687" lon="6.54331">
        <ele>535</ele>
        <time>2018-04-28T07:45:58.000Z</time>
      </trkpt>
      <trkpt lat="48.06689" lon="6.54332">
        <ele>535</ele>
        <time>2018-04-28T07:45:59.000Z</time>
      </trkpt>
      <trkpt lat="48.0669" lon="6.54333">
        <ele>535</ele>
        <time>2018-04-28T07:46:00.000Z</time>
      </trkpt>
      <trkpt lat="48.06691" lon="6.54334">
        <ele>539</ele>
        <time>2018-04-28T07:46:01.000Z</time>
      </trkpt>
      <trkpt lat="48.06692" lon="6.54335">
        <ele>539</ele>
        <time>2018-04-28T07:46:02.000Z</time>
      </trkpt>
      <trkpt lat="48.06694" lon="6.54336">
        <ele>539</ele>
        <time>2018-04-28T07:46:03.000Z</time>
      </trkpt>
      <trkpt lat="48.06695" lon="6.54337">
        <ele>539</ele>
        <time>2018-04-28T07:46:04.000Z</time>
      </trkpt>
      <trkpt lat="48.06697" lon="6.54338">
        <ele>539</ele>
        <time>2018-04-28T07:46:05.000Z</time>
      </trkpt>
      <trkpt lat="48.06698" lon="6.54339">
        <ele>539</ele>
        <time>2018-04-28T07:46:06.000Z</time>
      </trkpt>
      <trkpt lat="48.067" lon="6.5434">
        <ele>540</ele>
        <time>2018-04-28T07:46:07.000Z</time>
      </trkpt>
      <trkpt lat="48.06702" lon="6.54341">
        <ele>540</ele>
        <time>2018-04-28T07:46:08.000Z</time>
      </trkpt>
      <trkpt lat="48.06704" lon="6.54342">
        <ele>540</ele>
        <time>2018-04-28T07:46:09.000Z</time>
      </trkpt>
      <trkpt lat="48.06706" lon="6.54343">
        <ele>540</ele>
        <time>2018-04-28T07:46:10.000Z</time>
      </trkpt>
      <trkpt lat="48.06707" lon="6.54343">
        <ele>540</ele>
        <time>2018-04-28T07:46:11.000Z</time>
      </trkpt>
      <trkpt lat="48.06709" lon="6.54345">
        <ele>540</ele>
        <time>2018-04-28T07:46:12.000Z</time>
      </trkpt>
      <trkpt lat="48.06711" lon="6.54346">
        <ele>540</ele>
        <time>2018-04-28T07:46:13.000Z</time>
      </trkpt>
      <trkpt lat="48.06712" lon="6.54347">
        <ele>540</ele>
        <time>2018-04-28T07:46:14.000Z</time>
      </trkpt>
      <trkpt lat="48.06713" lon="6.54348">
        <ele>540</ele>
        <time>2018-04-28T07:46:15.000Z</time>
      </trkpt>
      <trkpt lat="48.06715" lon="6.54348">
        <ele>540</ele>
        <time>2018-04-28T07:46:16.000Z</time>
      </trkpt>
      <trkpt lat="48.06716" lon="6.54349">
        <ele>540</ele>
        <time>2018-04-28T07:46:17.000Z</time>
      </trkpt>
      <trkpt lat="48.06718" lon="6.54349">
        <ele>540</ele>
        <time>2018-04-28T07:46:18.000Z</time>
      </trkpt>
      <trkpt lat="48.06719" lon="6.5435">
        <ele>540</ele>
        <time>2018-04-28T07:46:19.000Z</time>
      </trkpt>
      <trkpt lat="48.0672" lon="6.5435">
        <ele>540</ele>
        <time>2018-04-28T07:46:20.000Z</time>
      </trkpt>
      <trkpt lat="48.06721" lon="6.5435">
        <ele>540</ele>
        <time>2018-04-28T07:46:21.000Z</time>
      </trkpt>
      <trkpt lat="48.06722" lon="6.5435">
        <ele>540</ele>
        <time>2018-04-28T07:46:22.000Z</time>
      </trkpt>
      <trkpt lat="48.06724" lon="6.5435">
        <ele>540</ele>
        <time>2018-04-28T07:46:23.000Z</time>
      </trkpt>
      <trkpt lat="48.06725" lon="6.54351">
        <ele>540</ele>
        <time>2018-04-28T07:46:24.000Z</time>
      </trkpt>
      <trkpt lat="48.06726" lon="6.54351">
        <ele>540</ele>
        <time>2018-04-28T07:46:25.000Z</time>
      </trkpt>
      <trkpt lat="48.06727" lon="6.54351">
        <ele>540</ele>
        <time>2018-04-28T07:46:26.000Z</time>
      </trkpt>
      <trkpt lat="48.06729" lon="6.54351">
        <ele>540</ele>
        <time>2018-04-28T07:46:27.000Z</time>
      </trkpt>
      <trkpt lat="48.0673" lon="6.54351">
        <ele>540</ele>
        <time>2018-04-28T07:46:28.000Z</time>
      </trkpt>
      <trkpt lat="48.06731" lon="6.54351">
        <ele>540</ele>
        <time>2018-04-28T07:46:29.000Z</time>
      </trkpt>
      <trkpt lat="48.06732" lon="6.54351">
        <ele>540</ele>
        <time>2018-04-28T07:46:30.000Z</time>
      </trkpt>
      <trkpt lat="48.06733" lon="6.54352">
        <ele>539</ele>
        <time>2018-04-28T07:46:31.000Z</time>
      </trkpt>
      <trkpt lat="48.06735" lon="6.54351">
        <ele>539</ele>
        <time>2018-04-28T07:46:32.000Z</time>
      </trkpt>
      <trkpt lat="48.06736" lon="6.54351">
        <ele>539</ele>
        <time>2018-04-28T07:46:33.000Z</time>
      </trkpt>
      <trkpt lat="48.06738" lon="6.54351">
        <ele>539</ele>
        <time>2018-04-28T07:46:34.000Z</time>
      </trkpt>
      <trkpt lat="48.06739" lon="6.54352">
        <ele>539</ele>
        <time>2018-04-28T07:46:35.000Z</time>
      </trkpt>
      <trkpt lat="48.0674" lon="6.54351">
        <ele>539</ele>
        <time>2018-04-28T07:46:36.000Z</time>
      </trkpt>
      <trkpt lat="48.06742" lon="6.54351">
        <ele>539</ele>
        <time>2018-04-28T07:46:37.000Z</time>
      </trkpt>
      <trkpt lat="48.06743" lon="6.54351">
        <ele>539</ele>
        <time>2018-04-28T07:46:38.000Z</time>
      </trkpt>
      <trkpt lat="48.06744" lon="6.54351">
        <ele>539</ele>
        <time>2018-04-28T07:46:39.000Z</time>
      </trkpt>
      <trkpt lat="48.06745" lon="6.54351">
        <ele>539</ele>
        <time>2018-04-28T07:46:40.000Z</time>
      </trkpt>
      <trkpt lat="48.06746" lon="6.5435">
        <ele>539</ele>
        <time>2018-04-28T07:46:41.000Z</time>
      </trkpt>
      <trkpt lat="48.06748" lon="6.5435">
        <ele>539</ele>
        <time>2018-04-28T07:46:42.000Z</time>
      </trkpt>
      <trkpt lat="48.06749" lon="6.5435">
        <ele>539</ele>
        <time>2018-04-28T07:46:43.000Z</time>
      </trkpt>
      <trkpt lat="48.06751" lon="6.5435">
        <ele>539</ele>
        <time>2018-04-28T07:46:44.000Z</time>
      </trkpt>
      <trkpt lat="48.06753" lon="6.5435">
        <ele>539</ele>
        <time>2018-04-28T07:46:45.000Z</time>
      </trkpt>
      <trkpt lat="48.06754" lon="6.5435">
        <ele>539</ele>
        <time>2018-04-28T07:46:46.000Z</time>
      </trkpt>
      <trkpt lat="48.06756" lon="6.5435">
        <ele>539</ele>
        <time>2018-04-28T07:46:47.000Z</time>
      </trkpt>
      <trkpt lat="48.06757" lon="6.5435">
        <ele>539</ele>
        <time>2018-04-28T07:46:48.000Z</time>
      </trkpt>
      <trkpt lat="48.06758" lon="6.5435">
        <ele>539</ele>
        <time>2018-04-28T07:46:49.000Z</time>
      </trkpt>
      <trkpt lat="48.0676" lon="6.5435">
        <ele>539</ele>
        <time>2018-04-28T07:46:50.000Z</time>
      </trkpt>
      <trkpt lat="48.06761" lon="6.5435">
        <ele>539</ele>
        <time>2018-04-28T07:46:51.000Z</time>
      </trkpt>
      <trkpt lat="48.06762" lon="6.5435">
        <ele>539</ele>
        <time>2018-04-28T07:46:52.000Z</time>
      </trkpt>
      <trkpt lat="48.06764" lon="6.5435">
        <ele>539</ele>
        <time>2018-04-28T07:46:53.000Z</time>
      </trkpt>
      <trkpt lat="48.06765" lon="6.5435">
        <ele>539</ele>
        <time>2018-04-28T07:46:54.000Z</time>
      </trkpt>
      <trkpt lat="48.06766" lon="6.54351">
        <ele>539</ele>
        <time>2018-04-28T07:46:55.000Z</time>
      </trkpt>
      <trkpt lat="48.06768" lon="6.54351">
        <ele>539</ele>
        <time>2018-04-28T07:46:56.000Z</time>
      </trkpt>
      <trkpt lat="48.06769" lon="6.54352">
        <ele>539</ele>
        <time>2018-04-28T07:46:57.000Z</time>
      </trkpt>
      <trkpt lat="48.06771" lon="6.54352">
        <ele>539</ele>
        <time>2018-04-28T07:46:58.000Z</time>
      </trkpt>
      <trkpt lat="48.06772" lon="6.54353">
        <ele>539</ele>
        <time>2018-04-28T07:46:59.000Z</time>
      </trkpt>
      <trkpt lat="48.06774" lon="6.54353">
        <ele>539</ele>
        <time>2018-04-28T07:47:00.000Z</time>
      </trkpt>
      <trkpt lat="48.06775" lon="6.54353">
        <ele>539</ele>
        <time>2018-04-28T07:47:01.000Z</time>
      </trkpt>
      <trkpt lat="48.06776" lon="6.54354">
        <ele>540</ele>
        <time>2018-04-28T07:47:02.000Z</time>
      </trkpt>
      <trkpt lat="48.06778" lon="6.54354">
        <ele>540</ele>
        <time>2018-04-28T07:47:03.000Z</time>
      </trkpt>
      <trkpt lat="48.06779" lon="6.54355">
        <ele>540</ele>
        <time>2018-04-28T07:47:04.000Z</time>
      </trkpt>
      <trkpt lat="48.06781" lon="6.54356">
        <ele>540</ele>
        <time>2018-04-28T07:47:05.000Z</time>
      </trkpt>
      <trkpt lat="48.06783" lon="6.54357">
        <ele>540</ele>
        <time>2018-04-28T07:47:06.000Z</time>
      </trkpt>
      <trkpt lat="48.06784" lon="6.54358">
        <ele>540</ele>
        <time>2018-04-28T07:47:07.000Z</time>
      </trkpt>
      <trkpt lat="48.06786" lon="6.54358">
        <ele>540</ele>
        <time>2018-04-28T07:47:08.000Z</time>
      </trkpt>
      <trkpt lat="48.06788" lon="6.54359">
        <ele>540</ele>
        <time>2018-04-28T07:47:09.000Z</time>
      </trkpt>
      <trkpt lat="48.06789" lon="6.5436">
        <ele>540</ele>
        <time>2018-04-28T07:47:10.000Z</time>
      </trkpt>
      <trkpt lat="48.06791" lon="6.54361">
        <ele>540</ele>
        <time>2018-04-28T07:47:11.000Z</time>
      </trkpt>
      <trkpt lat="48.06793" lon="6.54362">
        <ele>540</ele>
        <time>2018-04-28T07:47:12.000Z</time>
      </trkpt>
      <trkpt lat="48.06794" lon="6.54363">
        <ele>540</ele>
        <time>2018-04-28T07:47:13.000Z</time>
      </trkpt>
      <trkpt lat="48.06795" lon="6.54364">
        <ele>540</ele>
        <time>2018-04-28T07:47:14.000Z</time>
      </trkpt>
      <trkpt lat="48.06796" lon="6.54365">
        <ele>540</ele>
        <time>2018-04-28T07:47:15.000Z</time>
      </trkpt>
      <trkpt lat="48.06797" lon="6.54366">
        <ele>540</ele>
        <time>2018-04-28T07:47:16.000Z</time>
      </trkpt>
      <trkpt lat="48.06799" lon="6.54367">
        <ele>540</ele>
        <time>2018-04-28T07:47:17.000Z</time>
      </trkpt>
      <trkpt lat="48.06799" lon="6.54368">
        <ele>540</ele>
        <time>2018-04-28T07:47:18.000Z</time>
      </trkpt>
      <trkpt lat="48.06799" lon="6.54368">
        <ele>540</ele>
        <time>2018-04-28T07:47:19.000Z</time>
      </trkpt>
      <trkpt lat="48.068" lon="6.54369">
        <ele>540</ele>
        <time>2018-04-28T07:47:20.000Z</time>
      </trkpt>
      <trkpt lat="48.068" lon="6.54369">
        <ele>540</ele>
        <time>2018-04-28T07:47:21.000Z</time>
      </trkpt>
      <trkpt lat="48.06801" lon="6.5437">
        <ele>540</ele>
        <time>2018-04-28T07:47:22.000Z</time>
      </trkpt>
      <trkpt lat="48.06802" lon="6.54371">
        <ele>540</ele>
        <time>2018-04-28T07:47:23.000Z</time>
      </trkpt>
      <trkpt lat="48.06802" lon="6.54372">
        <ele>540</ele>
        <time>2018-04-28T07:47:24.000Z</time>
      </trkpt>
      <trkpt lat="48.06803" lon="6.54372">
        <ele>540</ele>
        <time>2018-04-28T07:47:25.000Z</time>
      </trkpt>
      <trkpt lat="48.06803" lon="6.54373">
        <ele>540</ele>
        <time>2018-04-28T07:47:26.000Z</time>
      </trkpt>
      <trkpt lat="48.06803" lon="6.54374">
        <ele>540</ele>
        <time>2018-04-28T07:47:27.000Z</time>
      </trkpt>
      <trkpt lat="48.06804" lon="6.54376">
        <ele>541</ele>
        <time>2018-04-28T07:47:28.000Z</time>
      </trkpt>
      <trkpt lat="48.06804" lon="6.54377">
        <ele>541</ele>
        <time>2018-04-28T07:47:29.000Z</time>
      </trkpt>
      <trkpt lat="48.06805" lon="6.54379">
        <ele>541</ele>
        <time>2018-04-28T07:47:30.000Z</time>
      </trkpt>
      <trkpt lat="48.06807" lon="6.5438">
        <ele>541</ele>
        <time>2018-04-28T07:47:31.000Z</time>
      </trkpt>
      <trkpt lat="48.06808" lon="6.54381">
        <ele>541</ele>
        <time>2018-04-28T07:47:32.000Z</time>
      </trkpt>
      <trkpt lat="48.0681" lon="6.54383">
        <ele>541</ele>
        <time>2018-04-28T07:47:33.000Z</time>
      </trkpt>
      <trkpt lat="48.06811" lon="6.54384">
        <ele>541</ele>
        <time>2018-04-28T07:47:34.000Z</time>
      </trkpt>
      <trkpt lat="48.06812" lon="6.54385">
        <ele>541</ele>
        <time>2018-04-28T07:47:35.000Z</time>
      </trkpt>
      <trkpt lat="48.06814" lon="6.54386">
        <ele>541</ele>
        <time>2018-04-28T07:47:36.000Z</time>
      </trkpt>
      <trkpt lat="48.06816" lon="6.54388">
        <ele>541</ele>
        <time>2018-04-28T07:47:37.000Z</time>
      </trkpt>
      <trkpt lat="48.06818" lon="6.5439">
        <ele>541</ele>
        <time>2018-04-28T07:47:38.000Z</time>
      </trkpt>
      <trkpt lat="48.06819" lon="6.54392">
        <ele>541</ele>
        <time>2018-04-28T07:47:39.000Z</time>
      </trkpt>
      <trkpt lat="48.06821" lon="6.54394">
        <ele>542</ele>
        <time>2018-04-28T07:47:40.000Z</time>
      </trkpt>
      <trkpt lat="48.06823" lon="6.54396">
        <ele>542</ele>
        <time>2018-04-28T07:47:41.000Z</time>
      </trkpt>
      <trkpt lat="48.06825" lon="6.54398">
        <ele>542</ele>
        <time>2018-04-28T07:47:42.000Z</time>
      </trkpt>
      <trkpt lat="48.06826" lon="6.544">
        <ele>542</ele>
        <time>2018-04-28T07:47:43.000Z</time>
      </trkpt>
      <trkpt lat="48.06828" lon="6.54401">
        <ele>542</ele>
        <time>2018-04-28T07:47:44.000Z</time>
      </trkpt>
      <trkpt lat="48.0683" lon="6.54403">
        <ele>542</ele>
        <time>2018-04-28T07:47:45.000Z</time>
      </trkpt>
      <trkpt lat="48.06831" lon="6.54405">
        <ele>543</ele>
        <time>2018-04-28T07:47:46.000Z</time>
      </trkpt>
      <trkpt lat="48.06833" lon="6.54407">
        <ele>543</ele>
        <time>2018-04-28T07:47:47.000Z</time>
      </trkpt>
      <trkpt lat="48.06834" lon="6.54409">
        <ele>543</ele>
        <time>2018-04-28T07:47:48.000Z</time>
      </trkpt>
      <trkpt lat="48.06836" lon="6.54411">
        <ele>543</ele>
        <time>2018-04-28T07:47:49.000Z</time>
      </trkpt>
      <trkpt lat="48.06838" lon="6.54412">
        <ele>543</ele>
        <time>2018-04-28T07:47:50.000Z</time>
      </trkpt>
      <trkpt lat="48.06839" lon="6.54414">
        <ele>543</ele>
        <time>2018-04-28T07:47:51.000Z</time>
      </trkpt>
      <trkpt lat="48.06841" lon="6.54415">
        <ele>543</ele>
        <time>2018-04-28T07:47:52.000Z</time>
      </trkpt>
      <trkpt lat="48.06842" lon="6.54416">
        <ele>543</ele>
        <time>2018-04-28T07:47:53.000Z</time>
      </trkpt>
      <trkpt lat="48.06844" lon="6.54417">
        <ele>544</ele>
        <time>2018-04-28T07:47:54.000Z</time>
      </trkpt>
      <trkpt lat="48.06845" lon="6.54418">
        <ele>544</ele>
        <time>2018-04-28T07:47:55.000Z</time>
      </trkpt>
      <trkpt lat="48.06846" lon="6.54419">
        <ele>544</ele>
        <time>2018-04-28T07:47:56.000Z</time>
      </trkpt>
      <trkpt lat="48.06848" lon="6.5442">
        <ele>544</ele>
        <time>2018-04-28T07:47:57.000Z</time>
      </trkpt>
      <trkpt lat="48.06849" lon="6.5442">
        <ele>544</ele>
        <time>2018-04-28T07:47:58.000Z</time>
      </trkpt>
      <trkpt lat="48.0685" lon="6.54421">
        <ele>544</ele>
        <time>2018-04-28T07:47:59.000Z</time>
      </trkpt>
      <trkpt lat="48.06851" lon="6.54422">
        <ele>544</ele>
        <time>2018-04-28T07:48:00.000Z</time>
      </trkpt>
      <trkpt lat="48.06852" lon="6.54423">
        <ele>544</ele>
        <time>2018-04-28T07:48:01.000Z</time>
      </trkpt>
      <trkpt lat="48.06854" lon="6.54424">
        <ele>544</ele>
        <time>2018-04-28T07:48:02.000Z</time>
      </trkpt>
      <trkpt lat="48.06855" lon="6.54424">
        <ele>544</ele>
        <time>2018-04-28T07:48:03.000Z</time>
      </trkpt>
      <trkpt lat="48.06856" lon="6.54425">
        <ele>544</ele>
        <time>2018-04-28T07:48:04.000Z</time>
      </trkpt>
      <trkpt lat="48.06858" lon="6.54425">
        <ele>544</ele>
        <time>2018-04-28T07:48:05.000Z</time>
      </trkpt>
      <trkpt lat="48.06859" lon="6.54426">
        <ele>544</ele>
        <time>2018-04-28T07:48:06.000Z</time>
      </trkpt>
      <trkpt lat="48.06861" lon="6.54426">
        <ele>544</ele>
        <time>2018-04-28T07:48:07.000Z</time>
      </trkpt>
      <trkpt lat="48.06862" lon="6.54426">
        <ele>544</ele>
        <time>2018-04-28T07:48:08.000Z</time>
      </trkpt>
      <trkpt lat="48.06864" lon="6.54427">
        <ele>544</ele>
        <time>2018-04-28T07:48:09.000Z</time>
      </trkpt>
      <trkpt lat="48.06865" lon="6.54427">
        <ele>544</ele>
        <time>2018-04-28T07:48:10.000Z</time>
      </trkpt>
      <trkpt lat="48.06867" lon="6.54427">
        <ele>544</ele>
        <time>2018-04-28T07:48:11.000Z</time>
      </trkpt>
      <trkpt lat="48.06868" lon="6.54427">
        <ele>544</ele>
        <time>2018-04-28T07:48:12.000Z</time>
      </trkpt>
      <trkpt lat="48.06869" lon="6.54427">
        <ele>544</ele>
        <time>2018-04-28T07:48:13.000Z</time>
      </trkpt>
      <trkpt lat="48.0687" lon="6.54428">
        <ele>544</ele>
        <time>2018-04-28T07:48:14.000Z</time>
      </trkpt>
      <trkpt lat="48.06872" lon="6.54428">
        <ele>544</ele>
        <time>2018-04-28T07:48:15.000Z</time>
      </trkpt>
      <trkpt lat="48.06873" lon="6.54429">
        <ele>544</ele>
        <time>2018-04-28T07:48:16.000Z</time>
      </trkpt>
      <trkpt lat="48.06874" lon="6.54429">
        <ele>544</ele>
        <time>2018-04-28T07:48:17.000Z</time>
      </trkpt>
      <trkpt lat="48.06875" lon="6.54429">
        <ele>544</ele>
        <time>2018-04-28T07:48:18.000Z</time>
      </trkpt>
      <trkpt lat="48.06877" lon="6.54429">
        <ele>544</ele>
        <time>2018-04-28T07:48:19.000Z</time>
      </trkpt>
      <trkpt lat="48.06878" lon="6.54429">
        <ele>544</ele>
        <time>2018-04-28T07:48:20.000Z</time>
      </trkpt>
      <trkpt lat="48.06879" lon="6.54429">
        <ele>544</ele>
        <time>2018-04-28T07:48:21.000Z</time>
      </trkpt>
      <trkpt lat="48.0688" lon="6.54428">
        <ele>544</ele>
        <time>2018-04-28T07:48:22.000Z</time>
      </trkpt>
      <trkpt lat="48.06882" lon="6.54428">
        <ele>544</ele>
        <time>2018-04-28T07:48:23.000Z</time>
      </trkpt>
      <trkpt lat="48.06883" lon="6.54428">
        <ele>543</ele>
        <time>2018-04-28T07:48:24.000Z</time>
      </trkpt>
      <trkpt lat="48.06884" lon="6.54428">
        <ele>543</ele>
        <time>2018-04-28T07:48:25.000Z</time>
      </trkpt>
      <trkpt lat="48.06886" lon="6.54428">
        <ele>543</ele>
        <time>2018-04-28T07:48:26.000Z</time>
      </trkpt>
      <trkpt lat="48.06887" lon="6.54428">
        <ele>543</ele>
        <time>2018-04-28T07:48:27.000Z</time>
      </trkpt>
      <trkpt lat="48.06889" lon="6.54428">
        <ele>543</ele>
        <time>2018-04-28T07:48:28.000Z</time>
      </trkpt>
      <trkpt lat="48.0689" lon="6.54428">
        <ele>543</ele>
        <time>2018-04-28T07:48:29.000Z</time>
      </trkpt>
      <trkpt lat="48.06891" lon="6.54429">
        <ele>543</ele>
        <time>2018-04-28T07:48:30.000Z</time>
      </trkpt>
      <trkpt lat="48.06893" lon="6.54429">
        <ele>543</ele>
        <time>2018-04-28T07:48:31.000Z</time>
      </trkpt>
      <trkpt lat="48.06894" lon="6.54429">
        <ele>543</ele>
        <time>2018-04-28T07:48:32.000Z</time>
      </trkpt>
      <trkpt lat="48.06895" lon="6.54429">
        <ele>543</ele>
        <time>2018-04-28T07:48:33.000Z</time>
      </trkpt>
      <trkpt lat="48.06896" lon="6.54429">
        <ele>543</ele>
        <time>2018-04-28T07:48:34.000Z</time>
      </trkpt>
      <trkpt lat="48.06898" lon="6.54428">
        <ele>543</ele>
        <time>2018-04-28T07:48:35.000Z</time>
      </trkpt>
      <trkpt lat="48.06899" lon="6.54428">
        <ele>543</ele>
        <time>2018-04-28T07:48:36.000Z</time>
      </trkpt>
      <trkpt lat="48.069" lon="6.54428">
        <ele>543</ele>
        <time>2018-04-28T07:48:37.000Z</time>
      </trkpt>
      <trkpt lat="48.06901" lon="6.54429">
        <ele>543</ele>
        <time>2018-04-28T07:48:38.000Z</time>
      </trkpt>
      <trkpt lat="48.06902" lon="6.5443">
        <ele>543</ele>
        <time>2018-04-28T07:48:39.000Z</time>
      </trkpt>
      <trkpt lat="48.06903" lon="6.54431">
        <ele>543</ele>
        <time>2018-04-28T07:48:40.000Z</time>
      </trkpt>
      <trkpt lat="48.06904" lon="6.54432">
        <ele>543</ele>
        <time>2018-04-28T07:48:41.000Z</time>
      </trkpt>
      <trkpt lat="48.06905" lon="6.54432">
        <ele>543</ele>
        <time>2018-04-28T07:48:42.000Z</time>
      </trkpt>
      <trkpt lat="48.06906" lon="6.54433">
        <ele>543</ele>
        <time>2018-04-28T07:48:43.000Z</time>
      </trkpt>
      <trkpt lat="48.06907" lon="6.54433">
        <ele>543</ele>
        <time>2018-04-28T07:48:44.000Z</time>
      </trkpt>
      <trkpt lat="48.06908" lon="6.54433">
        <ele>543</ele>
        <time>2018-04-28T07:48:45.000Z</time>
      </trkpt>
      <trkpt lat="48.06908" lon="6.54433">
        <ele>543</ele>
        <time>2018-04-28T07:48:46.000Z</time>
      </trkpt>
      <trkpt lat="48.06909" lon="6.54434">
        <ele>543</ele>
        <time>2018-04-28T07:48:47.000Z</time>
      </trkpt>
      <trkpt lat="48.06909" lon="6.54434">
        <ele>543</ele>
        <time>2018-04-28T07:48:48.000Z</time>
      </trkpt>
      <trkpt lat="48.06911" lon="6.54437">
        <ele>543</ele>
        <time>2018-04-28T07:48:49.000Z</time>
      </trkpt>
      <trkpt lat="48.06911" lon="6.54438">
        <ele>543</ele>
        <time>2018-04-28T07:48:50.000Z</time>
      </trkpt>
      <trkpt lat="48.06912" lon="6.5444">
        <ele>543</ele>
        <time>2018-04-28T07:48:51.000Z</time>
      </trkpt>
      <trkpt lat="48.06912" lon="6.54442">
        <ele>543</ele>
        <time>2018-04-28T07:48:52.000Z</time>
      </trkpt>
      <trkpt lat="48.06912" lon="6.54443">
        <ele>543</ele>
        <time>2018-04-28T07:48:53.000Z</time>
      </trkpt>
      <trkpt lat="48.06913" lon="6.54445">
        <ele>543</ele>
        <time>2018-04-28T07:48:54.000Z</time>
      </trkpt>
      <trkpt lat="48.06913" lon="6.54447">
        <ele>543</ele>
        <time>2018-04-28T07:48:55.000Z</time>
      </trkpt>
      <trkpt lat="48.06914" lon="6.54448">
        <ele>543</ele>
        <time>2018-04-28T07:48:56.000Z</time>
      </trkpt>
      <trkpt lat="48.06915" lon="6.5445">
        <ele>543</ele>
        <time>2018-04-28T07:48:57.000Z</time>
      </trkpt>
      <trkpt lat="48.06915" lon="6.54452">
        <ele>544</ele>
        <time>2018-04-28T07:48:58.000Z</time>
      </trkpt>
      <trkpt lat="48.06916" lon="6.54454">
        <ele>544</ele>
        <time>2018-04-28T07:48:59.000Z</time>
      </trkpt>
      <trkpt lat="48.06916" lon="6.54456">
        <ele>544</ele>
        <time>2018-04-28T07:49:00.000Z</time>
      </trkpt>
      <trkpt lat="48.06917" lon="6.54458">
        <ele>544</ele>
        <time>2018-04-28T07:49:01.000Z</time>
      </trkpt>
      <trkpt lat="48.06917" lon="6.5446">
        <ele>543</ele>
        <time>2018-04-28T07:49:02.000Z</time>
      </trkpt>
      <trkpt lat="48.06917" lon="6.54462">
        <ele>543</ele>
        <time>2018-04-28T07:49:03.000Z</time>
      </trkpt>
      <trkpt lat="48.06917" lon="6.54464">
        <ele>543</ele>
        <time>2018-04-28T07:49:04.000Z</time>
      </trkpt>
      <trkpt lat="48.06917" lon="6.54466">
        <ele>543</ele>
        <time>2018-04-28T07:49:05.000Z</time>
      </trkpt>
      <trkpt lat="48.06917" lon="6.54469">
        <ele>543</ele>
        <time>2018-04-28T07:49:06.000Z</time>
      </trkpt>
      <trkpt lat="48.06917" lon="6.54471">
        <ele>544</ele>
        <time>2018-04-28T07:49:07.000Z</time>
      </trkpt>
      <trkpt lat="48.06916" lon="6.54473">
        <ele>544</ele>
        <time>2018-04-28T07:49:08.000Z</time>
      </trkpt>
      <trkpt lat="48.06916" lon="6.54476">
        <ele>544</ele>
        <time>2018-04-28T07:49:09.000Z</time>
      </trkpt>
      <trkpt lat="48.06916" lon="6.54478">
        <ele>544</ele>
        <time>2018-04-28T07:49:10.000Z</time>
      </trkpt>
      <trkpt lat="48.06915" lon="6.5448">
        <ele>544</ele>
        <time>2018-04-28T07:49:11.000Z</time>
      </trkpt>
      <trkpt lat="48.06915" lon="6.54482">
        <ele>544</ele>
        <time>2018-04-28T07:49:12.000Z</time>
      </trkpt>
      <trkpt lat="48.06915" lon="6.54483">
        <ele>545</ele>
        <time>2018-04-28T07:49:13.000Z</time>
      </trkpt>
      <trkpt lat="48.06915" lon="6.54485">
        <ele>545</ele>
        <time>2018-04-28T07:49:14.000Z</time>
      </trkpt>
      <trkpt lat="48.06915" lon="6.54487">
        <ele>545</ele>
        <time>2018-04-28T07:49:15.000Z</time>
      </trkpt>
      <trkpt lat="48.06915" lon="6.54488">
        <ele>545</ele>
        <time>2018-04-28T07:49:16.000Z</time>
      </trkpt>
      <trkpt lat="48.06915" lon="6.5449">
        <ele>545</ele>
        <time>2018-04-28T07:49:17.000Z</time>
      </trkpt>
      <trkpt lat="48.06915" lon="6.54492">
        <ele>545</ele>
        <time>2018-04-28T07:49:18.000Z</time>
      </trkpt>
      <trkpt lat="48.06915" lon="6.54493">
        <ele>545</ele>
        <time>2018-04-28T07:49:19.000Z</time>
      </trkpt>
      <trkpt lat="48.06915" lon="6.54495">
        <ele>545</ele>
        <time>2018-04-28T07:49:20.000Z</time>
      </trkpt>
      <trkpt lat="48.06914" lon="6.54497">
        <ele>545</ele>
        <time>2018-04-28T07:49:21.000Z</time>
      </trkpt>
      <trkpt lat="48.06914" lon="6.54499">
        <ele>545</ele>
        <time>2018-04-28T07:49:22.000Z</time>
      </trkpt>
      <trkpt lat="48.06914" lon="6.54501">
        <ele>545</ele>
        <time>2018-04-28T07:49:23.000Z</time>
      </trkpt>
      <trkpt lat="48.06914" lon="6.54503">
        <ele>545</ele>
        <time>2018-04-28T07:49:24.000Z</time>
      </trkpt>
      <trkpt lat="48.06913" lon="6.54504">
        <ele>545</ele>
        <time>2018-04-28T07:49:25.000Z</time>
      </trkpt>
      <trkpt lat="48.06913" lon="6.54506">
        <ele>546</ele>
        <time>2018-04-28T07:49:26.000Z</time>
      </trkpt>
      <trkpt lat="48.06913" lon="6.54508">
        <ele>546</ele>
        <time>2018-04-28T07:49:27.000Z</time>
      </trkpt>
      <trkpt lat="48.06913" lon="6.5451">
        <ele>546</ele>
        <time>2018-04-28T07:49:28.000Z</time>
      </trkpt>
      <trkpt lat="48.06913" lon="6.54512">
        <ele>546</ele>
        <time>2018-04-28T07:49:29.000Z</time>
      </trkpt>
      <trkpt lat="48.06912" lon="6.54515">
        <ele>546</ele>
        <time>2018-04-28T07:49:30.000Z</time>
      </trkpt>
      <trkpt lat="48.06912" lon="6.54517">
        <ele>546</ele>
        <time>2018-04-28T07:49:31.000Z</time>
      </trkpt>
      <trkpt lat="48.06912" lon="6.54519">
        <ele>546</ele>
        <time>2018-04-28T07:49:32.000Z</time>
      </trkpt>
      <trkpt lat="48.06911" lon="6.54522">
        <ele>546</ele>
        <time>2018-04-28T07:49:33.000Z</time>
      </trkpt>
      <trkpt lat="48.06911" lon="6.54524">
        <ele>546</ele>
        <time>2018-04-28T07:49:34.000Z</time>
      </trkpt>
      <trkpt lat="48.06911" lon="6.54526">
        <ele>546</ele>
        <time>2018-04-28T07:49:35.000Z</time>
      </trkpt>
      <trkpt lat="48.0691" lon="6.54528">
        <ele>546</ele>
        <time>2018-04-28T07:49:36.000Z</time>
      </trkpt>
      <trkpt lat="48.0691" lon="6.5453">
        <ele>547</ele>
        <time>2018-04-28T07:49:37.000Z</time>
      </trkpt>
      <trkpt lat="48.06909" lon="6.54532">
        <ele>547</ele>
        <time>2018-04-28T07:49:38.000Z</time>
      </trkpt>
      <trkpt lat="48.06909" lon="6.54534">
        <ele>547</ele>
        <time>2018-04-28T07:49:39.000Z</time>
      </trkpt>
      <trkpt lat="48.06909" lon="6.54536">
        <ele>547</ele>
        <time>2018-04-28T07:49:40.000Z</time>
      </trkpt>
      <trkpt lat="48.06908" lon="6.54538">
        <ele>547</ele>
        <time>2018-04-28T07:49:41.000Z</time>
      </trkpt>
      <trkpt lat="48.06907" lon="6.5454">
        <ele>547</ele>
        <time>2018-04-28T07:49:42.000Z</time>
      </trkpt>
      <trkpt lat="48.06907" lon="6.54542">
        <ele>547</ele>
        <time>2018-04-28T07:49:43.000Z</time>
      </trkpt>
      <trkpt lat="48.06906" lon="6.54544">
        <ele>547</ele>
        <time>2018-04-28T07:49:44.000Z</time>
      </trkpt>
      <trkpt lat="48.06905" lon="6.54546">
        <ele>547</ele>
        <time>2018-04-28T07:49:45.000Z</time>
      </trkpt>
      <trkpt lat="48.06905" lon="6.54548">
        <ele>547</ele>
        <time>2018-04-28T07:49:46.000Z</time>
      </trkpt>
      <trkpt lat="48.06904" lon="6.54551">
        <ele>547</ele>
        <time>2018-04-28T07:49:47.000Z</time>
      </trkpt>
      <trkpt lat="48.06903" lon="6.54553">
        <ele>547</ele>
        <time>2018-04-28T07:49:48.000Z</time>
      </trkpt>
      <trkpt lat="48.06903" lon="6.54556">
        <ele>547</ele>
        <time>2018-04-28T07:49:49.000Z</time>
      </trkpt>
      <trkpt lat="48.06903" lon="6.54558">
        <ele>547</ele>
        <time>2018-04-28T07:49:50.000Z</time>
      </trkpt>
      <trkpt lat="48.06902" lon="6.5456">
        <ele>547</ele>
        <time>2018-04-28T07:49:51.000Z</time>
      </trkpt>
      <trkpt lat="48.06902" lon="6.54563">
        <ele>547</ele>
        <time>2018-04-28T07:49:52.000Z</time>
      </trkpt>
      <trkpt lat="48.06901" lon="6.54565">
        <ele>547</ele>
        <time>2018-04-28T07:49:53.000Z</time>
      </trkpt>
      <trkpt lat="48.06901" lon="6.54567">
        <ele>547</ele>
        <time>2018-04-28T07:49:54.000Z</time>
      </trkpt>
      <trkpt lat="48.06901" lon="6.5457">
        <ele>547</ele>
        <time>2018-04-28T07:49:55.000Z</time>
      </trkpt>
      <trkpt lat="48.069" lon="6.54572">
        <ele>547</ele>
        <time>2018-04-28T07:49:56.000Z</time>
      </trkpt>
      <trkpt lat="48.069" lon="6.54573">
        <ele>547</ele>
        <time>2018-04-28T07:49:57.000Z</time>
      </trkpt>
      <trkpt lat="48.069" lon="6.54575">
        <ele>547</ele>
        <time>2018-04-28T07:49:58.000Z</time>
      </trkpt>
      <trkpt lat="48.06899" lon="6.54577">
        <ele>547</ele>
        <time>2018-04-28T07:49:59.000Z</time>
      </trkpt>
      <trkpt lat="48.06899" lon="6.54578">
        <ele>547</ele>
        <time>2018-04-28T07:50:00.000Z</time>
      </trkpt>
      <trkpt lat="48.06898" lon="6.54581">
        <ele>547</ele>
        <time>2018-04-28T07:50:01.000Z</time>
      </trkpt>
      <trkpt lat="48.06898" lon="6.54582">
        <ele>547</ele>
        <time>2018-04-28T07:50:02.000Z</time>
      </trkpt>
      <trkpt lat="48.06898" lon="6.54584">
        <ele>547</ele>
        <time>2018-04-28T07:50:03.000Z</time>
      </trkpt>
      <trkpt lat="48.06897" lon="6.54587">
        <ele>547</ele>
        <time>2018-04-28T07:50:04.000Z</time>
      </trkpt>
      <trkpt lat="48.06897" lon="6.54589">
        <ele>547</ele>
        <time>2018-04-28T07:50:05.000Z</time>
      </trkpt>
      <trkpt lat="48.06896" lon="6.54591">
        <ele>547</ele>
        <time>2018-04-28T07:50:06.000Z</time>
      </trkpt>
      <trkpt lat="48.06896" lon="6.54593">
        <ele>547</ele>
        <time>2018-04-28T07:50:07.000Z</time>
      </trkpt>
      <trkpt lat="48.06896" lon="6.54596">
        <ele>547</ele>
        <time>2018-04-28T07:50:08.000Z</time>
      </trkpt>
      <trkpt lat="48.06895" lon="6.54598">
        <ele>547</ele>
        <time>2018-04-28T07:50:09.000Z</time>
      </trkpt>
      <trkpt lat="48.06895" lon="6.546">
        <ele>547</ele>
        <time>2018-04-28T07:50:10.000Z</time>
      </trkpt>
      <trkpt lat="48.06894" lon="6.54603">
        <ele>547</ele>
        <time>2018-04-28T07:50:11.000Z</time>
      </trkpt>
      <trkpt lat="48.06894" lon="6.54606">
        <ele>547</ele>
        <time>2018-04-28T07:50:12.000Z</time>
      </trkpt>
      <trkpt lat="48.06893" lon="6.54608">
        <ele>547</ele>
        <time>2018-04-28T07:50:13.000Z</time>
      </trkpt>
      <trkpt lat="48.06893" lon="6.5461">
        <ele>547</ele>
        <time>2018-04-28T07:50:14.000Z</time>
      </trkpt>
      <trkpt lat="48.06892" lon="6.54612">
        <ele>547</ele>
        <time>2018-04-28T07:50:15.000Z</time>
      </trkpt>
      <trkpt lat="48.06891" lon="6.54614">
        <ele>547</ele>
        <time>2018-04-28T07:50:16.000Z</time>
      </trkpt>
      <trkpt lat="48.0689" lon="6.54617">
        <ele>547</ele>
        <time>2018-04-28T07:50:17.000Z</time>
      </trkpt>
      <trkpt lat="48.06889" lon="6.54619">
        <ele>547</ele>
        <time>2018-04-28T07:50:18.000Z</time>
      </trkpt>
      <trkpt lat="48.06888" lon="6.54621">
        <ele>547</ele>
        <time>2018-04-28T07:50:19.000Z</time>
      </trkpt>
      <trkpt lat="48.06888" lon="6.54623">
        <ele>547</ele>
        <time>2018-04-28T07:50:20.000Z</time>
      </trkpt>
      <trkpt lat="48.06887" lon="6.54625">
        <ele>547</ele>
        <time>2018-04-28T07:50:21.000Z</time>
      </trkpt>
      <trkpt lat="48.06887" lon="6.54627">
        <ele>547</ele>
        <time>2018-04-28T07:50:22.000Z</time>
      </trkpt>
      <trkpt lat="48.06887" lon="6.54629">
        <ele>547</ele>
        <time>2018-04-28T07:50:23.000Z</time>
      </trkpt>
      <trkpt lat="48.06886" lon="6.54631">
        <ele>547</ele>
        <time>2018-04-28T07:50:24.000Z</time>
      </trkpt>
      <trkpt lat="48.06886" lon="6.54634">
        <ele>547</ele>
        <time>2018-04-28T07:50:25.000Z</time>
      </trkpt>
      <trkpt lat="48.06885" lon="6.54636">
        <ele>547</ele>
        <time>2018-04-28T07:50:26.000Z</time>
      </trkpt>
      <trkpt lat="48.06884" lon="6.54639">
        <ele>547</ele>
        <time>2018-04-28T07:50:27.000Z</time>
      </trkpt>
      <trkpt lat="48.06884" lon="6.54641">
        <ele>547</ele>
        <time>2018-04-28T07:50:28.000Z</time>
      </trkpt>
      <trkpt lat="48.06883" lon="6.54643">
        <ele>547</ele>
        <time>2018-04-28T07:50:29.000Z</time>
      </trkpt>
      <trkpt lat="48.06883" lon="6.54645">
        <ele>547</ele>
        <time>2018-04-28T07:50:30.000Z</time>
      </trkpt>
      <trkpt lat="48.06882" lon="6.54648">
        <ele>547</ele>
        <time>2018-04-28T07:50:31.000Z</time>
      </trkpt>
      <trkpt lat="48.06882" lon="6.5465">
        <ele>547</ele>
        <time>2018-04-28T07:50:32.000Z</time>
      </trkpt>
      <trkpt lat="48.06881" lon="6.54652">
        <ele>547</ele>
        <time>2018-04-28T07:50:33.000Z</time>
      </trkpt>
      <trkpt lat="48.0688" lon="6.54654">
        <ele>547</ele>
        <time>2018-04-28T07:50:34.000Z</time>
      </trkpt>
      <trkpt lat="48.0688" lon="6.54655">
        <ele>547</ele>
        <time>2018-04-28T07:50:35.000Z</time>
      </trkpt>
      <trkpt lat="48.06879" lon="6.54658">
        <ele>547</ele>
        <time>2018-04-28T07:50:36.000Z</time>
      </trkpt>
      <trkpt lat="48.06878" lon="6.5466">
        <ele>547</ele>
        <time>2018-04-28T07:50:37.000Z</time>
      </trkpt>
      <trkpt lat="48.06878" lon="6.54662">
        <ele>547</ele>
        <time>2018-04-28T07:50:38.000Z</time>
      </trkpt>
      <trkpt lat="48.06877" lon="6.54664">
        <ele>547</ele>
        <time>2018-04-28T07:50:39.000Z</time>
      </trkpt>
      <trkpt lat="48.06876" lon="6.54666">
        <ele>547</ele>
        <time>2018-04-28T07:50:40.000Z</time>
      </trkpt>
      <trkpt lat="48.06875" lon="6.54668">
        <ele>546</ele>
        <time>2018-04-28T07:50:41.000Z</time>
      </trkpt>
      <trkpt lat="48.06874" lon="6.54671">
        <ele>546</ele>
        <time>2018-04-28T07:50:42.000Z</time>
      </trkpt>
      <trkpt lat="48.06873" lon="6.54673">
        <ele>546</ele>
        <time>2018-04-28T07:50:43.000Z</time>
      </trkpt>
      <trkpt lat="48.06872" lon="6.54675">
        <ele>546</ele>
        <time>2018-04-28T07:50:44.000Z</time>
      </trkpt>
      <trkpt lat="48.06871" lon="6.54678">
        <ele>546</ele>
        <time>2018-04-28T07:50:45.000Z</time>
      </trkpt>
      <trkpt lat="48.06871" lon="6.5468">
        <ele>546</ele>
        <time>2018-04-28T07:50:46.000Z</time>
      </trkpt>
      <trkpt lat="48.0687" lon="6.54682">
        <ele>546</ele>
        <time>2018-04-28T07:50:47.000Z</time>
      </trkpt>
      <trkpt lat="48.0687" lon="6.54684">
        <ele>546</ele>
        <time>2018-04-28T07:50:48.000Z</time>
      </trkpt>
      <trkpt lat="48.06869" lon="6.54686">
        <ele>546</ele>
        <time>2018-04-28T07:50:49.000Z</time>
      </trkpt>
      <trkpt lat="48.06869" lon="6.54688">
        <ele>546</ele>
        <time>2018-04-28T07:50:50.000Z</time>
      </trkpt>
      <trkpt lat="48.06868" lon="6.5469">
        <ele>546</ele>
        <time>2018-04-28T07:50:51.000Z</time>
      </trkpt>
      <trkpt lat="48.06867" lon="6.54692">
        <ele>546</ele>
        <time>2018-04-28T07:50:52.000Z</time>
      </trkpt>
      <trkpt lat="48.06866" lon="6.54694">
        <ele>546</ele>
        <time>2018-04-28T07:50:53.000Z</time>
      </trkpt>
      <trkpt lat="48.06866" lon="6.54696">
        <ele>546</ele>
        <time>2018-04-28T07:50:54.000Z</time>
      </trkpt>
      <trkpt lat="48.06865" lon="6.54697">
        <ele>545</ele>
        <time>2018-04-28T07:50:55.000Z</time>
      </trkpt>
      <trkpt lat="48.06864" lon="6.54699">
        <ele>545</ele>
        <time>2018-04-28T07:50:56.000Z</time>
      </trkpt>
      <trkpt lat="48.06863" lon="6.54701">
        <ele>545</ele>
        <time>2018-04-28T07:50:57.000Z</time>
      </trkpt>
      <trkpt lat="48.06862" lon="6.54703">
        <ele>545</ele>
        <time>2018-04-28T07:50:58.000Z</time>
      </trkpt>
      <trkpt lat="48.06861" lon="6.54705">
        <ele>545</ele>
        <time>2018-04-28T07:50:59.000Z</time>
      </trkpt>
      <trkpt lat="48.0686" lon="6.54708">
        <ele>545</ele>
        <time>2018-04-28T07:51:00.000Z</time>
      </trkpt>
      <trkpt lat="48.06859" lon="6.5471">
        <ele>545</ele>
        <time>2018-04-28T07:51:01.000Z</time>
      </trkpt>
      <trkpt lat="48.06858" lon="6.54712">
        <ele>545</ele>
        <time>2018-04-28T07:51:02.000Z</time>
      </trkpt>
      <trkpt lat="48.06857" lon="6.54714">
        <ele>545</ele>
        <time>2018-04-28T07:51:03.000Z</time>
      </trkpt>
      <trkpt lat="48.06856" lon="6.54715">
        <ele>545</ele>
        <time>2018-04-28T07:51:04.000Z</time>
      </trkpt>
      <trkpt lat="48.06856" lon="6.54717">
        <ele>545</ele>
        <time>2018-04-28T07:51:05.000Z</time>
      </trkpt>
      <trkpt lat="48.06855" lon="6.54719">
        <ele>545</ele>
        <time>2018-04-28T07:51:06.000Z</time>
      </trkpt>
      <trkpt lat="48.06854" lon="6.54721">
        <ele>545</ele>
        <time>2018-04-28T07:51:07.000Z</time>
      </trkpt>
      <trkpt lat="48.06854" lon="6.54722">
        <ele>545</ele>
        <time>2018-04-28T07:51:08.000Z</time>
      </trkpt>
      <trkpt lat="48.06853" lon="6.54724">
        <ele>545</ele>
        <time>2018-04-28T07:51:09.000Z</time>
      </trkpt>
      <trkpt lat="48.06853" lon="6.54726">
        <ele>545</ele>
        <time>2018-04-28T07:51:10.000Z</time>
      </trkpt>
      <trkpt lat="48.06852" lon="6.54727">
        <ele>545</ele>
        <time>2018-04-28T07:51:11.000Z</time>
      </trkpt>
      <trkpt lat="48.06852" lon="6.54729">
        <ele>545</ele>
        <time>2018-04-28T07:51:12.000Z</time>
      </trkpt>
      <trkpt lat="48.06851" lon="6.5473">
        <ele>545</ele>
        <time>2018-04-28T07:51:13.000Z</time>
      </trkpt>
      <trkpt lat="48.0685" lon="6.54731">
        <ele>545</ele>
        <time>2018-04-28T07:51:14.000Z</time>
      </trkpt>
      <trkpt lat="48.0685" lon="6.54731">
        <ele>545</ele>
        <time>2018-04-28T07:51:15.000Z</time>
      </trkpt>
      <trkpt lat="48.06849" lon="6.54733">
        <ele>545</ele>
        <time>2018-04-28T07:51:16.000Z</time>
      </trkpt>
      <trkpt lat="48.06848" lon="6.54734">
        <ele>545</ele>
        <time>2018-04-28T07:51:17.000Z</time>
      </trkpt>
      <trkpt lat="48.06848" lon="6.54735">
        <ele>545</ele>
        <time>2018-04-28T07:51:18.000Z</time>
      </trkpt>
      <trkpt lat="48.06848" lon="6.54737">
        <ele>545</ele>
        <time>2018-04-28T07:51:19.000Z</time>
      </trkpt>
      <trkpt lat="48.06847" lon="6.54738">
        <ele>545</ele>
        <time>2018-04-28T07:51:20.000Z</time>
      </trkpt>
      <trkpt lat="48.06847" lon="6.54738">
        <ele>545</ele>
        <time>2018-04-28T07:51:21.000Z</time>
      </trkpt>
      <trkpt lat="48.06847" lon="6.54738">
        <ele>545</ele>
        <time>2018-04-28T07:51:22.000Z</time>
      </trkpt>
      <trkpt lat="48.06847" lon="6.54739">
        <ele>545</ele>
        <time>2018-04-28T07:51:23.000Z</time>
      </trkpt>
      <trkpt lat="48.06847" lon="6.54741">
        <ele>545</ele>
        <time>2018-04-28T07:51:24.000Z</time>
      </trkpt>
      <trkpt lat="48.06847" lon="6.54742">
        <ele>545</ele>
        <time>2018-04-28T07:51:25.000Z</time>
      </trkpt>
      <trkpt lat="48.06847" lon="6.54743">
        <ele>545</ele>
        <time>2018-04-28T07:51:26.000Z</time>
      </trkpt>
      <trkpt lat="48.06847" lon="6.54744">
        <ele>545</ele>
        <time>2018-04-28T07:51:27.000Z</time>
      </trkpt>
      <trkpt lat="48.06847" lon="6.54746">
        <ele>545</ele>
        <time>2018-04-28T07:51:28.000Z</time>
      </trkpt>
      <trkpt lat="48.06847" lon="6.54747">
        <ele>545</ele>
        <time>2018-04-28T07:51:29.000Z</time>
      </trkpt>
      <trkpt lat="48.06846" lon="6.54749">
        <ele>545</ele>
        <time>2018-04-28T07:51:30.000Z</time>
      </trkpt>
      <trkpt lat="48.06845" lon="6.54751">
        <ele>543</ele>
        <time>2018-04-28T07:51:31.000Z</time>
      </trkpt>
      <trkpt lat="48.06845" lon="6.54753">
        <ele>543</ele>
        <time>2018-04-28T07:51:32.000Z</time>
      </trkpt>
      <trkpt lat="48.06844" lon="6.54755">
        <ele>543</ele>
        <time>2018-04-28T07:51:33.000Z</time>
      </trkpt>
      <trkpt lat="48.06844" lon="6.54757">
        <ele>543</ele>
        <time>2018-04-28T07:51:34.000Z</time>
      </trkpt>
      <trkpt lat="48.06843" lon="6.5476">
        <ele>543</ele>
        <time>2018-04-28T07:51:35.000Z</time>
      </trkpt>
      <trkpt lat="48.06843" lon="6.54762">
        <ele>542</ele>
        <time>2018-04-28T07:51:36.000Z</time>
      </trkpt>
      <trkpt lat="48.06842" lon="6.54764">
        <ele>542</ele>
        <time>2018-04-28T07:51:37.000Z</time>
      </trkpt>
      <trkpt lat="48.06842" lon="6.54766">
        <ele>542</ele>
        <time>2018-04-28T07:51:38.000Z</time>
      </trkpt>
      <trkpt lat="48.06842" lon="6.54768">
        <ele>542</ele>
        <time>2018-04-28T07:51:39.000Z</time>
      </trkpt>
      <trkpt lat="48.06841" lon="6.5477">
        <ele>542</ele>
        <time>2018-04-28T07:51:40.000Z</time>
      </trkpt>
      <trkpt lat="48.06841" lon="6.54772">
        <ele>542</ele>
        <time>2018-04-28T07:51:41.000Z</time>
      </trkpt>
      <trkpt lat="48.06841" lon="6.54774">
        <ele>541</ele>
        <time>2018-04-28T07:51:42.000Z</time>
      </trkpt>
      <trkpt lat="48.06841" lon="6.54776">
        <ele>541</ele>
        <time>2018-04-28T07:51:43.000Z</time>
      </trkpt>
      <trkpt lat="48.06841" lon="6.54779">
        <ele>541</ele>
        <time>2018-04-28T07:51:44.000Z</time>
      </trkpt>
      <trkpt lat="48.06841" lon="6.54781">
        <ele>541</ele>
        <time>2018-04-28T07:51:45.000Z</time>
      </trkpt>
      <trkpt lat="48.06841" lon="6.54783">
        <ele>541</ele>
        <time>2018-04-28T07:51:46.000Z</time>
      </trkpt>
      <trkpt lat="48.06841" lon="6.54786">
        <ele>540</ele>
        <time>2018-04-28T07:51:47.000Z</time>
      </trkpt>
      <trkpt lat="48.06841" lon="6.54788">
        <ele>540</ele>
        <time>2018-04-28T07:51:48.000Z</time>
      </trkpt>
      <trkpt lat="48.06841" lon="6.5479">
        <ele>540</ele>
        <time>2018-04-28T07:51:49.000Z</time>
      </trkpt>
      <trkpt lat="48.0684" lon="6.54792">
        <ele>540</ele>
        <time>2018-04-28T07:51:50.000Z</time>
      </trkpt>
      <trkpt lat="48.0684" lon="6.54794">
        <ele>540</ele>
        <time>2018-04-28T07:51:51.000Z</time>
      </trkpt>
      <trkpt lat="48.0684" lon="6.54796">
        <ele>539</ele>
        <time>2018-04-28T07:51:52.000Z</time>
      </trkpt>
      <trkpt lat="48.0684" lon="6.54798">
        <ele>539</ele>
        <time>2018-04-28T07:51:53.000Z</time>
      </trkpt>
      <trkpt lat="48.06839" lon="6.54801">
        <ele>539</ele>
        <time>2018-04-28T07:51:54.000Z</time>
      </trkpt>
      <trkpt lat="48.06838" lon="6.54803">
        <ele>539</ele>
        <time>2018-04-28T07:51:55.000Z</time>
      </trkpt>
      <trkpt lat="48.06838" lon="6.54805">
        <ele>539</ele>
        <time>2018-04-28T07:51:56.000Z</time>
      </trkpt>
      <trkpt lat="48.06838" lon="6.54807">
        <ele>539</ele>
        <time>2018-04-28T07:51:57.000Z</time>
      </trkpt>
      <trkpt lat="48.06837" lon="6.5481">
        <ele>538</ele>
        <time>2018-04-28T07:51:58.000Z</time>
      </trkpt>
      <trkpt lat="48.06837" lon="6.54812">
        <ele>538</ele>
        <time>2018-04-28T07:51:59.000Z</time>
      </trkpt>
      <trkpt lat="48.06836" lon="6.54814">
        <ele>538</ele>
        <time>2018-04-28T07:52:00.000Z</time>
      </trkpt>
      <trkpt lat="48.06836" lon="6.54816">
        <ele>538</ele>
        <time>2018-04-28T07:52:01.000Z</time>
      </trkpt>
      <trkpt lat="48.06836" lon="6.54818">
        <ele>538</ele>
        <time>2018-04-28T07:52:02.000Z</time>
      </trkpt>
      <trkpt lat="48.06836" lon="6.54821">
        <ele>538</ele>
        <time>2018-04-28T07:52:03.000Z</time>
      </trkpt>
      <trkpt lat="48.06835" lon="6.54823">
        <ele>537</ele>
        <time>2018-04-28T07:52:04.000Z</time>
      </trkpt>
      <trkpt lat="48.06835" lon="6.54826">
        <ele>537</ele>
        <time>2018-04-28T07:52:05.000Z</time>
      </trkpt>
      <trkpt lat="48.06834" lon="6.54828">
        <ele>537</ele>
        <time>2018-04-28T07:52:06.000Z</time>
      </trkpt>
      <trkpt lat="48.06834" lon="6.54831">
        <ele>536</ele>
        <time>2018-04-28T07:52:07.000Z</time>
      </trkpt>
      <trkpt lat="48.06834" lon="6.54833">
        <ele>536</ele>
        <time>2018-04-28T07:52:08.000Z</time>
      </trkpt>
      <trkpt lat="48.06833" lon="6.54835">
        <ele>536</ele>
        <time>2018-04-28T07:52:09.000Z</time>
      </trkpt>
      <trkpt lat="48.06832" lon="6.54838">
        <ele>536</ele>
        <time>2018-04-28T07:52:10.000Z</time>
      </trkpt>
      <trkpt lat="48.06832" lon="6.5484">
        <ele>536</ele>
        <time>2018-04-28T07:52:11.000Z</time>
      </trkpt>
      <trkpt lat="48.06831" lon="6.54842">
        <ele>536</ele>
        <time>2018-04-28T07:52:12.000Z</time>
      </trkpt>
      <trkpt lat="48.0683" lon="6.54844">
        <ele>536</ele>
        <time>2018-04-28T07:52:13.000Z</time>
      </trkpt>
      <trkpt lat="48.06829" lon="6.54846">
        <ele>536</ele>
        <time>2018-04-28T07:52:14.000Z</time>
      </trkpt>
      <trkpt lat="48.06828" lon="6.54849">
        <ele>536</ele>
        <time>2018-04-28T07:52:15.000Z</time>
      </trkpt>
      <trkpt lat="48.06827" lon="6.54851">
        <ele>536</ele>
        <time>2018-04-28T07:52:16.000Z</time>
      </trkpt>
      <trkpt lat="48.06826" lon="6.54853">
        <ele>536</ele>
        <time>2018-04-28T07:52:17.000Z</time>
      </trkpt>
      <trkpt lat="48.06825" lon="6.54855">
        <ele>535</ele>
        <time>2018-04-28T07:52:18.000Z</time>
      </trkpt>
      <trkpt lat="48.06824" lon="6.54858">
        <ele>535</ele>
        <time>2018-04-28T07:52:19.000Z</time>
      </trkpt>
      <trkpt lat="48.06823" lon="6.5486">
        <ele>535</ele>
        <time>2018-04-28T07:52:20.000Z</time>
      </trkpt>
      <trkpt lat="48.06822" lon="6.54862">
        <ele>535</ele>
        <time>2018-04-28T07:52:21.000Z</time>
      </trkpt>
      <trkpt lat="48.06821" lon="6.54865">
        <ele>535</ele>
        <time>2018-04-28T07:52:22.000Z</time>
      </trkpt>
      <trkpt lat="48.0682" lon="6.54867">
        <ele>535</ele>
        <time>2018-04-28T07:52:23.000Z</time>
      </trkpt>
      <trkpt lat="48.06819" lon="6.54869">
        <ele>535</ele>
        <time>2018-04-28T07:52:24.000Z</time>
      </trkpt>
      <trkpt lat="48.06818" lon="6.54871">
        <ele>535</ele>
        <time>2018-04-28T07:52:25.000Z</time>
      </trkpt>
      <trkpt lat="48.06817" lon="6.54874">
        <ele>534</ele>
        <time>2018-04-28T07:52:26.000Z</time>
      </trkpt>
      <trkpt lat="48.06815" lon="6.54875">
        <ele>534</ele>
        <time>2018-04-28T07:52:27.000Z</time>
      </trkpt>
      <trkpt lat="48.06814" lon="6.54877">
        <ele>534</ele>
        <time>2018-04-28T07:52:28.000Z</time>
      </trkpt>
      <trkpt lat="48.06813" lon="6.54879">
        <ele>534</ele>
        <time>2018-04-28T07:52:29.000Z</time>
      </trkpt>
      <trkpt lat="48.06812" lon="6.54881">
        <ele>534</ele>
        <time>2018-04-28T07:52:30.000Z</time>
      </trkpt>
      <trkpt lat="48.06811" lon="6.54883">
        <ele>534</ele>
        <time>2018-04-28T07:52:31.000Z</time>
      </trkpt>
      <trkpt lat="48.0681" lon="6.54885">
        <ele>534</ele>
        <time>2018-04-28T07:52:32.000Z</time>
      </trkpt>
      <trkpt lat="48.06809" lon="6.54888">
        <ele>534</ele>
        <time>2018-04-28T07:52:33.000Z</time>
      </trkpt>
      <trkpt lat="48.06808" lon="6.5489">
        <ele>534</ele>
        <time>2018-04-28T07:52:34.000Z</time>
      </trkpt>
      <trkpt lat="48.06807" lon="6.54892">
        <ele>533</ele>
        <time>2018-04-28T07:52:35.000Z</time>
      </trkpt>
      <trkpt lat="48.06806" lon="6.54894">
        <ele>533</ele>
        <time>2018-04-28T07:52:36.000Z</time>
      </trkpt>
      <trkpt lat="48.06806" lon="6.54896">
        <ele>533</ele>
        <time>2018-04-28T07:52:37.000Z</time>
      </trkpt>
      <trkpt lat="48.06805" lon="6.54899">
        <ele>533</ele>
        <time>2018-04-28T07:52:38.000Z</time>
      </trkpt>
      <trkpt lat="48.06804" lon="6.54901">
        <ele>533</ele>
        <time>2018-04-28T07:52:39.000Z</time>
      </trkpt>
      <trkpt lat="48.06804" lon="6.54903">
        <ele>533</ele>
        <time>2018-04-28T07:52:40.000Z</time>
      </trkpt>
      <trkpt lat="48.06803" lon="6.54905">
        <ele>533</ele>
        <time>2018-04-28T07:52:41.000Z</time>
      </trkpt>
      <trkpt lat="48.06802" lon="6.54907">
        <ele>533</ele>
        <time>2018-04-28T07:52:42.000Z</time>
      </trkpt>
      <trkpt lat="48.06802" lon="6.54909">
        <ele>533</ele>
        <time>2018-04-28T07:52:43.000Z</time>
      </trkpt>
      <trkpt lat="48.06802" lon="6.54911">
        <ele>533</ele>
        <time>2018-04-28T07:52:44.000Z</time>
      </trkpt>
      <trkpt lat="48.06801" lon="6.54913">
        <ele>533</ele>
        <time>2018-04-28T07:52:45.000Z</time>
      </trkpt>
      <trkpt lat="48.06801" lon="6.54915">
        <ele>533</ele>
        <time>2018-04-28T07:52:46.000Z</time>
      </trkpt>
      <trkpt lat="48.068" lon="6.54917">
        <ele>529</ele>
        <time>2018-04-28T07:52:47.000Z</time>
      </trkpt>
      <trkpt lat="48.068" lon="6.5492">
        <ele>529</ele>
        <time>2018-04-28T07:52:48.000Z</time>
      </trkpt>
      <trkpt lat="48.068" lon="6.54922">
        <ele>529</ele>
        <time>2018-04-28T07:52:49.000Z</time>
      </trkpt>
      <trkpt lat="48.068" lon="6.54925">
        <ele>529</ele>
        <time>2018-04-28T07:52:50.000Z</time>
      </trkpt>
      <trkpt lat="48.06799" lon="6.54928">
        <ele>529</ele>
        <time>2018-04-28T07:52:51.000Z</time>
      </trkpt>
      <trkpt lat="48.06799" lon="6.5493">
        <ele>529</ele>
        <time>2018-04-28T07:52:52.000Z</time>
      </trkpt>
      <trkpt lat="48.06799" lon="6.54932">
        <ele>529</ele>
        <time>2018-04-28T07:52:53.000Z</time>
      </trkpt>
      <trkpt lat="48.06799" lon="6.54935">
        <ele>529</ele>
        <time>2018-04-28T07:52:54.000Z</time>
      </trkpt>
      <trkpt lat="48.06798" lon="6.54937">
        <ele>529</ele>
        <time>2018-04-28T07:52:55.000Z</time>
      </trkpt>
      <trkpt lat="48.06798" lon="6.54939">
        <ele>529</ele>
        <time>2018-04-28T07:52:56.000Z</time>
      </trkpt>
      <trkpt lat="48.06798" lon="6.54942">
        <ele>529</ele>
        <time>2018-04-28T07:52:57.000Z</time>
      </trkpt>
      <trkpt lat="48.06797" lon="6.54944">
        <ele>529</ele>
        <time>2018-04-28T07:52:58.000Z</time>
      </trkpt>
      <trkpt lat="48.06797" lon="6.54947">
        <ele>529</ele>
        <time>2018-04-28T07:52:59.000Z</time>
      </trkpt>
      <trkpt lat="48.06796" lon="6.54949">
        <ele>530</ele>
        <time>2018-04-28T07:53:00.000Z</time>
      </trkpt>
      <trkpt lat="48.06795" lon="6.54952">
        <ele>530</ele>
        <time>2018-04-28T07:53:01.000Z</time>
      </trkpt>
      <trkpt lat="48.06795" lon="6.54954">
        <ele>530</ele>
        <time>2018-04-28T07:53:02.000Z</time>
      </trkpt>
      <trkpt lat="48.06795" lon="6.54957">
        <ele>529</ele>
        <time>2018-04-28T07:53:03.000Z</time>
      </trkpt>
      <trkpt lat="48.06795" lon="6.5496">
        <ele>529</ele>
        <time>2018-04-28T07:53:04.000Z</time>
      </trkpt>
      <trkpt lat="48.06796" lon="6.54963">
        <ele>529</ele>
        <time>2018-04-28T07:53:05.000Z</time>
      </trkpt>
      <trkpt lat="48.06796" lon="6.54965">
        <ele>529</ele>
        <time>2018-04-28T07:53:06.000Z</time>
      </trkpt>
      <trkpt lat="48.06796" lon="6.54968">
        <ele>529</ele>
        <time>2018-04-28T07:53:07.000Z</time>
      </trkpt>
      <trkpt lat="48.06796" lon="6.5497">
        <ele>529</ele>
        <time>2018-04-28T07:53:08.000Z</time>
      </trkpt>
      <trkpt lat="48.06796" lon="6.54973">
        <ele>529</ele>
        <time>2018-04-28T07:53:09.000Z</time>
      </trkpt>
      <trkpt lat="48.06796" lon="6.54975">
        <ele>529</ele>
        <time>2018-04-28T07:53:10.000Z</time>
      </trkpt>
      <trkpt lat="48.06797" lon="6.54977">
        <ele>529</ele>
        <time>2018-04-28T07:53:11.000Z</time>
      </trkpt>
      <trkpt lat="48.06797" lon="6.54979">
        <ele>529</ele>
        <time>2018-04-28T07:53:12.000Z</time>
      </trkpt>
      <trkpt lat="48.06798" lon="6.54982">
        <ele>529</ele>
        <time>2018-04-28T07:53:13.000Z</time>
      </trkpt>
      <trkpt lat="48.06798" lon="6.54984">
        <ele>529</ele>
        <time>2018-04-28T07:53:14.000Z</time>
      </trkpt>
      <trkpt lat="48.06798" lon="6.54987">
        <ele>529</ele>
        <time>2018-04-28T07:53:15.000Z</time>
      </trkpt>
      <trkpt lat="48.06799" lon="6.54989">
        <ele>529</ele>
        <time>2018-04-28T07:53:16.000Z</time>
      </trkpt>
      <trkpt lat="48.068" lon="6.54991">
        <ele>528</ele>
        <time>2018-04-28T07:53:17.000Z</time>
      </trkpt>
      <trkpt lat="48.068" lon="6.54994">
        <ele>528</ele>
        <time>2018-04-28T07:53:18.000Z</time>
      </trkpt>
      <trkpt lat="48.06801" lon="6.54996">
        <ele>528</ele>
        <time>2018-04-28T07:53:19.000Z</time>
      </trkpt>
      <trkpt lat="48.06801" lon="6.54998">
        <ele>528</ele>
        <time>2018-04-28T07:53:20.000Z</time>
      </trkpt>
      <trkpt lat="48.06801" lon="6.55">
        <ele>526</ele>
        <time>2018-04-28T07:53:21.000Z</time>
      </trkpt>
      <trkpt lat="48.06801" lon="6.55002">
        <ele>526</ele>
        <time>2018-04-28T07:53:22.000Z</time>
      </trkpt>
      <trkpt lat="48.06801" lon="6.55005">
        <ele>526</ele>
        <time>2018-04-28T07:53:23.000Z</time>
      </trkpt>
      <trkpt lat="48.06802" lon="6.55007">
        <ele>526</ele>
        <time>2018-04-28T07:53:24.000Z</time>
      </trkpt>
      <trkpt lat="48.06802" lon="6.55009">
        <ele>526</ele>
        <time>2018-04-28T07:53:25.000Z</time>
      </trkpt>
      <trkpt lat="48.06803" lon="6.55012">
        <ele>526</ele>
        <time>2018-04-28T07:53:26.000Z</time>
      </trkpt>
      <trkpt lat="48.06803" lon="6.55014">
        <ele>526</ele>
        <time>2018-04-28T07:53:27.000Z</time>
      </trkpt>
      <trkpt lat="48.06804" lon="6.55016">
        <ele>526</ele>
        <time>2018-04-28T07:53:28.000Z</time>
      </trkpt>
      <trkpt lat="48.06804" lon="6.55019">
        <ele>526</ele>
        <time>2018-04-28T07:53:29.000Z</time>
      </trkpt>
      <trkpt lat="48.06805" lon="6.55021">
        <ele>526</ele>
        <time>2018-04-28T07:53:30.000Z</time>
      </trkpt>
      <trkpt lat="48.06805" lon="6.55023">
        <ele>526</ele>
        <time>2018-04-28T07:53:31.000Z</time>
      </trkpt>
      <trkpt lat="48.06805" lon="6.55025">
        <ele>526</ele>
        <time>2018-04-28T07:53:32.000Z</time>
      </trkpt>
      <trkpt lat="48.06806" lon="6.55028">
        <ele>526</ele>
        <time>2018-04-28T07:53:33.000Z</time>
      </trkpt>
      <trkpt lat="48.06806" lon="6.5503">
        <ele>526</ele>
        <time>2018-04-28T07:53:34.000Z</time>
      </trkpt>
      <trkpt lat="48.06806" lon="6.55033">
        <ele>526</ele>
        <time>2018-04-28T07:53:35.000Z</time>
      </trkpt>
      <trkpt lat="48.06806" lon="6.55035">
        <ele>526</ele>
        <time>2018-04-28T07:53:36.000Z</time>
      </trkpt>
      <trkpt lat="48.06806" lon="6.55037">
        <ele>526</ele>
        <time>2018-04-28T07:53:37.000Z</time>
      </trkpt>
      <trkpt lat="48.06806" lon="6.55039">
        <ele>526</ele>
        <time>2018-04-28T07:53:38.000Z</time>
      </trkpt>
      <trkpt lat="48.06806" lon="6.55042">
        <ele>526</ele>
        <time>2018-04-28T07:53:39.000Z</time>
      </trkpt>
      <trkpt lat="48.06806" lon="6.55044">
        <ele>526</ele>
        <time>2018-04-28T07:53:40.000Z</time>
      </trkpt>
      <trkpt lat="48.06806" lon="6.55046">
        <ele>526</ele>
        <time>2018-04-28T07:53:41.000Z</time>
      </trkpt>
      <trkpt lat="48.06805" lon="6.55049">
        <ele>526</ele>
        <time>2018-04-28T07:53:42.000Z</time>
      </trkpt>
      <trkpt lat="48.06805" lon="6.55051">
        <ele>526</ele>
        <time>2018-04-28T07:53:43.000Z</time>
      </trkpt>
      <trkpt lat="48.06804" lon="6.55052">
        <ele>526</ele>
        <time>2018-04-28T07:53:44.000Z</time>
      </trkpt>
      <trkpt lat="48.06804" lon="6.55054">
        <ele>526</ele>
        <time>2018-04-28T07:53:45.000Z</time>
      </trkpt>
      <trkpt lat="48.06803" lon="6.55056">
        <ele>526</ele>
        <time>2018-04-28T07:53:46.000Z</time>
      </trkpt>
      <trkpt lat="48.06802" lon="6.55057">
        <ele>526</ele>
        <time>2018-04-28T07:53:47.000Z</time>
      </trkpt>
      <trkpt lat="48.06802" lon="6.55058">
        <ele>526</ele>
        <time>2018-04-28T07:53:48.000Z</time>
      </trkpt>
      <trkpt lat="48.06802" lon="6.55058">
        <ele>526</ele>
        <time>2018-04-28T07:53:49.000Z</time>
      </trkpt>
      <trkpt lat="48.06802" lon="6.55058">
        <ele>526</ele>
        <time>2018-04-28T07:53:50.000Z</time>
      </trkpt>
      <trkpt lat="48.06802" lon="6.55058">
        <ele>526</ele>
        <time>2018-04-28T07:53:51.000Z</time>
      </trkpt>
      <trkpt lat="48.06801" lon="6.55059">
        <ele>526</ele>
        <time>2018-04-28T07:53:52.000Z</time>
      </trkpt>
      <trkpt lat="48.06801" lon="6.5506">
        <ele>526</ele>
        <time>2018-04-28T07:53:53.000Z</time>
      </trkpt>
      <trkpt lat="48.068" lon="6.55062">
        <ele>526</ele>
        <time>2018-04-28T07:53:54.000Z</time>
      </trkpt>
      <trkpt lat="48.068" lon="6.55063">
        <ele>526</ele>
        <time>2018-04-28T07:53:55.000Z</time>
      </trkpt>
      <trkpt lat="48.06799" lon="6.55065">
        <ele>526</ele>
        <time>2018-04-28T07:53:56.000Z</time>
      </trkpt>
      <trkpt lat="48.06799" lon="6.55066">
        <ele>526</ele>
        <time>2018-04-28T07:53:57.000Z</time>
      </trkpt>
      <trkpt lat="48.06798" lon="6.55067">
        <ele>526</ele>
        <time>2018-04-28T07:53:58.000Z</time>
      </trkpt>
      <trkpt lat="48.06798" lon="6.55069">
        <ele>526</ele>
        <time>2018-04-28T07:53:59.000Z</time>
      </trkpt>
      <trkpt lat="48.06797" lon="6.5507">
        <ele>526</ele>
        <time>2018-04-28T07:54:00.000Z</time>
      </trkpt>
      <trkpt lat="48.06796" lon="6.55072">
        <ele>526</ele>
        <time>2018-04-28T07:54:01.000Z</time>
      </trkpt>
      <trkpt lat="48.06796" lon="6.55073">
        <ele>526</ele>
        <time>2018-04-28T07:54:02.000Z</time>
      </trkpt>
      <trkpt lat="48.06795" lon="6.55075">
        <ele>526</ele>
        <time>2018-04-28T07:54:03.000Z</time>
      </trkpt>
      <trkpt lat="48.06795" lon="6.55077">
        <ele>526</ele>
        <time>2018-04-28T07:54:04.000Z</time>
      </trkpt>
      <trkpt lat="48.06794" lon="6.55079">
        <ele>526</ele>
        <time>2018-04-28T07:54:05.000Z</time>
      </trkpt>
      <trkpt lat="48.06793" lon="6.5508">
        <ele>526</ele>
        <time>2018-04-28T07:54:06.000Z</time>
      </trkpt>
      <trkpt lat="48.06792" lon="6.55082">
        <ele>526</ele>
        <time>2018-04-28T07:54:07.000Z</time>
      </trkpt>
      <trkpt lat="48.06792" lon="6.55083">
        <ele>526</ele>
        <time>2018-04-28T07:54:08.000Z</time>
      </trkpt>
      <trkpt lat="48.06791" lon="6.55085">
        <ele>525</ele>
        <time>2018-04-28T07:54:09.000Z</time>
      </trkpt>
      <trkpt lat="48.0679" lon="6.55086">
        <ele>525</ele>
        <time>2018-04-28T07:54:10.000Z</time>
      </trkpt>
      <trkpt lat="48.0679" lon="6.55087">
        <ele>525</ele>
        <time>2018-04-28T07:54:11.000Z</time>
      </trkpt>
      <trkpt lat="48.06789" lon="6.55089">
        <ele>525</ele>
        <time>2018-04-28T07:54:12.000Z</time>
      </trkpt>
      <trkpt lat="48.06789" lon="6.5509">
        <ele>525</ele>
        <time>2018-04-28T07:54:13.000Z</time>
      </trkpt>
      <trkpt lat="48.06788" lon="6.55092">
        <ele>525</ele>
        <time>2018-04-28T07:54:14.000Z</time>
      </trkpt>
      <trkpt lat="48.06787" lon="6.55094">
        <ele>525</ele>
        <time>2018-04-28T07:54:15.000Z</time>
      </trkpt>
      <trkpt lat="48.06786" lon="6.55096">
        <ele>525</ele>
        <time>2018-04-28T07:54:16.000Z</time>
      </trkpt>
      <trkpt lat="48.06785" lon="6.55098">
        <ele>525</ele>
        <time>2018-04-28T07:54:17.000Z</time>
      </trkpt>
      <trkpt lat="48.06784" lon="6.55099">
        <ele>525</ele>
        <time>2018-04-28T07:54:18.000Z</time>
      </trkpt>
      <trkpt lat="48.06783" lon="6.55101">
        <ele>525</ele>
        <time>2018-04-28T07:54:19.000Z</time>
      </trkpt>
      <trkpt lat="48.06782" lon="6.55103">
        <ele>525</ele>
        <time>2018-04-28T07:54:20.000Z</time>
      </trkpt>
      <trkpt lat="48.0678" lon="6.55105">
        <ele>525</ele>
        <time>2018-04-28T07:54:21.000Z</time>
      </trkpt>
      <trkpt lat="48.06779" lon="6.55107">
        <ele>526</ele>
        <time>2018-04-28T07:54:22.000Z</time>
      </trkpt>
      <trkpt lat="48.06778" lon="6.55109">
        <ele>526</ele>
        <time>2018-04-28T07:54:23.000Z</time>
      </trkpt>
      <trkpt lat="48.06777" lon="6.5511">
        <ele>526</ele>
        <time>2018-04-28T07:54:24.000Z</time>
      </trkpt>
      <trkpt lat="48.06776" lon="6.55112">
        <ele>526</ele>
        <time>2018-04-28T07:54:25.000Z</time>
      </trkpt>
      <trkpt lat="48.06775" lon="6.55113">
        <ele>526</ele>
        <time>2018-04-28T07:54:26.000Z</time>
      </trkpt>
      <trkpt lat="48.06774" lon="6.55115">
        <ele>526</ele>
        <time>2018-04-28T07:54:27.000Z</time>
      </trkpt>
      <trkpt lat="48.06773" lon="6.55117">
        <ele>526</ele>
        <time>2018-04-28T07:54:28.000Z</time>
      </trkpt>
      <trkpt lat="48.06772" lon="6.55118">
        <ele>526</ele>
        <time>2018-04-28T07:54:29.000Z</time>
      </trkpt>
      <trkpt lat="48.06771" lon="6.55119">
        <ele>526</ele>
        <time>2018-04-28T07:54:30.000Z</time>
      </trkpt>
      <trkpt lat="48.0677" lon="6.55121">
        <ele>526</ele>
        <time>2018-04-28T07:54:31.000Z</time>
      </trkpt>
      <trkpt lat="48.06769" lon="6.55122">
        <ele>526</ele>
        <time>2018-04-28T07:54:32.000Z</time>
      </trkpt>
      <trkpt lat="48.06768" lon="6.55124">
        <ele>526</ele>
        <time>2018-04-28T07:54:33.000Z</time>
      </trkpt>
      <trkpt lat="48.06767" lon="6.55126">
        <ele>526</ele>
        <time>2018-04-28T07:54:34.000Z</time>
      </trkpt>
      <trkpt lat="48.06767" lon="6.55127">
        <ele>526</ele>
        <time>2018-04-28T07:54:35.000Z</time>
      </trkpt>
      <trkpt lat="48.06766" lon="6.55129">
        <ele>526</ele>
        <time>2018-04-28T07:54:36.000Z</time>
      </trkpt>
      <trkpt lat="48.06765" lon="6.55131">
        <ele>526</ele>
        <time>2018-04-28T07:54:37.000Z</time>
      </trkpt>
      <trkpt lat="48.06764" lon="6.55132">
        <ele>526</ele>
        <time>2018-04-28T07:54:38.000Z</time>
      </trkpt>
      <trkpt lat="48.06763" lon="6.55134">
        <ele>526</ele>
        <time>2018-04-28T07:54:39.000Z</time>
      </trkpt>
      <trkpt lat="48.06762" lon="6.55136">
        <ele>526</ele>
        <time>2018-04-28T07:54:40.000Z</time>
      </trkpt>
      <trkpt lat="48.06761" lon="6.55137">
        <ele>526</ele>
        <time>2018-04-28T07:54:41.000Z</time>
      </trkpt>
      <trkpt lat="48.0676" lon="6.55139">
        <ele>526</ele>
        <time>2018-04-28T07:54:42.000Z</time>
      </trkpt>
      <trkpt lat="48.06759" lon="6.5514">
        <ele>526</ele>
        <time>2018-04-28T07:54:43.000Z</time>
      </trkpt>
      <trkpt lat="48.06759" lon="6.55142">
        <ele>526</ele>
        <time>2018-04-28T07:54:44.000Z</time>
      </trkpt>
      <trkpt lat="48.06758" lon="6.55143">
        <ele>527</ele>
        <time>2018-04-28T07:54:45.000Z</time>
      </trkpt>
      <trkpt lat="48.06757" lon="6.55144">
        <ele>527</ele>
        <time>2018-04-28T07:54:46.000Z</time>
      </trkpt>
      <trkpt lat="48.06757" lon="6.55146">
        <ele>527</ele>
        <time>2018-04-28T07:54:47.000Z</time>
      </trkpt>
      <trkpt lat="48.06756" lon="6.55147">
        <ele>527</ele>
        <time>2018-04-28T07:54:48.000Z</time>
      </trkpt>
      <trkpt lat="48.06755" lon="6.55149">
        <ele>527</ele>
        <time>2018-04-28T07:54:49.000Z</time>
      </trkpt>
      <trkpt lat="48.06754" lon="6.55151">
        <ele>527</ele>
        <time>2018-04-28T07:54:50.000Z</time>
      </trkpt>
      <trkpt lat="48.06754" lon="6.55153">
        <ele>527</ele>
        <time>2018-04-28T07:54:51.000Z</time>
      </trkpt>
      <trkpt lat="48.06753" lon="6.55155">
        <ele>527</ele>
        <time>2018-04-28T07:54:52.000Z</time>
      </trkpt>
      <trkpt lat="48.06753" lon="6.55156">
        <ele>528</ele>
        <time>2018-04-28T07:54:53.000Z</time>
      </trkpt>
      <trkpt lat="48.06752" lon="6.55158">
        <ele>528</ele>
        <time>2018-04-28T07:54:54.000Z</time>
      </trkpt>
      <trkpt lat="48.06751" lon="6.55159">
        <ele>528</ele>
        <time>2018-04-28T07:54:55.000Z</time>
      </trkpt>
      <trkpt lat="48.06751" lon="6.55161">
        <ele>528</ele>
        <time>2018-04-28T07:54:56.000Z</time>
      </trkpt>
      <trkpt lat="48.0675" lon="6.55163">
        <ele>528</ele>
        <time>2018-04-28T07:54:57.000Z</time>
      </trkpt>
      <trkpt lat="48.0675" lon="6.55165">
        <ele>529</ele>
        <time>2018-04-28T07:54:58.000Z</time>
      </trkpt>
      <trkpt lat="48.06749" lon="6.55167">
        <ele>529</ele>
        <time>2018-04-28T07:54:59.000Z</time>
      </trkpt>
      <trkpt lat="48.06748" lon="6.55169">
        <ele>529</ele>
        <time>2018-04-28T07:55:00.000Z</time>
      </trkpt>
      <trkpt lat="48.06748" lon="6.55171">
        <ele>530</ele>
        <time>2018-04-28T07:55:01.000Z</time>
      </trkpt>
      <trkpt lat="48.06747" lon="6.55173">
        <ele>530</ele>
        <time>2018-04-28T07:55:02.000Z</time>
      </trkpt>
      <trkpt lat="48.06747" lon="6.55175">
        <ele>530</ele>
        <time>2018-04-28T07:55:03.000Z</time>
      </trkpt>
      <trkpt lat="48.06746" lon="6.55177">
        <ele>530</ele>
        <time>2018-04-28T07:55:04.000Z</time>
      </trkpt>
      <trkpt lat="48.06745" lon="6.55179">
        <ele>531</ele>
        <time>2018-04-28T07:55:05.000Z</time>
      </trkpt>
      <trkpt lat="48.06744" lon="6.55182">
        <ele>531</ele>
        <time>2018-04-28T07:55:06.000Z</time>
      </trkpt>
      <trkpt lat="48.06744" lon="6.55184">
        <ele>531</ele>
        <time>2018-04-28T07:55:07.000Z</time>
      </trkpt>
      <trkpt lat="48.06743" lon="6.55186">
        <ele>531</ele>
        <time>2018-04-28T07:55:08.000Z</time>
      </trkpt>
      <trkpt lat="48.06743" lon="6.55188">
        <ele>531</ele>
        <time>2018-04-28T07:55:09.000Z</time>
      </trkpt>
      <trkpt lat="48.06742" lon="6.5519">
        <ele>531</ele>
        <time>2018-04-28T07:55:10.000Z</time>
      </trkpt>
      <trkpt lat="48.06742" lon="6.55192">
        <ele>531</ele>
        <time>2018-04-28T07:55:11.000Z</time>
      </trkpt>
      <trkpt lat="48.06741" lon="6.55194">
        <ele>531</ele>
        <time>2018-04-28T07:55:12.000Z</time>
      </trkpt>
      <trkpt lat="48.06741" lon="6.55196">
        <ele>531</ele>
        <time>2018-04-28T07:55:13.000Z</time>
      </trkpt>
      <trkpt lat="48.06741" lon="6.55198">
        <ele>531</ele>
        <time>2018-04-28T07:55:14.000Z</time>
      </trkpt>
      <trkpt lat="48.0674" lon="6.552">
        <ele>531</ele>
        <time>2018-04-28T07:55:15.000Z</time>
      </trkpt>
      <trkpt lat="48.0674" lon="6.55203">
        <ele>531</ele>
        <time>2018-04-28T07:55:16.000Z</time>
      </trkpt>
      <trkpt lat="48.06739" lon="6.55205">
        <ele>531</ele>
        <time>2018-04-28T07:55:17.000Z</time>
      </trkpt>
      <trkpt lat="48.06739" lon="6.55206">
        <ele>531</ele>
        <time>2018-04-28T07:55:18.000Z</time>
      </trkpt>
      <trkpt lat="48.06739" lon="6.55208">
        <ele>531</ele>
        <time>2018-04-28T07:55:19.000Z</time>
      </trkpt>
      <trkpt lat="48.06739" lon="6.5521">
        <ele>531</ele>
        <time>2018-04-28T07:55:20.000Z</time>
      </trkpt>
      <trkpt lat="48.06738" lon="6.55212">
        <ele>531</ele>
        <time>2018-04-28T07:55:21.000Z</time>
      </trkpt>
      <trkpt lat="48.06738" lon="6.55214">
        <ele>531</ele>
        <time>2018-04-28T07:55:22.000Z</time>
      </trkpt>
      <trkpt lat="48.06737" lon="6.55217">
        <ele>531</ele>
        <time>2018-04-28T07:55:23.000Z</time>
      </trkpt>
      <trkpt lat="48.06737" lon="6.55219">
        <ele>531</ele>
        <time>2018-04-28T07:55:24.000Z</time>
      </trkpt>
      <trkpt lat="48.06737" lon="6.55221">
        <ele>531</ele>
        <time>2018-04-28T07:55:25.000Z</time>
      </trkpt>
      <trkpt lat="48.06736" lon="6.55224">
        <ele>531</ele>
        <time>2018-04-28T07:55:26.000Z</time>
      </trkpt>
      <trkpt lat="48.06736" lon="6.55226">
        <ele>531</ele>
        <time>2018-04-28T07:55:27.000Z</time>
      </trkpt>
      <trkpt lat="48.06735" lon="6.55228">
        <ele>531</ele>
        <time>2018-04-28T07:55:28.000Z</time>
      </trkpt>
      <trkpt lat="48.06734" lon="6.5523">
        <ele>531</ele>
        <time>2018-04-28T07:55:29.000Z</time>
      </trkpt>
      <trkpt lat="48.06733" lon="6.55232">
        <ele>531</ele>
        <time>2018-04-28T07:55:30.000Z</time>
      </trkpt>
      <trkpt lat="48.06732" lon="6.55234">
        <ele>531</ele>
        <time>2018-04-28T07:55:31.000Z</time>
      </trkpt>
      <trkpt lat="48.0673" lon="6.55236">
        <ele>531</ele>
        <time>2018-04-28T07:55:32.000Z</time>
      </trkpt>
      <trkpt lat="48.06729" lon="6.55238">
        <ele>531</ele>
        <time>2018-04-28T07:55:33.000Z</time>
      </trkpt>
      <trkpt lat="48.06728" lon="6.5524">
        <ele>531</ele>
        <time>2018-04-28T07:55:34.000Z</time>
      </trkpt>
      <trkpt lat="48.06727" lon="6.55243">
        <ele>531</ele>
        <time>2018-04-28T07:55:35.000Z</time>
      </trkpt>
      <trkpt lat="48.06726" lon="6.55245">
        <ele>531</ele>
        <time>2018-04-28T07:55:36.000Z</time>
      </trkpt>
      <trkpt lat="48.06726" lon="6.55247">
        <ele>531</ele>
        <time>2018-04-28T07:55:37.000Z</time>
      </trkpt>
      <trkpt lat="48.06725" lon="6.55249">
        <ele>531</ele>
        <time>2018-04-28T07:55:38.000Z</time>
      </trkpt>
      <trkpt lat="48.06724" lon="6.55251">
        <ele>531</ele>
        <time>2018-04-28T07:55:39.000Z</time>
      </trkpt>
      <trkpt lat="48.06724" lon="6.55254">
        <ele>531</ele>
        <time>2018-04-28T07:55:40.000Z</time>
      </trkpt>
      <trkpt lat="48.06723" lon="6.55256">
        <ele>531</ele>
        <time>2018-04-28T07:55:41.000Z</time>
      </trkpt>
      <trkpt lat="48.06723" lon="6.55258">
        <ele>531</ele>
        <time>2018-04-28T07:55:42.000Z</time>
      </trkpt>
      <trkpt lat="48.06722" lon="6.5526">
        <ele>531</ele>
        <time>2018-04-28T07:55:43.000Z</time>
      </trkpt>
      <trkpt lat="48.06722" lon="6.55262">
        <ele>531</ele>
        <time>2018-04-28T07:55:44.000Z</time>
      </trkpt>
      <trkpt lat="48.06722" lon="6.55264">
        <ele>531</ele>
        <time>2018-04-28T07:55:45.000Z</time>
      </trkpt>
      <trkpt lat="48.06722" lon="6.55266">
        <ele>531</ele>
        <time>2018-04-28T07:55:46.000Z</time>
      </trkpt>
      <trkpt lat="48.06721" lon="6.55267">
        <ele>531</ele>
        <time>2018-04-28T07:55:47.000Z</time>
      </trkpt>
      <trkpt lat="48.06721" lon="6.55269">
        <ele>531</ele>
        <time>2018-04-28T07:55:48.000Z</time>
      </trkpt>
      <trkpt lat="48.06721" lon="6.55271">
        <ele>531</ele>
        <time>2018-04-28T07:55:49.000Z</time>
      </trkpt>
      <trkpt lat="48.0672" lon="6.55273">
        <ele>531</ele>
        <time>2018-04-28T07:55:50.000Z</time>
      </trkpt>
      <trkpt lat="48.0672" lon="6.55275">
        <ele>531</ele>
        <time>2018-04-28T07:55:51.000Z</time>
      </trkpt>
      <trkpt lat="48.06719" lon="6.55277">
        <ele>531</ele>
        <time>2018-04-28T07:55:52.000Z</time>
      </trkpt>
      <trkpt lat="48.06718" lon="6.55278">
        <ele>531</ele>
        <time>2018-04-28T07:55:53.000Z</time>
      </trkpt>
      <trkpt lat="48.06718" lon="6.55278">
        <ele>531</ele>
        <time>2018-04-28T07:55:54.000Z</time>
      </trkpt>
      <trkpt lat="48.06716" lon="6.55282">
        <ele>531</ele>
        <time>2018-04-28T07:55:55.000Z</time>
      </trkpt>
      <trkpt lat="48.06715" lon="6.55284">
        <ele>532</ele>
        <time>2018-04-28T07:55:56.000Z</time>
      </trkpt>
      <trkpt lat="48.06714" lon="6.55285">
        <ele>532</ele>
        <time>2018-04-28T07:55:57.000Z</time>
      </trkpt>
      <trkpt lat="48.06713" lon="6.55287">
        <ele>532</ele>
        <time>2018-04-28T07:55:58.000Z</time>
      </trkpt>
      <trkpt lat="48.06712" lon="6.55288">
        <ele>532</ele>
        <time>2018-04-28T07:55:59.000Z</time>
      </trkpt>
      <trkpt lat="48.0671" lon="6.5529">
        <ele>532</ele>
        <time>2018-04-28T07:56:00.000Z</time>
      </trkpt>
      <trkpt lat="48.06709" lon="6.55292">
        <ele>532</ele>
        <time>2018-04-28T07:56:01.000Z</time>
      </trkpt>
      <trkpt lat="48.06708" lon="6.55293">
        <ele>532</ele>
        <time>2018-04-28T07:56:02.000Z</time>
      </trkpt>
      <trkpt lat="48.06707" lon="6.55295">
        <ele>532</ele>
        <time>2018-04-28T07:56:03.000Z</time>
      </trkpt>
      <trkpt lat="48.06705" lon="6.55297">
        <ele>532</ele>
        <time>2018-04-28T07:56:04.000Z</time>
      </trkpt>
      <trkpt lat="48.06704" lon="6.55298">
        <ele>532</ele>
        <time>2018-04-28T07:56:05.000Z</time>
      </trkpt>
      <trkpt lat="48.06702" lon="6.553">
        <ele>532</ele>
        <time>2018-04-28T07:56:06.000Z</time>
      </trkpt>
      <trkpt lat="48.06701" lon="6.55301">
        <ele>532</ele>
        <time>2018-04-28T07:56:07.000Z</time>
      </trkpt>
      <trkpt lat="48.067" lon="6.55302">
        <ele>532</ele>
        <time>2018-04-28T07:56:08.000Z</time>
      </trkpt>
      <trkpt lat="48.06698" lon="6.55304">
        <ele>532</ele>
        <time>2018-04-28T07:56:09.000Z</time>
      </trkpt>
      <trkpt lat="48.06697" lon="6.55306">
        <ele>532</ele>
        <time>2018-04-28T07:56:10.000Z</time>
      </trkpt>
      <trkpt lat="48.06696" lon="6.55307">
        <ele>532</ele>
        <time>2018-04-28T07:56:11.000Z</time>
      </trkpt>
      <trkpt lat="48.06694" lon="6.55309">
        <ele>532</ele>
        <time>2018-04-28T07:56:12.000Z</time>
      </trkpt>
      <trkpt lat="48.06693" lon="6.55311">
        <ele>532</ele>
        <time>2018-04-28T07:56:13.000Z</time>
      </trkpt>
      <trkpt lat="48.06692" lon="6.55313">
        <ele>532</ele>
        <time>2018-04-28T07:56:14.000Z</time>
      </trkpt>
      <trkpt lat="48.0669" lon="6.55315">
        <ele>532</ele>
        <time>2018-04-28T07:56:15.000Z</time>
      </trkpt>
      <trkpt lat="48.06689" lon="6.55317">
        <ele>532</ele>
        <time>2018-04-28T07:56:16.000Z</time>
      </trkpt>
      <trkpt lat="48.06687" lon="6.55319">
        <ele>532</ele>
        <time>2018-04-28T07:56:17.000Z</time>
      </trkpt>
      <trkpt lat="48.06686" lon="6.55321">
        <ele>532</ele>
        <time>2018-04-28T07:56:18.000Z</time>
      </trkpt>
      <trkpt lat="48.06685" lon="6.55323">
        <ele>532</ele>
        <time>2018-04-28T07:56:19.000Z</time>
      </trkpt>
      <trkpt lat="48.06684" lon="6.55325">
        <ele>532</ele>
        <time>2018-04-28T07:56:20.000Z</time>
      </trkpt>
      <trkpt lat="48.06682" lon="6.55327">
        <ele>532</ele>
        <time>2018-04-28T07:56:21.000Z</time>
      </trkpt>
      <trkpt lat="48.06682" lon="6.55329">
        <ele>532</ele>
        <time>2018-04-28T07:56:22.000Z</time>
      </trkpt>
      <trkpt lat="48.06681" lon="6.55331">
        <ele>532</ele>
        <time>2018-04-28T07:56:23.000Z</time>
      </trkpt>
      <trkpt lat="48.0668" lon="6.55333">
        <ele>533</ele>
        <time>2018-04-28T07:56:24.000Z</time>
      </trkpt>
      <trkpt lat="48.0668" lon="6.55335">
        <ele>533</ele>
        <time>2018-04-28T07:56:25.000Z</time>
      </trkpt>
      <trkpt lat="48.0668" lon="6.55337">
        <ele>533</ele>
        <time>2018-04-28T07:56:26.000Z</time>
      </trkpt>
      <trkpt lat="48.0668" lon="6.55339">
        <ele>533</ele>
        <time>2018-04-28T07:56:27.000Z</time>
      </trkpt>
      <trkpt lat="48.06679" lon="6.5534">
        <ele>533</ele>
        <time>2018-04-28T07:56:28.000Z</time>
      </trkpt>
      <trkpt lat="48.06679" lon="6.55342">
        <ele>533</ele>
        <time>2018-04-28T07:56:29.000Z</time>
      </trkpt>
      <trkpt lat="48.06679" lon="6.55344">
        <ele>533</ele>
        <time>2018-04-28T07:56:30.000Z</time>
      </trkpt>
      <trkpt lat="48.06678" lon="6.55345">
        <ele>533</ele>
        <time>2018-04-28T07:56:31.000Z</time>
      </trkpt>
      <trkpt lat="48.06677" lon="6.55347">
        <ele>533</ele>
        <time>2018-04-28T07:56:32.000Z</time>
      </trkpt>
      <trkpt lat="48.06677" lon="6.55349">
        <ele>533</ele>
        <time>2018-04-28T07:56:33.000Z</time>
      </trkpt>
      <trkpt lat="48.06676" lon="6.5535">
        <ele>533</ele>
        <time>2018-04-28T07:56:34.000Z</time>
      </trkpt>
      <trkpt lat="48.06675" lon="6.55352">
        <ele>533</ele>
        <time>2018-04-28T07:56:35.000Z</time>
      </trkpt>
      <trkpt lat="48.06675" lon="6.55353">
        <ele>533</ele>
        <time>2018-04-28T07:56:36.000Z</time>
      </trkpt>
      <trkpt lat="48.06674" lon="6.55355">
        <ele>533</ele>
        <time>2018-04-28T07:56:37.000Z</time>
      </trkpt>
      <trkpt lat="48.06673" lon="6.55357">
        <ele>533</ele>
        <time>2018-04-28T07:56:38.000Z</time>
      </trkpt>
      <trkpt lat="48.06672" lon="6.55359">
        <ele>533</ele>
        <time>2018-04-28T07:56:39.000Z</time>
      </trkpt>
      <trkpt lat="48.06671" lon="6.5536">
        <ele>533</ele>
        <time>2018-04-28T07:56:40.000Z</time>
      </trkpt>
      <trkpt lat="48.0667" lon="6.55362">
        <ele>533</ele>
        <time>2018-04-28T07:56:41.000Z</time>
      </trkpt>
      <trkpt lat="48.06669" lon="6.55363">
        <ele>533</ele>
        <time>2018-04-28T07:56:42.000Z</time>
      </trkpt>
      <trkpt lat="48.06669" lon="6.55365">
        <ele>533</ele>
        <time>2018-04-28T07:56:43.000Z</time>
      </trkpt>
      <trkpt lat="48.06668" lon="6.55366">
        <ele>533</ele>
        <time>2018-04-28T07:56:44.000Z</time>
      </trkpt>
      <trkpt lat="48.06667" lon="6.55368">
        <ele>533</ele>
        <time>2018-04-28T07:56:45.000Z</time>
      </trkpt>
      <trkpt lat="48.06666" lon="6.55369">
        <ele>541</ele>
        <time>2018-04-28T07:56:46.000Z</time>
      </trkpt>
      <trkpt lat="48.06666" lon="6.55371">
        <ele>541</ele>
        <time>2018-04-28T07:56:47.000Z</time>
      </trkpt>
      <trkpt lat="48.06665" lon="6.55372">
        <ele>541</ele>
        <time>2018-04-28T07:56:48.000Z</time>
      </trkpt>
      <trkpt lat="48.06664" lon="6.55373">
        <ele>541</ele>
        <time>2018-04-28T07:56:49.000Z</time>
      </trkpt>
      <trkpt lat="48.06663" lon="6.55375">
        <ele>541</ele>
        <time>2018-04-28T07:56:50.000Z</time>
      </trkpt>
      <trkpt lat="48.06662" lon="6.55376">
        <ele>541</ele>
        <time>2018-04-28T07:56:51.000Z</time>
      </trkpt>
      <trkpt lat="48.06661" lon="6.55377">
        <ele>541</ele>
        <time>2018-04-28T07:56:52.000Z</time>
      </trkpt>
      <trkpt lat="48.06661" lon="6.55378">
        <ele>541</ele>
        <time>2018-04-28T07:56:53.000Z</time>
      </trkpt>
      <trkpt lat="48.0666" lon="6.5538">
        <ele>541</ele>
        <time>2018-04-28T07:56:54.000Z</time>
      </trkpt>
      <trkpt lat="48.06659" lon="6.55381">
        <ele>541</ele>
        <time>2018-04-28T07:56:55.000Z</time>
      </trkpt>
      <trkpt lat="48.06658" lon="6.55382">
        <ele>541</ele>
        <time>2018-04-28T07:56:56.000Z</time>
      </trkpt>
      <trkpt lat="48.06657" lon="6.55384">
        <ele>541</ele>
        <time>2018-04-28T07:56:57.000Z</time>
      </trkpt>
      <trkpt lat="48.06656" lon="6.55385">
        <ele>541</ele>
        <time>2018-04-28T07:56:58.000Z</time>
      </trkpt>
      <trkpt lat="48.06656" lon="6.55387">
        <ele>541</ele>
        <time>2018-04-28T07:56:59.000Z</time>
      </trkpt>
      <trkpt lat="48.06655" lon="6.55388">
        <ele>541</ele>
        <time>2018-04-28T07:57:00.000Z</time>
      </trkpt>
      <trkpt lat="48.06654" lon="6.55389">
        <ele>541</ele>
        <time>2018-04-28T07:57:01.000Z</time>
      </trkpt>
      <trkpt lat="48.06653" lon="6.5539">
        <ele>541</ele>
        <time>2018-04-28T07:57:02.000Z</time>
      </trkpt>
      <trkpt lat="48.06653" lon="6.55392">
        <ele>541</ele>
        <time>2018-04-28T07:57:03.000Z</time>
      </trkpt>
      <trkpt lat="48.06652" lon="6.55394">
        <ele>541</ele>
        <time>2018-04-28T07:57:04.000Z</time>
      </trkpt>
      <trkpt lat="48.06651" lon="6.55396">
        <ele>541</ele>
        <time>2018-04-28T07:57:05.000Z</time>
      </trkpt>
      <trkpt lat="48.0665" lon="6.55398">
        <ele>541</ele>
        <time>2018-04-28T07:57:06.000Z</time>
      </trkpt>
      <trkpt lat="48.06649" lon="6.55399">
        <ele>541</ele>
        <time>2018-04-28T07:57:07.000Z</time>
      </trkpt>
      <trkpt lat="48.06648" lon="6.55402">
        <ele>541</ele>
        <time>2018-04-28T07:57:08.000Z</time>
      </trkpt>
      <trkpt lat="48.06646" lon="6.55403">
        <ele>541</ele>
        <time>2018-04-28T07:57:09.000Z</time>
      </trkpt>
      <trkpt lat="48.06645" lon="6.55405">
        <ele>542</ele>
        <time>2018-04-28T07:57:10.000Z</time>
      </trkpt>
      <trkpt lat="48.06644" lon="6.55407">
        <ele>542</ele>
        <time>2018-04-28T07:57:11.000Z</time>
      </trkpt>
      <trkpt lat="48.06643" lon="6.55408">
        <ele>542</ele>
        <time>2018-04-28T07:57:12.000Z</time>
      </trkpt>
      <trkpt lat="48.06642" lon="6.5541">
        <ele>542</ele>
        <time>2018-04-28T07:57:13.000Z</time>
      </trkpt>
      <trkpt lat="48.06641" lon="6.55412">
        <ele>542</ele>
        <time>2018-04-28T07:57:14.000Z</time>
      </trkpt>
      <trkpt lat="48.06639" lon="6.55413">
        <ele>542</ele>
        <time>2018-04-28T07:57:15.000Z</time>
      </trkpt>
      <trkpt lat="48.06638" lon="6.55416">
        <ele>543</ele>
        <time>2018-04-28T07:57:16.000Z</time>
      </trkpt>
      <trkpt lat="48.06637" lon="6.55418">
        <ele>545</ele>
        <time>2018-04-28T07:57:17.000Z</time>
      </trkpt>
      <trkpt lat="48.06636" lon="6.5542">
        <ele>545</ele>
        <time>2018-04-28T07:57:18.000Z</time>
      </trkpt>
      <trkpt lat="48.06634" lon="6.55423">
        <ele>546</ele>
        <time>2018-04-28T07:57:19.000Z</time>
      </trkpt>
      <trkpt lat="48.06633" lon="6.55425">
        <ele>546</ele>
        <time>2018-04-28T07:57:20.000Z</time>
      </trkpt>
      <trkpt lat="48.06632" lon="6.55427">
        <ele>546</ele>
        <time>2018-04-28T07:57:21.000Z</time>
      </trkpt>
      <trkpt lat="48.06631" lon="6.55429">
        <ele>546</ele>
        <time>2018-04-28T07:57:22.000Z</time>
      </trkpt>
      <trkpt lat="48.06629" lon="6.5543">
        <ele>547</ele>
        <time>2018-04-28T07:57:23.000Z</time>
      </trkpt>
      <trkpt lat="48.06628" lon="6.55432">
        <ele>547</ele>
        <time>2018-04-28T07:57:24.000Z</time>
      </trkpt>
      <trkpt lat="48.06627" lon="6.55434">
        <ele>547</ele>
        <time>2018-04-28T07:57:25.000Z</time>
      </trkpt>
      <trkpt lat="48.06626" lon="6.55435">
        <ele>548</ele>
        <time>2018-04-28T07:57:26.000Z</time>
      </trkpt>
      <trkpt lat="48.06625" lon="6.55437">
        <ele>548</ele>
        <time>2018-04-28T07:57:27.000Z</time>
      </trkpt>
      <trkpt lat="48.06624" lon="6.55438">
        <ele>548</ele>
        <time>2018-04-28T07:57:28.000Z</time>
      </trkpt>
      <trkpt lat="48.06623" lon="6.5544">
        <ele>548</ele>
        <time>2018-04-28T07:57:29.000Z</time>
      </trkpt>
      <trkpt lat="48.06623" lon="6.55442">
        <ele>548</ele>
        <time>2018-04-28T07:57:30.000Z</time>
      </trkpt>
      <trkpt lat="48.06622" lon="6.55443">
        <ele>548</ele>
        <time>2018-04-28T07:57:31.000Z</time>
      </trkpt>
      <trkpt lat="48.06622" lon="6.55445">
        <ele>549</ele>
        <time>2018-04-28T07:57:32.000Z</time>
      </trkpt>
      <trkpt lat="48.06621" lon="6.55447">
        <ele>549</ele>
        <time>2018-04-28T07:57:33.000Z</time>
      </trkpt>
      <trkpt lat="48.06621" lon="6.55448">
        <ele>549</ele>
        <time>2018-04-28T07:57:34.000Z</time>
      </trkpt>
      <trkpt lat="48.06621" lon="6.55451">
        <ele>549</ele>
        <time>2018-04-28T07:57:35.000Z</time>
      </trkpt>
      <trkpt lat="48.06621" lon="6.55453">
        <ele>549</ele>
        <time>2018-04-28T07:57:36.000Z</time>
      </trkpt>
      <trkpt lat="48.06621" lon="6.55455">
        <ele>549</ele>
        <time>2018-04-28T07:57:37.000Z</time>
      </trkpt>
      <trkpt lat="48.06621" lon="6.55457">
        <ele>549</ele>
        <time>2018-04-28T07:57:38.000Z</time>
      </trkpt>
      <trkpt lat="48.06621" lon="6.55459">
        <ele>549</ele>
        <time>2018-04-28T07:57:39.000Z</time>
      </trkpt>
      <trkpt lat="48.06621" lon="6.55461">
        <ele>549</ele>
        <time>2018-04-28T07:57:40.000Z</time>
      </trkpt>
      <trkpt lat="48.06621" lon="6.55464">
        <ele>549</ele>
        <time>2018-04-28T07:57:41.000Z</time>
      </trkpt>
      <trkpt lat="48.06621" lon="6.55466">
        <ele>549</ele>
        <time>2018-04-28T07:57:42.000Z</time>
      </trkpt>
      <trkpt lat="48.06621" lon="6.55468">
        <ele>549</ele>
        <time>2018-04-28T07:57:43.000Z</time>
      </trkpt>
      <trkpt lat="48.06621" lon="6.5547">
        <ele>549</ele>
        <time>2018-04-28T07:57:44.000Z</time>
      </trkpt>
      <trkpt lat="48.06621" lon="6.55472">
        <ele>550</ele>
        <time>2018-04-28T07:57:45.000Z</time>
      </trkpt>
      <trkpt lat="48.06622" lon="6.55474">
        <ele>550</ele>
        <time>2018-04-28T07:57:46.000Z</time>
      </trkpt>
      <trkpt lat="48.06622" lon="6.55477">
        <ele>550</ele>
        <time>2018-04-28T07:57:47.000Z</time>
      </trkpt>
      <trkpt lat="48.06622" lon="6.55479">
        <ele>550</ele>
        <time>2018-04-28T07:57:48.000Z</time>
      </trkpt>
      <trkpt lat="48.06623" lon="6.55481">
        <ele>550</ele>
        <time>2018-04-28T07:57:49.000Z</time>
      </trkpt>
      <trkpt lat="48.06623" lon="6.55483">
        <ele>550</ele>
        <time>2018-04-28T07:57:50.000Z</time>
      </trkpt>
      <trkpt lat="48.06623" lon="6.55485">
        <ele>550</ele>
        <time>2018-04-28T07:57:51.000Z</time>
      </trkpt>
      <trkpt lat="48.06624" lon="6.55488">
        <ele>550</ele>
        <time>2018-04-28T07:57:52.000Z</time>
      </trkpt>
      <trkpt lat="48.06624" lon="6.5549">
        <ele>550</ele>
        <time>2018-04-28T07:57:53.000Z</time>
      </trkpt>
      <trkpt lat="48.06625" lon="6.55492">
        <ele>550</ele>
        <time>2018-04-28T07:57:54.000Z</time>
      </trkpt>
      <trkpt lat="48.06625" lon="6.55494">
        <ele>550</ele>
        <time>2018-04-28T07:57:55.000Z</time>
      </trkpt>
      <trkpt lat="48.06626" lon="6.55497">
        <ele>550</ele>
        <time>2018-04-28T07:57:56.000Z</time>
      </trkpt>
      <trkpt lat="48.06626" lon="6.55499">
        <ele>549</ele>
        <time>2018-04-28T07:57:57.000Z</time>
      </trkpt>
      <trkpt lat="48.06627" lon="6.55501">
        <ele>555</ele>
        <time>2018-04-28T07:57:58.000Z</time>
      </trkpt>
      <trkpt lat="48.06627" lon="6.55503">
        <ele>555</ele>
        <time>2018-04-28T07:57:59.000Z</time>
      </trkpt>
      <trkpt lat="48.06628" lon="6.55505">
        <ele>555</ele>
        <time>2018-04-28T07:58:00.000Z</time>
      </trkpt>
      <trkpt lat="48.06628" lon="6.55507">
        <ele>555</ele>
        <time>2018-04-28T07:58:01.000Z</time>
      </trkpt>
      <trkpt lat="48.06629" lon="6.55509">
        <ele>555</ele>
        <time>2018-04-28T07:58:02.000Z</time>
      </trkpt>
      <trkpt lat="48.06629" lon="6.55511">
        <ele>555</ele>
        <time>2018-04-28T07:58:03.000Z</time>
      </trkpt>
      <trkpt lat="48.0663" lon="6.55513">
        <ele>555</ele>
        <time>2018-04-28T07:58:04.000Z</time>
      </trkpt>
      <trkpt lat="48.06631" lon="6.55515">
        <ele>555</ele>
        <time>2018-04-28T07:58:05.000Z</time>
      </trkpt>
      <trkpt lat="48.06631" lon="6.55517">
        <ele>555</ele>
        <time>2018-04-28T07:58:06.000Z</time>
      </trkpt>
      <trkpt lat="48.06632" lon="6.55519">
        <ele>555</ele>
        <time>2018-04-28T07:58:07.000Z</time>
      </trkpt>
      <trkpt lat="48.06632" lon="6.55521">
        <ele>555</ele>
        <time>2018-04-28T07:58:08.000Z</time>
      </trkpt>
      <trkpt lat="48.06633" lon="6.55524">
        <ele>555</ele>
        <time>2018-04-28T07:58:09.000Z</time>
      </trkpt>
      <trkpt lat="48.06633" lon="6.55526">
        <ele>555</ele>
        <time>2018-04-28T07:58:10.000Z</time>
      </trkpt>
      <trkpt lat="48.06633" lon="6.55528">
        <ele>555</ele>
        <time>2018-04-28T07:58:11.000Z</time>
      </trkpt>
      <trkpt lat="48.06633" lon="6.55529">
        <ele>556</ele>
        <time>2018-04-28T07:58:12.000Z</time>
      </trkpt>
      <trkpt lat="48.06634" lon="6.55531">
        <ele>556</ele>
        <time>2018-04-28T07:58:13.000Z</time>
      </trkpt>
      <trkpt lat="48.06634" lon="6.55532">
        <ele>556</ele>
        <time>2018-04-28T07:58:14.000Z</time>
      </trkpt>
      <trkpt lat="48.06633" lon="6.55534">
        <ele>556</ele>
        <time>2018-04-28T07:58:15.000Z</time>
      </trkpt>
      <trkpt lat="48.06633" lon="6.55535">
        <ele>556</ele>
        <time>2018-04-28T07:58:16.000Z</time>
      </trkpt>
      <trkpt lat="48.06633" lon="6.55537">
        <ele>556</ele>
        <time>2018-04-28T07:58:17.000Z</time>
      </trkpt>
      <trkpt lat="48.06633" lon="6.55538">
        <ele>556</ele>
        <time>2018-04-28T07:58:18.000Z</time>
      </trkpt>
      <trkpt lat="48.06633" lon="6.55539">
        <ele>557</ele>
        <time>2018-04-28T07:58:19.000Z</time>
      </trkpt>
      <trkpt lat="48.06633" lon="6.55541">
        <ele>557</ele>
        <time>2018-04-28T07:58:20.000Z</time>
      </trkpt>
      <trkpt lat="48.06633" lon="6.55542">
        <ele>557</ele>
        <time>2018-04-28T07:58:21.000Z</time>
      </trkpt>
      <trkpt lat="48.06633" lon="6.55542">
        <ele>557</ele>
        <time>2018-04-28T07:58:22.000Z</time>
      </trkpt>
      <trkpt lat="48.06633" lon="6.55543">
        <ele>557</ele>
        <time>2018-04-28T07:58:23.000Z</time>
      </trkpt>
      <trkpt lat="48.06633" lon="6.55543">
        <ele>557</ele>
        <time>2018-04-28T07:58:24.000Z</time>
      </trkpt>
      <trkpt lat="48.06633" lon="6.55544">
        <ele>557</ele>
        <time>2018-04-28T07:58:25.000Z</time>
      </trkpt>
      <trkpt lat="48.06632" lon="6.55545">
        <ele>557</ele>
        <time>2018-04-28T07:58:26.000Z</time>
      </trkpt>
      <trkpt lat="48.06631" lon="6.55545">
        <ele>557</ele>
        <time>2018-04-28T07:58:27.000Z</time>
      </trkpt>
      <trkpt lat="48.0663" lon="6.55546">
        <ele>557</ele>
        <time>2018-04-28T07:58:28.000Z</time>
      </trkpt>
      <trkpt lat="48.06629" lon="6.55546">
        <ele>557</ele>
        <time>2018-04-28T07:58:29.000Z</time>
      </trkpt>
      <trkpt lat="48.06628" lon="6.55546">
        <ele>558</ele>
        <time>2018-04-28T07:58:30.000Z</time>
      </trkpt>
      <trkpt lat="48.06626" lon="6.55546">
        <ele>558</ele>
        <time>2018-04-28T07:58:31.000Z</time>
      </trkpt>
      <trkpt lat="48.06625" lon="6.55546">
        <ele>558</ele>
        <time>2018-04-28T07:58:32.000Z</time>
      </trkpt>
      <trkpt lat="48.06624" lon="6.55547">
        <ele>558</ele>
        <time>2018-04-28T07:58:33.000Z</time>
      </trkpt>
      <trkpt lat="48.06623" lon="6.55547">
        <ele>558</ele>
        <time>2018-04-28T07:58:34.000Z</time>
      </trkpt>
      <trkpt lat="48.06622" lon="6.55547">
        <ele>558</ele>
        <time>2018-04-28T07:58:35.000Z</time>
      </trkpt>
      <trkpt lat="48.06621" lon="6.55547">
        <ele>558</ele>
        <time>2018-04-28T07:58:36.000Z</time>
      </trkpt>
      <trkpt lat="48.06619" lon="6.55548">
        <ele>559</ele>
        <time>2018-04-28T07:58:37.000Z</time>
      </trkpt>
      <trkpt lat="48.06618" lon="6.55548">
        <ele>559</ele>
        <time>2018-04-28T07:58:38.000Z</time>
      </trkpt>
      <trkpt lat="48.06617" lon="6.55548">
        <ele>559</ele>
        <time>2018-04-28T07:58:39.000Z</time>
      </trkpt>
      <trkpt lat="48.06616" lon="6.55548">
        <ele>559</ele>
        <time>2018-04-28T07:58:40.000Z</time>
      </trkpt>
      <trkpt lat="48.06615" lon="6.55548">
        <ele>559</ele>
        <time>2018-04-28T07:58:41.000Z</time>
      </trkpt>
      <trkpt lat="48.06614" lon="6.55548">
        <ele>559</ele>
        <time>2018-04-28T07:58:42.000Z</time>
      </trkpt>
      <trkpt lat="48.06613" lon="6.55547">
        <ele>559</ele>
        <time>2018-04-28T07:58:43.000Z</time>
      </trkpt>
      <trkpt lat="48.06612" lon="6.55547">
        <ele>559</ele>
        <time>2018-04-28T07:58:44.000Z</time>
      </trkpt>
      <trkpt lat="48.06611" lon="6.55547">
        <ele>559</ele>
        <time>2018-04-28T07:58:45.000Z</time>
      </trkpt>
      <trkpt lat="48.0661" lon="6.55547">
        <ele>559</ele>
        <time>2018-04-28T07:58:46.000Z</time>
      </trkpt>
      <trkpt lat="48.06608" lon="6.55547">
        <ele>560</ele>
        <time>2018-04-28T07:58:47.000Z</time>
      </trkpt>
      <trkpt lat="48.06607" lon="6.55547">
        <ele>560</ele>
        <time>2018-04-28T07:58:48.000Z</time>
      </trkpt>
      <trkpt lat="48.06606" lon="6.55547">
        <ele>560</ele>
        <time>2018-04-28T07:58:49.000Z</time>
      </trkpt>
      <trkpt lat="48.06605" lon="6.55547">
        <ele>560</ele>
        <time>2018-04-28T07:58:50.000Z</time>
      </trkpt>
      <trkpt lat="48.06604" lon="6.55547">
        <ele>560</ele>
        <time>2018-04-28T07:58:51.000Z</time>
      </trkpt>
      <trkpt lat="48.06603" lon="6.55547">
        <ele>560</ele>
        <time>2018-04-28T07:58:52.000Z</time>
      </trkpt>
      <trkpt lat="48.06601" lon="6.55547">
        <ele>560</ele>
        <time>2018-04-28T07:58:53.000Z</time>
      </trkpt>
      <trkpt lat="48.066" lon="6.55547">
        <ele>560</ele>
        <time>2018-04-28T07:58:54.000Z</time>
      </trkpt>
      <trkpt lat="48.06599" lon="6.55547">
        <ele>560</ele>
        <time>2018-04-28T07:58:55.000Z</time>
      </trkpt>
      <trkpt lat="48.06598" lon="6.55547">
        <ele>560</ele>
        <time>2018-04-28T07:58:56.000Z</time>
      </trkpt>
      <trkpt lat="48.06597" lon="6.55547">
        <ele>561</ele>
        <time>2018-04-28T07:58:57.000Z</time>
      </trkpt>
      <trkpt lat="48.06596" lon="6.55548">
        <ele>561</ele>
        <time>2018-04-28T07:58:58.000Z</time>
      </trkpt>
      <trkpt lat="48.06595" lon="6.55548">
        <ele>561</ele>
        <time>2018-04-28T07:58:59.000Z</time>
      </trkpt>
      <trkpt lat="48.06594" lon="6.55549">
        <ele>561</ele>
        <time>2018-04-28T07:59:00.000Z</time>
      </trkpt>
      <trkpt lat="48.06593" lon="6.55549">
        <ele>561</ele>
        <time>2018-04-28T07:59:01.000Z</time>
      </trkpt>
      <trkpt lat="48.06592" lon="6.55549">
        <ele>561</ele>
        <time>2018-04-28T07:59:02.000Z</time>
      </trkpt>
      <trkpt lat="48.06591" lon="6.55549">
        <ele>561</ele>
        <time>2018-04-28T07:59:03.000Z</time>
      </trkpt>
      <trkpt lat="48.0659" lon="6.5555">
        <ele>561</ele>
        <time>2018-04-28T07:59:04.000Z</time>
      </trkpt>
      <trkpt lat="48.06589" lon="6.5555">
        <ele>561</ele>
        <time>2018-04-28T07:59:05.000Z</time>
      </trkpt>
      <trkpt lat="48.06588" lon="6.55551">
        <ele>561</ele>
        <time>2018-04-28T07:59:06.000Z</time>
      </trkpt>
      <trkpt lat="48.06587" lon="6.55551">
        <ele>562</ele>
        <time>2018-04-28T07:59:07.000Z</time>
      </trkpt>
      <trkpt lat="48.06586" lon="6.55552">
        <ele>562</ele>
        <time>2018-04-28T07:59:08.000Z</time>
      </trkpt>
      <trkpt lat="48.06585" lon="6.55553">
        <ele>562</ele>
        <time>2018-04-28T07:59:09.000Z</time>
      </trkpt>
      <trkpt lat="48.06584" lon="6.55554">
        <ele>562</ele>
        <time>2018-04-28T07:59:10.000Z</time>
      </trkpt>
      <trkpt lat="48.06583" lon="6.55555">
        <ele>570</ele>
        <time>2018-04-28T07:59:11.000Z</time>
      </trkpt>
      <trkpt lat="48.06582" lon="6.55555">
        <ele>570</ele>
        <time>2018-04-28T07:59:12.000Z</time>
      </trkpt>
      <trkpt lat="48.0658" lon="6.55556">
        <ele>570</ele>
        <time>2018-04-28T07:59:13.000Z</time>
      </trkpt>
      <trkpt lat="48.06579" lon="6.55557">
        <ele>570</ele>
        <time>2018-04-28T07:59:14.000Z</time>
      </trkpt>
      <trkpt lat="48.06578" lon="6.55558">
        <ele>570</ele>
        <time>2018-04-28T07:59:15.000Z</time>
      </trkpt>
      <trkpt lat="48.06577" lon="6.55559">
        <ele>570</ele>
        <time>2018-04-28T07:59:16.000Z</time>
      </trkpt>
      <trkpt lat="48.06576" lon="6.55559">
        <ele>570</ele>
        <time>2018-04-28T07:59:17.000Z</time>
      </trkpt>
      <trkpt lat="48.06575" lon="6.5556">
        <ele>570</ele>
        <time>2018-04-28T07:59:18.000Z</time>
      </trkpt>
      <trkpt lat="48.06574" lon="6.55561">
        <ele>571</ele>
        <time>2018-04-28T07:59:19.000Z</time>
      </trkpt>
      <trkpt lat="48.06573" lon="6.55562">
        <ele>571</ele>
        <time>2018-04-28T07:59:20.000Z</time>
      </trkpt>
      <trkpt lat="48.06572" lon="6.55563">
        <ele>571</ele>
        <time>2018-04-28T07:59:21.000Z</time>
      </trkpt>
      <trkpt lat="48.06571" lon="6.55564">
        <ele>571</ele>
        <time>2018-04-28T07:59:22.000Z</time>
      </trkpt>
      <trkpt lat="48.06571" lon="6.55564">
        <ele>571</ele>
        <time>2018-04-28T07:59:23.000Z</time>
      </trkpt>
      <trkpt lat="48.0657" lon="6.55566">
        <ele>571</ele>
        <time>2018-04-28T07:59:24.000Z</time>
      </trkpt>
      <trkpt lat="48.06569" lon="6.55567">
        <ele>571</ele>
        <time>2018-04-28T07:59:25.000Z</time>
      </trkpt>
      <trkpt lat="48.06568" lon="6.55568">
        <ele>571</ele>
        <time>2018-04-28T07:59:26.000Z</time>
      </trkpt>
      <trkpt lat="48.06568" lon="6.55569">
        <ele>571</ele>
        <time>2018-04-28T07:59:27.000Z</time>
      </trkpt>
      <trkpt lat="48.06567" lon="6.5557">
        <ele>571</ele>
        <time>2018-04-28T07:59:28.000Z</time>
      </trkpt>
      <trkpt lat="48.06567" lon="6.55571">
        <ele>571</ele>
        <time>2018-04-28T07:59:29.000Z</time>
      </trkpt>
      <trkpt lat="48.06566" lon="6.55573">
        <ele>571</ele>
        <time>2018-04-28T07:59:30.000Z</time>
      </trkpt>
      <trkpt lat="48.06565" lon="6.55574">
        <ele>571</ele>
        <time>2018-04-28T07:59:31.000Z</time>
      </trkpt>
      <trkpt lat="48.06565" lon="6.55575">
        <ele>571</ele>
        <time>2018-04-28T07:59:32.000Z</time>
      </trkpt>
      <trkpt lat="48.06565" lon="6.55576">
        <ele>571</ele>
        <time>2018-04-28T07:59:33.000Z</time>
      </trkpt>
      <trkpt lat="48.06564" lon="6.55577">
        <ele>571</ele>
        <time>2018-04-28T07:59:34.000Z</time>
      </trkpt>
      <trkpt lat="48.06563" lon="6.55579">
        <ele>571</ele>
        <time>2018-04-28T07:59:35.000Z</time>
      </trkpt>
      <trkpt lat="48.06562" lon="6.55581">
        <ele>571</ele>
        <time>2018-04-28T07:59:36.000Z</time>
      </trkpt>
      <trkpt lat="48.06561" lon="6.55583">
        <ele>571</ele>
        <time>2018-04-28T07:59:37.000Z</time>
      </trkpt>
      <trkpt lat="48.0656" lon="6.55584">
        <ele>573</ele>
        <time>2018-04-28T07:59:38.000Z</time>
      </trkpt>
      <trkpt lat="48.06559" lon="6.55586">
        <ele>573</ele>
        <time>2018-04-28T07:59:39.000Z</time>
      </trkpt>
      <trkpt lat="48.06558" lon="6.55588">
        <ele>573</ele>
        <time>2018-04-28T07:59:40.000Z</time>
      </trkpt>
      <trkpt lat="48.06558" lon="6.5559">
        <ele>574</ele>
        <time>2018-04-28T07:59:41.000Z</time>
      </trkpt>
      <trkpt lat="48.06557" lon="6.55592">
        <ele>574</ele>
        <time>2018-04-28T07:59:42.000Z</time>
      </trkpt>
      <trkpt lat="48.06556" lon="6.55594">
        <ele>574</ele>
        <time>2018-04-28T07:59:43.000Z</time>
      </trkpt>
      <trkpt lat="48.06555" lon="6.55596">
        <ele>574</ele>
        <time>2018-04-28T07:59:44.000Z</time>
      </trkpt>
      <trkpt lat="48.06554" lon="6.55598">
        <ele>574</ele>
        <time>2018-04-28T07:59:45.000Z</time>
      </trkpt>
      <trkpt lat="48.06554" lon="6.556">
        <ele>574</ele>
        <time>2018-04-28T07:59:46.000Z</time>
      </trkpt>
      <trkpt lat="48.06553" lon="6.55601">
        <ele>574</ele>
        <time>2018-04-28T07:59:47.000Z</time>
      </trkpt>
      <trkpt lat="48.06552" lon="6.55603">
        <ele>574</ele>
        <time>2018-04-28T07:59:48.000Z</time>
      </trkpt>
      <trkpt lat="48.06551" lon="6.55605">
        <ele>574</ele>
        <time>2018-04-28T07:59:49.000Z</time>
      </trkpt>
      <trkpt lat="48.06549" lon="6.55607">
        <ele>575</ele>
        <time>2018-04-28T07:59:50.000Z</time>
      </trkpt>
      <trkpt lat="48.06548" lon="6.55609">
        <ele>575</ele>
        <time>2018-04-28T07:59:51.000Z</time>
      </trkpt>
      <trkpt lat="48.06547" lon="6.55611">
        <ele>575</ele>
        <time>2018-04-28T07:59:52.000Z</time>
      </trkpt>
      <trkpt lat="48.06546" lon="6.55612">
        <ele>575</ele>
        <time>2018-04-28T07:59:53.000Z</time>
      </trkpt>
      <trkpt lat="48.06545" lon="6.55614">
        <ele>575</ele>
        <time>2018-04-28T07:59:54.000Z</time>
      </trkpt>
      <trkpt lat="48.06544" lon="6.55616">
        <ele>575</ele>
        <time>2018-04-28T07:59:55.000Z</time>
      </trkpt>
      <trkpt lat="48.06543" lon="6.55618">
        <ele>575</ele>
        <time>2018-04-28T07:59:56.000Z</time>
      </trkpt>
      <trkpt lat="48.06541" lon="6.55619">
        <ele>575</ele>
        <time>2018-04-28T07:59:57.000Z</time>
      </trkpt>
      <trkpt lat="48.0654" lon="6.55621">
        <ele>575</ele>
        <time>2018-04-28T07:59:58.000Z</time>
      </trkpt>
      <trkpt lat="48.06539" lon="6.55622">
        <ele>575</ele>
        <time>2018-04-28T07:59:59.000Z</time>
      </trkpt>
      <trkpt lat="48.06538" lon="6.55624">
        <ele>575</ele>
        <time>2018-04-28T08:00:00.000Z</time>
      </trkpt>
      <trkpt lat="48.06537" lon="6.55625">
        <ele>575</ele>
        <time>2018-04-28T08:00:01.000Z</time>
      </trkpt>
      <trkpt lat="48.06536" lon="6.55627">
        <ele>575</ele>
        <time>2018-04-28T08:00:02.000Z</time>
      </trkpt>
      <trkpt lat="48.06535" lon="6.55629">
        <ele>576</ele>
        <time>2018-04-28T08:00:03.000Z</time>
      </trkpt>
      <trkpt lat="48.06534" lon="6.5563">
        <ele>576</ele>
        <time>2018-04-28T08:00:04.000Z</time>
      </trkpt>
      <trkpt lat="48.06533" lon="6.55632">
        <ele>576</ele>
        <time>2018-04-28T08:00:05.000Z</time>
      </trkpt>
      <trkpt lat="48.06532" lon="6.55634">
        <ele>576</ele>
        <time>2018-04-28T08:00:06.000Z</time>
      </trkpt>
      <trkpt lat="48.06531" lon="6.55635">
        <ele>576</ele>
        <time>2018-04-28T08:00:07.000Z</time>
      </trkpt>
      <trkpt lat="48.0653" lon="6.55637">
        <ele>576</ele>
        <time>2018-04-28T08:00:08.000Z</time>
      </trkpt>
      <trkpt lat="48.06529" lon="6.55639">
        <ele>576</ele>
        <time>2018-04-28T08:00:09.000Z</time>
      </trkpt>
      <trkpt lat="48.06528" lon="6.5564">
        <ele>576</ele>
        <time>2018-04-28T08:00:10.000Z</time>
      </trkpt>
      <trkpt lat="48.06527" lon="6.55642">
        <ele>576</ele>
        <time>2018-04-28T08:00:11.000Z</time>
      </trkpt>
      <trkpt lat="48.06526" lon="6.55643">
        <ele>576</ele>
        <time>2018-04-28T08:00:12.000Z</time>
      </trkpt>
      <trkpt lat="48.06525" lon="6.55644">
        <ele>576</ele>
        <time>2018-04-28T08:00:13.000Z</time>
      </trkpt>
      <trkpt lat="48.06524" lon="6.55645">
        <ele>576</ele>
        <time>2018-04-28T08:00:14.000Z</time>
      </trkpt>
      <trkpt lat="48.06523" lon="6.55646">
        <ele>576</ele>
        <time>2018-04-28T08:00:15.000Z</time>
      </trkpt>
      <trkpt lat="48.06523" lon="6.55647">
        <ele>576</ele>
        <time>2018-04-28T08:00:16.000Z</time>
      </trkpt>
      <trkpt lat="48.06522" lon="6.55649">
        <ele>577</ele>
        <time>2018-04-28T08:00:17.000Z</time>
      </trkpt>
      <trkpt lat="48.06521" lon="6.5565">
        <ele>577</ele>
        <time>2018-04-28T08:00:18.000Z</time>
      </trkpt>
      <trkpt lat="48.0652" lon="6.55652">
        <ele>577</ele>
        <time>2018-04-28T08:00:19.000Z</time>
      </trkpt>
      <trkpt lat="48.06519" lon="6.55653">
        <ele>577</ele>
        <time>2018-04-28T08:00:20.000Z</time>
      </trkpt>
      <trkpt lat="48.06519" lon="6.55654">
        <ele>577</ele>
        <time>2018-04-28T08:00:21.000Z</time>
      </trkpt>
      <trkpt lat="48.06518" lon="6.55656">
        <ele>577</ele>
        <time>2018-04-28T08:00:22.000Z</time>
      </trkpt>
      <trkpt lat="48.06517" lon="6.55657">
        <ele>577</ele>
        <time>2018-04-28T08:00:23.000Z</time>
      </trkpt>
      <trkpt lat="48.06516" lon="6.55659">
        <ele>577</ele>
        <time>2018-04-28T08:00:24.000Z</time>
      </trkpt>
      <trkpt lat="48.06515" lon="6.5566">
        <ele>577</ele>
        <time>2018-04-28T08:00:25.000Z</time>
      </trkpt>
      <trkpt lat="48.06515" lon="6.55662">
        <ele>577</ele>
        <time>2018-04-28T08:00:26.000Z</time>
      </trkpt>
      <trkpt lat="48.06514" lon="6.55663">
        <ele>577</ele>
        <time>2018-04-28T08:00:27.000Z</time>
      </trkpt>
      <trkpt lat="48.06513" lon="6.55664">
        <ele>577</ele>
        <time>2018-04-28T08:00:28.000Z</time>
      </trkpt>
      <trkpt lat="48.06512" lon="6.55666">
        <ele>578</ele>
        <time>2018-04-28T08:00:29.000Z</time>
      </trkpt>
      <trkpt lat="48.06511" lon="6.55667">
        <ele>579</ele>
        <time>2018-04-28T08:00:30.000Z</time>
      </trkpt>
      <trkpt lat="48.0651" lon="6.55669">
        <ele>579</ele>
        <time>2018-04-28T08:00:31.000Z</time>
      </trkpt>
      <trkpt lat="48.0651" lon="6.5567">
        <ele>579</ele>
        <time>2018-04-28T08:00:32.000Z</time>
      </trkpt>
      <trkpt lat="48.06509" lon="6.55671">
        <ele>579</ele>
        <time>2018-04-28T08:00:33.000Z</time>
      </trkpt>
      <trkpt lat="48.06508" lon="6.55672">
        <ele>579</ele>
        <time>2018-04-28T08:00:34.000Z</time>
      </trkpt>
      <trkpt lat="48.06507" lon="6.55673">
        <ele>579</ele>
        <time>2018-04-28T08:00:35.000Z</time>
      </trkpt>
      <trkpt lat="48.06507" lon="6.55674">
        <ele>579</ele>
        <time>2018-04-28T08:00:36.000Z</time>
      </trkpt>
      <trkpt lat="48.06505" lon="6.55675">
        <ele>579</ele>
        <time>2018-04-28T08:00:37.000Z</time>
      </trkpt>
      <trkpt lat="48.06504" lon="6.55677">
        <ele>579</ele>
        <time>2018-04-28T08:00:38.000Z</time>
      </trkpt>
      <trkpt lat="48.06503" lon="6.55678">
        <ele>579</ele>
        <time>2018-04-28T08:00:39.000Z</time>
      </trkpt>
      <trkpt lat="48.06502" lon="6.55679">
        <ele>579</ele>
        <time>2018-04-28T08:00:40.000Z</time>
      </trkpt>
      <trkpt lat="48.06501" lon="6.55681">
        <ele>579</ele>
        <time>2018-04-28T08:00:41.000Z</time>
      </trkpt>
      <trkpt lat="48.06501" lon="6.55682">
        <ele>579</ele>
        <time>2018-04-28T08:00:42.000Z</time>
      </trkpt>
      <trkpt lat="48.065" lon="6.55683">
        <ele>583</ele>
        <time>2018-04-28T08:00:43.000Z</time>
      </trkpt>
      <trkpt lat="48.06499" lon="6.55684">
        <ele>583</ele>
        <time>2018-04-28T08:00:44.000Z</time>
      </trkpt>
      <trkpt lat="48.06497" lon="6.55686">
        <ele>583</ele>
        <time>2018-04-28T08:00:45.000Z</time>
      </trkpt>
      <trkpt lat="48.06496" lon="6.55687">
        <ele>583</ele>
        <time>2018-04-28T08:00:46.000Z</time>
      </trkpt>
      <trkpt lat="48.06495" lon="6.55689">
        <ele>583</ele>
        <time>2018-04-28T08:00:47.000Z</time>
      </trkpt>
      <trkpt lat="48.06493" lon="6.5569">
        <ele>584</ele>
        <time>2018-04-28T08:00:48.000Z</time>
      </trkpt>
      <trkpt lat="48.06492" lon="6.55691">
        <ele>584</ele>
        <time>2018-04-28T08:00:49.000Z</time>
      </trkpt>
      <trkpt lat="48.0649" lon="6.55693">
        <ele>584</ele>
        <time>2018-04-28T08:00:50.000Z</time>
      </trkpt>
      <trkpt lat="48.06489" lon="6.55694">
        <ele>584</ele>
        <time>2018-04-28T08:00:51.000Z</time>
      </trkpt>
      <trkpt lat="48.06488" lon="6.55695">
        <ele>584</ele>
        <time>2018-04-28T08:00:52.000Z</time>
      </trkpt>
      <trkpt lat="48.06487" lon="6.55697">
        <ele>585</ele>
        <time>2018-04-28T08:00:53.000Z</time>
      </trkpt>
      <trkpt lat="48.06486" lon="6.55698">
        <ele>585</ele>
        <time>2018-04-28T08:00:54.000Z</time>
      </trkpt>
      <trkpt lat="48.06485" lon="6.55699">
        <ele>585</ele>
        <time>2018-04-28T08:00:55.000Z</time>
      </trkpt>
      <trkpt lat="48.06483" lon="6.557">
        <ele>585</ele>
        <time>2018-04-28T08:00:56.000Z</time>
      </trkpt>
      <trkpt lat="48.06482" lon="6.55701">
        <ele>585</ele>
        <time>2018-04-28T08:00:57.000Z</time>
      </trkpt>
      <trkpt lat="48.0648" lon="6.55702">
        <ele>585</ele>
        <time>2018-04-28T08:00:58.000Z</time>
      </trkpt>
      <trkpt lat="48.06479" lon="6.55704">
        <ele>585</ele>
        <time>2018-04-28T08:00:59.000Z</time>
      </trkpt>
      <trkpt lat="48.06478" lon="6.55705">
        <ele>586</ele>
        <time>2018-04-28T08:01:00.000Z</time>
      </trkpt>
      <trkpt lat="48.06476" lon="6.55706">
        <ele>586</ele>
        <time>2018-04-28T08:01:01.000Z</time>
      </trkpt>
      <trkpt lat="48.06475" lon="6.55707">
        <ele>586</ele>
        <time>2018-04-28T08:01:02.000Z</time>
      </trkpt>
      <trkpt lat="48.06474" lon="6.55709">
        <ele>586</ele>
        <time>2018-04-28T08:01:03.000Z</time>
      </trkpt>
      <trkpt lat="48.06473" lon="6.5571">
        <ele>586</ele>
        <time>2018-04-28T08:01:04.000Z</time>
      </trkpt>
      <trkpt lat="48.06472" lon="6.55711">
        <ele>586</ele>
        <time>2018-04-28T08:01:05.000Z</time>
      </trkpt>
      <trkpt lat="48.06471" lon="6.55712">
        <ele>586</ele>
        <time>2018-04-28T08:01:06.000Z</time>
      </trkpt>
      <trkpt lat="48.06471" lon="6.55713">
        <ele>586</ele>
        <time>2018-04-28T08:01:07.000Z</time>
      </trkpt>
      <trkpt lat="48.0647" lon="6.55715">
        <ele>586</ele>
        <time>2018-04-28T08:01:08.000Z</time>
      </trkpt>
      <trkpt lat="48.06469" lon="6.55716">
        <ele>586</ele>
        <time>2018-04-28T08:01:09.000Z</time>
      </trkpt>
      <trkpt lat="48.06469" lon="6.55717">
        <ele>586</ele>
        <time>2018-04-28T08:01:10.000Z</time>
      </trkpt>
      <trkpt lat="48.06468" lon="6.55719">
        <ele>587</ele>
        <time>2018-04-28T08:01:11.000Z</time>
      </trkpt>
      <trkpt lat="48.06468" lon="6.55721">
        <ele>587</ele>
        <time>2018-04-28T08:01:12.000Z</time>
      </trkpt>
      <trkpt lat="48.06467" lon="6.55722">
        <ele>587</ele>
        <time>2018-04-28T08:01:13.000Z</time>
      </trkpt>
      <trkpt lat="48.06467" lon="6.55723">
        <ele>587</ele>
        <time>2018-04-28T08:01:14.000Z</time>
      </trkpt>
      <trkpt lat="48.06466" lon="6.55725">
        <ele>587</ele>
        <time>2018-04-28T08:01:15.000Z</time>
      </trkpt>
      <trkpt lat="48.06465" lon="6.55726">
        <ele>587</ele>
        <time>2018-04-28T08:01:16.000Z</time>
      </trkpt>
      <trkpt lat="48.06465" lon="6.55728">
        <ele>587</ele>
        <time>2018-04-28T08:01:17.000Z</time>
      </trkpt>
      <trkpt lat="48.06464" lon="6.55729">
        <ele>587</ele>
        <time>2018-04-28T08:01:18.000Z</time>
      </trkpt>
      <trkpt lat="48.06463" lon="6.55731">
        <ele>587</ele>
        <time>2018-04-28T08:01:19.000Z</time>
      </trkpt>
      <trkpt lat="48.06463" lon="6.55732">
        <ele>587</ele>
        <time>2018-04-28T08:01:20.000Z</time>
      </trkpt>
      <trkpt lat="48.06462" lon="6.55734">
        <ele>587</ele>
        <time>2018-04-28T08:01:21.000Z</time>
      </trkpt>
      <trkpt lat="48.06462" lon="6.55735">
        <ele>587</ele>
        <time>2018-04-28T08:01:22.000Z</time>
      </trkpt>
      <trkpt lat="48.06461" lon="6.55737">
        <ele>587</ele>
        <time>2018-04-28T08:01:23.000Z</time>
      </trkpt>
      <trkpt lat="48.0646" lon="6.55738">
        <ele>587</ele>
        <time>2018-04-28T08:01:24.000Z</time>
      </trkpt>
      <trkpt lat="48.06459" lon="6.5574">
        <ele>587</ele>
        <time>2018-04-28T08:01:25.000Z</time>
      </trkpt>
      <trkpt lat="48.06458" lon="6.55741">
        <ele>587</ele>
        <time>2018-04-28T08:01:26.000Z</time>
      </trkpt>
      <trkpt lat="48.06458" lon="6.55742">
        <ele>588</ele>
        <time>2018-04-28T08:01:27.000Z</time>
      </trkpt>
      <trkpt lat="48.06457" lon="6.55744">
        <ele>588</ele>
        <time>2018-04-28T08:01:28.000Z</time>
      </trkpt>
      <trkpt lat="48.06456" lon="6.55745">
        <ele>588</ele>
        <time>2018-04-28T08:01:29.000Z</time>
      </trkpt>
      <trkpt lat="48.06455" lon="6.55746">
        <ele>588</ele>
        <time>2018-04-28T08:01:30.000Z</time>
      </trkpt>
      <trkpt lat="48.06454" lon="6.55748">
        <ele>588</ele>
        <time>2018-04-28T08:01:31.000Z</time>
      </trkpt>
      <trkpt lat="48.06453" lon="6.55749">
        <ele>588</ele>
        <time>2018-04-28T08:01:32.000Z</time>
      </trkpt>
      <trkpt lat="48.06452" lon="6.55751">
        <ele>592</ele>
        <time>2018-04-28T08:01:33.000Z</time>
      </trkpt>
      <trkpt lat="48.06451" lon="6.55752">
        <ele>592</ele>
        <time>2018-04-28T08:01:34.000Z</time>
      </trkpt>
      <trkpt lat="48.0645" lon="6.55753">
        <ele>592</ele>
        <time>2018-04-28T08:01:35.000Z</time>
      </trkpt>
      <trkpt lat="48.06448" lon="6.55754">
        <ele>592</ele>
        <time>2018-04-28T08:01:36.000Z</time>
      </trkpt>
      <trkpt lat="48.06447" lon="6.55756">
        <ele>592</ele>
        <time>2018-04-28T08:01:37.000Z</time>
      </trkpt>
      <trkpt lat="48.06446" lon="6.55757">
        <ele>592</ele>
        <time>2018-04-28T08:01:38.000Z</time>
      </trkpt>
      <trkpt lat="48.06444" lon="6.55758">
        <ele>592</ele>
        <time>2018-04-28T08:01:39.000Z</time>
      </trkpt>
      <trkpt lat="48.06443" lon="6.55759">
        <ele>592</ele>
        <time>2018-04-28T08:01:40.000Z</time>
      </trkpt>
      <trkpt lat="48.06442" lon="6.5576">
        <ele>592</ele>
        <time>2018-04-28T08:01:41.000Z</time>
      </trkpt>
      <trkpt lat="48.0644" lon="6.55762">
        <ele>592</ele>
        <time>2018-04-28T08:01:42.000Z</time>
      </trkpt>
      <trkpt lat="48.06438" lon="6.55763">
        <ele>592</ele>
        <time>2018-04-28T08:01:43.000Z</time>
      </trkpt>
      <trkpt lat="48.06437" lon="6.55765">
        <ele>592</ele>
        <time>2018-04-28T08:01:44.000Z</time>
      </trkpt>
      <trkpt lat="48.06436" lon="6.55767">
        <ele>593</ele>
        <time>2018-04-28T08:01:45.000Z</time>
      </trkpt>
      <trkpt lat="48.06434" lon="6.55768">
        <ele>593</ele>
        <time>2018-04-28T08:01:46.000Z</time>
      </trkpt>
      <trkpt lat="48.06433" lon="6.55769">
        <ele>593</ele>
        <time>2018-04-28T08:01:47.000Z</time>
      </trkpt>
      <trkpt lat="48.06432" lon="6.55769">
        <ele>593</ele>
        <time>2018-04-28T08:01:48.000Z</time>
      </trkpt>
      <trkpt lat="48.06432" lon="6.5577">
        <ele>593</ele>
        <time>2018-04-28T08:01:49.000Z</time>
      </trkpt>
      <trkpt lat="48.06431" lon="6.55771">
        <ele>593</ele>
        <time>2018-04-28T08:01:50.000Z</time>
      </trkpt>
      <trkpt lat="48.0643" lon="6.55771">
        <ele>593</ele>
        <time>2018-04-28T08:01:51.000Z</time>
      </trkpt>
      <trkpt lat="48.0643" lon="6.55772">
        <ele>593</ele>
        <time>2018-04-28T08:01:52.000Z</time>
      </trkpt>
      <trkpt lat="48.06429" lon="6.55772">
        <ele>593</ele>
        <time>2018-04-28T08:01:53.000Z</time>
      </trkpt>
      <trkpt lat="48.06427" lon="6.55773">
        <ele>593</ele>
        <time>2018-04-28T08:01:54.000Z</time>
      </trkpt>
      <trkpt lat="48.06426" lon="6.55773">
        <ele>593</ele>
        <time>2018-04-28T08:01:55.000Z</time>
      </trkpt>
      <trkpt lat="48.06425" lon="6.55774">
        <ele>593</ele>
        <time>2018-04-28T08:01:56.000Z</time>
      </trkpt>
      <trkpt lat="48.06424" lon="6.55774">
        <ele>593</ele>
        <time>2018-04-28T08:01:57.000Z</time>
      </trkpt>
      <trkpt lat="48.06423" lon="6.55774">
        <ele>593</ele>
        <time>2018-04-28T08:01:58.000Z</time>
      </trkpt>
      <trkpt lat="48.06422" lon="6.55774">
        <ele>593</ele>
        <time>2018-04-28T08:01:59.000Z</time>
      </trkpt>
      <trkpt lat="48.06421" lon="6.55775">
        <ele>593</ele>
        <time>2018-04-28T08:02:00.000Z</time>
      </trkpt>
      <trkpt lat="48.0642" lon="6.55775">
        <ele>593</ele>
        <time>2018-04-28T08:02:01.000Z</time>
      </trkpt>
      <trkpt lat="48.06419" lon="6.55775">
        <ele>593</ele>
        <time>2018-04-28T08:02:02.000Z</time>
      </trkpt>
      <trkpt lat="48.06418" lon="6.55775">
        <ele>593</ele>
        <time>2018-04-28T08:02:03.000Z</time>
      </trkpt>
      <trkpt lat="48.06417" lon="6.55775">
        <ele>593</ele>
        <time>2018-04-28T08:02:04.000Z</time>
      </trkpt>
      <trkpt lat="48.06416" lon="6.55776">
        <ele>596</ele>
        <time>2018-04-28T08:02:05.000Z</time>
      </trkpt>
      <trkpt lat="48.06414" lon="6.55776">
        <ele>596</ele>
        <time>2018-04-28T08:02:06.000Z</time>
      </trkpt>
      <trkpt lat="48.06413" lon="6.55777">
        <ele>596</ele>
        <time>2018-04-28T08:02:07.000Z</time>
      </trkpt>
      <trkpt lat="48.06412" lon="6.55778">
        <ele>596</ele>
        <time>2018-04-28T08:02:08.000Z</time>
      </trkpt>
      <trkpt lat="48.06411" lon="6.55778">
        <ele>596</ele>
        <time>2018-04-28T08:02:09.000Z</time>
      </trkpt>
      <trkpt lat="48.0641" lon="6.55778">
        <ele>596</ele>
        <time>2018-04-28T08:02:10.000Z</time>
      </trkpt>
      <trkpt lat="48.06409" lon="6.55778">
        <ele>596</ele>
        <time>2018-04-28T08:02:11.000Z</time>
      </trkpt>
      <trkpt lat="48.06408" lon="6.55778">
        <ele>596</ele>
        <time>2018-04-28T08:02:12.000Z</time>
      </trkpt>
      <trkpt lat="48.06406" lon="6.55778">
        <ele>596</ele>
        <time>2018-04-28T08:02:13.000Z</time>
      </trkpt>
      <trkpt lat="48.06405" lon="6.55778">
        <ele>596</ele>
        <time>2018-04-28T08:02:14.000Z</time>
      </trkpt>
      <trkpt lat="48.06404" lon="6.55778">
        <ele>596</ele>
        <time>2018-04-28T08:02:15.000Z</time>
      </trkpt>
      <trkpt lat="48.06403" lon="6.55778">
        <ele>596</ele>
        <time>2018-04-28T08:02:16.000Z</time>
      </trkpt>
      <trkpt lat="48.06402" lon="6.55778">
        <ele>596</ele>
        <time>2018-04-28T08:02:17.000Z</time>
      </trkpt>
      <trkpt lat="48.06401" lon="6.55777">
        <ele>596</ele>
        <time>2018-04-28T08:02:18.000Z</time>
      </trkpt>
      <trkpt lat="48.064" lon="6.55777">
        <ele>596</ele>
        <time>2018-04-28T08:02:19.000Z</time>
      </trkpt>
      <trkpt lat="48.06399" lon="6.55777">
        <ele>596</ele>
        <time>2018-04-28T08:02:20.000Z</time>
      </trkpt>
      <trkpt lat="48.06397" lon="6.55777">
        <ele>597</ele>
        <time>2018-04-28T08:02:21.000Z</time>
      </trkpt>
      <trkpt lat="48.06395" lon="6.55777">
        <ele>597</ele>
        <time>2018-04-28T08:02:22.000Z</time>
      </trkpt>
      <trkpt lat="48.06394" lon="6.55777">
        <ele>597</ele>
        <time>2018-04-28T08:02:23.000Z</time>
      </trkpt>
      <trkpt lat="48.06392" lon="6.55777">
        <ele>597</ele>
        <time>2018-04-28T08:02:24.000Z</time>
      </trkpt>
      <trkpt lat="48.06391" lon="6.55777">
        <ele>597</ele>
        <time>2018-04-28T08:02:25.000Z</time>
      </trkpt>
      <trkpt lat="48.06389" lon="6.55777">
        <ele>597</ele>
        <time>2018-04-28T08:02:26.000Z</time>
      </trkpt>
      <trkpt lat="48.06388" lon="6.55778">
        <ele>597</ele>
        <time>2018-04-28T08:02:27.000Z</time>
      </trkpt>
      <trkpt lat="48.06387" lon="6.55778">
        <ele>597</ele>
        <time>2018-04-28T08:02:28.000Z</time>
      </trkpt>
      <trkpt lat="48.06385" lon="6.55778">
        <ele>597</ele>
        <time>2018-04-28T08:02:29.000Z</time>
      </trkpt>
      <trkpt lat="48.06384" lon="6.55778">
        <ele>597</ele>
        <time>2018-04-28T08:02:30.000Z</time>
      </trkpt>
      <trkpt lat="48.06383" lon="6.55778">
        <ele>597</ele>
        <time>2018-04-28T08:02:31.000Z</time>
      </trkpt>
      <trkpt lat="48.06381" lon="6.55778">
        <ele>597</ele>
        <time>2018-04-28T08:02:32.000Z</time>
      </trkpt>
      <trkpt lat="48.0638" lon="6.55778">
        <ele>597</ele>
        <time>2018-04-28T08:02:33.000Z</time>
      </trkpt>
      <trkpt lat="48.06378" lon="6.55779">
        <ele>598</ele>
        <time>2018-04-28T08:02:34.000Z</time>
      </trkpt>
      <trkpt lat="48.06377" lon="6.55779">
        <ele>598</ele>
        <time>2018-04-28T08:02:35.000Z</time>
      </trkpt>
      <trkpt lat="48.06376" lon="6.5578">
        <ele>598</ele>
        <time>2018-04-28T08:02:36.000Z</time>
      </trkpt>
      <trkpt lat="48.06375" lon="6.5578">
        <ele>598</ele>
        <time>2018-04-28T08:02:37.000Z</time>
      </trkpt>
      <trkpt lat="48.06374" lon="6.55781">
        <ele>598</ele>
        <time>2018-04-28T08:02:38.000Z</time>
      </trkpt>
      <trkpt lat="48.06372" lon="6.55781">
        <ele>598</ele>
        <time>2018-04-28T08:02:39.000Z</time>
      </trkpt>
      <trkpt lat="48.06371" lon="6.55782">
        <ele>598</ele>
        <time>2018-04-28T08:02:40.000Z</time>
      </trkpt>
      <trkpt lat="48.0637" lon="6.55782">
        <ele>598</ele>
        <time>2018-04-28T08:02:41.000Z</time>
      </trkpt>
      <trkpt lat="48.06368" lon="6.55783">
        <ele>598</ele>
        <time>2018-04-28T08:02:42.000Z</time>
      </trkpt>
      <trkpt lat="48.06367" lon="6.55784">
        <ele>598</ele>
        <time>2018-04-28T08:02:43.000Z</time>
      </trkpt>
      <trkpt lat="48.06366" lon="6.55785">
        <ele>598</ele>
        <time>2018-04-28T08:02:44.000Z</time>
      </trkpt>
      <trkpt lat="48.06364" lon="6.55785">
        <ele>598</ele>
        <time>2018-04-28T08:02:45.000Z</time>
      </trkpt>
      <trkpt lat="48.06363" lon="6.55786">
        <ele>598</ele>
        <time>2018-04-28T08:02:46.000Z</time>
      </trkpt>
      <trkpt lat="48.06362" lon="6.55787">
        <ele>598</ele>
        <time>2018-04-28T08:02:47.000Z</time>
      </trkpt>
      <trkpt lat="48.0636" lon="6.55787">
        <ele>598</ele>
        <time>2018-04-28T08:02:48.000Z</time>
      </trkpt>
      <trkpt lat="48.06359" lon="6.55788">
        <ele>598</ele>
        <time>2018-04-28T08:02:49.000Z</time>
      </trkpt>
      <trkpt lat="48.06358" lon="6.55789">
        <ele>599</ele>
        <time>2018-04-28T08:02:50.000Z</time>
      </trkpt>
      <trkpt lat="48.06356" lon="6.55789">
        <ele>599</ele>
        <time>2018-04-28T08:02:51.000Z</time>
      </trkpt>
      <trkpt lat="48.06355" lon="6.5579">
        <ele>599</ele>
        <time>2018-04-28T08:02:52.000Z</time>
      </trkpt>
      <trkpt lat="48.06354" lon="6.5579">
        <ele>599</ele>
        <time>2018-04-28T08:02:53.000Z</time>
      </trkpt>
      <trkpt lat="48.06353" lon="6.5579">
        <ele>599</ele>
        <time>2018-04-28T08:02:54.000Z</time>
      </trkpt>
      <trkpt lat="48.06351" lon="6.55791">
        <ele>599</ele>
        <time>2018-04-28T08:02:55.000Z</time>
      </trkpt>
      <trkpt lat="48.0635" lon="6.55791">
        <ele>599</ele>
        <time>2018-04-28T08:02:56.000Z</time>
      </trkpt>
      <trkpt lat="48.06349" lon="6.55792">
        <ele>599</ele>
        <time>2018-04-28T08:02:57.000Z</time>
      </trkpt>
      <trkpt lat="48.06347" lon="6.55792">
        <ele>599</ele>
        <time>2018-04-28T08:02:58.000Z</time>
      </trkpt>
      <trkpt lat="48.06346" lon="6.55793">
        <ele>599</ele>
        <time>2018-04-28T08:02:59.000Z</time>
      </trkpt>
      <trkpt lat="48.06344" lon="6.55793">
        <ele>599</ele>
        <time>2018-04-28T08:03:00.000Z</time>
      </trkpt>
      <trkpt lat="48.06342" lon="6.55794">
        <ele>599</ele>
        <time>2018-04-28T08:03:01.000Z</time>
      </trkpt>
      <trkpt lat="48.06341" lon="6.55795">
        <ele>599</ele>
        <time>2018-04-28T08:03:02.000Z</time>
      </trkpt>
      <trkpt lat="48.06339" lon="6.55795">
        <ele>599</ele>
        <time>2018-04-28T08:03:03.000Z</time>
      </trkpt>
      <trkpt lat="48.06338" lon="6.55795">
        <ele>599</ele>
        <time>2018-04-28T08:03:04.000Z</time>
      </trkpt>
      <trkpt lat="48.06336" lon="6.55796">
        <ele>599</ele>
        <time>2018-04-28T08:03:05.000Z</time>
      </trkpt>
      <trkpt lat="48.06335" lon="6.55796">
        <ele>599</ele>
        <time>2018-04-28T08:03:06.000Z</time>
      </trkpt>
      <trkpt lat="48.06333" lon="6.55797">
        <ele>602</ele>
        <time>2018-04-28T08:03:07.000Z</time>
      </trkpt>
      <trkpt lat="48.06332" lon="6.55797">
        <ele>602</ele>
        <time>2018-04-28T08:03:08.000Z</time>
      </trkpt>
      <trkpt lat="48.0633" lon="6.55797">
        <ele>602</ele>
        <time>2018-04-28T08:03:09.000Z</time>
      </trkpt>
      <trkpt lat="48.06329" lon="6.55797">
        <ele>602</ele>
        <time>2018-04-28T08:03:10.000Z</time>
      </trkpt>
      <trkpt lat="48.06327" lon="6.55798">
        <ele>602</ele>
        <time>2018-04-28T08:03:11.000Z</time>
      </trkpt>
      <trkpt lat="48.06325" lon="6.55798">
        <ele>602</ele>
        <time>2018-04-28T08:03:12.000Z</time>
      </trkpt>
      <trkpt lat="48.06324" lon="6.55798">
        <ele>602</ele>
        <time>2018-04-28T08:03:13.000Z</time>
      </trkpt>
      <trkpt lat="48.06323" lon="6.55798">
        <ele>602</ele>
        <time>2018-04-28T08:03:14.000Z</time>
      </trkpt>
      <trkpt lat="48.06321" lon="6.55799">
        <ele>602</ele>
        <time>2018-04-28T08:03:15.000Z</time>
      </trkpt>
      <trkpt lat="48.0632" lon="6.55799">
        <ele>602</ele>
        <time>2018-04-28T08:03:16.000Z</time>
      </trkpt>
      <trkpt lat="48.06318" lon="6.55799">
        <ele>602</ele>
        <time>2018-04-28T08:03:17.000Z</time>
      </trkpt>
      <trkpt lat="48.06317" lon="6.55799">
        <ele>602</ele>
        <time>2018-04-28T08:03:18.000Z</time>
      </trkpt>
      <trkpt lat="48.06315" lon="6.55799">
        <ele>602</ele>
        <time>2018-04-28T08:03:19.000Z</time>
      </trkpt>
      <trkpt lat="48.06314" lon="6.55799">
        <ele>602</ele>
        <time>2018-04-28T08:03:20.000Z</time>
      </trkpt>
      <trkpt lat="48.06312" lon="6.55799">
        <ele>602</ele>
        <time>2018-04-28T08:03:21.000Z</time>
      </trkpt>
      <trkpt lat="48.0631" lon="6.55799">
        <ele>602</ele>
        <time>2018-04-28T08:03:22.000Z</time>
      </trkpt>
      <trkpt lat="48.06309" lon="6.55799">
        <ele>602</ele>
        <time>2018-04-28T08:03:23.000Z</time>
      </trkpt>
      <trkpt lat="48.06307" lon="6.55799">
        <ele>602</ele>
        <time>2018-04-28T08:03:24.000Z</time>
      </trkpt>
      <trkpt lat="48.06305" lon="6.55799">
        <ele>602</ele>
        <time>2018-04-28T08:03:25.000Z</time>
      </trkpt>
      <trkpt lat="48.06304" lon="6.55799">
        <ele>602</ele>
        <time>2018-04-28T08:03:26.000Z</time>
      </trkpt>
      <trkpt lat="48.06302" lon="6.558">
        <ele>602</ele>
        <time>2018-04-28T08:03:27.000Z</time>
      </trkpt>
      <trkpt lat="48.063" lon="6.558">
        <ele>602</ele>
        <time>2018-04-28T08:03:28.000Z</time>
      </trkpt>
      <trkpt lat="48.06298" lon="6.558">
        <ele>602</ele>
        <time>2018-04-28T08:03:29.000Z</time>
      </trkpt>
      <trkpt lat="48.06297" lon="6.55799">
        <ele>602</ele>
        <time>2018-04-28T08:03:30.000Z</time>
      </trkpt>
      <trkpt lat="48.06295" lon="6.558">
        <ele>602</ele>
        <time>2018-04-28T08:03:31.000Z</time>
      </trkpt>
      <trkpt lat="48.06294" lon="6.558">
        <ele>602</ele>
        <time>2018-04-28T08:03:32.000Z</time>
      </trkpt>
      <trkpt lat="48.06292" lon="6.558">
        <ele>602</ele>
        <time>2018-04-28T08:03:33.000Z</time>
      </trkpt>
      <trkpt lat="48.06291" lon="6.558">
        <ele>602</ele>
        <time>2018-04-28T08:03:34.000Z</time>
      </trkpt>
      <trkpt lat="48.0629" lon="6.558">
        <ele>602</ele>
        <time>2018-04-28T08:03:35.000Z</time>
      </trkpt>
      <trkpt lat="48.06288" lon="6.55801">
        <ele>602</ele>
        <time>2018-04-28T08:03:36.000Z</time>
      </trkpt>
      <trkpt lat="48.06287" lon="6.55801">
        <ele>602</ele>
        <time>2018-04-28T08:03:37.000Z</time>
      </trkpt>
      <trkpt lat="48.06286" lon="6.55801">
        <ele>602</ele>
        <time>2018-04-28T08:03:38.000Z</time>
      </trkpt>
      <trkpt lat="48.06285" lon="6.55801">
        <ele>602</ele>
        <time>2018-04-28T08:03:39.000Z</time>
      </trkpt>
      <trkpt lat="48.06283" lon="6.55801">
        <ele>602</ele>
        <time>2018-04-28T08:03:40.000Z</time>
      </trkpt>
      <trkpt lat="48.06282" lon="6.55802">
        <ele>602</ele>
        <time>2018-04-28T08:03:41.000Z</time>
      </trkpt>
      <trkpt lat="48.06281" lon="6.55802">
        <ele>602</ele>
        <time>2018-04-28T08:03:42.000Z</time>
      </trkpt>
      <trkpt lat="48.0628" lon="6.55803">
        <ele>602</ele>
        <time>2018-04-28T08:03:43.000Z</time>
      </trkpt>
      <trkpt lat="48.06278" lon="6.55803">
        <ele>602</ele>
        <time>2018-04-28T08:03:44.000Z</time>
      </trkpt>
      <trkpt lat="48.06277" lon="6.55804">
        <ele>602</ele>
        <time>2018-04-28T08:03:45.000Z</time>
      </trkpt>
      <trkpt lat="48.06276" lon="6.55804">
        <ele>602</ele>
        <time>2018-04-28T08:03:46.000Z</time>
      </trkpt>
      <trkpt lat="48.06275" lon="6.55805">
        <ele>602</ele>
        <time>2018-04-28T08:03:47.000Z</time>
      </trkpt>
      <trkpt lat="48.06273" lon="6.55806">
        <ele>602</ele>
        <time>2018-04-28T08:03:48.000Z</time>
      </trkpt>
      <trkpt lat="48.06272" lon="6.55806">
        <ele>602</ele>
        <time>2018-04-28T08:03:49.000Z</time>
      </trkpt>
      <trkpt lat="48.06271" lon="6.55807">
        <ele>602</ele>
        <time>2018-04-28T08:03:50.000Z</time>
      </trkpt>
      <trkpt lat="48.0627" lon="6.55807">
        <ele>602</ele>
        <time>2018-04-28T08:03:51.000Z</time>
      </trkpt>
      <trkpt lat="48.06268" lon="6.55807">
        <ele>602</ele>
        <time>2018-04-28T08:03:52.000Z</time>
      </trkpt>
      <trkpt lat="48.06268" lon="6.55807">
        <ele>602</ele>
        <time>2018-04-28T08:03:53.000Z</time>
      </trkpt>
      <trkpt lat="48.06268" lon="6.55808">
        <ele>602</ele>
        <time>2018-04-28T08:03:54.000Z</time>
      </trkpt>
      <trkpt lat="48.06267" lon="6.55808">
        <ele>602</ele>
        <time>2018-04-28T08:03:55.000Z</time>
      </trkpt>
      <trkpt lat="48.06266" lon="6.55809">
        <ele>602</ele>
        <time>2018-04-28T08:03:56.000Z</time>
      </trkpt>
      <trkpt lat="48.06265" lon="6.55809">
        <ele>602</ele>
        <time>2018-04-28T08:03:57.000Z</time>
      </trkpt>
      <trkpt lat="48.06265" lon="6.55809">
        <ele>602</ele>
        <time>2018-04-28T08:03:58.000Z</time>
      </trkpt>
      <trkpt lat="48.06264" lon="6.5581">
        <ele>602</ele>
        <time>2018-04-28T08:03:59.000Z</time>
      </trkpt>
      <trkpt lat="48.06263" lon="6.5581">
        <ele>602</ele>
        <time>2018-04-28T08:04:00.000Z</time>
      </trkpt>
      <trkpt lat="48.06262" lon="6.55811">
        <ele>602</ele>
        <time>2018-04-28T08:04:01.000Z</time>
      </trkpt>
      <trkpt lat="48.06261" lon="6.55812">
        <ele>602</ele>
        <time>2018-04-28T08:04:02.000Z</time>
      </trkpt>
      <trkpt lat="48.06259" lon="6.55812">
        <ele>602</ele>
        <time>2018-04-28T08:04:03.000Z</time>
      </trkpt>
      <trkpt lat="48.06258" lon="6.55813">
        <ele>602</ele>
        <time>2018-04-28T08:04:04.000Z</time>
      </trkpt>
      <trkpt lat="48.06256" lon="6.55814">
        <ele>602</ele>
        <time>2018-04-28T08:04:05.000Z</time>
      </trkpt>
      <trkpt lat="48.06255" lon="6.55815">
        <ele>602</ele>
        <time>2018-04-28T08:04:06.000Z</time>
      </trkpt>
      <trkpt lat="48.06254" lon="6.55817">
        <ele>602</ele>
        <time>2018-04-28T08:04:07.000Z</time>
      </trkpt>
      <trkpt lat="48.06253" lon="6.55818">
        <ele>602</ele>
        <time>2018-04-28T08:04:08.000Z</time>
      </trkpt>
      <trkpt lat="48.06252" lon="6.5582">
        <ele>602</ele>
        <time>2018-04-28T08:04:09.000Z</time>
      </trkpt>
      <trkpt lat="48.06251" lon="6.55822">
        <ele>602</ele>
        <time>2018-04-28T08:04:10.000Z</time>
      </trkpt>
      <trkpt lat="48.0625" lon="6.55824">
        <ele>602</ele>
        <time>2018-04-28T08:04:11.000Z</time>
      </trkpt>
      <trkpt lat="48.06249" lon="6.55826">
        <ele>602</ele>
        <time>2018-04-28T08:04:12.000Z</time>
      </trkpt>
      <trkpt lat="48.06248" lon="6.55828">
        <ele>602</ele>
        <time>2018-04-28T08:04:13.000Z</time>
      </trkpt>
      <trkpt lat="48.06247" lon="6.5583">
        <ele>602</ele>
        <time>2018-04-28T08:04:14.000Z</time>
      </trkpt>
      <trkpt lat="48.06246" lon="6.55832">
        <ele>602</ele>
        <time>2018-04-28T08:04:15.000Z</time>
      </trkpt>
      <trkpt lat="48.06245" lon="6.55833">
        <ele>602</ele>
        <time>2018-04-28T08:04:16.000Z</time>
      </trkpt>
      <trkpt lat="48.06243" lon="6.55835">
        <ele>602</ele>
        <time>2018-04-28T08:04:17.000Z</time>
      </trkpt>
      <trkpt lat="48.06242" lon="6.55836">
        <ele>602</ele>
        <time>2018-04-28T08:04:18.000Z</time>
      </trkpt>
      <trkpt lat="48.06241" lon="6.55838">
        <ele>602</ele>
        <time>2018-04-28T08:04:19.000Z</time>
      </trkpt>
      <trkpt lat="48.0624" lon="6.5584">
        <ele>603</ele>
        <time>2018-04-28T08:04:20.000Z</time>
      </trkpt>
      <trkpt lat="48.06239" lon="6.55841">
        <ele>603</ele>
        <time>2018-04-28T08:04:21.000Z</time>
      </trkpt>
      <trkpt lat="48.06238" lon="6.55843">
        <ele>603</ele>
        <time>2018-04-28T08:04:22.000Z</time>
      </trkpt>
      <trkpt lat="48.06238" lon="6.55845">
        <ele>603</ele>
        <time>2018-04-28T08:04:23.000Z</time>
      </trkpt>
      <trkpt lat="48.06237" lon="6.55846">
        <ele>603</ele>
        <time>2018-04-28T08:04:24.000Z</time>
      </trkpt>
      <trkpt lat="48.06236" lon="6.55848">
        <ele>603</ele>
        <time>2018-04-28T08:04:25.000Z</time>
      </trkpt>
      <trkpt lat="48.06236" lon="6.5585">
        <ele>603</ele>
        <time>2018-04-28T08:04:26.000Z</time>
      </trkpt>
      <trkpt lat="48.06236" lon="6.55852">
        <ele>603</ele>
        <time>2018-04-28T08:04:27.000Z</time>
      </trkpt>
      <trkpt lat="48.06235" lon="6.55854">
        <ele>603</ele>
        <time>2018-04-28T08:04:28.000Z</time>
      </trkpt>
      <trkpt lat="48.06235" lon="6.55856">
        <ele>603</ele>
        <time>2018-04-28T08:04:29.000Z</time>
      </trkpt>
      <trkpt lat="48.06234" lon="6.55858">
        <ele>603</ele>
        <time>2018-04-28T08:04:30.000Z</time>
      </trkpt>
      <trkpt lat="48.06234" lon="6.5586">
        <ele>603</ele>
        <time>2018-04-28T08:04:31.000Z</time>
      </trkpt>
      <trkpt lat="48.06233" lon="6.55861">
        <ele>603</ele>
        <time>2018-04-28T08:04:32.000Z</time>
      </trkpt>
      <trkpt lat="48.06232" lon="6.55863">
        <ele>603</ele>
        <time>2018-04-28T08:04:33.000Z</time>
      </trkpt>
      <trkpt lat="48.06232" lon="6.55864">
        <ele>603</ele>
        <time>2018-04-28T08:04:34.000Z</time>
      </trkpt>
      <trkpt lat="48.06231" lon="6.55866">
        <ele>603</ele>
        <time>2018-04-28T08:04:35.000Z</time>
      </trkpt>
      <trkpt lat="48.06231" lon="6.55867">
        <ele>603</ele>
        <time>2018-04-28T08:04:36.000Z</time>
      </trkpt>
      <trkpt lat="48.06231" lon="6.55869">
        <ele>603</ele>
        <time>2018-04-28T08:04:37.000Z</time>
      </trkpt>
      <trkpt lat="48.06231" lon="6.55871">
        <ele>603</ele>
        <time>2018-04-28T08:04:38.000Z</time>
      </trkpt>
      <trkpt lat="48.0623" lon="6.55872">
        <ele>603</ele>
        <time>2018-04-28T08:04:39.000Z</time>
      </trkpt>
      <trkpt lat="48.0623" lon="6.55874">
        <ele>603</ele>
        <time>2018-04-28T08:04:40.000Z</time>
      </trkpt>
      <trkpt lat="48.0623" lon="6.55876">
        <ele>603</ele>
        <time>2018-04-28T08:04:41.000Z</time>
      </trkpt>
      <trkpt lat="48.0623" lon="6.55878">
        <ele>603</ele>
        <time>2018-04-28T08:04:42.000Z</time>
      </trkpt>
      <trkpt lat="48.0623" lon="6.55879">
        <ele>603</ele>
        <time>2018-04-28T08:04:43.000Z</time>
      </trkpt>
      <trkpt lat="48.0623" lon="6.55881">
        <ele>603</ele>
        <time>2018-04-28T08:04:44.000Z</time>
      </trkpt>
      <trkpt lat="48.0623" lon="6.55883">
        <ele>603</ele>
        <time>2018-04-28T08:04:45.000Z</time>
      </trkpt>
      <trkpt lat="48.0623" lon="6.55885">
        <ele>603</ele>
        <time>2018-04-28T08:04:46.000Z</time>
      </trkpt>
      <trkpt lat="48.0623" lon="6.55887">
        <ele>603</ele>
        <time>2018-04-28T08:04:47.000Z</time>
      </trkpt>
      <trkpt lat="48.0623" lon="6.55889">
        <ele>603</ele>
        <time>2018-04-28T08:04:48.000Z</time>
      </trkpt>
      <trkpt lat="48.0623" lon="6.55892">
        <ele>603</ele>
        <time>2018-04-28T08:04:49.000Z</time>
      </trkpt>
      <trkpt lat="48.06231" lon="6.55894">
        <ele>603</ele>
        <time>2018-04-28T08:04:50.000Z</time>
      </trkpt>
      <trkpt lat="48.06231" lon="6.55896">
        <ele>603</ele>
        <time>2018-04-28T08:04:51.000Z</time>
      </trkpt>
      <trkpt lat="48.06232" lon="6.55898">
        <ele>603</ele>
        <time>2018-04-28T08:04:52.000Z</time>
      </trkpt>
      <trkpt lat="48.06232" lon="6.55901">
        <ele>603</ele>
        <time>2018-04-28T08:04:53.000Z</time>
      </trkpt>
      <trkpt lat="48.06232" lon="6.55903">
        <ele>603</ele>
        <time>2018-04-28T08:04:54.000Z</time>
      </trkpt>
      <trkpt lat="48.06233" lon="6.55905">
        <ele>603</ele>
        <time>2018-04-28T08:04:55.000Z</time>
      </trkpt>
      <trkpt lat="48.06233" lon="6.55906">
        <ele>603</ele>
        <time>2018-04-28T08:04:56.000Z</time>
      </trkpt>
      <trkpt lat="48.06233" lon="6.55909">
        <ele>603</ele>
        <time>2018-04-28T08:04:57.000Z</time>
      </trkpt>
      <trkpt lat="48.06234" lon="6.55911">
        <ele>603</ele>
        <time>2018-04-28T08:04:58.000Z</time>
      </trkpt>
      <trkpt lat="48.06234" lon="6.55913">
        <ele>603</ele>
        <time>2018-04-28T08:04:59.000Z</time>
      </trkpt>
      <trkpt lat="48.06234" lon="6.55915">
        <ele>603</ele>
        <time>2018-04-28T08:05:00.000Z</time>
      </trkpt>
      <trkpt lat="48.06234" lon="6.55918">
        <ele>604</ele>
        <time>2018-04-28T08:05:01.000Z</time>
      </trkpt>
      <trkpt lat="48.06234" lon="6.5592">
        <ele>604</ele>
        <time>2018-04-28T08:05:02.000Z</time>
      </trkpt>
      <trkpt lat="48.06234" lon="6.55922">
        <ele>604</ele>
        <time>2018-04-28T08:05:03.000Z</time>
      </trkpt>
      <trkpt lat="48.06234" lon="6.55924">
        <ele>604</ele>
        <time>2018-04-28T08:05:04.000Z</time>
      </trkpt>
      <trkpt lat="48.06234" lon="6.55926">
        <ele>604</ele>
        <time>2018-04-28T08:05:05.000Z</time>
      </trkpt>
      <trkpt lat="48.06234" lon="6.55928">
        <ele>604</ele>
        <time>2018-04-28T08:05:06.000Z</time>
      </trkpt>
      <trkpt lat="48.06233" lon="6.5593">
        <ele>604</ele>
        <time>2018-04-28T08:05:07.000Z</time>
      </trkpt>
      <trkpt lat="48.06232" lon="6.55932">
        <ele>604</ele>
        <time>2018-04-28T08:05:08.000Z</time>
      </trkpt>
      <trkpt lat="48.06232" lon="6.55934">
        <ele>604</ele>
        <time>2018-04-28T08:05:09.000Z</time>
      </trkpt>
      <trkpt lat="48.06231" lon="6.55936">
        <ele>604</ele>
        <time>2018-04-28T08:05:10.000Z</time>
      </trkpt>
      <trkpt lat="48.0623" lon="6.55938">
        <ele>604</ele>
        <time>2018-04-28T08:05:11.000Z</time>
      </trkpt>
      <trkpt lat="48.0623" lon="6.5594">
        <ele>604</ele>
        <time>2018-04-28T08:05:12.000Z</time>
      </trkpt>
      <trkpt lat="48.0623" lon="6.55942">
        <ele>604</ele>
        <time>2018-04-28T08:05:13.000Z</time>
      </trkpt>
      <trkpt lat="48.06229" lon="6.55944">
        <ele>605</ele>
        <time>2018-04-28T08:05:14.000Z</time>
      </trkpt>
      <trkpt lat="48.06228" lon="6.55947">
        <ele>605</ele>
        <time>2018-04-28T08:05:15.000Z</time>
      </trkpt>
      <trkpt lat="48.06228" lon="6.55949">
        <ele>605</ele>
        <time>2018-04-28T08:05:16.000Z</time>
      </trkpt>
      <trkpt lat="48.06227" lon="6.55951">
        <ele>605</ele>
        <time>2018-04-28T08:05:17.000Z</time>
      </trkpt>
      <trkpt lat="48.06226" lon="6.55953">
        <ele>605</ele>
        <time>2018-04-28T08:05:18.000Z</time>
      </trkpt>
      <trkpt lat="48.06225" lon="6.55955">
        <ele>605</ele>
        <time>2018-04-28T08:05:19.000Z</time>
      </trkpt>
      <trkpt lat="48.06225" lon="6.55957">
        <ele>605</ele>
        <time>2018-04-28T08:05:20.000Z</time>
      </trkpt>
      <trkpt lat="48.06224" lon="6.55959">
        <ele>605</ele>
        <time>2018-04-28T08:05:21.000Z</time>
      </trkpt>
      <trkpt lat="48.06223" lon="6.55961">
        <ele>605</ele>
        <time>2018-04-28T08:05:22.000Z</time>
      </trkpt>
      <trkpt lat="48.06223" lon="6.55963">
        <ele>605</ele>
        <time>2018-04-28T08:05:23.000Z</time>
      </trkpt>
      <trkpt lat="48.06222" lon="6.55965">
        <ele>605</ele>
        <time>2018-04-28T08:05:24.000Z</time>
      </trkpt>
      <trkpt lat="48.06221" lon="6.55966">
        <ele>605</ele>
        <time>2018-04-28T08:05:25.000Z</time>
      </trkpt>
      <trkpt lat="48.06221" lon="6.55968">
        <ele>605</ele>
        <time>2018-04-28T08:05:26.000Z</time>
      </trkpt>
      <trkpt lat="48.0622" lon="6.5597">
        <ele>605</ele>
        <time>2018-04-28T08:05:27.000Z</time>
      </trkpt>
      <trkpt lat="48.06219" lon="6.55972">
        <ele>605</ele>
        <time>2018-04-28T08:05:28.000Z</time>
      </trkpt>
      <trkpt lat="48.06218" lon="6.55974">
        <ele>605</ele>
        <time>2018-04-28T08:05:29.000Z</time>
      </trkpt>
      <trkpt lat="48.06218" lon="6.55976">
        <ele>605</ele>
        <time>2018-04-28T08:05:30.000Z</time>
      </trkpt>
      <trkpt lat="48.06217" lon="6.55978">
        <ele>605</ele>
        <time>2018-04-28T08:05:31.000Z</time>
      </trkpt>
      <trkpt lat="48.06217" lon="6.5598">
        <ele>605</ele>
        <time>2018-04-28T08:05:32.000Z</time>
      </trkpt>
      <trkpt lat="48.06216" lon="6.55982">
        <ele>605</ele>
        <time>2018-04-28T08:05:33.000Z</time>
      </trkpt>
      <trkpt lat="48.06215" lon="6.55983">
        <ele>605</ele>
        <time>2018-04-28T08:05:34.000Z</time>
      </trkpt>
      <trkpt lat="48.06214" lon="6.55985">
        <ele>605</ele>
        <time>2018-04-28T08:05:35.000Z</time>
      </trkpt>
      <trkpt lat="48.06214" lon="6.55986">
        <ele>605</ele>
        <time>2018-04-28T08:05:36.000Z</time>
      </trkpt>
      <trkpt lat="48.06213" lon="6.55988">
        <ele>605</ele>
        <time>2018-04-28T08:05:37.000Z</time>
      </trkpt>
      <trkpt lat="48.06212" lon="6.5599">
        <ele>605</ele>
        <time>2018-04-28T08:05:38.000Z</time>
      </trkpt>
      <trkpt lat="48.06212" lon="6.55992">
        <ele>605</ele>
        <time>2018-04-28T08:05:39.000Z</time>
      </trkpt>
      <trkpt lat="48.06211" lon="6.55994">
        <ele>605</ele>
        <time>2018-04-28T08:05:40.000Z</time>
      </trkpt>
      <trkpt lat="48.06211" lon="6.55996">
        <ele>605</ele>
        <time>2018-04-28T08:05:41.000Z</time>
      </trkpt>
      <trkpt lat="48.0621" lon="6.55998">
        <ele>605</ele>
        <time>2018-04-28T08:05:42.000Z</time>
      </trkpt>
      <trkpt lat="48.0621" lon="6.56">
        <ele>605</ele>
        <time>2018-04-28T08:05:43.000Z</time>
      </trkpt>
      <trkpt lat="48.06209" lon="6.56002">
        <ele>607</ele>
        <time>2018-04-28T08:05:44.000Z</time>
      </trkpt>
      <trkpt lat="48.06208" lon="6.56003">
        <ele>607</ele>
        <time>2018-04-28T08:05:45.000Z</time>
      </trkpt>
      <trkpt lat="48.06208" lon="6.56005">
        <ele>607</ele>
        <time>2018-04-28T08:05:46.000Z</time>
      </trkpt>
      <trkpt lat="48.06207" lon="6.56007">
        <ele>607</ele>
        <time>2018-04-28T08:05:47.000Z</time>
      </trkpt>
      <trkpt lat="48.06207" lon="6.56009">
        <ele>607</ele>
        <time>2018-04-28T08:05:48.000Z</time>
      </trkpt>
      <trkpt lat="48.06206" lon="6.5601">
        <ele>607</ele>
        <time>2018-04-28T08:05:49.000Z</time>
      </trkpt>
      <trkpt lat="48.06205" lon="6.56012">
        <ele>607</ele>
        <time>2018-04-28T08:05:50.000Z</time>
      </trkpt>
      <trkpt lat="48.06205" lon="6.56014">
        <ele>607</ele>
        <time>2018-04-28T08:05:51.000Z</time>
      </trkpt>
      <trkpt lat="48.06204" lon="6.56016">
        <ele>607</ele>
        <time>2018-04-28T08:05:52.000Z</time>
      </trkpt>
      <trkpt lat="48.06203" lon="6.56017">
        <ele>607</ele>
        <time>2018-04-28T08:05:53.000Z</time>
      </trkpt>
      <trkpt lat="48.06202" lon="6.56019">
        <ele>607</ele>
        <time>2018-04-28T08:05:54.000Z</time>
      </trkpt>
      <trkpt lat="48.06201" lon="6.56021">
        <ele>607</ele>
        <time>2018-04-28T08:05:55.000Z</time>
      </trkpt>
      <trkpt lat="48.062" lon="6.56023">
        <ele>607</ele>
        <time>2018-04-28T08:05:56.000Z</time>
      </trkpt>
      <trkpt lat="48.06199" lon="6.56025">
        <ele>607</ele>
        <time>2018-04-28T08:05:57.000Z</time>
      </trkpt>
      <trkpt lat="48.06198" lon="6.56027">
        <ele>607</ele>
        <time>2018-04-28T08:05:58.000Z</time>
      </trkpt>
      <trkpt lat="48.06197" lon="6.56029">
        <ele>607</ele>
        <time>2018-04-28T08:05:59.000Z</time>
      </trkpt>
      <trkpt lat="48.06196" lon="6.56031">
        <ele>607</ele>
        <time>2018-04-28T08:06:00.000Z</time>
      </trkpt>
      <trkpt lat="48.06195" lon="6.56033">
        <ele>607</ele>
        <time>2018-04-28T08:06:01.000Z</time>
      </trkpt>
      <trkpt lat="48.06194" lon="6.56035">
        <ele>607</ele>
        <time>2018-04-28T08:06:02.000Z</time>
      </trkpt>
      <trkpt lat="48.06193" lon="6.56036">
        <ele>607</ele>
        <time>2018-04-28T08:06:03.000Z</time>
      </trkpt>
      <trkpt lat="48.06192" lon="6.56038">
        <ele>607</ele>
        <time>2018-04-28T08:06:04.000Z</time>
      </trkpt>
      <trkpt lat="48.06191" lon="6.5604">
        <ele>607</ele>
        <time>2018-04-28T08:06:05.000Z</time>
      </trkpt>
      <trkpt lat="48.0619" lon="6.56042">
        <ele>607</ele>
        <time>2018-04-28T08:06:06.000Z</time>
      </trkpt>
      <trkpt lat="48.06189" lon="6.56044">
        <ele>607</ele>
        <time>2018-04-28T08:06:07.000Z</time>
      </trkpt>
      <trkpt lat="48.06189" lon="6.56046">
        <ele>608</ele>
        <time>2018-04-28T08:06:08.000Z</time>
      </trkpt>
      <trkpt lat="48.06188" lon="6.56048">
        <ele>608</ele>
        <time>2018-04-28T08:06:09.000Z</time>
      </trkpt>
      <trkpt lat="48.06187" lon="6.56051">
        <ele>608</ele>
        <time>2018-04-28T08:06:10.000Z</time>
      </trkpt>
      <trkpt lat="48.06186" lon="6.56052">
        <ele>608</ele>
        <time>2018-04-28T08:06:11.000Z</time>
      </trkpt>
      <trkpt lat="48.06185" lon="6.56054">
        <ele>608</ele>
        <time>2018-04-28T08:06:12.000Z</time>
      </trkpt>
      <trkpt lat="48.06185" lon="6.56056">
        <ele>608</ele>
        <time>2018-04-28T08:06:13.000Z</time>
      </trkpt>
      <trkpt lat="48.06184" lon="6.56058">
        <ele>608</ele>
        <time>2018-04-28T08:06:14.000Z</time>
      </trkpt>
      <trkpt lat="48.06184" lon="6.5606">
        <ele>608</ele>
        <time>2018-04-28T08:06:15.000Z</time>
      </trkpt>
      <trkpt lat="48.06183" lon="6.56061">
        <ele>608</ele>
        <time>2018-04-28T08:06:16.000Z</time>
      </trkpt>
      <trkpt lat="48.06183" lon="6.56063">
        <ele>608</ele>
        <time>2018-04-28T08:06:17.000Z</time>
      </trkpt>
      <trkpt lat="48.06182" lon="6.56065">
        <ele>608</ele>
        <time>2018-04-28T08:06:18.000Z</time>
      </trkpt>
      <trkpt lat="48.06181" lon="6.56067">
        <ele>608</ele>
        <time>2018-04-28T08:06:19.000Z</time>
      </trkpt>
      <trkpt lat="48.06181" lon="6.56068">
        <ele>608</ele>
        <time>2018-04-28T08:06:20.000Z</time>
      </trkpt>
      <trkpt lat="48.0618" lon="6.5607">
        <ele>608</ele>
        <time>2018-04-28T08:06:21.000Z</time>
      </trkpt>
      <trkpt lat="48.06179" lon="6.56072">
        <ele>608</ele>
        <time>2018-04-28T08:06:22.000Z</time>
      </trkpt>
      <trkpt lat="48.06178" lon="6.56074">
        <ele>608</ele>
        <time>2018-04-28T08:06:23.000Z</time>
      </trkpt>
      <trkpt lat="48.06177" lon="6.56076">
        <ele>608</ele>
        <time>2018-04-28T08:06:24.000Z</time>
      </trkpt>
      <trkpt lat="48.06177" lon="6.56078">
        <ele>608</ele>
        <time>2018-04-28T08:06:25.000Z</time>
      </trkpt>
      <trkpt lat="48.06176" lon="6.5608">
        <ele>608</ele>
        <time>2018-04-28T08:06:26.000Z</time>
      </trkpt>
      <trkpt lat="48.06175" lon="6.56082">
        <ele>609</ele>
        <time>2018-04-28T08:06:27.000Z</time>
      </trkpt>
      <trkpt lat="48.06174" lon="6.56083">
        <ele>609</ele>
        <time>2018-04-28T08:06:28.000Z</time>
      </trkpt>
      <trkpt lat="48.06173" lon="6.56085">
        <ele>610</ele>
        <time>2018-04-28T08:06:29.000Z</time>
      </trkpt>
      <trkpt lat="48.06172" lon="6.56087">
        <ele>609</ele>
        <time>2018-04-28T08:06:30.000Z</time>
      </trkpt>
      <trkpt lat="48.06171" lon="6.56088">
        <ele>610</ele>
        <time>2018-04-28T08:06:31.000Z</time>
      </trkpt>
      <trkpt lat="48.0617" lon="6.5609">
        <ele>610</ele>
        <time>2018-04-28T08:06:32.000Z</time>
      </trkpt>
      <trkpt lat="48.06169" lon="6.56092">
        <ele>610</ele>
        <time>2018-04-28T08:06:33.000Z</time>
      </trkpt>
      <trkpt lat="48.06167" lon="6.56093">
        <ele>610</ele>
        <time>2018-04-28T08:06:34.000Z</time>
      </trkpt>
      <trkpt lat="48.06167" lon="6.56095">
        <ele>610</ele>
        <time>2018-04-28T08:06:35.000Z</time>
      </trkpt>
      <trkpt lat="48.06166" lon="6.56096">
        <ele>610</ele>
        <time>2018-04-28T08:06:36.000Z</time>
      </trkpt>
      <trkpt lat="48.06165" lon="6.56098">
        <ele>610</ele>
        <time>2018-04-28T08:06:37.000Z</time>
      </trkpt>
      <trkpt lat="48.06164" lon="6.561">
        <ele>610</ele>
        <time>2018-04-28T08:06:38.000Z</time>
      </trkpt>
      <trkpt lat="48.06163" lon="6.56102">
        <ele>610</ele>
        <time>2018-04-28T08:06:39.000Z</time>
      </trkpt>
      <trkpt lat="48.06163" lon="6.56104">
        <ele>610</ele>
        <time>2018-04-28T08:06:40.000Z</time>
      </trkpt>
      <trkpt lat="48.06162" lon="6.56106">
        <ele>610</ele>
        <time>2018-04-28T08:06:41.000Z</time>
      </trkpt>
      <trkpt lat="48.06161" lon="6.56108">
        <ele>610</ele>
        <time>2018-04-28T08:06:42.000Z</time>
      </trkpt>
      <trkpt lat="48.06161" lon="6.5611">
        <ele>610</ele>
        <time>2018-04-28T08:06:43.000Z</time>
      </trkpt>
      <trkpt lat="48.0616" lon="6.56111">
        <ele>610</ele>
        <time>2018-04-28T08:06:44.000Z</time>
      </trkpt>
      <trkpt lat="48.0616" lon="6.56113">
        <ele>611</ele>
        <time>2018-04-28T08:06:45.000Z</time>
      </trkpt>
      <trkpt lat="48.06159" lon="6.56115">
        <ele>611</ele>
        <time>2018-04-28T08:06:46.000Z</time>
      </trkpt>
      <trkpt lat="48.06159" lon="6.56117">
        <ele>611</ele>
        <time>2018-04-28T08:06:47.000Z</time>
      </trkpt>
      <trkpt lat="48.06158" lon="6.56119">
        <ele>611</ele>
        <time>2018-04-28T08:06:48.000Z</time>
      </trkpt>
      <trkpt lat="48.06158" lon="6.56121">
        <ele>611</ele>
        <time>2018-04-28T08:06:49.000Z</time>
      </trkpt>
      <trkpt lat="48.06157" lon="6.56123">
        <ele>611</ele>
        <time>2018-04-28T08:06:50.000Z</time>
      </trkpt>
      <trkpt lat="48.06157" lon="6.56125">
        <ele>611</ele>
        <time>2018-04-28T08:06:51.000Z</time>
      </trkpt>
      <trkpt lat="48.06157" lon="6.56127">
        <ele>611</ele>
        <time>2018-04-28T08:06:52.000Z</time>
      </trkpt>
      <trkpt lat="48.06157" lon="6.56128">
        <ele>611</ele>
        <time>2018-04-28T08:06:53.000Z</time>
      </trkpt>
      <trkpt lat="48.06157" lon="6.5613">
        <ele>611</ele>
        <time>2018-04-28T08:06:54.000Z</time>
      </trkpt>
      <trkpt lat="48.06157" lon="6.56132">
        <ele>611</ele>
        <time>2018-04-28T08:06:55.000Z</time>
      </trkpt>
      <trkpt lat="48.06157" lon="6.56133">
        <ele>611</ele>
        <time>2018-04-28T08:06:56.000Z</time>
      </trkpt>
      <trkpt lat="48.06157" lon="6.56135">
        <ele>611</ele>
        <time>2018-04-28T08:06:57.000Z</time>
      </trkpt>
      <trkpt lat="48.06156" lon="6.56137">
        <ele>611</ele>
        <time>2018-04-28T08:06:58.000Z</time>
      </trkpt>
      <trkpt lat="48.06156" lon="6.56139">
        <ele>611</ele>
        <time>2018-04-28T08:06:59.000Z</time>
      </trkpt>
      <trkpt lat="48.06156" lon="6.56141">
        <ele>611</ele>
        <time>2018-04-28T08:07:00.000Z</time>
      </trkpt>
      <trkpt lat="48.06156" lon="6.56144">
        <ele>611</ele>
        <time>2018-04-28T08:07:01.000Z</time>
      </trkpt>
      <trkpt lat="48.06156" lon="6.56146">
        <ele>611</ele>
        <time>2018-04-28T08:07:02.000Z</time>
      </trkpt>
      <trkpt lat="48.06156" lon="6.56148">
        <ele>611</ele>
        <time>2018-04-28T08:07:03.000Z</time>
      </trkpt>
      <trkpt lat="48.06157" lon="6.56151">
        <ele>611</ele>
        <time>2018-04-28T08:07:04.000Z</time>
      </trkpt>
      <trkpt lat="48.06157" lon="6.56153">
        <ele>611</ele>
        <time>2018-04-28T08:07:05.000Z</time>
      </trkpt>
      <trkpt lat="48.06158" lon="6.56156">
        <ele>612</ele>
        <time>2018-04-28T08:07:06.000Z</time>
      </trkpt>
      <trkpt lat="48.06158" lon="6.56159">
        <ele>612</ele>
        <time>2018-04-28T08:07:07.000Z</time>
      </trkpt>
      <trkpt lat="48.06158" lon="6.56161">
        <ele>612</ele>
        <time>2018-04-28T08:07:08.000Z</time>
      </trkpt>
      <trkpt lat="48.06159" lon="6.56164">
        <ele>612</ele>
        <time>2018-04-28T08:07:09.000Z</time>
      </trkpt>
      <trkpt lat="48.06159" lon="6.56166">
        <ele>612</ele>
        <time>2018-04-28T08:07:10.000Z</time>
      </trkpt>
      <trkpt lat="48.06159" lon="6.56169">
        <ele>612</ele>
        <time>2018-04-28T08:07:11.000Z</time>
      </trkpt>
      <trkpt lat="48.0616" lon="6.56171">
        <ele>612</ele>
        <time>2018-04-28T08:07:12.000Z</time>
      </trkpt>
      <trkpt lat="48.0616" lon="6.56173">
        <ele>612</ele>
        <time>2018-04-28T08:07:13.000Z</time>
      </trkpt>
      <trkpt lat="48.06161" lon="6.56175">
        <ele>613</ele>
        <time>2018-04-28T08:07:14.000Z</time>
      </trkpt>
      <trkpt lat="48.06162" lon="6.56177">
        <ele>613</ele>
        <time>2018-04-28T08:07:15.000Z</time>
      </trkpt>
      <trkpt lat="48.06162" lon="6.5618">
        <ele>613</ele>
        <time>2018-04-28T08:07:16.000Z</time>
      </trkpt>
      <trkpt lat="48.06162" lon="6.56182">
        <ele>613</ele>
        <time>2018-04-28T08:07:17.000Z</time>
      </trkpt>
      <trkpt lat="48.06162" lon="6.56184">
        <ele>613</ele>
        <time>2018-04-28T08:07:18.000Z</time>
      </trkpt>
      <trkpt lat="48.06162" lon="6.56186">
        <ele>613</ele>
        <time>2018-04-28T08:07:19.000Z</time>
      </trkpt>
      <trkpt lat="48.06162" lon="6.56188">
        <ele>613</ele>
        <time>2018-04-28T08:07:20.000Z</time>
      </trkpt>
      <trkpt lat="48.06163" lon="6.56191">
        <ele>613</ele>
        <time>2018-04-28T08:07:21.000Z</time>
      </trkpt>
      <trkpt lat="48.06163" lon="6.56193">
        <ele>613</ele>
        <time>2018-04-28T08:07:22.000Z</time>
      </trkpt>
      <trkpt lat="48.06163" lon="6.56195">
        <ele>613</ele>
        <time>2018-04-28T08:07:23.000Z</time>
      </trkpt>
      <trkpt lat="48.06163" lon="6.56197">
        <ele>613</ele>
        <time>2018-04-28T08:07:24.000Z</time>
      </trkpt>
      <trkpt lat="48.06163" lon="6.56199">
        <ele>613</ele>
        <time>2018-04-28T08:07:25.000Z</time>
      </trkpt>
      <trkpt lat="48.06163" lon="6.56201">
        <ele>613</ele>
        <time>2018-04-28T08:07:26.000Z</time>
      </trkpt>
      <trkpt lat="48.06163" lon="6.56203">
        <ele>613</ele>
        <time>2018-04-28T08:07:27.000Z</time>
      </trkpt>
      <trkpt lat="48.06164" lon="6.56204">
        <ele>614</ele>
        <time>2018-04-28T08:07:28.000Z</time>
      </trkpt>
      <trkpt lat="48.06164" lon="6.56206">
        <ele>614</ele>
        <time>2018-04-28T08:07:29.000Z</time>
      </trkpt>
      <trkpt lat="48.06164" lon="6.56208">
        <ele>614</ele>
        <time>2018-04-28T08:07:30.000Z</time>
      </trkpt>
      <trkpt lat="48.06165" lon="6.5621">
        <ele>614</ele>
        <time>2018-04-28T08:07:31.000Z</time>
      </trkpt>
      <trkpt lat="48.06165" lon="6.56212">
        <ele>614</ele>
        <time>2018-04-28T08:07:32.000Z</time>
      </trkpt>
      <trkpt lat="48.06165" lon="6.56215">
        <ele>614</ele>
        <time>2018-04-28T08:07:33.000Z</time>
      </trkpt>
      <trkpt lat="48.06166" lon="6.56217">
        <ele>614</ele>
        <time>2018-04-28T08:07:34.000Z</time>
      </trkpt>
      <trkpt lat="48.06167" lon="6.56219">
        <ele>614</ele>
        <time>2018-04-28T08:07:35.000Z</time>
      </trkpt>
      <trkpt lat="48.06167" lon="6.56221">
        <ele>615</ele>
        <time>2018-04-28T08:07:36.000Z</time>
      </trkpt>
      <trkpt lat="48.06168" lon="6.56224">
        <ele>616</ele>
        <time>2018-04-28T08:07:37.000Z</time>
      </trkpt>
      <trkpt lat="48.06169" lon="6.56226">
        <ele>616</ele>
        <time>2018-04-28T08:07:38.000Z</time>
      </trkpt>
      <trkpt lat="48.06169" lon="6.56229">
        <ele>616</ele>
        <time>2018-04-28T08:07:39.000Z</time>
      </trkpt>
      <trkpt lat="48.0617" lon="6.56231">
        <ele>616</ele>
        <time>2018-04-28T08:07:40.000Z</time>
      </trkpt>
      <trkpt lat="48.0617" lon="6.56234">
        <ele>616</ele>
        <time>2018-04-28T08:07:41.000Z</time>
      </trkpt>
      <trkpt lat="48.06171" lon="6.56236">
        <ele>616</ele>
        <time>2018-04-28T08:07:42.000Z</time>
      </trkpt>
      <trkpt lat="48.06172" lon="6.56238">
        <ele>616</ele>
        <time>2018-04-28T08:07:43.000Z</time>
      </trkpt>
      <trkpt lat="48.06173" lon="6.56241">
        <ele>616</ele>
        <time>2018-04-28T08:07:44.000Z</time>
      </trkpt>
      <trkpt lat="48.06173" lon="6.56243">
        <ele>616</ele>
        <time>2018-04-28T08:07:45.000Z</time>
      </trkpt>
      <trkpt lat="48.06174" lon="6.56246">
        <ele>616</ele>
        <time>2018-04-28T08:07:46.000Z</time>
      </trkpt>
      <trkpt lat="48.06175" lon="6.56248">
        <ele>616</ele>
        <time>2018-04-28T08:07:47.000Z</time>
      </trkpt>
      <trkpt lat="48.06176" lon="6.56251">
        <ele>617</ele>
        <time>2018-04-28T08:07:48.000Z</time>
      </trkpt>
      <trkpt lat="48.06176" lon="6.56253">
        <ele>617</ele>
        <time>2018-04-28T08:07:49.000Z</time>
      </trkpt>
      <trkpt lat="48.06178" lon="6.56255">
        <ele>617</ele>
        <time>2018-04-28T08:07:50.000Z</time>
      </trkpt>
      <trkpt lat="48.06178" lon="6.56258">
        <ele>617</ele>
        <time>2018-04-28T08:07:51.000Z</time>
      </trkpt>
      <trkpt lat="48.06179" lon="6.5626">
        <ele>617</ele>
        <time>2018-04-28T08:07:52.000Z</time>
      </trkpt>
      <trkpt lat="48.0618" lon="6.56262">
        <ele>617</ele>
        <time>2018-04-28T08:07:53.000Z</time>
      </trkpt>
      <trkpt lat="48.06181" lon="6.56264">
        <ele>618</ele>
        <time>2018-04-28T08:07:54.000Z</time>
      </trkpt>
      <trkpt lat="48.06182" lon="6.56267">
        <ele>618</ele>
        <time>2018-04-28T08:07:55.000Z</time>
      </trkpt>
      <trkpt lat="48.06183" lon="6.56269">
        <ele>618</ele>
        <time>2018-04-28T08:07:56.000Z</time>
      </trkpt>
      <trkpt lat="48.06184" lon="6.56272">
        <ele>618</ele>
        <time>2018-04-28T08:07:57.000Z</time>
      </trkpt>
      <trkpt lat="48.06184" lon="6.56274">
        <ele>618</ele>
        <time>2018-04-28T08:07:58.000Z</time>
      </trkpt>
      <trkpt lat="48.06185" lon="6.56276">
        <ele>618</ele>
        <time>2018-04-28T08:07:59.000Z</time>
      </trkpt>
      <trkpt lat="48.06186" lon="6.56278">
        <ele>618</ele>
        <time>2018-04-28T08:08:00.000Z</time>
      </trkpt>
      <trkpt lat="48.06186" lon="6.5628">
        <ele>618</ele>
        <time>2018-04-28T08:08:01.000Z</time>
      </trkpt>
      <trkpt lat="48.06187" lon="6.56283">
        <ele>618</ele>
        <time>2018-04-28T08:08:02.000Z</time>
      </trkpt>
      <trkpt lat="48.06188" lon="6.56285">
        <ele>618</ele>
        <time>2018-04-28T08:08:03.000Z</time>
      </trkpt>
      <trkpt lat="48.06188" lon="6.56287">
        <ele>618</ele>
        <time>2018-04-28T08:08:04.000Z</time>
      </trkpt>
      <trkpt lat="48.06189" lon="6.56289">
        <ele>618</ele>
        <time>2018-04-28T08:08:05.000Z</time>
      </trkpt>
      <trkpt lat="48.0619" lon="6.56291">
        <ele>618</ele>
        <time>2018-04-28T08:08:06.000Z</time>
      </trkpt>
      <trkpt lat="48.0619" lon="6.56293">
        <ele>619</ele>
        <time>2018-04-28T08:08:07.000Z</time>
      </trkpt>
      <trkpt lat="48.06191" lon="6.56295">
        <ele>619</ele>
        <time>2018-04-28T08:08:08.000Z</time>
      </trkpt>
      <trkpt lat="48.06191" lon="6.56297">
        <ele>619</ele>
        <time>2018-04-28T08:08:09.000Z</time>
      </trkpt>
      <trkpt lat="48.06191" lon="6.56298">
        <ele>619</ele>
        <time>2018-04-28T08:08:10.000Z</time>
      </trkpt>
      <trkpt lat="48.06191" lon="6.56299">
        <ele>619</ele>
        <time>2018-04-28T08:08:11.000Z</time>
      </trkpt>
      <trkpt lat="48.06191" lon="6.56301">
        <ele>619</ele>
        <time>2018-04-28T08:08:12.000Z</time>
      </trkpt>
      <trkpt lat="48.06191" lon="6.56303">
        <ele>619</ele>
        <time>2018-04-28T08:08:13.000Z</time>
      </trkpt>
      <trkpt lat="48.06191" lon="6.56304">
        <ele>619</ele>
        <time>2018-04-28T08:08:14.000Z</time>
      </trkpt>
      <trkpt lat="48.06191" lon="6.56306">
        <ele>619</ele>
        <time>2018-04-28T08:08:15.000Z</time>
      </trkpt>
      <trkpt lat="48.06191" lon="6.56307">
        <ele>619</ele>
        <time>2018-04-28T08:08:16.000Z</time>
      </trkpt>
      <trkpt lat="48.06191" lon="6.56309">
        <ele>619</ele>
        <time>2018-04-28T08:08:17.000Z</time>
      </trkpt>
      <trkpt lat="48.06191" lon="6.5631">
        <ele>619</ele>
        <time>2018-04-28T08:08:18.000Z</time>
      </trkpt>
      <trkpt lat="48.06191" lon="6.56311">
        <ele>619</ele>
        <time>2018-04-28T08:08:19.000Z</time>
      </trkpt>
      <trkpt lat="48.06191" lon="6.56313">
        <ele>619</ele>
        <time>2018-04-28T08:08:20.000Z</time>
      </trkpt>
      <trkpt lat="48.06192" lon="6.56314">
        <ele>619</ele>
        <time>2018-04-28T08:08:21.000Z</time>
      </trkpt>
      <trkpt lat="48.06192" lon="6.56316">
        <ele>619</ele>
        <time>2018-04-28T08:08:22.000Z</time>
      </trkpt>
      <trkpt lat="48.06192" lon="6.56318">
        <ele>619</ele>
        <time>2018-04-28T08:08:23.000Z</time>
      </trkpt>
      <trkpt lat="48.06192" lon="6.5632">
        <ele>619</ele>
        <time>2018-04-28T08:08:24.000Z</time>
      </trkpt>
      <trkpt lat="48.06192" lon="6.56322">
        <ele>619</ele>
        <time>2018-04-28T08:08:25.000Z</time>
      </trkpt>
      <trkpt lat="48.06192" lon="6.56324">
        <ele>619</ele>
        <time>2018-04-28T08:08:26.000Z</time>
      </trkpt>
      <trkpt lat="48.06192" lon="6.56326">
        <ele>619</ele>
        <time>2018-04-28T08:08:27.000Z</time>
      </trkpt>
      <trkpt lat="48.06192" lon="6.56329">
        <ele>619</ele>
        <time>2018-04-28T08:08:28.000Z</time>
      </trkpt>
      <trkpt lat="48.06192" lon="6.56331">
        <ele>619</ele>
        <time>2018-04-28T08:08:29.000Z</time>
      </trkpt>
      <trkpt lat="48.06193" lon="6.56333">
        <ele>619</ele>
        <time>2018-04-28T08:08:30.000Z</time>
      </trkpt>
      <trkpt lat="48.06193" lon="6.56335">
        <ele>620</ele>
        <time>2018-04-28T08:08:31.000Z</time>
      </trkpt>
      <trkpt lat="48.06193" lon="6.56338">
        <ele>620</ele>
        <time>2018-04-28T08:08:32.000Z</time>
      </trkpt>
      <trkpt lat="48.06193" lon="6.5634">
        <ele>620</ele>
        <time>2018-04-28T08:08:33.000Z</time>
      </trkpt>
      <trkpt lat="48.06193" lon="6.56343">
        <ele>621</ele>
        <time>2018-04-28T08:08:34.000Z</time>
      </trkpt>
      <trkpt lat="48.06194" lon="6.56345">
        <ele>621</ele>
        <time>2018-04-28T08:08:35.000Z</time>
      </trkpt>
      <trkpt lat="48.06194" lon="6.56347">
        <ele>621</ele>
        <time>2018-04-28T08:08:36.000Z</time>
      </trkpt>
      <trkpt lat="48.06194" lon="6.5635">
        <ele>621</ele>
        <time>2018-04-28T08:08:37.000Z</time>
      </trkpt>
      <trkpt lat="48.06195" lon="6.56352">
        <ele>621</ele>
        <time>2018-04-28T08:08:38.000Z</time>
      </trkpt>
      <trkpt lat="48.06195" lon="6.56355">
        <ele>621</ele>
        <time>2018-04-28T08:08:39.000Z</time>
      </trkpt>
      <trkpt lat="48.06195" lon="6.56357">
        <ele>621</ele>
        <time>2018-04-28T08:08:40.000Z</time>
      </trkpt>
      <trkpt lat="48.06195" lon="6.56359">
        <ele>621</ele>
        <time>2018-04-28T08:08:41.000Z</time>
      </trkpt>
      <trkpt lat="48.06195" lon="6.56361">
        <ele>621</ele>
        <time>2018-04-28T08:08:42.000Z</time>
      </trkpt>
      <trkpt lat="48.06195" lon="6.56363">
        <ele>621</ele>
        <time>2018-04-28T08:08:43.000Z</time>
      </trkpt>
      <trkpt lat="48.06195" lon="6.56365">
        <ele>621</ele>
        <time>2018-04-28T08:08:44.000Z</time>
      </trkpt>
      <trkpt lat="48.06194" lon="6.56367">
        <ele>621</ele>
        <time>2018-04-28T08:08:45.000Z</time>
      </trkpt>
      <trkpt lat="48.06194" lon="6.5637">
        <ele>621</ele>
        <time>2018-04-28T08:08:46.000Z</time>
      </trkpt>
      <trkpt lat="48.06194" lon="6.56371">
        <ele>621</ele>
        <time>2018-04-28T08:08:47.000Z</time>
      </trkpt>
      <trkpt lat="48.06193" lon="6.56373">
        <ele>621</ele>
        <time>2018-04-28T08:08:48.000Z</time>
      </trkpt>
      <trkpt lat="48.06193" lon="6.56375">
        <ele>621</ele>
        <time>2018-04-28T08:08:49.000Z</time>
      </trkpt>
      <trkpt lat="48.06192" lon="6.56377">
        <ele>621</ele>
        <time>2018-04-28T08:08:50.000Z</time>
      </trkpt>
      <trkpt lat="48.06192" lon="6.56378">
        <ele>621</ele>
        <time>2018-04-28T08:08:51.000Z</time>
      </trkpt>
      <trkpt lat="48.06191" lon="6.56381">
        <ele>621</ele>
        <time>2018-04-28T08:08:52.000Z</time>
      </trkpt>
      <trkpt lat="48.06191" lon="6.56383">
        <ele>621</ele>
        <time>2018-04-28T08:08:53.000Z</time>
      </trkpt>
      <trkpt lat="48.06191" lon="6.56385">
        <ele>621</ele>
        <time>2018-04-28T08:08:54.000Z</time>
      </trkpt>
      <trkpt lat="48.0619" lon="6.56387">
        <ele>621</ele>
        <time>2018-04-28T08:08:55.000Z</time>
      </trkpt>
      <trkpt lat="48.0619" lon="6.56389">
        <ele>621</ele>
        <time>2018-04-28T08:08:56.000Z</time>
      </trkpt>
      <trkpt lat="48.0619" lon="6.56391">
        <ele>621</ele>
        <time>2018-04-28T08:08:57.000Z</time>
      </trkpt>
      <trkpt lat="48.06189" lon="6.56393">
        <ele>621</ele>
        <time>2018-04-28T08:08:58.000Z</time>
      </trkpt>
      <trkpt lat="48.06188" lon="6.56396">
        <ele>621</ele>
        <time>2018-04-28T08:08:59.000Z</time>
      </trkpt>
      <trkpt lat="48.06188" lon="6.56398">
        <ele>621</ele>
        <time>2018-04-28T08:09:00.000Z</time>
      </trkpt>
      <trkpt lat="48.06187" lon="6.56399">
        <ele>621</ele>
        <time>2018-04-28T08:09:01.000Z</time>
      </trkpt>
      <trkpt lat="48.06187" lon="6.56401">
        <ele>622</ele>
        <time>2018-04-28T08:09:02.000Z</time>
      </trkpt>
      <trkpt lat="48.06186" lon="6.56403">
        <ele>622</ele>
        <time>2018-04-28T08:09:03.000Z</time>
      </trkpt>
      <trkpt lat="48.06186" lon="6.56404">
        <ele>622</ele>
        <time>2018-04-28T08:09:04.000Z</time>
      </trkpt>
      <trkpt lat="48.06185" lon="6.56406">
        <ele>622</ele>
        <time>2018-04-28T08:09:05.000Z</time>
      </trkpt>
      <trkpt lat="48.06184" lon="6.56407">
        <ele>622</ele>
        <time>2018-04-28T08:09:06.000Z</time>
      </trkpt>
      <trkpt lat="48.06184" lon="6.56408">
        <ele>622</ele>
        <time>2018-04-28T08:09:07.000Z</time>
      </trkpt>
      <trkpt lat="48.06183" lon="6.56409">
        <ele>622</ele>
        <time>2018-04-28T08:09:08.000Z</time>
      </trkpt>
      <trkpt lat="48.06183" lon="6.56411">
        <ele>622</ele>
        <time>2018-04-28T08:09:09.000Z</time>
      </trkpt>
      <trkpt lat="48.06182" lon="6.56412">
        <ele>622</ele>
        <time>2018-04-28T08:09:10.000Z</time>
      </trkpt>
      <trkpt lat="48.06181" lon="6.56414">
        <ele>622</ele>
        <time>2018-04-28T08:09:11.000Z</time>
      </trkpt>
      <trkpt lat="48.06181" lon="6.56415">
        <ele>622</ele>
        <time>2018-04-28T08:09:12.000Z</time>
      </trkpt>
      <trkpt lat="48.0618" lon="6.56417">
        <ele>622</ele>
        <time>2018-04-28T08:09:13.000Z</time>
      </trkpt>
      <trkpt lat="48.0618" lon="6.56419">
        <ele>622</ele>
        <time>2018-04-28T08:09:14.000Z</time>
      </trkpt>
      <trkpt lat="48.06179" lon="6.56421">
        <ele>622</ele>
        <time>2018-04-28T08:09:15.000Z</time>
      </trkpt>
      <trkpt lat="48.06178" lon="6.56423">
        <ele>622</ele>
        <time>2018-04-28T08:09:16.000Z</time>
      </trkpt>
      <trkpt lat="48.06177" lon="6.56424">
        <ele>622</ele>
        <time>2018-04-28T08:09:17.000Z</time>
      </trkpt>
      <trkpt lat="48.06177" lon="6.56426">
        <ele>622</ele>
        <time>2018-04-28T08:09:18.000Z</time>
      </trkpt>
      <trkpt lat="48.06176" lon="6.56428">
        <ele>622</ele>
        <time>2018-04-28T08:09:19.000Z</time>
      </trkpt>
      <trkpt lat="48.06175" lon="6.56429">
        <ele>622</ele>
        <time>2018-04-28T08:09:20.000Z</time>
      </trkpt>
      <trkpt lat="48.06175" lon="6.56431">
        <ele>622</ele>
        <time>2018-04-28T08:09:21.000Z</time>
      </trkpt>
      <trkpt lat="48.06174" lon="6.56433">
        <ele>622</ele>
        <time>2018-04-28T08:09:22.000Z</time>
      </trkpt>
      <trkpt lat="48.06173" lon="6.56434">
        <ele>622</ele>
        <time>2018-04-28T08:09:23.000Z</time>
      </trkpt>
      <trkpt lat="48.06172" lon="6.56436">
        <ele>622</ele>
        <time>2018-04-28T08:09:24.000Z</time>
      </trkpt>
      <trkpt lat="48.06171" lon="6.56438">
        <ele>622</ele>
        <time>2018-04-28T08:09:25.000Z</time>
      </trkpt>
      <trkpt lat="48.0617" lon="6.56439">
        <ele>621</ele>
        <time>2018-04-28T08:09:26.000Z</time>
      </trkpt>
      <trkpt lat="48.06169" lon="6.56441">
        <ele>621</ele>
        <time>2018-04-28T08:09:27.000Z</time>
      </trkpt>
      <trkpt lat="48.06168" lon="6.56443">
        <ele>621</ele>
        <time>2018-04-28T08:09:28.000Z</time>
      </trkpt>
      <trkpt lat="48.06167" lon="6.56445">
        <ele>621</ele>
        <time>2018-04-28T08:09:29.000Z</time>
      </trkpt>
      <trkpt lat="48.06167" lon="6.56446">
        <ele>620</ele>
        <time>2018-04-28T08:09:30.000Z</time>
      </trkpt>
      <trkpt lat="48.06166" lon="6.56448">
        <ele>620</ele>
        <time>2018-04-28T08:09:31.000Z</time>
      </trkpt>
      <trkpt lat="48.06165" lon="6.5645">
        <ele>620</ele>
        <time>2018-04-28T08:09:32.000Z</time>
      </trkpt>
      <trkpt lat="48.06164" lon="6.56452">
        <ele>620</ele>
        <time>2018-04-28T08:09:33.000Z</time>
      </trkpt>
      <trkpt lat="48.06163" lon="6.56453">
        <ele>620</ele>
        <time>2018-04-28T08:09:34.000Z</time>
      </trkpt>
      <trkpt lat="48.06163" lon="6.56455">
        <ele>619</ele>
        <time>2018-04-28T08:09:35.000Z</time>
      </trkpt>
      <trkpt lat="48.06162" lon="6.56457">
        <ele>619</ele>
        <time>2018-04-28T08:09:36.000Z</time>
      </trkpt>
      <trkpt lat="48.06162" lon="6.56458">
        <ele>619</ele>
        <time>2018-04-28T08:09:37.000Z</time>
      </trkpt>
      <trkpt lat="48.06161" lon="6.5646">
        <ele>619</ele>
        <time>2018-04-28T08:09:38.000Z</time>
      </trkpt>
      <trkpt lat="48.06161" lon="6.56461">
        <ele>619</ele>
        <time>2018-04-28T08:09:39.000Z</time>
      </trkpt>
      <trkpt lat="48.0616" lon="6.56463">
        <ele>619</ele>
        <time>2018-04-28T08:09:40.000Z</time>
      </trkpt>
      <trkpt lat="48.06159" lon="6.56464">
        <ele>619</ele>
        <time>2018-04-28T08:09:41.000Z</time>
      </trkpt>
      <trkpt lat="48.06159" lon="6.56465">
        <ele>619</ele>
        <time>2018-04-28T08:09:42.000Z</time>
      </trkpt>
      <trkpt lat="48.06158" lon="6.56467">
        <ele>619</ele>
        <time>2018-04-28T08:09:43.000Z</time>
      </trkpt>
      <trkpt lat="48.06157" lon="6.56468">
        <ele>619</ele>
        <time>2018-04-28T08:09:44.000Z</time>
      </trkpt>
      <trkpt lat="48.06157" lon="6.56469">
        <ele>619</ele>
        <time>2018-04-28T08:09:45.000Z</time>
      </trkpt>
      <trkpt lat="48.06156" lon="6.56471">
        <ele>619</ele>
        <time>2018-04-28T08:09:46.000Z</time>
      </trkpt>
      <trkpt lat="48.06155" lon="6.56473">
        <ele>619</ele>
        <time>2018-04-28T08:09:47.000Z</time>
      </trkpt>
      <trkpt lat="48.06155" lon="6.56474">
        <ele>619</ele>
        <time>2018-04-28T08:09:48.000Z</time>
      </trkpt>
      <trkpt lat="48.06154" lon="6.56476">
        <ele>619</ele>
        <time>2018-04-28T08:09:49.000Z</time>
      </trkpt>
      <trkpt lat="48.06153" lon="6.56478">
        <ele>619</ele>
        <time>2018-04-28T08:09:50.000Z</time>
      </trkpt>
      <trkpt lat="48.06153" lon="6.5648">
        <ele>619</ele>
        <time>2018-04-28T08:09:51.000Z</time>
      </trkpt>
      <trkpt lat="48.06152" lon="6.56481">
        <ele>619</ele>
        <time>2018-04-28T08:09:52.000Z</time>
      </trkpt>
      <trkpt lat="48.06151" lon="6.56483">
        <ele>619</ele>
        <time>2018-04-28T08:09:53.000Z</time>
      </trkpt>
      <trkpt lat="48.0615" lon="6.56485">
        <ele>619</ele>
        <time>2018-04-28T08:09:54.000Z</time>
      </trkpt>
      <trkpt lat="48.0615" lon="6.56487">
        <ele>618</ele>
        <time>2018-04-28T08:09:55.000Z</time>
      </trkpt>
      <trkpt lat="48.06149" lon="6.56488">
        <ele>618</ele>
        <time>2018-04-28T08:09:56.000Z</time>
      </trkpt>
      <trkpt lat="48.06148" lon="6.56489">
        <ele>618</ele>
        <time>2018-04-28T08:09:57.000Z</time>
      </trkpt>
      <trkpt lat="48.06147" lon="6.56491">
        <ele>618</ele>
        <time>2018-04-28T08:09:58.000Z</time>
      </trkpt>
      <trkpt lat="48.06147" lon="6.56492">
        <ele>618</ele>
        <time>2018-04-28T08:09:59.000Z</time>
      </trkpt>
      <trkpt lat="48.06146" lon="6.56494">
        <ele>618</ele>
        <time>2018-04-28T08:10:00.000Z</time>
      </trkpt>
      <trkpt lat="48.06145" lon="6.56495">
        <ele>618</ele>
        <time>2018-04-28T08:10:01.000Z</time>
      </trkpt>
      <trkpt lat="48.06144" lon="6.56496">
        <ele>618</ele>
        <time>2018-04-28T08:10:02.000Z</time>
      </trkpt>
      <trkpt lat="48.06143" lon="6.56498">
        <ele>618</ele>
        <time>2018-04-28T08:10:03.000Z</time>
      </trkpt>
      <trkpt lat="48.06142" lon="6.56499">
        <ele>618</ele>
        <time>2018-04-28T08:10:04.000Z</time>
      </trkpt>
      <trkpt lat="48.06142" lon="6.565">
        <ele>618</ele>
        <time>2018-04-28T08:10:05.000Z</time>
      </trkpt>
      <trkpt lat="48.06141" lon="6.56501">
        <ele>615</ele>
        <time>2018-04-28T08:10:06.000Z</time>
      </trkpt>
      <trkpt lat="48.06141" lon="6.56502">
        <ele>615</ele>
        <time>2018-04-28T08:10:07.000Z</time>
      </trkpt>
      <trkpt lat="48.0614" lon="6.56503">
        <ele>615</ele>
        <time>2018-04-28T08:10:08.000Z</time>
      </trkpt>
      <trkpt lat="48.0614" lon="6.56504">
        <ele>615</ele>
        <time>2018-04-28T08:10:09.000Z</time>
      </trkpt>
      <trkpt lat="48.06139" lon="6.56506">
        <ele>615</ele>
        <time>2018-04-28T08:10:10.000Z</time>
      </trkpt>
      <trkpt lat="48.06138" lon="6.56507">
        <ele>615</ele>
        <time>2018-04-28T08:10:11.000Z</time>
      </trkpt>
      <trkpt lat="48.06137" lon="6.56508">
        <ele>615</ele>
        <time>2018-04-28T08:10:12.000Z</time>
      </trkpt>
      <trkpt lat="48.06136" lon="6.56509">
        <ele>615</ele>
        <time>2018-04-28T08:10:13.000Z</time>
      </trkpt>
      <trkpt lat="48.06136" lon="6.5651">
        <ele>615</ele>
        <time>2018-04-28T08:10:14.000Z</time>
      </trkpt>
      <trkpt lat="48.06135" lon="6.56511">
        <ele>614</ele>
        <time>2018-04-28T08:10:15.000Z</time>
      </trkpt>
      <trkpt lat="48.06134" lon="6.56512">
        <ele>614</ele>
        <time>2018-04-28T08:10:16.000Z</time>
      </trkpt>
      <trkpt lat="48.06134" lon="6.56514">
        <ele>614</ele>
        <time>2018-04-28T08:10:17.000Z</time>
      </trkpt>
      <trkpt lat="48.06133" lon="6.56515">
        <ele>614</ele>
        <time>2018-04-28T08:10:18.000Z</time>
      </trkpt>
      <trkpt lat="48.06132" lon="6.56517">
        <ele>614</ele>
        <time>2018-04-28T08:10:19.000Z</time>
      </trkpt>
      <trkpt lat="48.06131" lon="6.56518">
        <ele>614</ele>
        <time>2018-04-28T08:10:20.000Z</time>
      </trkpt>
      <trkpt lat="48.0613" lon="6.56519">
        <ele>614</ele>
        <time>2018-04-28T08:10:21.000Z</time>
      </trkpt>
      <trkpt lat="48.0613" lon="6.56521">
        <ele>614</ele>
        <time>2018-04-28T08:10:22.000Z</time>
      </trkpt>
      <trkpt lat="48.06129" lon="6.56522">
        <ele>614</ele>
        <time>2018-04-28T08:10:23.000Z</time>
      </trkpt>
      <trkpt lat="48.06128" lon="6.56523">
        <ele>614</ele>
        <time>2018-04-28T08:10:24.000Z</time>
      </trkpt>
      <trkpt lat="48.06127" lon="6.56523">
        <ele>614</ele>
        <time>2018-04-28T08:10:25.000Z</time>
      </trkpt>
      <trkpt lat="48.06125" lon="6.56525">
        <ele>614</ele>
        <time>2018-04-28T08:10:26.000Z</time>
      </trkpt>
      <trkpt lat="48.06124" lon="6.56526">
        <ele>614</ele>
        <time>2018-04-28T08:10:27.000Z</time>
      </trkpt>
      <trkpt lat="48.06122" lon="6.56527">
        <ele>614</ele>
        <time>2018-04-28T08:10:28.000Z</time>
      </trkpt>
      <trkpt lat="48.06121" lon="6.56528">
        <ele>613</ele>
        <time>2018-04-28T08:10:29.000Z</time>
      </trkpt>
      <trkpt lat="48.06119" lon="6.56529">
        <ele>613</ele>
        <time>2018-04-28T08:10:30.000Z</time>
      </trkpt>
      <trkpt lat="48.06118" lon="6.5653">
        <ele>613</ele>
        <time>2018-04-28T08:10:31.000Z</time>
      </trkpt>
      <trkpt lat="48.06116" lon="6.56532">
        <ele>613</ele>
        <time>2018-04-28T08:10:32.000Z</time>
      </trkpt>
      <trkpt lat="48.06115" lon="6.56533">
        <ele>613</ele>
        <time>2018-04-28T08:10:33.000Z</time>
      </trkpt>
      <trkpt lat="48.06114" lon="6.56535">
        <ele>613</ele>
        <time>2018-04-28T08:10:34.000Z</time>
      </trkpt>
      <trkpt lat="48.06112" lon="6.56536">
        <ele>613</ele>
        <time>2018-04-28T08:10:35.000Z</time>
      </trkpt>
      <trkpt lat="48.06111" lon="6.56537">
        <ele>613</ele>
        <time>2018-04-28T08:10:36.000Z</time>
      </trkpt>
      <trkpt lat="48.0611" lon="6.56538">
        <ele>613</ele>
        <time>2018-04-28T08:10:37.000Z</time>
      </trkpt>
      <trkpt lat="48.06108" lon="6.56539">
        <ele>613</ele>
        <time>2018-04-28T08:10:38.000Z</time>
      </trkpt>
      <trkpt lat="48.06107" lon="6.5654">
        <ele>613</ele>
        <time>2018-04-28T08:10:39.000Z</time>
      </trkpt>
      <trkpt lat="48.06106" lon="6.56541">
        <ele>613</ele>
        <time>2018-04-28T08:10:40.000Z</time>
      </trkpt>
      <trkpt lat="48.06104" lon="6.56542">
        <ele>612</ele>
        <time>2018-04-28T08:10:41.000Z</time>
      </trkpt>
      <trkpt lat="48.06103" lon="6.56544">
        <ele>612</ele>
        <time>2018-04-28T08:10:42.000Z</time>
      </trkpt>
      <trkpt lat="48.06101" lon="6.56545">
        <ele>612</ele>
        <time>2018-04-28T08:10:43.000Z</time>
      </trkpt>
      <trkpt lat="48.061" lon="6.56546">
        <ele>612</ele>
        <time>2018-04-28T08:10:44.000Z</time>
      </trkpt>
      <trkpt lat="48.06098" lon="6.56547">
        <ele>612</ele>
        <time>2018-04-28T08:10:45.000Z</time>
      </trkpt>
      <trkpt lat="48.06097" lon="6.56548">
        <ele>612</ele>
        <time>2018-04-28T08:10:46.000Z</time>
      </trkpt>
      <trkpt lat="48.06095" lon="6.56548">
        <ele>612</ele>
        <time>2018-04-28T08:10:47.000Z</time>
      </trkpt>
      <trkpt lat="48.06094" lon="6.56549">
        <ele>612</ele>
        <time>2018-04-28T08:10:48.000Z</time>
      </trkpt>
      <trkpt lat="48.06092" lon="6.5655">
        <ele>612</ele>
        <time>2018-04-28T08:10:49.000Z</time>
      </trkpt>
      <trkpt lat="48.06091" lon="6.56551">
        <ele>612</ele>
        <time>2018-04-28T08:10:50.000Z</time>
      </trkpt>
      <trkpt lat="48.06089" lon="6.56552">
        <ele>612</ele>
        <time>2018-04-28T08:10:51.000Z</time>
      </trkpt>
      <trkpt lat="48.06088" lon="6.56553">
        <ele>611</ele>
        <time>2018-04-28T08:10:52.000Z</time>
      </trkpt>
      <trkpt lat="48.06086" lon="6.56554">
        <ele>611</ele>
        <time>2018-04-28T08:10:53.000Z</time>
      </trkpt>
      <trkpt lat="48.06085" lon="6.56554">
        <ele>611</ele>
        <time>2018-04-28T08:10:54.000Z</time>
      </trkpt>
      <trkpt lat="48.06083" lon="6.56555">
        <ele>610</ele>
        <time>2018-04-28T08:10:55.000Z</time>
      </trkpt>
      <trkpt lat="48.06082" lon="6.56557">
        <ele>609</ele>
        <time>2018-04-28T08:10:56.000Z</time>
      </trkpt>
      <trkpt lat="48.06081" lon="6.56558">
        <ele>609</ele>
        <time>2018-04-28T08:10:57.000Z</time>
      </trkpt>
      <trkpt lat="48.06079" lon="6.56559">
        <ele>609</ele>
        <time>2018-04-28T08:10:58.000Z</time>
      </trkpt>
      <trkpt lat="48.06078" lon="6.56559">
        <ele>609</ele>
        <time>2018-04-28T08:10:59.000Z</time>
      </trkpt>
      <trkpt lat="48.06077" lon="6.5656">
        <ele>609</ele>
        <time>2018-04-28T08:11:00.000Z</time>
      </trkpt>
      <trkpt lat="48.06076" lon="6.56561">
        <ele>609</ele>
        <time>2018-04-28T08:11:01.000Z</time>
      </trkpt>
      <trkpt lat="48.06075" lon="6.56561">
        <ele>609</ele>
        <time>2018-04-28T08:11:02.000Z</time>
      </trkpt>
      <trkpt lat="48.06074" lon="6.56562">
        <ele>609</ele>
        <time>2018-04-28T08:11:03.000Z</time>
      </trkpt>
      <trkpt lat="48.06073" lon="6.56563">
        <ele>609</ele>
        <time>2018-04-28T08:11:04.000Z</time>
      </trkpt>
      <trkpt lat="48.06071" lon="6.56563">
        <ele>609</ele>
        <time>2018-04-28T08:11:05.000Z</time>
      </trkpt>
      <trkpt lat="48.0607" lon="6.56564">
        <ele>609</ele>
        <time>2018-04-28T08:11:06.000Z</time>
      </trkpt>
      <trkpt lat="48.06069" lon="6.56565">
        <ele>609</ele>
        <time>2018-04-28T08:11:07.000Z</time>
      </trkpt>
      <trkpt lat="48.06068" lon="6.56566">
        <ele>609</ele>
        <time>2018-04-28T08:11:08.000Z</time>
      </trkpt>
      <trkpt lat="48.06067" lon="6.56567">
        <ele>609</ele>
        <time>2018-04-28T08:11:09.000Z</time>
      </trkpt>
      <trkpt lat="48.06066" lon="6.56568">
        <ele>609</ele>
        <time>2018-04-28T08:11:10.000Z</time>
      </trkpt>
      <trkpt lat="48.06065" lon="6.5657">
        <ele>609</ele>
        <time>2018-04-28T08:11:11.000Z</time>
      </trkpt>
      <trkpt lat="48.06064" lon="6.56571">
        <ele>609</ele>
        <time>2018-04-28T08:11:12.000Z</time>
      </trkpt>
      <trkpt lat="48.06062" lon="6.56573">
        <ele>609</ele>
        <time>2018-04-28T08:11:13.000Z</time>
      </trkpt>
      <trkpt lat="48.06061" lon="6.56575">
        <ele>609</ele>
        <time>2018-04-28T08:11:14.000Z</time>
      </trkpt>
      <trkpt lat="48.0606" lon="6.56577">
        <ele>609</ele>
        <time>2018-04-28T08:11:15.000Z</time>
      </trkpt>
      <trkpt lat="48.06059" lon="6.56579">
        <ele>609</ele>
        <time>2018-04-28T08:11:16.000Z</time>
      </trkpt>
      <trkpt lat="48.06059" lon="6.56581">
        <ele>609</ele>
        <time>2018-04-28T08:11:17.000Z</time>
      </trkpt>
      <trkpt lat="48.06058" lon="6.56582">
        <ele>609</ele>
        <time>2018-04-28T08:11:18.000Z</time>
      </trkpt>
      <trkpt lat="48.06058" lon="6.56584">
        <ele>604</ele>
        <time>2018-04-28T08:11:19.000Z</time>
      </trkpt>
      <trkpt lat="48.06058" lon="6.56585">
        <ele>604</ele>
        <time>2018-04-28T08:11:20.000Z</time>
      </trkpt>
      <trkpt lat="48.06057" lon="6.56585">
        <ele>603</ele>
        <time>2018-04-28T08:11:21.000Z</time>
      </trkpt>
      <trkpt lat="48.06057" lon="6.56586">
        <ele>603</ele>
        <time>2018-04-28T08:11:22.000Z</time>
      </trkpt>
      <trkpt lat="48.06057" lon="6.56586">
        <ele>603</ele>
        <time>2018-04-28T08:11:23.000Z</time>
      </trkpt>
      <trkpt lat="48.06053" lon="6.56585">
        <ele>603</ele>
        <time>2018-04-28T08:11:24.000Z</time>
      </trkpt>
      <trkpt lat="48.06053" lon="6.56585">
        <ele>603</ele>
        <time>2018-04-28T08:11:25.000Z</time>
      </trkpt>
      <trkpt lat="48.06052" lon="6.56584">
        <ele>603</ele>
        <time>2018-04-28T08:11:26.000Z</time>
      </trkpt>
      <trkpt lat="48.06052" lon="6.56583">
        <ele>609</ele>
        <time>2018-04-28T08:11:27.000Z</time>
      </trkpt>
      <trkpt lat="48.06052" lon="6.56582">
        <ele>609</ele>
        <time>2018-04-28T08:11:28.000Z</time>
      </trkpt>
      <trkpt lat="48.06051" lon="6.56581">
        <ele>609</ele>
        <time>2018-04-28T08:11:29.000Z</time>
      </trkpt>
      <trkpt lat="48.0605" lon="6.56579">
        <ele>609</ele>
        <time>2018-04-28T08:11:30.000Z</time>
      </trkpt>
      <trkpt lat="48.06049" lon="6.56578">
        <ele>609</ele>
        <time>2018-04-28T08:11:31.000Z</time>
      </trkpt>
      <trkpt lat="48.06049" lon="6.56576">
        <ele>609</ele>
        <time>2018-04-28T08:11:32.000Z</time>
      </trkpt>
      <trkpt lat="48.06048" lon="6.56575">
        <ele>609</ele>
        <time>2018-04-28T08:11:33.000Z</time>
      </trkpt>
      <trkpt lat="48.06048" lon="6.56574">
        <ele>609</ele>
        <time>2018-04-28T08:11:34.000Z</time>
      </trkpt>
      <trkpt lat="48.06048" lon="6.56574">
        <ele>609</ele>
        <time>2018-04-28T08:11:35.000Z</time>
      </trkpt>
      <trkpt lat="48.06048" lon="6.56573">
        <ele>609</ele>
        <time>2018-04-28T08:11:36.000Z</time>
      </trkpt>
      <trkpt lat="48.06047" lon="6.56573">
        <ele>609</ele>
        <time>2018-04-28T08:11:37.000Z</time>
      </trkpt>
      <trkpt lat="48.06047" lon="6.56573">
        <ele>609</ele>
        <time>2018-04-28T08:11:38.000Z</time>
      </trkpt>
      <trkpt lat="48.06047" lon="6.56573">
        <ele>609</ele>
        <time>2018-04-28T08:11:39.000Z</time>
      </trkpt>
      <trkpt lat="48.06034" lon="6.56569">
        <ele>609</ele>
        <time>2018-04-28T08:11:40.000Z</time>
      </trkpt>
      <trkpt lat="48.06034" lon="6.56568">
        <ele>609</ele>
        <time>2018-04-28T08:11:41.000Z</time>
      </trkpt>
      <trkpt lat="48.06034" lon="6.56567">
        <ele>609</ele>
        <time>2018-04-28T08:11:42.000Z</time>
      </trkpt>
      <trkpt lat="48.06033" lon="6.56566">
        <ele>609</ele>
        <time>2018-04-28T08:11:43.000Z</time>
      </trkpt>
      <trkpt lat="48.06033" lon="6.56564">
        <ele>609</ele>
        <time>2018-04-28T08:11:44.000Z</time>
      </trkpt>
      <trkpt lat="48.06032" lon="6.56563">
        <ele>609</ele>
        <time>2018-04-28T08:11:45.000Z</time>
      </trkpt>
      <trkpt lat="48.06032" lon="6.56561">
        <ele>609</ele>
        <time>2018-04-28T08:11:46.000Z</time>
      </trkpt>
      <trkpt lat="48.06032" lon="6.5656">
        <ele>609</ele>
        <time>2018-04-28T08:11:47.000Z</time>
      </trkpt>
      <trkpt lat="48.06031" lon="6.56559">
        <ele>609</ele>
        <time>2018-04-28T08:11:48.000Z</time>
      </trkpt>
      <trkpt lat="48.0603" lon="6.56558">
        <ele>609</ele>
        <time>2018-04-28T08:11:49.000Z</time>
      </trkpt>
      <trkpt lat="48.06029" lon="6.56557">
        <ele>609</ele>
        <time>2018-04-28T08:11:50.000Z</time>
      </trkpt>
      <trkpt lat="48.06029" lon="6.56556">
        <ele>609</ele>
        <time>2018-04-28T08:11:51.000Z</time>
      </trkpt>
      <trkpt lat="48.06028" lon="6.56555">
        <ele>609</ele>
        <time>2018-04-28T08:11:52.000Z</time>
      </trkpt>
      <trkpt lat="48.06027" lon="6.56554">
        <ele>609</ele>
        <time>2018-04-28T08:11:53.000Z</time>
      </trkpt>
      <trkpt lat="48.06026" lon="6.56553">
        <ele>609</ele>
        <time>2018-04-28T08:11:54.000Z</time>
      </trkpt>
      <trkpt lat="48.06024" lon="6.56552">
        <ele>609</ele>
        <time>2018-04-28T08:11:55.000Z</time>
      </trkpt>
      <trkpt lat="48.06023" lon="6.56551">
        <ele>610</ele>
        <time>2018-04-28T08:11:56.000Z</time>
      </trkpt>
      <trkpt lat="48.06022" lon="6.56549">
        <ele>610</ele>
        <time>2018-04-28T08:11:57.000Z</time>
      </trkpt>
      <trkpt lat="48.06021" lon="6.56548">
        <ele>610</ele>
        <time>2018-04-28T08:11:58.000Z</time>
      </trkpt>
      <trkpt lat="48.0602" lon="6.56547">
        <ele>610</ele>
        <time>2018-04-28T08:11:59.000Z</time>
      </trkpt>
      <trkpt lat="48.06018" lon="6.56546">
        <ele>610</ele>
        <time>2018-04-28T08:12:00.000Z</time>
      </trkpt>
      <trkpt lat="48.06017" lon="6.56545">
        <ele>610</ele>
        <time>2018-04-28T08:12:01.000Z</time>
      </trkpt>
      <trkpt lat="48.06016" lon="6.56544">
        <ele>610</ele>
        <time>2018-04-28T08:12:02.000Z</time>
      </trkpt>
      <trkpt lat="48.06015" lon="6.56544">
        <ele>610</ele>
        <time>2018-04-28T08:12:03.000Z</time>
      </trkpt>
      <trkpt lat="48.06014" lon="6.56543">
        <ele>610</ele>
        <time>2018-04-28T08:12:04.000Z</time>
      </trkpt>
      <trkpt lat="48.06012" lon="6.56542">
        <ele>610</ele>
        <time>2018-04-28T08:12:05.000Z</time>
      </trkpt>
      <trkpt lat="48.06011" lon="6.56542">
        <ele>610</ele>
        <time>2018-04-28T08:12:06.000Z</time>
      </trkpt>
      <trkpt lat="48.0601" lon="6.56541">
        <ele>610</ele>
        <time>2018-04-28T08:12:07.000Z</time>
      </trkpt>
      <trkpt lat="48.06008" lon="6.5654">
        <ele>610</ele>
        <time>2018-04-28T08:12:08.000Z</time>
      </trkpt>
      <trkpt lat="48.06007" lon="6.56539">
        <ele>610</ele>
        <time>2018-04-28T08:12:09.000Z</time>
      </trkpt>
      <trkpt lat="48.06006" lon="6.56538">
        <ele>610</ele>
        <time>2018-04-28T08:12:10.000Z</time>
      </trkpt>
      <trkpt lat="48.06005" lon="6.56537">
        <ele>610</ele>
        <time>2018-04-28T08:12:11.000Z</time>
      </trkpt>
      <trkpt lat="48.06004" lon="6.56536">
        <ele>610</ele>
        <time>2018-04-28T08:12:12.000Z</time>
      </trkpt>
      <trkpt lat="48.06003" lon="6.56536">
        <ele>610</ele>
        <time>2018-04-28T08:12:13.000Z</time>
      </trkpt>
      <trkpt lat="48.06002" lon="6.56535">
        <ele>610</ele>
        <time>2018-04-28T08:12:14.000Z</time>
      </trkpt>
      <trkpt lat="48.06001" lon="6.56535">
        <ele>611</ele>
        <time>2018-04-28T08:12:15.000Z</time>
      </trkpt>
      <trkpt lat="48.05999" lon="6.56534">
        <ele>611</ele>
        <time>2018-04-28T08:12:16.000Z</time>
      </trkpt>
      <trkpt lat="48.05998" lon="6.56533">
        <ele>611</ele>
        <time>2018-04-28T08:12:17.000Z</time>
      </trkpt>
      <trkpt lat="48.05997" lon="6.56532">
        <ele>611</ele>
        <time>2018-04-28T08:12:18.000Z</time>
      </trkpt>
      <trkpt lat="48.05996" lon="6.56531">
        <ele>611</ele>
        <time>2018-04-28T08:12:19.000Z</time>
      </trkpt>
      <trkpt lat="48.05995" lon="6.56531">
        <ele>611</ele>
        <time>2018-04-28T08:12:20.000Z</time>
      </trkpt>
      <trkpt lat="48.05993" lon="6.5653">
        <ele>611</ele>
        <time>2018-04-28T08:12:21.000Z</time>
      </trkpt>
      <trkpt lat="48.05992" lon="6.56529">
        <ele>611</ele>
        <time>2018-04-28T08:12:22.000Z</time>
      </trkpt>
      <trkpt lat="48.05991" lon="6.56527">
        <ele>611</ele>
        <time>2018-04-28T08:12:23.000Z</time>
      </trkpt>
      <trkpt lat="48.0599" lon="6.56526">
        <ele>611</ele>
        <time>2018-04-28T08:12:24.000Z</time>
      </trkpt>
      <trkpt lat="48.0599" lon="6.56525">
        <ele>612</ele>
        <time>2018-04-28T08:12:25.000Z</time>
      </trkpt>
      <trkpt lat="48.05989" lon="6.56524">
        <ele>612</ele>
        <time>2018-04-28T08:12:26.000Z</time>
      </trkpt>
      <trkpt lat="48.05989" lon="6.56523">
        <ele>612</ele>
        <time>2018-04-28T08:12:27.000Z</time>
      </trkpt>
      <trkpt lat="48.05988" lon="6.56522">
        <ele>612</ele>
        <time>2018-04-28T08:12:28.000Z</time>
      </trkpt>
      <trkpt lat="48.05987" lon="6.56521">
        <ele>612</ele>
        <time>2018-04-28T08:12:29.000Z</time>
      </trkpt>
      <trkpt lat="48.05987" lon="6.56519">
        <ele>612</ele>
        <time>2018-04-28T08:12:30.000Z</time>
      </trkpt>
      <trkpt lat="48.05986" lon="6.56518">
        <ele>612</ele>
        <time>2018-04-28T08:12:31.000Z</time>
      </trkpt>
      <trkpt lat="48.05986" lon="6.56517">
        <ele>612</ele>
        <time>2018-04-28T08:12:32.000Z</time>
      </trkpt>
      <trkpt lat="48.05986" lon="6.56516">
        <ele>612</ele>
        <time>2018-04-28T08:12:33.000Z</time>
      </trkpt>
      <trkpt lat="48.05985" lon="6.56514">
        <ele>612</ele>
        <time>2018-04-28T08:12:34.000Z</time>
      </trkpt>
      <trkpt lat="48.05985" lon="6.56513">
        <ele>612</ele>
        <time>2018-04-28T08:12:35.000Z</time>
      </trkpt>
      <trkpt lat="48.05984" lon="6.56511">
        <ele>612</ele>
        <time>2018-04-28T08:12:36.000Z</time>
      </trkpt>
      <trkpt lat="48.05984" lon="6.5651">
        <ele>612</ele>
        <time>2018-04-28T08:12:37.000Z</time>
      </trkpt>
      <trkpt lat="48.05983" lon="6.56508">
        <ele>612</ele>
        <time>2018-04-28T08:12:38.000Z</time>
      </trkpt>
      <trkpt lat="48.05983" lon="6.56507">
        <ele>612</ele>
        <time>2018-04-28T08:12:39.000Z</time>
      </trkpt>
      <trkpt lat="48.05982" lon="6.56505">
        <ele>613</ele>
        <time>2018-04-28T08:12:40.000Z</time>
      </trkpt>
      <trkpt lat="48.05982" lon="6.56504">
        <ele>613</ele>
        <time>2018-04-28T08:12:41.000Z</time>
      </trkpt>
      <trkpt lat="48.05982" lon="6.56502">
        <ele>613</ele>
        <time>2018-04-28T08:12:42.000Z</time>
      </trkpt>
      <trkpt lat="48.05981" lon="6.56501">
        <ele>613</ele>
        <time>2018-04-28T08:12:43.000Z</time>
      </trkpt>
      <trkpt lat="48.05981" lon="6.56499">
        <ele>616</ele>
        <time>2018-04-28T08:12:44.000Z</time>
      </trkpt>
      <trkpt lat="48.0598" lon="6.56498">
        <ele>616</ele>
        <time>2018-04-28T08:12:45.000Z</time>
      </trkpt>
      <trkpt lat="48.0598" lon="6.56497">
        <ele>616</ele>
        <time>2018-04-28T08:12:46.000Z</time>
      </trkpt>
      <trkpt lat="48.0598" lon="6.56495">
        <ele>616</ele>
        <time>2018-04-28T08:12:47.000Z</time>
      </trkpt>
      <trkpt lat="48.05979" lon="6.56494">
        <ele>617</ele>
        <time>2018-04-28T08:12:48.000Z</time>
      </trkpt>
      <trkpt lat="48.05978" lon="6.56492">
        <ele>617</ele>
        <time>2018-04-28T08:12:49.000Z</time>
      </trkpt>
      <trkpt lat="48.05976" lon="6.5649">
        <ele>617</ele>
        <time>2018-04-28T08:12:50.000Z</time>
      </trkpt>
      <trkpt lat="48.05975" lon="6.56489">
        <ele>617</ele>
        <time>2018-04-28T08:12:51.000Z</time>
      </trkpt>
      <trkpt lat="48.05974" lon="6.56487">
        <ele>617</ele>
        <time>2018-04-28T08:12:52.000Z</time>
      </trkpt>
      <trkpt lat="48.05972" lon="6.56485">
        <ele>617</ele>
        <time>2018-04-28T08:12:53.000Z</time>
      </trkpt>
      <trkpt lat="48.0597" lon="6.56483">
        <ele>617</ele>
        <time>2018-04-28T08:12:54.000Z</time>
      </trkpt>
      <trkpt lat="48.05969" lon="6.56481">
        <ele>617</ele>
        <time>2018-04-28T08:12:55.000Z</time>
      </trkpt>
      <trkpt lat="48.05967" lon="6.56479">
        <ele>618</ele>
        <time>2018-04-28T08:12:56.000Z</time>
      </trkpt>
      <trkpt lat="48.05966" lon="6.56478">
        <ele>618</ele>
        <time>2018-04-28T08:12:57.000Z</time>
      </trkpt>
      <trkpt lat="48.05964" lon="6.56476">
        <ele>618</ele>
        <time>2018-04-28T08:12:58.000Z</time>
      </trkpt>
      <trkpt lat="48.05963" lon="6.56475">
        <ele>618</ele>
        <time>2018-04-28T08:12:59.000Z</time>
      </trkpt>
      <trkpt lat="48.05961" lon="6.56474">
        <ele>618</ele>
        <time>2018-04-28T08:13:00.000Z</time>
      </trkpt>
      <trkpt lat="48.0596" lon="6.56472">
        <ele>618</ele>
        <time>2018-04-28T08:13:01.000Z</time>
      </trkpt>
      <trkpt lat="48.05958" lon="6.56471">
        <ele>618</ele>
        <time>2018-04-28T08:13:02.000Z</time>
      </trkpt>
      <trkpt lat="48.05956" lon="6.5647">
        <ele>618</ele>
        <time>2018-04-28T08:13:03.000Z</time>
      </trkpt>
      <trkpt lat="48.05955" lon="6.56469">
        <ele>618</ele>
        <time>2018-04-28T08:13:04.000Z</time>
      </trkpt>
      <trkpt lat="48.05953" lon="6.56468">
        <ele>618</ele>
        <time>2018-04-28T08:13:05.000Z</time>
      </trkpt>
      <trkpt lat="48.05951" lon="6.56467">
        <ele>618</ele>
        <time>2018-04-28T08:13:06.000Z</time>
      </trkpt>
      <trkpt lat="48.0595" lon="6.56466">
        <ele>618</ele>
        <time>2018-04-28T08:13:07.000Z</time>
      </trkpt>
      <trkpt lat="48.05949" lon="6.56465">
        <ele>618</ele>
        <time>2018-04-28T08:13:08.000Z</time>
      </trkpt>
      <trkpt lat="48.05947" lon="6.56464">
        <ele>618</ele>
        <time>2018-04-28T08:13:09.000Z</time>
      </trkpt>
      <trkpt lat="48.05946" lon="6.56464">
        <ele>619</ele>
        <time>2018-04-28T08:13:10.000Z</time>
      </trkpt>
      <trkpt lat="48.05945" lon="6.56463">
        <ele>619</ele>
        <time>2018-04-28T08:13:11.000Z</time>
      </trkpt>
      <trkpt lat="48.05944" lon="6.56462">
        <ele>619</ele>
        <time>2018-04-28T08:13:12.000Z</time>
      </trkpt>
      <trkpt lat="48.05942" lon="6.56462">
        <ele>619</ele>
        <time>2018-04-28T08:13:13.000Z</time>
      </trkpt>
      <trkpt lat="48.05941" lon="6.56461">
        <ele>619</ele>
        <time>2018-04-28T08:13:14.000Z</time>
      </trkpt>
      <trkpt lat="48.0594" lon="6.56461">
        <ele>619</ele>
        <time>2018-04-28T08:13:15.000Z</time>
      </trkpt>
      <trkpt lat="48.05939" lon="6.5646">
        <ele>619</ele>
        <time>2018-04-28T08:13:16.000Z</time>
      </trkpt>
      <trkpt lat="48.05937" lon="6.5646">
        <ele>619</ele>
        <time>2018-04-28T08:13:17.000Z</time>
      </trkpt>
      <trkpt lat="48.05936" lon="6.5646">
        <ele>619</ele>
        <time>2018-04-28T08:13:18.000Z</time>
      </trkpt>
      <trkpt lat="48.05935" lon="6.56459">
        <ele>619</ele>
        <time>2018-04-28T08:13:19.000Z</time>
      </trkpt>
      <trkpt lat="48.05933" lon="6.56458">
        <ele>619</ele>
        <time>2018-04-28T08:13:20.000Z</time>
      </trkpt>
      <trkpt lat="48.05932" lon="6.56458">
        <ele>619</ele>
        <time>2018-04-28T08:13:21.000Z</time>
      </trkpt>
      <trkpt lat="48.0593" lon="6.56457">
        <ele>619</ele>
        <time>2018-04-28T08:13:22.000Z</time>
      </trkpt>
      <trkpt lat="48.05929" lon="6.56457">
        <ele>619</ele>
        <time>2018-04-28T08:13:23.000Z</time>
      </trkpt>
      <trkpt lat="48.05927" lon="6.56457">
        <ele>619</ele>
        <time>2018-04-28T08:13:24.000Z</time>
      </trkpt>
      <trkpt lat="48.05926" lon="6.56456">
        <ele>619</ele>
        <time>2018-04-28T08:13:25.000Z</time>
      </trkpt>
      <trkpt lat="48.05925" lon="6.56456">
        <ele>619</ele>
        <time>2018-04-28T08:13:26.000Z</time>
      </trkpt>
      <trkpt lat="48.05924" lon="6.56456">
        <ele>619</ele>
        <time>2018-04-28T08:13:27.000Z</time>
      </trkpt>
      <trkpt lat="48.05923" lon="6.56455">
        <ele>619</ele>
        <time>2018-04-28T08:13:28.000Z</time>
      </trkpt>
      <trkpt lat="48.05921" lon="6.56455">
        <ele>619</ele>
        <time>2018-04-28T08:13:29.000Z</time>
      </trkpt>
      <trkpt lat="48.0592" lon="6.56454">
        <ele>619</ele>
        <time>2018-04-28T08:13:30.000Z</time>
      </trkpt>
      <trkpt lat="48.05919" lon="6.56454">
        <ele>619</ele>
        <time>2018-04-28T08:13:31.000Z</time>
      </trkpt>
      <trkpt lat="48.05918" lon="6.56453">
        <ele>619</ele>
        <time>2018-04-28T08:13:32.000Z</time>
      </trkpt>
      <trkpt lat="48.05917" lon="6.56453">
        <ele>619</ele>
        <time>2018-04-28T08:13:33.000Z</time>
      </trkpt>
      <trkpt lat="48.05916" lon="6.56452">
        <ele>622</ele>
        <time>2018-04-28T08:13:34.000Z</time>
      </trkpt>
      <trkpt lat="48.05914" lon="6.56452">
        <ele>623</ele>
        <time>2018-04-28T08:13:35.000Z</time>
      </trkpt>
      <trkpt lat="48.05913" lon="6.56452">
        <ele>623</ele>
        <time>2018-04-28T08:13:36.000Z</time>
      </trkpt>
      <trkpt lat="48.05912" lon="6.56451">
        <ele>623</ele>
        <time>2018-04-28T08:13:37.000Z</time>
      </trkpt>
      <trkpt lat="48.0591" lon="6.5645">
        <ele>623</ele>
        <time>2018-04-28T08:13:38.000Z</time>
      </trkpt>
      <trkpt lat="48.05909" lon="6.56449">
        <ele>623</ele>
        <time>2018-04-28T08:13:39.000Z</time>
      </trkpt>
      <trkpt lat="48.05907" lon="6.56448">
        <ele>623</ele>
        <time>2018-04-28T08:13:40.000Z</time>
      </trkpt>
      <trkpt lat="48.05906" lon="6.56447">
        <ele>623</ele>
        <time>2018-04-28T08:13:41.000Z</time>
      </trkpt>
      <trkpt lat="48.05904" lon="6.56446">
        <ele>623</ele>
        <time>2018-04-28T08:13:42.000Z</time>
      </trkpt>
      <trkpt lat="48.05903" lon="6.56446">
        <ele>623</ele>
        <time>2018-04-28T08:13:43.000Z</time>
      </trkpt>
      <trkpt lat="48.05902" lon="6.56445">
        <ele>623</ele>
        <time>2018-04-28T08:13:44.000Z</time>
      </trkpt>
      <trkpt lat="48.059" lon="6.56444">
        <ele>623</ele>
        <time>2018-04-28T08:13:45.000Z</time>
      </trkpt>
      <trkpt lat="48.05899" lon="6.56443">
        <ele>623</ele>
        <time>2018-04-28T08:13:46.000Z</time>
      </trkpt>
      <trkpt lat="48.05898" lon="6.56442">
        <ele>623</ele>
        <time>2018-04-28T08:13:47.000Z</time>
      </trkpt>
      <trkpt lat="48.05897" lon="6.56442">
        <ele>623</ele>
        <time>2018-04-28T08:13:48.000Z</time>
      </trkpt>
      <trkpt lat="48.05896" lon="6.56441">
        <ele>623</ele>
        <time>2018-04-28T08:13:49.000Z</time>
      </trkpt>
      <trkpt lat="48.05895" lon="6.5644">
        <ele>623</ele>
        <time>2018-04-28T08:13:50.000Z</time>
      </trkpt>
      <trkpt lat="48.05894" lon="6.5644">
        <ele>623</ele>
        <time>2018-04-28T08:13:51.000Z</time>
      </trkpt>
      <trkpt lat="48.05892" lon="6.5644">
        <ele>623</ele>
        <time>2018-04-28T08:13:52.000Z</time>
      </trkpt>
      <trkpt lat="48.05891" lon="6.56439">
        <ele>623</ele>
        <time>2018-04-28T08:13:53.000Z</time>
      </trkpt>
      <trkpt lat="48.0589" lon="6.56438">
        <ele>623</ele>
        <time>2018-04-28T08:13:54.000Z</time>
      </trkpt>
      <trkpt lat="48.05889" lon="6.56437">
        <ele>624</ele>
        <time>2018-04-28T08:13:55.000Z</time>
      </trkpt>
      <trkpt lat="48.05888" lon="6.56437">
        <ele>624</ele>
        <time>2018-04-28T08:13:56.000Z</time>
      </trkpt>
      <trkpt lat="48.05887" lon="6.56436">
        <ele>624</ele>
        <time>2018-04-28T08:13:57.000Z</time>
      </trkpt>
      <trkpt lat="48.05885" lon="6.56434">
        <ele>624</ele>
        <time>2018-04-28T08:13:58.000Z</time>
      </trkpt>
      <trkpt lat="48.05884" lon="6.56433">
        <ele>624</ele>
        <time>2018-04-28T08:13:59.000Z</time>
      </trkpt>
      <trkpt lat="48.05883" lon="6.56432">
        <ele>624</ele>
        <time>2018-04-28T08:14:00.000Z</time>
      </trkpt>
      <trkpt lat="48.05882" lon="6.56431">
        <ele>624</ele>
        <time>2018-04-28T08:14:01.000Z</time>
      </trkpt>
      <trkpt lat="48.05881" lon="6.5643">
        <ele>624</ele>
        <time>2018-04-28T08:14:02.000Z</time>
      </trkpt>
      <trkpt lat="48.05879" lon="6.56429">
        <ele>624</ele>
        <time>2018-04-28T08:14:03.000Z</time>
      </trkpt>
      <trkpt lat="48.05878" lon="6.56427">
        <ele>624</ele>
        <time>2018-04-28T08:14:04.000Z</time>
      </trkpt>
      <trkpt lat="48.05877" lon="6.56426">
        <ele>624</ele>
        <time>2018-04-28T08:14:05.000Z</time>
      </trkpt>
      <trkpt lat="48.05875" lon="6.56424">
        <ele>624</ele>
        <time>2018-04-28T08:14:06.000Z</time>
      </trkpt>
      <trkpt lat="48.05874" lon="6.56423">
        <ele>624</ele>
        <time>2018-04-28T08:14:07.000Z</time>
      </trkpt>
      <trkpt lat="48.05873" lon="6.56422">
        <ele>625</ele>
        <time>2018-04-28T08:14:08.000Z</time>
      </trkpt>
      <trkpt lat="48.05872" lon="6.56421">
        <ele>625</ele>
        <time>2018-04-28T08:14:09.000Z</time>
      </trkpt>
      <trkpt lat="48.05871" lon="6.5642">
        <ele>625</ele>
        <time>2018-04-28T08:14:10.000Z</time>
      </trkpt>
      <trkpt lat="48.0587" lon="6.56419">
        <ele>625</ele>
        <time>2018-04-28T08:14:11.000Z</time>
      </trkpt>
      <trkpt lat="48.05869" lon="6.56417">
        <ele>625</ele>
        <time>2018-04-28T08:14:12.000Z</time>
      </trkpt>
      <trkpt lat="48.05868" lon="6.56416">
        <ele>627</ele>
        <time>2018-04-28T08:14:13.000Z</time>
      </trkpt>
      <trkpt lat="48.05868" lon="6.56414">
        <ele>627</ele>
        <time>2018-04-28T08:14:14.000Z</time>
      </trkpt>
      <trkpt lat="48.05868" lon="6.56412">
        <ele>627</ele>
        <time>2018-04-28T08:14:15.000Z</time>
      </trkpt>
      <trkpt lat="48.05867" lon="6.5641">
        <ele>627</ele>
        <time>2018-04-28T08:14:16.000Z</time>
      </trkpt>
      <trkpt lat="48.05867" lon="6.56408">
        <ele>627</ele>
        <time>2018-04-28T08:14:17.000Z</time>
      </trkpt>
      <trkpt lat="48.05866" lon="6.56406">
        <ele>627</ele>
        <time>2018-04-28T08:14:18.000Z</time>
      </trkpt>
      <trkpt lat="48.05865" lon="6.56404">
        <ele>627</ele>
        <time>2018-04-28T08:14:19.000Z</time>
      </trkpt>
      <trkpt lat="48.05865" lon="6.56401">
        <ele>627</ele>
        <time>2018-04-28T08:14:20.000Z</time>
      </trkpt>
      <trkpt lat="48.05864" lon="6.56399">
        <ele>627</ele>
        <time>2018-04-28T08:14:21.000Z</time>
      </trkpt>
      <trkpt lat="48.05863" lon="6.56397">
        <ele>627</ele>
        <time>2018-04-28T08:14:22.000Z</time>
      </trkpt>
      <trkpt lat="48.05862" lon="6.56395">
        <ele>627</ele>
        <time>2018-04-28T08:14:23.000Z</time>
      </trkpt>
      <trkpt lat="48.05861" lon="6.56393">
        <ele>627</ele>
        <time>2018-04-28T08:14:24.000Z</time>
      </trkpt>
      <trkpt lat="48.0586" lon="6.56391">
        <ele>627</ele>
        <time>2018-04-28T08:14:25.000Z</time>
      </trkpt>
      <trkpt lat="48.05859" lon="6.56389">
        <ele>627</ele>
        <time>2018-04-28T08:14:26.000Z</time>
      </trkpt>
      <trkpt lat="48.05859" lon="6.56386">
        <ele>627</ele>
        <time>2018-04-28T08:14:27.000Z</time>
      </trkpt>
      <trkpt lat="48.05858" lon="6.56384">
        <ele>627</ele>
        <time>2018-04-28T08:14:28.000Z</time>
      </trkpt>
      <trkpt lat="48.05858" lon="6.56382">
        <ele>627</ele>
        <time>2018-04-28T08:14:29.000Z</time>
      </trkpt>
      <trkpt lat="48.05857" lon="6.5638">
        <ele>627</ele>
        <time>2018-04-28T08:14:30.000Z</time>
      </trkpt>
      <trkpt lat="48.05857" lon="6.56377">
        <ele>627</ele>
        <time>2018-04-28T08:14:31.000Z</time>
      </trkpt>
      <trkpt lat="48.05856" lon="6.56375">
        <ele>627</ele>
        <time>2018-04-28T08:14:32.000Z</time>
      </trkpt>
      <trkpt lat="48.05856" lon="6.56372">
        <ele>627</ele>
        <time>2018-04-28T08:14:33.000Z</time>
      </trkpt>
      <trkpt lat="48.05856" lon="6.5637">
        <ele>627</ele>
        <time>2018-04-28T08:14:34.000Z</time>
      </trkpt>
      <trkpt lat="48.05855" lon="6.56368">
        <ele>627</ele>
        <time>2018-04-28T08:14:35.000Z</time>
      </trkpt>
      <trkpt lat="48.05855" lon="6.56366">
        <ele>627</ele>
        <time>2018-04-28T08:14:36.000Z</time>
      </trkpt>
      <trkpt lat="48.05854" lon="6.56364">
        <ele>627</ele>
        <time>2018-04-28T08:14:37.000Z</time>
      </trkpt>
      <trkpt lat="48.05854" lon="6.56362">
        <ele>627</ele>
        <time>2018-04-28T08:14:38.000Z</time>
      </trkpt>
      <trkpt lat="48.05854" lon="6.5636">
        <ele>627</ele>
        <time>2018-04-28T08:14:39.000Z</time>
      </trkpt>
      <trkpt lat="48.05853" lon="6.56358">
        <ele>627</ele>
        <time>2018-04-28T08:14:40.000Z</time>
      </trkpt>
      <trkpt lat="48.05853" lon="6.56355">
        <ele>627</ele>
        <time>2018-04-28T08:14:41.000Z</time>
      </trkpt>
      <trkpt lat="48.05852" lon="6.56353">
        <ele>627</ele>
        <time>2018-04-28T08:14:42.000Z</time>
      </trkpt>
      <trkpt lat="48.05852" lon="6.56351">
        <ele>627</ele>
        <time>2018-04-28T08:14:43.000Z</time>
      </trkpt>
      <trkpt lat="48.05851" lon="6.56349">
        <ele>627</ele>
        <time>2018-04-28T08:14:44.000Z</time>
      </trkpt>
      <trkpt lat="48.05851" lon="6.56347">
        <ele>627</ele>
        <time>2018-04-28T08:14:45.000Z</time>
      </trkpt>
      <trkpt lat="48.05851" lon="6.56345">
        <ele>627</ele>
        <time>2018-04-28T08:14:46.000Z</time>
      </trkpt>
      <trkpt lat="48.0585" lon="6.56343">
        <ele>627</ele>
        <time>2018-04-28T08:14:47.000Z</time>
      </trkpt>
      <trkpt lat="48.0585" lon="6.56342">
        <ele>628</ele>
        <time>2018-04-28T08:14:48.000Z</time>
      </trkpt>
      <trkpt lat="48.05849" lon="6.5634">
        <ele>628</ele>
        <time>2018-04-28T08:14:49.000Z</time>
      </trkpt>
      <trkpt lat="48.05849" lon="6.56338">
        <ele>628</ele>
        <time>2018-04-28T08:14:50.000Z</time>
      </trkpt>
      <trkpt lat="48.05848" lon="6.56336">
        <ele>628</ele>
        <time>2018-04-28T08:14:51.000Z</time>
      </trkpt>
      <trkpt lat="48.05847" lon="6.56334">
        <ele>628</ele>
        <time>2018-04-28T08:14:52.000Z</time>
      </trkpt>
      <trkpt lat="48.05847" lon="6.56332">
        <ele>628</ele>
        <time>2018-04-28T08:14:53.000Z</time>
      </trkpt>
      <trkpt lat="48.05846" lon="6.5633">
        <ele>628</ele>
        <time>2018-04-28T08:14:54.000Z</time>
      </trkpt>
      <trkpt lat="48.05845" lon="6.56328">
        <ele>628</ele>
        <time>2018-04-28T08:14:55.000Z</time>
      </trkpt>
      <trkpt lat="48.05844" lon="6.56326">
        <ele>628</ele>
        <time>2018-04-28T08:14:56.000Z</time>
      </trkpt>
      <trkpt lat="48.05843" lon="6.56324">
        <ele>628</ele>
        <time>2018-04-28T08:14:57.000Z</time>
      </trkpt>
      <trkpt lat="48.05842" lon="6.56322">
        <ele>628</ele>
        <time>2018-04-28T08:14:58.000Z</time>
      </trkpt>
      <trkpt lat="48.05841" lon="6.56321">
        <ele>628</ele>
        <time>2018-04-28T08:14:59.000Z</time>
      </trkpt>
      <trkpt lat="48.0584" lon="6.5632">
        <ele>628</ele>
        <time>2018-04-28T08:15:00.000Z</time>
      </trkpt>
      <trkpt lat="48.05839" lon="6.56319">
        <ele>628</ele>
        <time>2018-04-28T08:15:01.000Z</time>
      </trkpt>
      <trkpt lat="48.05838" lon="6.56318">
        <ele>628</ele>
        <time>2018-04-28T08:15:02.000Z</time>
      </trkpt>
      <trkpt lat="48.05838" lon="6.56316">
        <ele>628</ele>
        <time>2018-04-28T08:15:03.000Z</time>
      </trkpt>
      <trkpt lat="48.05837" lon="6.56315">
        <ele>628</ele>
        <time>2018-04-28T08:15:04.000Z</time>
      </trkpt>
      <trkpt lat="48.05836" lon="6.56314">
        <ele>628</ele>
        <time>2018-04-28T08:15:05.000Z</time>
      </trkpt>
      <trkpt lat="48.05835" lon="6.56313">
        <ele>627</ele>
        <time>2018-04-28T08:15:06.000Z</time>
      </trkpt>
      <trkpt lat="48.05834" lon="6.56312">
        <ele>627</ele>
        <time>2018-04-28T08:15:07.000Z</time>
      </trkpt>
      <trkpt lat="48.05832" lon="6.56311">
        <ele>629</ele>
        <time>2018-04-28T08:15:08.000Z</time>
      </trkpt>
      <trkpt lat="48.05831" lon="6.5631">
        <ele>629</ele>
        <time>2018-04-28T08:15:09.000Z</time>
      </trkpt>
      <trkpt lat="48.05831" lon="6.56309">
        <ele>629</ele>
        <time>2018-04-28T08:15:10.000Z</time>
      </trkpt>
      <trkpt lat="48.0583" lon="6.56309">
        <ele>629</ele>
        <time>2018-04-28T08:15:11.000Z</time>
      </trkpt>
      <trkpt lat="48.05828" lon="6.56308">
        <ele>629</ele>
        <time>2018-04-28T08:15:12.000Z</time>
      </trkpt>
      <trkpt lat="48.05828" lon="6.56307">
        <ele>629</ele>
        <time>2018-04-28T08:15:13.000Z</time>
      </trkpt>
      <trkpt lat="48.05826" lon="6.56307">
        <ele>629</ele>
        <time>2018-04-28T08:15:14.000Z</time>
      </trkpt>
      <trkpt lat="48.05826" lon="6.56306">
        <ele>629</ele>
        <time>2018-04-28T08:15:15.000Z</time>
      </trkpt>
      <trkpt lat="48.05825" lon="6.56306">
        <ele>629</ele>
        <time>2018-04-28T08:15:16.000Z</time>
      </trkpt>
      <trkpt lat="48.05824" lon="6.56306">
        <ele>629</ele>
        <time>2018-04-28T08:15:17.000Z</time>
      </trkpt>
      <trkpt lat="48.05823" lon="6.56305">
        <ele>629</ele>
        <time>2018-04-28T08:15:18.000Z</time>
      </trkpt>
      <trkpt lat="48.05822" lon="6.56305">
        <ele>629</ele>
        <time>2018-04-28T08:15:19.000Z</time>
      </trkpt>
      <trkpt lat="48.0582" lon="6.56305">
        <ele>629</ele>
        <time>2018-04-28T08:15:20.000Z</time>
      </trkpt>
      <trkpt lat="48.05819" lon="6.56304">
        <ele>629</ele>
        <time>2018-04-28T08:15:21.000Z</time>
      </trkpt>
      <trkpt lat="48.05817" lon="6.56304">
        <ele>629</ele>
        <time>2018-04-28T08:15:22.000Z</time>
      </trkpt>
      <trkpt lat="48.05816" lon="6.56303">
        <ele>629</ele>
        <time>2018-04-28T08:15:23.000Z</time>
      </trkpt>
      <trkpt lat="48.05814" lon="6.56303">
        <ele>629</ele>
        <time>2018-04-28T08:15:24.000Z</time>
      </trkpt>
      <trkpt lat="48.05813" lon="6.56302">
        <ele>629</ele>
        <time>2018-04-28T08:15:25.000Z</time>
      </trkpt>
      <trkpt lat="48.05811" lon="6.56302">
        <ele>629</ele>
        <time>2018-04-28T08:15:26.000Z</time>
      </trkpt>
      <trkpt lat="48.05809" lon="6.56303">
        <ele>629</ele>
        <time>2018-04-28T08:15:27.000Z</time>
      </trkpt>
      <trkpt lat="48.05808" lon="6.56303">
        <ele>629</ele>
        <time>2018-04-28T08:15:28.000Z</time>
      </trkpt>
      <trkpt lat="48.05806" lon="6.56303">
        <ele>629</ele>
        <time>2018-04-28T08:15:29.000Z</time>
      </trkpt>
      <trkpt lat="48.05805" lon="6.56303">
        <ele>629</ele>
        <time>2018-04-28T08:15:30.000Z</time>
      </trkpt>
      <trkpt lat="48.05804" lon="6.56304">
        <ele>629</ele>
        <time>2018-04-28T08:15:31.000Z</time>
      </trkpt>
      <trkpt lat="48.05802" lon="6.56304">
        <ele>629</ele>
        <time>2018-04-28T08:15:32.000Z</time>
      </trkpt>
      <trkpt lat="48.05801" lon="6.56304">
        <ele>629</ele>
        <time>2018-04-28T08:15:33.000Z</time>
      </trkpt>
      <trkpt lat="48.058" lon="6.56304">
        <ele>629</ele>
        <time>2018-04-28T08:15:34.000Z</time>
      </trkpt>
      <trkpt lat="48.05798" lon="6.56305">
        <ele>629</ele>
        <time>2018-04-28T08:15:35.000Z</time>
      </trkpt>
      <trkpt lat="48.05796" lon="6.56306">
        <ele>629</ele>
        <time>2018-04-28T08:15:36.000Z</time>
      </trkpt>
      <trkpt lat="48.05795" lon="6.56306">
        <ele>629</ele>
        <time>2018-04-28T08:15:37.000Z</time>
      </trkpt>
      <trkpt lat="48.05793" lon="6.56307">
        <ele>629</ele>
        <time>2018-04-28T08:15:38.000Z</time>
      </trkpt>
      <trkpt lat="48.05791" lon="6.56307">
        <ele>629</ele>
        <time>2018-04-28T08:15:39.000Z</time>
      </trkpt>
      <trkpt lat="48.0579" lon="6.56308">
        <ele>630</ele>
        <time>2018-04-28T08:15:40.000Z</time>
      </trkpt>
      <trkpt lat="48.05788" lon="6.56308">
        <ele>630</ele>
        <time>2018-04-28T08:15:41.000Z</time>
      </trkpt>
      <trkpt lat="48.05787" lon="6.56308">
        <ele>630</ele>
        <time>2018-04-28T08:15:42.000Z</time>
      </trkpt>
      <trkpt lat="48.05785" lon="6.56308">
        <ele>630</ele>
        <time>2018-04-28T08:15:43.000Z</time>
      </trkpt>
      <trkpt lat="48.05783" lon="6.56308">
        <ele>630</ele>
        <time>2018-04-28T08:15:44.000Z</time>
      </trkpt>
      <trkpt lat="48.05782" lon="6.56309">
        <ele>630</ele>
        <time>2018-04-28T08:15:45.000Z</time>
      </trkpt>
      <trkpt lat="48.0578" lon="6.56309">
        <ele>630</ele>
        <time>2018-04-28T08:15:46.000Z</time>
      </trkpt>
      <trkpt lat="48.05778" lon="6.5631">
        <ele>630</ele>
        <time>2018-04-28T08:15:47.000Z</time>
      </trkpt>
      <trkpt lat="48.05777" lon="6.5631">
        <ele>630</ele>
        <time>2018-04-28T08:15:48.000Z</time>
      </trkpt>
      <trkpt lat="48.05776" lon="6.5631">
        <ele>630</ele>
        <time>2018-04-28T08:15:49.000Z</time>
      </trkpt>
      <trkpt lat="48.05774" lon="6.56311">
        <ele>630</ele>
        <time>2018-04-28T08:15:50.000Z</time>
      </trkpt>
      <trkpt lat="48.05773" lon="6.56311">
        <ele>630</ele>
        <time>2018-04-28T08:15:51.000Z</time>
      </trkpt>
      <trkpt lat="48.05772" lon="6.56312">
        <ele>630</ele>
        <time>2018-04-28T08:15:52.000Z</time>
      </trkpt>
      <trkpt lat="48.05772" lon="6.56313">
        <ele>630</ele>
        <time>2018-04-28T08:15:53.000Z</time>
      </trkpt>
      <trkpt lat="48.0577" lon="6.56313">
        <ele>630</ele>
        <time>2018-04-28T08:15:54.000Z</time>
      </trkpt>
      <trkpt lat="48.05769" lon="6.56314">
        <ele>630</ele>
        <time>2018-04-28T08:15:55.000Z</time>
      </trkpt>
      <trkpt lat="48.05768" lon="6.56315">
        <ele>630</ele>
        <time>2018-04-28T08:15:56.000Z</time>
      </trkpt>
      <trkpt lat="48.05767" lon="6.56315">
        <ele>630</ele>
        <time>2018-04-28T08:15:57.000Z</time>
      </trkpt>
      <trkpt lat="48.05766" lon="6.56315">
        <ele>630</ele>
        <time>2018-04-28T08:15:58.000Z</time>
      </trkpt>
      <trkpt lat="48.05765" lon="6.56316">
        <ele>630</ele>
        <time>2018-04-28T08:15:59.000Z</time>
      </trkpt>
      <trkpt lat="48.05764" lon="6.56317">
        <ele>630</ele>
        <time>2018-04-28T08:16:00.000Z</time>
      </trkpt>
      <trkpt lat="48.05763" lon="6.56317">
        <ele>630</ele>
        <time>2018-04-28T08:16:01.000Z</time>
      </trkpt>
      <trkpt lat="48.05762" lon="6.56318">
        <ele>630</ele>
        <time>2018-04-28T08:16:02.000Z</time>
      </trkpt>
      <trkpt lat="48.0576" lon="6.56318">
        <ele>631</ele>
        <time>2018-04-28T08:16:03.000Z</time>
      </trkpt>
      <trkpt lat="48.05759" lon="6.56319">
        <ele>631</ele>
        <time>2018-04-28T08:16:04.000Z</time>
      </trkpt>
      <trkpt lat="48.05758" lon="6.56319">
        <ele>631</ele>
        <time>2018-04-28T08:16:05.000Z</time>
      </trkpt>
      <trkpt lat="48.05756" lon="6.5632">
        <ele>631</ele>
        <time>2018-04-28T08:16:06.000Z</time>
      </trkpt>
      <trkpt lat="48.05755" lon="6.5632">
        <ele>631</ele>
        <time>2018-04-28T08:16:07.000Z</time>
      </trkpt>
      <trkpt lat="48.05753" lon="6.56321">
        <ele>631</ele>
        <time>2018-04-28T08:16:08.000Z</time>
      </trkpt>
      <trkpt lat="48.05752" lon="6.56322">
        <ele>631</ele>
        <time>2018-04-28T08:16:09.000Z</time>
      </trkpt>
      <trkpt lat="48.0575" lon="6.56323">
        <ele>631</ele>
        <time>2018-04-28T08:16:10.000Z</time>
      </trkpt>
      <trkpt lat="48.05749" lon="6.56324">
        <ele>632</ele>
        <time>2018-04-28T08:16:11.000Z</time>
      </trkpt>
      <trkpt lat="48.05747" lon="6.56325">
        <ele>632</ele>
        <time>2018-04-28T08:16:12.000Z</time>
      </trkpt>
      <trkpt lat="48.05746" lon="6.56325">
        <ele>632</ele>
        <time>2018-04-28T08:16:13.000Z</time>
      </trkpt>
      <trkpt lat="48.05745" lon="6.56326">
        <ele>632</ele>
        <time>2018-04-28T08:16:14.000Z</time>
      </trkpt>
      <trkpt lat="48.05743" lon="6.56327">
        <ele>632</ele>
        <time>2018-04-28T08:16:15.000Z</time>
      </trkpt>
      <trkpt lat="48.05742" lon="6.56328">
        <ele>632</ele>
        <time>2018-04-28T08:16:16.000Z</time>
      </trkpt>
      <trkpt lat="48.0574" lon="6.56329">
        <ele>632</ele>
        <time>2018-04-28T08:16:17.000Z</time>
      </trkpt>
      <trkpt lat="48.05739" lon="6.5633">
        <ele>632</ele>
        <time>2018-04-28T08:16:18.000Z</time>
      </trkpt>
      <trkpt lat="48.05737" lon="6.56331">
        <ele>632</ele>
        <time>2018-04-28T08:16:19.000Z</time>
      </trkpt>
      <trkpt lat="48.05736" lon="6.56331">
        <ele>632</ele>
        <time>2018-04-28T08:16:20.000Z</time>
      </trkpt>
      <trkpt lat="48.05734" lon="6.56332">
        <ele>632</ele>
        <time>2018-04-28T08:16:21.000Z</time>
      </trkpt>
      <trkpt lat="48.05733" lon="6.56332">
        <ele>632</ele>
        <time>2018-04-28T08:16:22.000Z</time>
      </trkpt>
      <trkpt lat="48.05731" lon="6.56333">
        <ele>632</ele>
        <time>2018-04-28T08:16:23.000Z</time>
      </trkpt>
      <trkpt lat="48.0573" lon="6.56333">
        <ele>631</ele>
        <time>2018-04-28T08:16:24.000Z</time>
      </trkpt>
      <trkpt lat="48.05729" lon="6.56334">
        <ele>632</ele>
        <time>2018-04-28T08:16:25.000Z</time>
      </trkpt>
      <trkpt lat="48.05728" lon="6.56334">
        <ele>632</ele>
        <time>2018-04-28T08:16:26.000Z</time>
      </trkpt>
      <trkpt lat="48.05726" lon="6.56335">
        <ele>632</ele>
        <time>2018-04-28T08:16:27.000Z</time>
      </trkpt>
      <trkpt lat="48.05725" lon="6.56335">
        <ele>632</ele>
        <time>2018-04-28T08:16:28.000Z</time>
      </trkpt>
      <trkpt lat="48.05724" lon="6.56336">
        <ele>632</ele>
        <time>2018-04-28T08:16:29.000Z</time>
      </trkpt>
      <trkpt lat="48.05722" lon="6.56337">
        <ele>632</ele>
        <time>2018-04-28T08:16:30.000Z</time>
      </trkpt>
      <trkpt lat="48.05721" lon="6.56337">
        <ele>632</ele>
        <time>2018-04-28T08:16:31.000Z</time>
      </trkpt>
      <trkpt lat="48.0572" lon="6.56338">
        <ele>632</ele>
        <time>2018-04-28T08:16:32.000Z</time>
      </trkpt>
      <trkpt lat="48.05719" lon="6.56338">
        <ele>632</ele>
        <time>2018-04-28T08:16:33.000Z</time>
      </trkpt>
      <trkpt lat="48.05718" lon="6.56339">
        <ele>632</ele>
        <time>2018-04-28T08:16:34.000Z</time>
      </trkpt>
      <trkpt lat="48.05717" lon="6.56339">
        <ele>632</ele>
        <time>2018-04-28T08:16:35.000Z</time>
      </trkpt>
      <trkpt lat="48.05716" lon="6.5634">
        <ele>632</ele>
        <time>2018-04-28T08:16:36.000Z</time>
      </trkpt>
      <trkpt lat="48.05715" lon="6.56341">
        <ele>632</ele>
        <time>2018-04-28T08:16:37.000Z</time>
      </trkpt>
      <trkpt lat="48.05714" lon="6.56342">
        <ele>632</ele>
        <time>2018-04-28T08:16:38.000Z</time>
      </trkpt>
      <trkpt lat="48.05712" lon="6.56343">
        <ele>632</ele>
        <time>2018-04-28T08:16:39.000Z</time>
      </trkpt>
      <trkpt lat="48.05711" lon="6.56344">
        <ele>632</ele>
        <time>2018-04-28T08:16:40.000Z</time>
      </trkpt>
      <trkpt lat="48.05709" lon="6.56345">
        <ele>632</ele>
        <time>2018-04-28T08:16:41.000Z</time>
      </trkpt>
      <trkpt lat="48.05708" lon="6.56346">
        <ele>632</ele>
        <time>2018-04-28T08:16:42.000Z</time>
      </trkpt>
      <trkpt lat="48.05706" lon="6.56346">
        <ele>632</ele>
        <time>2018-04-28T08:16:43.000Z</time>
      </trkpt>
      <trkpt lat="48.05705" lon="6.56347">
        <ele>632</ele>
        <time>2018-04-28T08:16:44.000Z</time>
      </trkpt>
      <trkpt lat="48.05703" lon="6.56347">
        <ele>632</ele>
        <time>2018-04-28T08:16:45.000Z</time>
      </trkpt>
      <trkpt lat="48.05702" lon="6.56348">
        <ele>632</ele>
        <time>2018-04-28T08:16:46.000Z</time>
      </trkpt>
      <trkpt lat="48.057" lon="6.56348">
        <ele>632</ele>
        <time>2018-04-28T08:16:47.000Z</time>
      </trkpt>
      <trkpt lat="48.05699" lon="6.56348">
        <ele>632</ele>
        <time>2018-04-28T08:16:48.000Z</time>
      </trkpt>
      <trkpt lat="48.05697" lon="6.56348">
        <ele>632</ele>
        <time>2018-04-28T08:16:49.000Z</time>
      </trkpt>
      <trkpt lat="48.05696" lon="6.56349">
        <ele>632</ele>
        <time>2018-04-28T08:16:50.000Z</time>
      </trkpt>
      <trkpt lat="48.05694" lon="6.56349">
        <ele>632</ele>
        <time>2018-04-28T08:16:51.000Z</time>
      </trkpt>
      <trkpt lat="48.05693" lon="6.56349">
        <ele>632</ele>
        <time>2018-04-28T08:16:52.000Z</time>
      </trkpt>
      <trkpt lat="48.05692" lon="6.5635">
        <ele>632</ele>
        <time>2018-04-28T08:16:53.000Z</time>
      </trkpt>
      <trkpt lat="48.0569" lon="6.5635">
        <ele>632</ele>
        <time>2018-04-28T08:16:54.000Z</time>
      </trkpt>
      <trkpt lat="48.05689" lon="6.56351">
        <ele>632</ele>
        <time>2018-04-28T08:16:55.000Z</time>
      </trkpt>
      <trkpt lat="48.05688" lon="6.56351">
        <ele>632</ele>
        <time>2018-04-28T08:16:56.000Z</time>
      </trkpt>
      <trkpt lat="48.05687" lon="6.56352">
        <ele>632</ele>
        <time>2018-04-28T08:16:57.000Z</time>
      </trkpt>
      <trkpt lat="48.05685" lon="6.56352">
        <ele>632</ele>
        <time>2018-04-28T08:16:58.000Z</time>
      </trkpt>
      <trkpt lat="48.05684" lon="6.56353">
        <ele>632</ele>
        <time>2018-04-28T08:16:59.000Z</time>
      </trkpt>
      <trkpt lat="48.05682" lon="6.56354">
        <ele>632</ele>
        <time>2018-04-28T08:17:00.000Z</time>
      </trkpt>
      <trkpt lat="48.05681" lon="6.56354">
        <ele>632</ele>
        <time>2018-04-28T08:17:01.000Z</time>
      </trkpt>
      <trkpt lat="48.05679" lon="6.56355">
        <ele>632</ele>
        <time>2018-04-28T08:17:02.000Z</time>
      </trkpt>
      <trkpt lat="48.05678" lon="6.56356">
        <ele>632</ele>
        <time>2018-04-28T08:17:03.000Z</time>
      </trkpt>
      <trkpt lat="48.05676" lon="6.56357">
        <ele>632</ele>
        <time>2018-04-28T08:17:04.000Z</time>
      </trkpt>
      <trkpt lat="48.05675" lon="6.56357">
        <ele>632</ele>
        <time>2018-04-28T08:17:05.000Z</time>
      </trkpt>
      <trkpt lat="48.05674" lon="6.56358">
        <ele>632</ele>
        <time>2018-04-28T08:17:06.000Z</time>
      </trkpt>
      <trkpt lat="48.05672" lon="6.56359">
        <ele>632</ele>
        <time>2018-04-28T08:17:07.000Z</time>
      </trkpt>
      <trkpt lat="48.05671" lon="6.56359">
        <ele>632</ele>
        <time>2018-04-28T08:17:08.000Z</time>
      </trkpt>
      <trkpt lat="48.0567" lon="6.5636">
        <ele>632</ele>
        <time>2018-04-28T08:17:09.000Z</time>
      </trkpt>
      <trkpt lat="48.05668" lon="6.5636">
        <ele>632</ele>
        <time>2018-04-28T08:17:10.000Z</time>
      </trkpt>
      <trkpt lat="48.05667" lon="6.56361">
        <ele>632</ele>
        <time>2018-04-28T08:17:11.000Z</time>
      </trkpt>
      <trkpt lat="48.05666" lon="6.56361">
        <ele>631</ele>
        <time>2018-04-28T08:17:12.000Z</time>
      </trkpt>
      <trkpt lat="48.05665" lon="6.56362">
        <ele>631</ele>
        <time>2018-04-28T08:17:13.000Z</time>
      </trkpt>
      <trkpt lat="48.05663" lon="6.56363">
        <ele>631</ele>
        <time>2018-04-28T08:17:14.000Z</time>
      </trkpt>
      <trkpt lat="48.05662" lon="6.56364">
        <ele>631</ele>
        <time>2018-04-28T08:17:15.000Z</time>
      </trkpt>
      <trkpt lat="48.05661" lon="6.56365">
        <ele>631</ele>
        <time>2018-04-28T08:17:16.000Z</time>
      </trkpt>
      <trkpt lat="48.0566" lon="6.56366">
        <ele>631</ele>
        <time>2018-04-28T08:17:17.000Z</time>
      </trkpt>
      <trkpt lat="48.05659" lon="6.56366">
        <ele>631</ele>
        <time>2018-04-28T08:17:18.000Z</time>
      </trkpt>
      <trkpt lat="48.05657" lon="6.56367">
        <ele>631</ele>
        <time>2018-04-28T08:17:19.000Z</time>
      </trkpt>
      <trkpt lat="48.05656" lon="6.56367">
        <ele>631</ele>
        <time>2018-04-28T08:17:20.000Z</time>
      </trkpt>
      <trkpt lat="48.05654" lon="6.56368">
        <ele>630</ele>
        <time>2018-04-28T08:17:21.000Z</time>
      </trkpt>
      <trkpt lat="48.05653" lon="6.56369">
        <ele>630</ele>
        <time>2018-04-28T08:17:22.000Z</time>
      </trkpt>
      <trkpt lat="48.05651" lon="6.5637">
        <ele>630</ele>
        <time>2018-04-28T08:17:23.000Z</time>
      </trkpt>
      <trkpt lat="48.0565" lon="6.56371">
        <ele>630</ele>
        <time>2018-04-28T08:17:24.000Z</time>
      </trkpt>
      <trkpt lat="48.05649" lon="6.56372">
        <ele>630</ele>
        <time>2018-04-28T08:17:25.000Z</time>
      </trkpt>
      <trkpt lat="48.05648" lon="6.56372">
        <ele>630</ele>
        <time>2018-04-28T08:17:26.000Z</time>
      </trkpt>
      <trkpt lat="48.05647" lon="6.56373">
        <ele>630</ele>
        <time>2018-04-28T08:17:27.000Z</time>
      </trkpt>
      <trkpt lat="48.05646" lon="6.56373">
        <ele>630</ele>
        <time>2018-04-28T08:17:28.000Z</time>
      </trkpt>
      <trkpt lat="48.05645" lon="6.56374">
        <ele>630</ele>
        <time>2018-04-28T08:17:29.000Z</time>
      </trkpt>
      <trkpt lat="48.05643" lon="6.56374">
        <ele>630</ele>
        <time>2018-04-28T08:17:30.000Z</time>
      </trkpt>
      <trkpt lat="48.05642" lon="6.56374">
        <ele>630</ele>
        <time>2018-04-28T08:17:31.000Z</time>
      </trkpt>
      <trkpt lat="48.0564" lon="6.56374">
        <ele>630</ele>
        <time>2018-04-28T08:17:32.000Z</time>
      </trkpt>
      <trkpt lat="48.05639" lon="6.56374">
        <ele>630</ele>
        <time>2018-04-28T08:17:33.000Z</time>
      </trkpt>
      <trkpt lat="48.05638" lon="6.56374">
        <ele>630</ele>
        <time>2018-04-28T08:17:34.000Z</time>
      </trkpt>
      <trkpt lat="48.05637" lon="6.56375">
        <ele>630</ele>
        <time>2018-04-28T08:17:35.000Z</time>
      </trkpt>
      <trkpt lat="48.05635" lon="6.56375">
        <ele>630</ele>
        <time>2018-04-28T08:17:36.000Z</time>
      </trkpt>
      <trkpt lat="48.05634" lon="6.56376">
        <ele>630</ele>
        <time>2018-04-28T08:17:37.000Z</time>
      </trkpt>
      <trkpt lat="48.05633" lon="6.56376">
        <ele>630</ele>
        <time>2018-04-28T08:17:38.000Z</time>
      </trkpt>
      <trkpt lat="48.05632" lon="6.56377">
        <ele>630</ele>
        <time>2018-04-28T08:17:39.000Z</time>
      </trkpt>
      <trkpt lat="48.0563" lon="6.56377">
        <ele>630</ele>
        <time>2018-04-28T08:17:40.000Z</time>
      </trkpt>
      <trkpt lat="48.05629" lon="6.56377">
        <ele>630</ele>
        <time>2018-04-28T08:17:41.000Z</time>
      </trkpt>
      <trkpt lat="48.05627" lon="6.56377">
        <ele>630</ele>
        <time>2018-04-28T08:17:42.000Z</time>
      </trkpt>
      <trkpt lat="48.05626" lon="6.56378">
        <ele>630</ele>
        <time>2018-04-28T08:17:43.000Z</time>
      </trkpt>
      <trkpt lat="48.05624" lon="6.56378">
        <ele>630</ele>
        <time>2018-04-28T08:17:44.000Z</time>
      </trkpt>
      <trkpt lat="48.05623" lon="6.56378">
        <ele>630</ele>
        <time>2018-04-28T08:17:45.000Z</time>
      </trkpt>
      <trkpt lat="48.05622" lon="6.56378">
        <ele>630</ele>
        <time>2018-04-28T08:17:46.000Z</time>
      </trkpt>
      <trkpt lat="48.0562" lon="6.56379">
        <ele>630</ele>
        <time>2018-04-28T08:17:47.000Z</time>
      </trkpt>
      <trkpt lat="48.05619" lon="6.56379">
        <ele>630</ele>
        <time>2018-04-28T08:17:48.000Z</time>
      </trkpt>
      <trkpt lat="48.05618" lon="6.56379">
        <ele>630</ele>
        <time>2018-04-28T08:17:49.000Z</time>
      </trkpt>
      <trkpt lat="48.05616" lon="6.5638">
        <ele>629</ele>
        <time>2018-04-28T08:17:50.000Z</time>
      </trkpt>
      <trkpt lat="48.05615" lon="6.56381">
        <ele>629</ele>
        <time>2018-04-28T08:17:51.000Z</time>
      </trkpt>
      <trkpt lat="48.05613" lon="6.56381">
        <ele>629</ele>
        <time>2018-04-28T08:17:52.000Z</time>
      </trkpt>
      <trkpt lat="48.05611" lon="6.56382">
        <ele>629</ele>
        <time>2018-04-28T08:17:53.000Z</time>
      </trkpt>
      <trkpt lat="48.0561" lon="6.56383">
        <ele>629</ele>
        <time>2018-04-28T08:17:54.000Z</time>
      </trkpt>
      <trkpt lat="48.05609" lon="6.56383">
        <ele>629</ele>
        <time>2018-04-28T08:17:55.000Z</time>
      </trkpt>
      <trkpt lat="48.05608" lon="6.56384">
        <ele>629</ele>
        <time>2018-04-28T08:17:56.000Z</time>
      </trkpt>
      <trkpt lat="48.05607" lon="6.56384">
        <ele>629</ele>
        <time>2018-04-28T08:17:57.000Z</time>
      </trkpt>
      <trkpt lat="48.05606" lon="6.56384">
        <ele>629</ele>
        <time>2018-04-28T08:17:58.000Z</time>
      </trkpt>
      <trkpt lat="48.05605" lon="6.56384">
        <ele>629</ele>
        <time>2018-04-28T08:17:59.000Z</time>
      </trkpt>
      <trkpt lat="48.05603" lon="6.56384">
        <ele>629</ele>
        <time>2018-04-28T08:18:00.000Z</time>
      </trkpt>
      <trkpt lat="48.05602" lon="6.56384">
        <ele>629</ele>
        <time>2018-04-28T08:18:01.000Z</time>
      </trkpt>
      <trkpt lat="48.056" lon="6.56385">
        <ele>629</ele>
        <time>2018-04-28T08:18:02.000Z</time>
      </trkpt>
      <trkpt lat="48.05599" lon="6.56385">
        <ele>629</ele>
        <time>2018-04-28T08:18:03.000Z</time>
      </trkpt>
      <trkpt lat="48.05597" lon="6.56386">
        <ele>629</ele>
        <time>2018-04-28T08:18:04.000Z</time>
      </trkpt>
      <trkpt lat="48.05596" lon="6.56386">
        <ele>629</ele>
        <time>2018-04-28T08:18:05.000Z</time>
      </trkpt>
      <trkpt lat="48.05594" lon="6.56386">
        <ele>629</ele>
        <time>2018-04-28T08:18:06.000Z</time>
      </trkpt>
      <trkpt lat="48.05592" lon="6.56387">
        <ele>629</ele>
        <time>2018-04-28T08:18:07.000Z</time>
      </trkpt>
      <trkpt lat="48.0559" lon="6.56388">
        <ele>629</ele>
        <time>2018-04-28T08:18:08.000Z</time>
      </trkpt>
      <trkpt lat="48.05589" lon="6.56388">
        <ele>629</ele>
        <time>2018-04-28T08:18:09.000Z</time>
      </trkpt>
      <trkpt lat="48.05587" lon="6.56389">
        <ele>629</ele>
        <time>2018-04-28T08:18:10.000Z</time>
      </trkpt>
      <trkpt lat="48.05585" lon="6.5639">
        <ele>629</ele>
        <time>2018-04-28T08:18:11.000Z</time>
      </trkpt>
      <trkpt lat="48.05583" lon="6.56391">
        <ele>627</ele>
        <time>2018-04-28T08:18:12.000Z</time>
      </trkpt>
      <trkpt lat="48.05581" lon="6.56392">
        <ele>627</ele>
        <time>2018-04-28T08:18:13.000Z</time>
      </trkpt>
      <trkpt lat="48.0558" lon="6.56393">
        <ele>627</ele>
        <time>2018-04-28T08:18:14.000Z</time>
      </trkpt>
      <trkpt lat="48.05578" lon="6.56393">
        <ele>627</ele>
        <time>2018-04-28T08:18:15.000Z</time>
      </trkpt>
      <trkpt lat="48.05576" lon="6.56394">
        <ele>627</ele>
        <time>2018-04-28T08:18:16.000Z</time>
      </trkpt>
      <trkpt lat="48.05575" lon="6.56394">
        <ele>627</ele>
        <time>2018-04-28T08:18:17.000Z</time>
      </trkpt>
      <trkpt lat="48.05573" lon="6.56395">
        <ele>627</ele>
        <time>2018-04-28T08:18:18.000Z</time>
      </trkpt>
      <trkpt lat="48.05572" lon="6.56395">
        <ele>627</ele>
        <time>2018-04-28T08:18:19.000Z</time>
      </trkpt>
      <trkpt lat="48.0557" lon="6.56396">
        <ele>627</ele>
        <time>2018-04-28T08:18:20.000Z</time>
      </trkpt>
      <trkpt lat="48.05568" lon="6.56396">
        <ele>627</ele>
        <time>2018-04-28T08:18:21.000Z</time>
      </trkpt>
      <trkpt lat="48.05567" lon="6.56397">
        <ele>627</ele>
        <time>2018-04-28T08:18:22.000Z</time>
      </trkpt>
      <trkpt lat="48.05566" lon="6.56397">
        <ele>627</ele>
        <time>2018-04-28T08:18:23.000Z</time>
      </trkpt>
      <trkpt lat="48.05564" lon="6.56398">
        <ele>627</ele>
        <time>2018-04-28T08:18:24.000Z</time>
      </trkpt>
      <trkpt lat="48.05563" lon="6.56398">
        <ele>627</ele>
        <time>2018-04-28T08:18:25.000Z</time>
      </trkpt>
      <trkpt lat="48.05561" lon="6.56399">
        <ele>627</ele>
        <time>2018-04-28T08:18:26.000Z</time>
      </trkpt>
      <trkpt lat="48.05559" lon="6.564">
        <ele>627</ele>
        <time>2018-04-28T08:18:27.000Z</time>
      </trkpt>
      <trkpt lat="48.05558" lon="6.564">
        <ele>627</ele>
        <time>2018-04-28T08:18:28.000Z</time>
      </trkpt>
      <trkpt lat="48.05556" lon="6.56401">
        <ele>626</ele>
        <time>2018-04-28T08:18:29.000Z</time>
      </trkpt>
      <trkpt lat="48.05554" lon="6.56401">
        <ele>626</ele>
        <time>2018-04-28T08:18:30.000Z</time>
      </trkpt>
      <trkpt lat="48.05553" lon="6.56402">
        <ele>626</ele>
        <time>2018-04-28T08:18:31.000Z</time>
      </trkpt>
      <trkpt lat="48.05551" lon="6.56402">
        <ele>626</ele>
        <time>2018-04-28T08:18:32.000Z</time>
      </trkpt>
      <trkpt lat="48.0555" lon="6.56403">
        <ele>626</ele>
        <time>2018-04-28T08:18:33.000Z</time>
      </trkpt>
      <trkpt lat="48.05549" lon="6.56403">
        <ele>626</ele>
        <time>2018-04-28T08:18:34.000Z</time>
      </trkpt>
      <trkpt lat="48.05548" lon="6.56404">
        <ele>626</ele>
        <time>2018-04-28T08:18:35.000Z</time>
      </trkpt>
      <trkpt lat="48.05547" lon="6.56405">
        <ele>626</ele>
        <time>2018-04-28T08:18:36.000Z</time>
      </trkpt>
      <trkpt lat="48.05545" lon="6.56406">
        <ele>626</ele>
        <time>2018-04-28T08:18:37.000Z</time>
      </trkpt>
      <trkpt lat="48.05544" lon="6.56406">
        <ele>626</ele>
        <time>2018-04-28T08:18:38.000Z</time>
      </trkpt>
      <trkpt lat="48.05542" lon="6.56407">
        <ele>626</ele>
        <time>2018-04-28T08:18:39.000Z</time>
      </trkpt>
      <trkpt lat="48.05541" lon="6.56408">
        <ele>626</ele>
        <time>2018-04-28T08:18:40.000Z</time>
      </trkpt>
      <trkpt lat="48.0554" lon="6.56408">
        <ele>626</ele>
        <time>2018-04-28T08:18:41.000Z</time>
      </trkpt>
      <trkpt lat="48.05538" lon="6.56409">
        <ele>626</ele>
        <time>2018-04-28T08:18:42.000Z</time>
      </trkpt>
      <trkpt lat="48.05537" lon="6.5641">
        <ele>626</ele>
        <time>2018-04-28T08:18:43.000Z</time>
      </trkpt>
      <trkpt lat="48.05535" lon="6.56411">
        <ele>626</ele>
        <time>2018-04-28T08:18:44.000Z</time>
      </trkpt>
      <trkpt lat="48.05534" lon="6.56411">
        <ele>626</ele>
        <time>2018-04-28T08:18:45.000Z</time>
      </trkpt>
      <trkpt lat="48.05532" lon="6.56412">
        <ele>626</ele>
        <time>2018-04-28T08:18:46.000Z</time>
      </trkpt>
      <trkpt lat="48.05531" lon="6.56413">
        <ele>626</ele>
        <time>2018-04-28T08:18:47.000Z</time>
      </trkpt>
      <trkpt lat="48.05529" lon="6.56414">
        <ele>626</ele>
        <time>2018-04-28T08:18:48.000Z</time>
      </trkpt>
      <trkpt lat="48.05528" lon="6.56415">
        <ele>626</ele>
        <time>2018-04-28T08:18:49.000Z</time>
      </trkpt>
      <trkpt lat="48.05527" lon="6.56415">
        <ele>626</ele>
        <time>2018-04-28T08:18:50.000Z</time>
      </trkpt>
      <trkpt lat="48.05525" lon="6.56416">
        <ele>626</ele>
        <time>2018-04-28T08:18:51.000Z</time>
      </trkpt>
      <trkpt lat="48.05523" lon="6.56417">
        <ele>625</ele>
        <time>2018-04-28T08:18:52.000Z</time>
      </trkpt>
      <trkpt lat="48.05522" lon="6.56418">
        <ele>625</ele>
        <time>2018-04-28T08:18:53.000Z</time>
      </trkpt>
      <trkpt lat="48.0552" lon="6.56419">
        <ele>625</ele>
        <time>2018-04-28T08:18:54.000Z</time>
      </trkpt>
      <trkpt lat="48.05518" lon="6.56419">
        <ele>625</ele>
        <time>2018-04-28T08:18:55.000Z</time>
      </trkpt>
      <trkpt lat="48.05516" lon="6.5642">
        <ele>625</ele>
        <time>2018-04-28T08:18:56.000Z</time>
      </trkpt>
      <trkpt lat="48.05515" lon="6.56421">
        <ele>625</ele>
        <time>2018-04-28T08:18:57.000Z</time>
      </trkpt>
      <trkpt lat="48.05513" lon="6.56421">
        <ele>625</ele>
        <time>2018-04-28T08:18:58.000Z</time>
      </trkpt>
      <trkpt lat="48.05512" lon="6.56421">
        <ele>624</ele>
        <time>2018-04-28T08:18:59.000Z</time>
      </trkpt>
      <trkpt lat="48.0551" lon="6.56422">
        <ele>624</ele>
        <time>2018-04-28T08:19:00.000Z</time>
      </trkpt>
      <trkpt lat="48.05509" lon="6.56423">
        <ele>624</ele>
        <time>2018-04-28T08:19:01.000Z</time>
      </trkpt>
      <trkpt lat="48.05508" lon="6.56423">
        <ele>624</ele>
        <time>2018-04-28T08:19:02.000Z</time>
      </trkpt>
      <trkpt lat="48.05506" lon="6.56424">
        <ele>624</ele>
        <time>2018-04-28T08:19:03.000Z</time>
      </trkpt>
      <trkpt lat="48.05505" lon="6.56425">
        <ele>624</ele>
        <time>2018-04-28T08:19:04.000Z</time>
      </trkpt>
      <trkpt lat="48.05503" lon="6.56425">
        <ele>624</ele>
        <time>2018-04-28T08:19:05.000Z</time>
      </trkpt>
      <trkpt lat="48.05501" lon="6.56426">
        <ele>624</ele>
        <time>2018-04-28T08:19:06.000Z</time>
      </trkpt>
      <trkpt lat="48.055" lon="6.56427">
        <ele>624</ele>
        <time>2018-04-28T08:19:07.000Z</time>
      </trkpt>
      <trkpt lat="48.05498" lon="6.56427">
        <ele>624</ele>
        <time>2018-04-28T08:19:08.000Z</time>
      </trkpt>
      <trkpt lat="48.05497" lon="6.56428">
        <ele>624</ele>
        <time>2018-04-28T08:19:09.000Z</time>
      </trkpt>
      <trkpt lat="48.05495" lon="6.56428">
        <ele>624</ele>
        <time>2018-04-28T08:19:10.000Z</time>
      </trkpt>
      <trkpt lat="48.05493" lon="6.56429">
        <ele>624</ele>
        <time>2018-04-28T08:19:11.000Z</time>
      </trkpt>
      <trkpt lat="48.05492" lon="6.5643">
        <ele>624</ele>
        <time>2018-04-28T08:19:12.000Z</time>
      </trkpt>
      <trkpt lat="48.0549" lon="6.5643">
        <ele>624</ele>
        <time>2018-04-28T08:19:13.000Z</time>
      </trkpt>
      <trkpt lat="48.05489" lon="6.56431">
        <ele>624</ele>
        <time>2018-04-28T08:19:14.000Z</time>
      </trkpt>
      <trkpt lat="48.05487" lon="6.56431">
        <ele>624</ele>
        <time>2018-04-28T08:19:15.000Z</time>
      </trkpt>
      <trkpt lat="48.05486" lon="6.56431">
        <ele>624</ele>
        <time>2018-04-28T08:19:16.000Z</time>
      </trkpt>
      <trkpt lat="48.05485" lon="6.56432">
        <ele>624</ele>
        <time>2018-04-28T08:19:17.000Z</time>
      </trkpt>
      <trkpt lat="48.05483" lon="6.56432">
        <ele>624</ele>
        <time>2018-04-28T08:19:18.000Z</time>
      </trkpt>
      <trkpt lat="48.05481" lon="6.56433">
        <ele>624</ele>
        <time>2018-04-28T08:19:19.000Z</time>
      </trkpt>
      <trkpt lat="48.0548" lon="6.56434">
        <ele>624</ele>
        <time>2018-04-28T08:19:20.000Z</time>
      </trkpt>
      <trkpt lat="48.05478" lon="6.56435">
        <ele>624</ele>
        <time>2018-04-28T08:19:21.000Z</time>
      </trkpt>
      <trkpt lat="48.05476" lon="6.56435">
        <ele>624</ele>
        <time>2018-04-28T08:19:22.000Z</time>
      </trkpt>
      <trkpt lat="48.05475" lon="6.56435">
        <ele>624</ele>
        <time>2018-04-28T08:19:23.000Z</time>
      </trkpt>
      <trkpt lat="48.05473" lon="6.56436">
        <ele>624</ele>
        <time>2018-04-28T08:19:24.000Z</time>
      </trkpt>
      <trkpt lat="48.05471" lon="6.56437">
        <ele>624</ele>
        <time>2018-04-28T08:19:25.000Z</time>
      </trkpt>
      <trkpt lat="48.0547" lon="6.56437">
        <ele>624</ele>
        <time>2018-04-28T08:19:26.000Z</time>
      </trkpt>
      <trkpt lat="48.05468" lon="6.56438">
        <ele>624</ele>
        <time>2018-04-28T08:19:27.000Z</time>
      </trkpt>
      <trkpt lat="48.05467" lon="6.56438">
        <ele>624</ele>
        <time>2018-04-28T08:19:28.000Z</time>
      </trkpt>
      <trkpt lat="48.05465" lon="6.56439">
        <ele>624</ele>
        <time>2018-04-28T08:19:29.000Z</time>
      </trkpt>
      <trkpt lat="48.05463" lon="6.56439">
        <ele>624</ele>
        <time>2018-04-28T08:19:30.000Z</time>
      </trkpt>
      <trkpt lat="48.05461" lon="6.5644">
        <ele>624</ele>
        <time>2018-04-28T08:19:31.000Z</time>
      </trkpt>
      <trkpt lat="48.0546" lon="6.5644">
        <ele>624</ele>
        <time>2018-04-28T08:19:32.000Z</time>
      </trkpt>
      <trkpt lat="48.05458" lon="6.56441">
        <ele>624</ele>
        <time>2018-04-28T08:19:33.000Z</time>
      </trkpt>
      <trkpt lat="48.05456" lon="6.56441">
        <ele>624</ele>
        <time>2018-04-28T08:19:34.000Z</time>
      </trkpt>
      <trkpt lat="48.05455" lon="6.56442">
        <ele>624</ele>
        <time>2018-04-28T08:19:35.000Z</time>
      </trkpt>
      <trkpt lat="48.05453" lon="6.56443">
        <ele>624</ele>
        <time>2018-04-28T08:19:36.000Z</time>
      </trkpt>
      <trkpt lat="48.05451" lon="6.56443">
        <ele>624</ele>
        <time>2018-04-28T08:19:37.000Z</time>
      </trkpt>
      <trkpt lat="48.0545" lon="6.56445">
        <ele>624</ele>
        <time>2018-04-28T08:19:38.000Z</time>
      </trkpt>
      <trkpt lat="48.05448" lon="6.56445">
        <ele>624</ele>
        <time>2018-04-28T08:19:39.000Z</time>
      </trkpt>
      <trkpt lat="48.05446" lon="6.56446">
        <ele>624</ele>
        <time>2018-04-28T08:19:40.000Z</time>
      </trkpt>
      <trkpt lat="48.05444" lon="6.56447">
        <ele>624</ele>
        <time>2018-04-28T08:19:41.000Z</time>
      </trkpt>
      <trkpt lat="48.05443" lon="6.56447">
        <ele>624</ele>
        <time>2018-04-28T08:19:42.000Z</time>
      </trkpt>
      <trkpt lat="48.05442" lon="6.56448">
        <ele>624</ele>
        <time>2018-04-28T08:19:43.000Z</time>
      </trkpt>
      <trkpt lat="48.0544" lon="6.56448">
        <ele>624</ele>
        <time>2018-04-28T08:19:44.000Z</time>
      </trkpt>
      <trkpt lat="48.05439" lon="6.56449">
        <ele>624</ele>
        <time>2018-04-28T08:19:45.000Z</time>
      </trkpt>
      <trkpt lat="48.05438" lon="6.5645">
        <ele>624</ele>
        <time>2018-04-28T08:19:46.000Z</time>
      </trkpt>
      <trkpt lat="48.05436" lon="6.5645">
        <ele>624</ele>
        <time>2018-04-28T08:19:47.000Z</time>
      </trkpt>
      <trkpt lat="48.05435" lon="6.56451">
        <ele>624</ele>
        <time>2018-04-28T08:19:48.000Z</time>
      </trkpt>
      <trkpt lat="48.05433" lon="6.56451">
        <ele>624</ele>
        <time>2018-04-28T08:19:49.000Z</time>
      </trkpt>
      <trkpt lat="48.05432" lon="6.56452">
        <ele>624</ele>
        <time>2018-04-28T08:19:50.000Z</time>
      </trkpt>
      <trkpt lat="48.0543" lon="6.56453">
        <ele>624</ele>
        <time>2018-04-28T08:19:51.000Z</time>
      </trkpt>
      <trkpt lat="48.05429" lon="6.56453">
        <ele>624</ele>
        <time>2018-04-28T08:19:52.000Z</time>
      </trkpt>
      <trkpt lat="48.05427" lon="6.56454">
        <ele>624</ele>
        <time>2018-04-28T08:19:53.000Z</time>
      </trkpt>
      <trkpt lat="48.05426" lon="6.56455">
        <ele>624</ele>
        <time>2018-04-28T08:19:54.000Z</time>
      </trkpt>
      <trkpt lat="48.05424" lon="6.56455">
        <ele>624</ele>
        <time>2018-04-28T08:19:55.000Z</time>
      </trkpt>
      <trkpt lat="48.05423" lon="6.56456">
        <ele>624</ele>
        <time>2018-04-28T08:19:56.000Z</time>
      </trkpt>
      <trkpt lat="48.05422" lon="6.56457">
        <ele>624</ele>
        <time>2018-04-28T08:19:57.000Z</time>
      </trkpt>
      <trkpt lat="48.0542" lon="6.56457">
        <ele>624</ele>
        <time>2018-04-28T08:19:58.000Z</time>
      </trkpt>
      <trkpt lat="48.05419" lon="6.56457">
        <ele>624</ele>
        <time>2018-04-28T08:19:59.000Z</time>
      </trkpt>
      <trkpt lat="48.05417" lon="6.56458">
        <ele>624</ele>
        <time>2018-04-28T08:20:00.000Z</time>
      </trkpt>
      <trkpt lat="48.05416" lon="6.56458">
        <ele>624</ele>
        <time>2018-04-28T08:20:01.000Z</time>
      </trkpt>
      <trkpt lat="48.05415" lon="6.56459">
        <ele>624</ele>
        <time>2018-04-28T08:20:02.000Z</time>
      </trkpt>
      <trkpt lat="48.05414" lon="6.56459">
        <ele>624</ele>
        <time>2018-04-28T08:20:03.000Z</time>
      </trkpt>
      <trkpt lat="48.05412" lon="6.5646">
        <ele>625</ele>
        <time>2018-04-28T08:20:04.000Z</time>
      </trkpt>
      <trkpt lat="48.05411" lon="6.5646">
        <ele>625</ele>
        <time>2018-04-28T08:20:05.000Z</time>
      </trkpt>
      <trkpt lat="48.0541" lon="6.56461">
        <ele>625</ele>
        <time>2018-04-28T08:20:06.000Z</time>
      </trkpt>
      <trkpt lat="48.05408" lon="6.56462">
        <ele>625</ele>
        <time>2018-04-28T08:20:07.000Z</time>
      </trkpt>
      <trkpt lat="48.05407" lon="6.56462">
        <ele>625</ele>
        <time>2018-04-28T08:20:08.000Z</time>
      </trkpt>
      <trkpt lat="48.05406" lon="6.56463">
        <ele>625</ele>
        <time>2018-04-28T08:20:09.000Z</time>
      </trkpt>
      <trkpt lat="48.05404" lon="6.56464">
        <ele>625</ele>
        <time>2018-04-28T08:20:10.000Z</time>
      </trkpt>
      <trkpt lat="48.05403" lon="6.56465">
        <ele>625</ele>
        <time>2018-04-28T08:20:11.000Z</time>
      </trkpt>
      <trkpt lat="48.05401" lon="6.56466">
        <ele>625</ele>
        <time>2018-04-28T08:20:12.000Z</time>
      </trkpt>
      <trkpt lat="48.05399" lon="6.56466">
        <ele>625</ele>
        <time>2018-04-28T08:20:13.000Z</time>
      </trkpt>
      <trkpt lat="48.05398" lon="6.56467">
        <ele>625</ele>
        <time>2018-04-28T08:20:14.000Z</time>
      </trkpt>
      <trkpt lat="48.05396" lon="6.56468">
        <ele>625</ele>
        <time>2018-04-28T08:20:15.000Z</time>
      </trkpt>
      <trkpt lat="48.05394" lon="6.56468">
        <ele>625</ele>
        <time>2018-04-28T08:20:16.000Z</time>
      </trkpt>
      <trkpt lat="48.05393" lon="6.56469">
        <ele>625</ele>
        <time>2018-04-28T08:20:17.000Z</time>
      </trkpt>
      <trkpt lat="48.05391" lon="6.5647">
        <ele>625</ele>
        <time>2018-04-28T08:20:18.000Z</time>
      </trkpt>
      <trkpt lat="48.05389" lon="6.56471">
        <ele>625</ele>
        <time>2018-04-28T08:20:19.000Z</time>
      </trkpt>
      <trkpt lat="48.05388" lon="6.56471">
        <ele>625</ele>
        <time>2018-04-28T08:20:20.000Z</time>
      </trkpt>
      <trkpt lat="48.05386" lon="6.56472">
        <ele>625</ele>
        <time>2018-04-28T08:20:21.000Z</time>
      </trkpt>
      <trkpt lat="48.05385" lon="6.56473">
        <ele>625</ele>
        <time>2018-04-28T08:20:22.000Z</time>
      </trkpt>
      <trkpt lat="48.05383" lon="6.56474">
        <ele>625</ele>
        <time>2018-04-28T08:20:23.000Z</time>
      </trkpt>
      <trkpt lat="48.05381" lon="6.56475">
        <ele>625</ele>
        <time>2018-04-28T08:20:24.000Z</time>
      </trkpt>
      <trkpt lat="48.05379" lon="6.56476">
        <ele>625</ele>
        <time>2018-04-28T08:20:25.000Z</time>
      </trkpt>
      <trkpt lat="48.05378" lon="6.56477">
        <ele>625</ele>
        <time>2018-04-28T08:20:26.000Z</time>
      </trkpt>
      <trkpt lat="48.05377" lon="6.56477">
        <ele>625</ele>
        <time>2018-04-28T08:20:27.000Z</time>
      </trkpt>
      <trkpt lat="48.05375" lon="6.56478">
        <ele>625</ele>
        <time>2018-04-28T08:20:28.000Z</time>
      </trkpt>
      <trkpt lat="48.05374" lon="6.56479">
        <ele>625</ele>
        <time>2018-04-28T08:20:29.000Z</time>
      </trkpt>
      <trkpt lat="48.05373" lon="6.56479">
        <ele>625</ele>
        <time>2018-04-28T08:20:30.000Z</time>
      </trkpt>
      <trkpt lat="48.05372" lon="6.5648">
        <ele>625</ele>
        <time>2018-04-28T08:20:31.000Z</time>
      </trkpt>
      <trkpt lat="48.05371" lon="6.56481">
        <ele>625</ele>
        <time>2018-04-28T08:20:32.000Z</time>
      </trkpt>
      <trkpt lat="48.0537" lon="6.56482">
        <ele>625</ele>
        <time>2018-04-28T08:20:33.000Z</time>
      </trkpt>
      <trkpt lat="48.05368" lon="6.56483">
        <ele>625</ele>
        <time>2018-04-28T08:20:34.000Z</time>
      </trkpt>
      <trkpt lat="48.05367" lon="6.56484">
        <ele>625</ele>
        <time>2018-04-28T08:20:35.000Z</time>
      </trkpt>
      <trkpt lat="48.05366" lon="6.56485">
        <ele>625</ele>
        <time>2018-04-28T08:20:36.000Z</time>
      </trkpt>
      <trkpt lat="48.05364" lon="6.56485">
        <ele>625</ele>
        <time>2018-04-28T08:20:37.000Z</time>
      </trkpt>
      <trkpt lat="48.05363" lon="6.56486">
        <ele>625</ele>
        <time>2018-04-28T08:20:38.000Z</time>
      </trkpt>
      <trkpt lat="48.05361" lon="6.56487">
        <ele>625</ele>
        <time>2018-04-28T08:20:39.000Z</time>
      </trkpt>
      <trkpt lat="48.05359" lon="6.56488">
        <ele>625</ele>
        <time>2018-04-28T08:20:40.000Z</time>
      </trkpt>
      <trkpt lat="48.05358" lon="6.5649">
        <ele>625</ele>
        <time>2018-04-28T08:20:41.000Z</time>
      </trkpt>
      <trkpt lat="48.05356" lon="6.56491">
        <ele>625</ele>
        <time>2018-04-28T08:20:42.000Z</time>
      </trkpt>
      <trkpt lat="48.05355" lon="6.56492">
        <ele>625</ele>
        <time>2018-04-28T08:20:43.000Z</time>
      </trkpt>
      <trkpt lat="48.05353" lon="6.56493">
        <ele>625</ele>
        <time>2018-04-28T08:20:44.000Z</time>
      </trkpt>
      <trkpt lat="48.05352" lon="6.56495">
        <ele>625</ele>
        <time>2018-04-28T08:20:45.000Z</time>
      </trkpt>
      <trkpt lat="48.05351" lon="6.56496">
        <ele>625</ele>
        <time>2018-04-28T08:20:46.000Z</time>
      </trkpt>
      <trkpt lat="48.05349" lon="6.56497">
        <ele>625</ele>
        <time>2018-04-28T08:20:47.000Z</time>
      </trkpt>
      <trkpt lat="48.05348" lon="6.56498">
        <ele>625</ele>
        <time>2018-04-28T08:20:48.000Z</time>
      </trkpt>
      <trkpt lat="48.05347" lon="6.565">
        <ele>626</ele>
        <time>2018-04-28T08:20:49.000Z</time>
      </trkpt>
      <trkpt lat="48.05346" lon="6.56501">
        <ele>626</ele>
        <time>2018-04-28T08:20:50.000Z</time>
      </trkpt>
      <trkpt lat="48.05344" lon="6.56502">
        <ele>626</ele>
        <time>2018-04-28T08:20:51.000Z</time>
      </trkpt>
      <trkpt lat="48.05343" lon="6.56503">
        <ele>626</ele>
        <time>2018-04-28T08:20:52.000Z</time>
      </trkpt>
      <trkpt lat="48.05342" lon="6.56504">
        <ele>626</ele>
        <time>2018-04-28T08:20:53.000Z</time>
      </trkpt>
      <trkpt lat="48.05341" lon="6.56505">
        <ele>626</ele>
        <time>2018-04-28T08:20:54.000Z</time>
      </trkpt>
      <trkpt lat="48.0534" lon="6.56506">
        <ele>626</ele>
        <time>2018-04-28T08:20:55.000Z</time>
      </trkpt>
      <trkpt lat="48.05339" lon="6.56507">
        <ele>626</ele>
        <time>2018-04-28T08:20:56.000Z</time>
      </trkpt>
      <trkpt lat="48.05338" lon="6.56508">
        <ele>626</ele>
        <time>2018-04-28T08:20:57.000Z</time>
      </trkpt>
      <trkpt lat="48.05337" lon="6.56509">
        <ele>626</ele>
        <time>2018-04-28T08:20:58.000Z</time>
      </trkpt>
      <trkpt lat="48.05336" lon="6.5651">
        <ele>626</ele>
        <time>2018-04-28T08:20:59.000Z</time>
      </trkpt>
      <trkpt lat="48.05335" lon="6.56511">
        <ele>626</ele>
        <time>2018-04-28T08:21:00.000Z</time>
      </trkpt>
      <trkpt lat="48.05334" lon="6.56512">
        <ele>626</ele>
        <time>2018-04-28T08:21:01.000Z</time>
      </trkpt>
      <trkpt lat="48.05333" lon="6.56513">
        <ele>626</ele>
        <time>2018-04-28T08:21:02.000Z</time>
      </trkpt>
      <trkpt lat="48.05332" lon="6.56515">
        <ele>625</ele>
        <time>2018-04-28T08:21:03.000Z</time>
      </trkpt>
      <trkpt lat="48.05331" lon="6.56516">
        <ele>625</ele>
        <time>2018-04-28T08:21:04.000Z</time>
      </trkpt>
      <trkpt lat="48.0533" lon="6.56517">
        <ele>625</ele>
        <time>2018-04-28T08:21:05.000Z</time>
      </trkpt>
      <trkpt lat="48.05329" lon="6.56519">
        <ele>625</ele>
        <time>2018-04-28T08:21:06.000Z</time>
      </trkpt>
      <trkpt lat="48.05328" lon="6.5652">
        <ele>625</ele>
        <time>2018-04-28T08:21:07.000Z</time>
      </trkpt>
      <trkpt lat="48.05327" lon="6.56521">
        <ele>625</ele>
        <time>2018-04-28T08:21:08.000Z</time>
      </trkpt>
      <trkpt lat="48.05326" lon="6.56523">
        <ele>625</ele>
        <time>2018-04-28T08:21:09.000Z</time>
      </trkpt>
      <trkpt lat="48.05325" lon="6.56524">
        <ele>625</ele>
        <time>2018-04-28T08:21:10.000Z</time>
      </trkpt>
      <trkpt lat="48.05324" lon="6.56526">
        <ele>625</ele>
        <time>2018-04-28T08:21:11.000Z</time>
      </trkpt>
      <trkpt lat="48.05323" lon="6.56527">
        <ele>625</ele>
        <time>2018-04-28T08:21:12.000Z</time>
      </trkpt>
      <trkpt lat="48.05322" lon="6.56529">
        <ele>625</ele>
        <time>2018-04-28T08:21:13.000Z</time>
      </trkpt>
      <trkpt lat="48.0532" lon="6.56531">
        <ele>625</ele>
        <time>2018-04-28T08:21:14.000Z</time>
      </trkpt>
      <trkpt lat="48.05319" lon="6.56532">
        <ele>625</ele>
        <time>2018-04-28T08:21:15.000Z</time>
      </trkpt>
      <trkpt lat="48.05318" lon="6.56534">
        <ele>625</ele>
        <time>2018-04-28T08:21:16.000Z</time>
      </trkpt>
      <trkpt lat="48.05317" lon="6.56536">
        <ele>625</ele>
        <time>2018-04-28T08:21:17.000Z</time>
      </trkpt>
      <trkpt lat="48.05316" lon="6.56538">
        <ele>625</ele>
        <time>2018-04-28T08:21:18.000Z</time>
      </trkpt>
      <trkpt lat="48.05315" lon="6.5654">
        <ele>625</ele>
        <time>2018-04-28T08:21:19.000Z</time>
      </trkpt>
      <trkpt lat="48.05314" lon="6.56542">
        <ele>625</ele>
        <time>2018-04-28T08:21:20.000Z</time>
      </trkpt>
      <trkpt lat="48.05313" lon="6.56544">
        <ele>625</ele>
        <time>2018-04-28T08:21:21.000Z</time>
      </trkpt>
      <trkpt lat="48.05312" lon="6.56546">
        <ele>625</ele>
        <time>2018-04-28T08:21:22.000Z</time>
      </trkpt>
      <trkpt lat="48.05311" lon="6.56548">
        <ele>625</ele>
        <time>2018-04-28T08:21:23.000Z</time>
      </trkpt>
      <trkpt lat="48.0531" lon="6.5655">
        <ele>625</ele>
        <time>2018-04-28T08:21:24.000Z</time>
      </trkpt>
      <trkpt lat="48.0531" lon="6.56552">
        <ele>625</ele>
        <time>2018-04-28T08:21:25.000Z</time>
      </trkpt>
      <trkpt lat="48.05309" lon="6.56554">
        <ele>625</ele>
        <time>2018-04-28T08:21:26.000Z</time>
      </trkpt>
      <trkpt lat="48.05308" lon="6.56556">
        <ele>625</ele>
        <time>2018-04-28T08:21:27.000Z</time>
      </trkpt>
      <trkpt lat="48.05307" lon="6.56558">
        <ele>625</ele>
        <time>2018-04-28T08:21:28.000Z</time>
      </trkpt>
      <trkpt lat="48.05306" lon="6.5656">
        <ele>624</ele>
        <time>2018-04-28T08:21:29.000Z</time>
      </trkpt>
      <trkpt lat="48.05305" lon="6.56562">
        <ele>624</ele>
        <time>2018-04-28T08:21:30.000Z</time>
      </trkpt>
      <trkpt lat="48.05304" lon="6.56564">
        <ele>624</ele>
        <time>2018-04-28T08:21:31.000Z</time>
      </trkpt>
      <trkpt lat="48.05303" lon="6.56566">
        <ele>624</ele>
        <time>2018-04-28T08:21:32.000Z</time>
      </trkpt>
      <trkpt lat="48.05302" lon="6.56568">
        <ele>624</ele>
        <time>2018-04-28T08:21:33.000Z</time>
      </trkpt>
      <trkpt lat="48.05301" lon="6.56569">
        <ele>624</ele>
        <time>2018-04-28T08:21:34.000Z</time>
      </trkpt>
      <trkpt lat="48.053" lon="6.56571">
        <ele>624</ele>
        <time>2018-04-28T08:21:35.000Z</time>
      </trkpt>
      <trkpt lat="48.053" lon="6.56571">
        <ele>624</ele>
        <time>2018-04-28T08:21:36.000Z</time>
      </trkpt>
      <trkpt lat="48.053" lon="6.56572">
        <ele>624</ele>
        <time>2018-04-28T08:21:37.000Z</time>
      </trkpt>
      <trkpt lat="48.05299" lon="6.56572">
        <ele>624</ele>
        <time>2018-04-28T08:21:38.000Z</time>
      </trkpt>
      <trkpt lat="48.05299" lon="6.56572">
        <ele>624</ele>
        <time>2018-04-28T08:21:39.000Z</time>
      </trkpt>
      <trkpt lat="48.05299" lon="6.56575">
        <ele>624</ele>
        <time>2018-04-28T08:21:40.000Z</time>
      </trkpt>
      <trkpt lat="48.05299" lon="6.56577">
        <ele>624</ele>
        <time>2018-04-28T08:21:41.000Z</time>
      </trkpt>
      <trkpt lat="48.05298" lon="6.56578">
        <ele>624</ele>
        <time>2018-04-28T08:21:42.000Z</time>
      </trkpt>
      <trkpt lat="48.05297" lon="6.5658">
        <ele>624</ele>
        <time>2018-04-28T08:21:43.000Z</time>
      </trkpt>
      <trkpt lat="48.05297" lon="6.56582">
        <ele>624</ele>
        <time>2018-04-28T08:21:44.000Z</time>
      </trkpt>
      <trkpt lat="48.05296" lon="6.56584">
        <ele>622</ele>
        <time>2018-04-28T08:21:45.000Z</time>
      </trkpt>
      <trkpt lat="48.05295" lon="6.56586">
        <ele>622</ele>
        <time>2018-04-28T08:21:46.000Z</time>
      </trkpt>
      <trkpt lat="48.05294" lon="6.56588">
        <ele>622</ele>
        <time>2018-04-28T08:21:47.000Z</time>
      </trkpt>
      <trkpt lat="48.05293" lon="6.5659">
        <ele>622</ele>
        <time>2018-04-28T08:21:48.000Z</time>
      </trkpt>
      <trkpt lat="48.05292" lon="6.56592">
        <ele>622</ele>
        <time>2018-04-28T08:21:49.000Z</time>
      </trkpt>
      <trkpt lat="48.05291" lon="6.56594">
        <ele>622</ele>
        <time>2018-04-28T08:21:50.000Z</time>
      </trkpt>
      <trkpt lat="48.0529" lon="6.56596">
        <ele>622</ele>
        <time>2018-04-28T08:21:51.000Z</time>
      </trkpt>
      <trkpt lat="48.05289" lon="6.56598">
        <ele>622</ele>
        <time>2018-04-28T08:21:52.000Z</time>
      </trkpt>
      <trkpt lat="48.05288" lon="6.566">
        <ele>622</ele>
        <time>2018-04-28T08:21:53.000Z</time>
      </trkpt>
      <trkpt lat="48.05287" lon="6.56602">
        <ele>622</ele>
        <time>2018-04-28T08:21:54.000Z</time>
      </trkpt>
      <trkpt lat="48.05286" lon="6.56603">
        <ele>622</ele>
        <time>2018-04-28T08:21:55.000Z</time>
      </trkpt>
      <trkpt lat="48.05285" lon="6.56605">
        <ele>622</ele>
        <time>2018-04-28T08:21:56.000Z</time>
      </trkpt>
      <trkpt lat="48.05284" lon="6.56607">
        <ele>622</ele>
        <time>2018-04-28T08:21:57.000Z</time>
      </trkpt>
      <trkpt lat="48.05283" lon="6.56609">
        <ele>622</ele>
        <time>2018-04-28T08:21:58.000Z</time>
      </trkpt>
      <trkpt lat="48.05281" lon="6.5661">
        <ele>622</ele>
        <time>2018-04-28T08:21:59.000Z</time>
      </trkpt>
      <trkpt lat="48.0528" lon="6.56612">
        <ele>622</ele>
        <time>2018-04-28T08:22:00.000Z</time>
      </trkpt>
      <trkpt lat="48.05279" lon="6.56614">
        <ele>622</ele>
        <time>2018-04-28T08:22:01.000Z</time>
      </trkpt>
      <trkpt lat="48.05278" lon="6.56615">
        <ele>622</ele>
        <time>2018-04-28T08:22:02.000Z</time>
      </trkpt>
      <trkpt lat="48.05277" lon="6.56617">
        <ele>622</ele>
        <time>2018-04-28T08:22:03.000Z</time>
      </trkpt>
      <trkpt lat="48.05276" lon="6.56618">
        <ele>622</ele>
        <time>2018-04-28T08:22:04.000Z</time>
      </trkpt>
      <trkpt lat="48.05274" lon="6.56619">
        <ele>622</ele>
        <time>2018-04-28T08:22:05.000Z</time>
      </trkpt>
      <trkpt lat="48.05273" lon="6.56621">
        <ele>622</ele>
        <time>2018-04-28T08:22:06.000Z</time>
      </trkpt>
      <trkpt lat="48.05272" lon="6.56622">
        <ele>622</ele>
        <time>2018-04-28T08:22:07.000Z</time>
      </trkpt>
      <trkpt lat="48.0527" lon="6.56624">
        <ele>621</ele>
        <time>2018-04-28T08:22:08.000Z</time>
      </trkpt>
      <trkpt lat="48.05269" lon="6.56625">
        <ele>621</ele>
        <time>2018-04-28T08:22:09.000Z</time>
      </trkpt>
      <trkpt lat="48.05268" lon="6.56627">
        <ele>621</ele>
        <time>2018-04-28T08:22:10.000Z</time>
      </trkpt>
      <trkpt lat="48.05267" lon="6.56628">
        <ele>621</ele>
        <time>2018-04-28T08:22:11.000Z</time>
      </trkpt>
      <trkpt lat="48.05266" lon="6.5663">
        <ele>621</ele>
        <time>2018-04-28T08:22:12.000Z</time>
      </trkpt>
      <trkpt lat="48.05265" lon="6.56631">
        <ele>621</ele>
        <time>2018-04-28T08:22:13.000Z</time>
      </trkpt>
      <trkpt lat="48.05264" lon="6.56632">
        <ele>621</ele>
        <time>2018-04-28T08:22:14.000Z</time>
      </trkpt>
      <trkpt lat="48.05263" lon="6.56633">
        <ele>621</ele>
        <time>2018-04-28T08:22:15.000Z</time>
      </trkpt>
      <trkpt lat="48.05262" lon="6.56634">
        <ele>621</ele>
        <time>2018-04-28T08:22:16.000Z</time>
      </trkpt>
      <trkpt lat="48.05262" lon="6.56635">
        <ele>621</ele>
        <time>2018-04-28T08:22:17.000Z</time>
      </trkpt>
      <trkpt lat="48.05261" lon="6.56636">
        <ele>621</ele>
        <time>2018-04-28T08:22:18.000Z</time>
      </trkpt>
      <trkpt lat="48.0526" lon="6.56638">
        <ele>621</ele>
        <time>2018-04-28T08:22:19.000Z</time>
      </trkpt>
      <trkpt lat="48.05259" lon="6.56639">
        <ele>621</ele>
        <time>2018-04-28T08:22:20.000Z</time>
      </trkpt>
      <trkpt lat="48.05258" lon="6.5664">
        <ele>621</ele>
        <time>2018-04-28T08:22:21.000Z</time>
      </trkpt>
      <trkpt lat="48.05257" lon="6.56642">
        <ele>621</ele>
        <time>2018-04-28T08:22:22.000Z</time>
      </trkpt>
      <trkpt lat="48.05255" lon="6.56643">
        <ele>621</ele>
        <time>2018-04-28T08:22:23.000Z</time>
      </trkpt>
      <trkpt lat="48.05254" lon="6.56645">
        <ele>621</ele>
        <time>2018-04-28T08:22:24.000Z</time>
      </trkpt>
      <trkpt lat="48.05253" lon="6.56646">
        <ele>621</ele>
        <time>2018-04-28T08:22:25.000Z</time>
      </trkpt>
      <trkpt lat="48.05252" lon="6.56648">
        <ele>620</ele>
        <time>2018-04-28T08:22:26.000Z</time>
      </trkpt>
      <trkpt lat="48.05251" lon="6.56649">
        <ele>620</ele>
        <time>2018-04-28T08:22:27.000Z</time>
      </trkpt>
      <trkpt lat="48.05251" lon="6.5665">
        <ele>620</ele>
        <time>2018-04-28T08:22:28.000Z</time>
      </trkpt>
      <trkpt lat="48.0525" lon="6.56652">
        <ele>621</ele>
        <time>2018-04-28T08:22:29.000Z</time>
      </trkpt>
      <trkpt lat="48.05249" lon="6.56653">
        <ele>621</ele>
        <time>2018-04-28T08:22:30.000Z</time>
      </trkpt>
      <trkpt lat="48.05248" lon="6.56655">
        <ele>620</ele>
        <time>2018-04-28T08:22:31.000Z</time>
      </trkpt>
      <trkpt lat="48.05246" lon="6.56657">
        <ele>620</ele>
        <time>2018-04-28T08:22:32.000Z</time>
      </trkpt>
      <trkpt lat="48.05245" lon="6.56658">
        <ele>620</ele>
        <time>2018-04-28T08:22:33.000Z</time>
      </trkpt>
      <trkpt lat="48.05244" lon="6.5666">
        <ele>620</ele>
        <time>2018-04-28T08:22:34.000Z</time>
      </trkpt>
      <trkpt lat="48.05243" lon="6.56662">
        <ele>620</ele>
        <time>2018-04-28T08:22:35.000Z</time>
      </trkpt>
      <trkpt lat="48.05242" lon="6.56664">
        <ele>620</ele>
        <time>2018-04-28T08:22:36.000Z</time>
      </trkpt>
      <trkpt lat="48.05241" lon="6.56665">
        <ele>620</ele>
        <time>2018-04-28T08:22:37.000Z</time>
      </trkpt>
      <trkpt lat="48.0524" lon="6.56667">
        <ele>618</ele>
        <time>2018-04-28T08:22:38.000Z</time>
      </trkpt>
      <trkpt lat="48.0524" lon="6.56668">
        <ele>618</ele>
        <time>2018-04-28T08:22:39.000Z</time>
      </trkpt>
      <trkpt lat="48.05239" lon="6.56669">
        <ele>618</ele>
        <time>2018-04-28T08:22:40.000Z</time>
      </trkpt>
      <trkpt lat="48.05238" lon="6.5667">
        <ele>618</ele>
        <time>2018-04-28T08:22:41.000Z</time>
      </trkpt>
      <trkpt lat="48.05237" lon="6.56671">
        <ele>618</ele>
        <time>2018-04-28T08:22:42.000Z</time>
      </trkpt>
      <trkpt lat="48.05237" lon="6.56672">
        <ele>618</ele>
        <time>2018-04-28T08:22:43.000Z</time>
      </trkpt>
      <trkpt lat="48.05236" lon="6.56674">
        <ele>618</ele>
        <time>2018-04-28T08:22:44.000Z</time>
      </trkpt>
      <trkpt lat="48.05235" lon="6.56675">
        <ele>618</ele>
        <time>2018-04-28T08:22:45.000Z</time>
      </trkpt>
      <trkpt lat="48.05235" lon="6.56676">
        <ele>618</ele>
        <time>2018-04-28T08:22:46.000Z</time>
      </trkpt>
      <trkpt lat="48.05234" lon="6.56678">
        <ele>618</ele>
        <time>2018-04-28T08:22:47.000Z</time>
      </trkpt>
      <trkpt lat="48.05232" lon="6.56679">
        <ele>618</ele>
        <time>2018-04-28T08:22:48.000Z</time>
      </trkpt>
      <trkpt lat="48.05231" lon="6.5668">
        <ele>618</ele>
        <time>2018-04-28T08:22:49.000Z</time>
      </trkpt>
      <trkpt lat="48.0523" lon="6.56681">
        <ele>618</ele>
        <time>2018-04-28T08:22:50.000Z</time>
      </trkpt>
      <trkpt lat="48.05229" lon="6.56682">
        <ele>618</ele>
        <time>2018-04-28T08:22:51.000Z</time>
      </trkpt>
      <trkpt lat="48.05228" lon="6.56683">
        <ele>618</ele>
        <time>2018-04-28T08:22:52.000Z</time>
      </trkpt>
      <trkpt lat="48.05227" lon="6.56685">
        <ele>618</ele>
        <time>2018-04-28T08:22:53.000Z</time>
      </trkpt>
      <trkpt lat="48.05226" lon="6.56686">
        <ele>617</ele>
        <time>2018-04-28T08:22:54.000Z</time>
      </trkpt>
      <trkpt lat="48.05225" lon="6.56688">
        <ele>617</ele>
        <time>2018-04-28T08:22:55.000Z</time>
      </trkpt>
      <trkpt lat="48.05224" lon="6.56689">
        <ele>617</ele>
        <time>2018-04-28T08:22:56.000Z</time>
      </trkpt>
      <trkpt lat="48.05223" lon="6.56691">
        <ele>617</ele>
        <time>2018-04-28T08:22:57.000Z</time>
      </trkpt>
      <trkpt lat="48.05222" lon="6.56693">
        <ele>617</ele>
        <time>2018-04-28T08:22:58.000Z</time>
      </trkpt>
      <trkpt lat="48.05222" lon="6.56695">
        <ele>617</ele>
        <time>2018-04-28T08:22:59.000Z</time>
      </trkpt>
      <trkpt lat="48.05221" lon="6.56697">
        <ele>617</ele>
        <time>2018-04-28T08:23:00.000Z</time>
      </trkpt>
      <trkpt lat="48.0522" lon="6.56698">
        <ele>617</ele>
        <time>2018-04-28T08:23:01.000Z</time>
      </trkpt>
      <trkpt lat="48.05219" lon="6.567">
        <ele>617</ele>
        <time>2018-04-28T08:23:02.000Z</time>
      </trkpt>
      <trkpt lat="48.05218" lon="6.56702">
        <ele>617</ele>
        <time>2018-04-28T08:23:03.000Z</time>
      </trkpt>
      <trkpt lat="48.05218" lon="6.56704">
        <ele>617</ele>
        <time>2018-04-28T08:23:04.000Z</time>
      </trkpt>
      <trkpt lat="48.05217" lon="6.56707">
        <ele>617</ele>
        <time>2018-04-28T08:23:05.000Z</time>
      </trkpt>
      <trkpt lat="48.05216" lon="6.56708">
        <ele>617</ele>
        <time>2018-04-28T08:23:06.000Z</time>
      </trkpt>
      <trkpt lat="48.05215" lon="6.5671">
        <ele>616</ele>
        <time>2018-04-28T08:23:07.000Z</time>
      </trkpt>
      <trkpt lat="48.05214" lon="6.56712">
        <ele>616</ele>
        <time>2018-04-28T08:23:08.000Z</time>
      </trkpt>
      <trkpt lat="48.05213" lon="6.56714">
        <ele>616</ele>
        <time>2018-04-28T08:23:09.000Z</time>
      </trkpt>
      <trkpt lat="48.05212" lon="6.56715">
        <ele>616</ele>
        <time>2018-04-28T08:23:10.000Z</time>
      </trkpt>
      <trkpt lat="48.05211" lon="6.56716">
        <ele>616</ele>
        <time>2018-04-28T08:23:11.000Z</time>
      </trkpt>
      <trkpt lat="48.0521" lon="6.56717">
        <ele>616</ele>
        <time>2018-04-28T08:23:12.000Z</time>
      </trkpt>
      <trkpt lat="48.05209" lon="6.56718">
        <ele>616</ele>
        <time>2018-04-28T08:23:13.000Z</time>
      </trkpt>
      <trkpt lat="48.05208" lon="6.5672">
        <ele>616</ele>
        <time>2018-04-28T08:23:14.000Z</time>
      </trkpt>
      <trkpt lat="48.05207" lon="6.56722">
        <ele>616</ele>
        <time>2018-04-28T08:23:15.000Z</time>
      </trkpt>
      <trkpt lat="48.05207" lon="6.56723">
        <ele>616</ele>
        <time>2018-04-28T08:23:16.000Z</time>
      </trkpt>
      <trkpt lat="48.05206" lon="6.56725">
        <ele>616</ele>
        <time>2018-04-28T08:23:17.000Z</time>
      </trkpt>
      <trkpt lat="48.05206" lon="6.56726">
        <ele>616</ele>
        <time>2018-04-28T08:23:18.000Z</time>
      </trkpt>
      <trkpt lat="48.05206" lon="6.56728">
        <ele>616</ele>
        <time>2018-04-28T08:23:19.000Z</time>
      </trkpt>
      <trkpt lat="48.05205" lon="6.56729">
        <ele>616</ele>
        <time>2018-04-28T08:23:20.000Z</time>
      </trkpt>
      <trkpt lat="48.05205" lon="6.56729">
        <ele>616</ele>
        <time>2018-04-28T08:23:21.000Z</time>
      </trkpt>
      <trkpt lat="48.05204" lon="6.5673">
        <ele>616</ele>
        <time>2018-04-28T08:23:22.000Z</time>
      </trkpt>
      <trkpt lat="48.05203" lon="6.5673">
        <ele>616</ele>
        <time>2018-04-28T08:23:23.000Z</time>
      </trkpt>
      <trkpt lat="48.05203" lon="6.56731">
        <ele>616</ele>
        <time>2018-04-28T08:23:24.000Z</time>
      </trkpt>
      <trkpt lat="48.05202" lon="6.56732">
        <ele>616</ele>
        <time>2018-04-28T08:23:25.000Z</time>
      </trkpt>
      <trkpt lat="48.05202" lon="6.56733">
        <ele>616</ele>
        <time>2018-04-28T08:23:26.000Z</time>
      </trkpt>
      <trkpt lat="48.05201" lon="6.56734">
        <ele>616</ele>
        <time>2018-04-28T08:23:27.000Z</time>
      </trkpt>
      <trkpt lat="48.052" lon="6.56735">
        <ele>616</ele>
        <time>2018-04-28T08:23:28.000Z</time>
      </trkpt>
      <trkpt lat="48.052" lon="6.56735">
        <ele>616</ele>
        <time>2018-04-28T08:23:29.000Z</time>
      </trkpt>
      <trkpt lat="48.05199" lon="6.56736">
        <ele>616</ele>
        <time>2018-04-28T08:23:30.000Z</time>
      </trkpt>
      <trkpt lat="48.05198" lon="6.56737">
        <ele>616</ele>
        <time>2018-04-28T08:23:31.000Z</time>
      </trkpt>
      <trkpt lat="48.05198" lon="6.56738">
        <ele>616</ele>
        <time>2018-04-28T08:23:32.000Z</time>
      </trkpt>
      <trkpt lat="48.05197" lon="6.56739">
        <ele>616</ele>
        <time>2018-04-28T08:23:33.000Z</time>
      </trkpt>
      <trkpt lat="48.05196" lon="6.5674">
        <ele>616</ele>
        <time>2018-04-28T08:23:34.000Z</time>
      </trkpt>
      <trkpt lat="48.05195" lon="6.56741">
        <ele>616</ele>
        <time>2018-04-28T08:23:35.000Z</time>
      </trkpt>
      <trkpt lat="48.05195" lon="6.56741">
        <ele>616</ele>
        <time>2018-04-28T08:23:36.000Z</time>
      </trkpt>
      <trkpt lat="48.05194" lon="6.56742">
        <ele>616</ele>
        <time>2018-04-28T08:23:37.000Z</time>
      </trkpt>
      <trkpt lat="48.05194" lon="6.56743">
        <ele>616</ele>
        <time>2018-04-28T08:23:38.000Z</time>
      </trkpt>
      <trkpt lat="48.05193" lon="6.56744">
        <ele>616</ele>
        <time>2018-04-28T08:23:39.000Z</time>
      </trkpt>
      <trkpt lat="48.05192" lon="6.56745">
        <ele>616</ele>
        <time>2018-04-28T08:23:40.000Z</time>
      </trkpt>
      <trkpt lat="48.05192" lon="6.56746">
        <ele>616</ele>
        <time>2018-04-28T08:23:41.000Z</time>
      </trkpt>
      <trkpt lat="48.05191" lon="6.56747">
        <ele>616</ele>
        <time>2018-04-28T08:23:42.000Z</time>
      </trkpt>
      <trkpt lat="48.0519" lon="6.56748">
        <ele>616</ele>
        <time>2018-04-28T08:23:43.000Z</time>
      </trkpt>
      <trkpt lat="48.0519" lon="6.56749">
        <ele>616</ele>
        <time>2018-04-28T08:23:44.000Z</time>
      </trkpt>
      <trkpt lat="48.05189" lon="6.5675">
        <ele>616</ele>
        <time>2018-04-28T08:23:45.000Z</time>
      </trkpt>
      <trkpt lat="48.05188" lon="6.56751">
        <ele>611</ele>
        <time>2018-04-28T08:23:46.000Z</time>
      </trkpt>
      <trkpt lat="48.05187" lon="6.56752">
        <ele>611</ele>
        <time>2018-04-28T08:23:47.000Z</time>
      </trkpt>
      <trkpt lat="48.05186" lon="6.56752">
        <ele>611</ele>
        <time>2018-04-28T08:23:48.000Z</time>
      </trkpt>
      <trkpt lat="48.05185" lon="6.56754">
        <ele>611</ele>
        <time>2018-04-28T08:23:49.000Z</time>
      </trkpt>
      <trkpt lat="48.05184" lon="6.56755">
        <ele>611</ele>
        <time>2018-04-28T08:23:50.000Z</time>
      </trkpt>
      <trkpt lat="48.05184" lon="6.56756">
        <ele>611</ele>
        <time>2018-04-28T08:23:51.000Z</time>
      </trkpt>
      <trkpt lat="48.05183" lon="6.56756">
        <ele>611</ele>
        <time>2018-04-28T08:23:52.000Z</time>
      </trkpt>
      <trkpt lat="48.05182" lon="6.56757">
        <ele>611</ele>
        <time>2018-04-28T08:23:53.000Z</time>
      </trkpt>
      <trkpt lat="48.05181" lon="6.56758">
        <ele>611</ele>
        <time>2018-04-28T08:23:54.000Z</time>
      </trkpt>
      <trkpt lat="48.0518" lon="6.56759">
        <ele>611</ele>
        <time>2018-04-28T08:23:55.000Z</time>
      </trkpt>
      <trkpt lat="48.05179" lon="6.56761">
        <ele>611</ele>
        <time>2018-04-28T08:23:56.000Z</time>
      </trkpt>
      <trkpt lat="48.05178" lon="6.56762">
        <ele>611</ele>
        <time>2018-04-28T08:23:57.000Z</time>
      </trkpt>
      <trkpt lat="48.05177" lon="6.56763">
        <ele>611</ele>
        <time>2018-04-28T08:23:58.000Z</time>
      </trkpt>
      <trkpt lat="48.05176" lon="6.56764">
        <ele>611</ele>
        <time>2018-04-28T08:23:59.000Z</time>
      </trkpt>
      <trkpt lat="48.05175" lon="6.56765">
        <ele>611</ele>
        <time>2018-04-28T08:24:00.000Z</time>
      </trkpt>
      <trkpt lat="48.05174" lon="6.56766">
        <ele>611</ele>
        <time>2018-04-28T08:24:01.000Z</time>
      </trkpt>
      <trkpt lat="48.05173" lon="6.56767">
        <ele>611</ele>
        <time>2018-04-28T08:24:02.000Z</time>
      </trkpt>
      <trkpt lat="48.05172" lon="6.56768">
        <ele>611</ele>
        <time>2018-04-28T08:24:03.000Z</time>
      </trkpt>
      <trkpt lat="48.05171" lon="6.56769">
        <ele>610</ele>
        <time>2018-04-28T08:24:04.000Z</time>
      </trkpt>
      <trkpt lat="48.0517" lon="6.5677">
        <ele>610</ele>
        <time>2018-04-28T08:24:05.000Z</time>
      </trkpt>
      <trkpt lat="48.05168" lon="6.56772">
        <ele>610</ele>
        <time>2018-04-28T08:24:06.000Z</time>
      </trkpt>
      <trkpt lat="48.05167" lon="6.56774">
        <ele>610</ele>
        <time>2018-04-28T08:24:07.000Z</time>
      </trkpt>
      <trkpt lat="48.05166" lon="6.56775">
        <ele>612</ele>
        <time>2018-04-28T08:24:08.000Z</time>
      </trkpt>
      <trkpt lat="48.05165" lon="6.56777">
        <ele>612</ele>
        <time>2018-04-28T08:24:09.000Z</time>
      </trkpt>
      <trkpt lat="48.05164" lon="6.56779">
        <ele>611</ele>
        <time>2018-04-28T08:24:10.000Z</time>
      </trkpt>
      <trkpt lat="48.05164" lon="6.5678">
        <ele>611</ele>
        <time>2018-04-28T08:24:11.000Z</time>
      </trkpt>
      <trkpt lat="48.05163" lon="6.56782">
        <ele>611</ele>
        <time>2018-04-28T08:24:12.000Z</time>
      </trkpt>
      <trkpt lat="48.05162" lon="6.56783">
        <ele>611</ele>
        <time>2018-04-28T08:24:13.000Z</time>
      </trkpt>
      <trkpt lat="48.05161" lon="6.56784">
        <ele>611</ele>
        <time>2018-04-28T08:24:14.000Z</time>
      </trkpt>
      <trkpt lat="48.05159" lon="6.56786">
        <ele>611</ele>
        <time>2018-04-28T08:24:15.000Z</time>
      </trkpt>
      <trkpt lat="48.05158" lon="6.56787">
        <ele>611</ele>
        <time>2018-04-28T08:24:16.000Z</time>
      </trkpt>
      <trkpt lat="48.05157" lon="6.56788">
        <ele>611</ele>
        <time>2018-04-28T08:24:17.000Z</time>
      </trkpt>
      <trkpt lat="48.05155" lon="6.5679">
        <ele>610</ele>
        <time>2018-04-28T08:24:18.000Z</time>
      </trkpt>
      <trkpt lat="48.05154" lon="6.56791">
        <ele>610</ele>
        <time>2018-04-28T08:24:19.000Z</time>
      </trkpt>
      <trkpt lat="48.05153" lon="6.56793">
        <ele>610</ele>
        <time>2018-04-28T08:24:20.000Z</time>
      </trkpt>
      <trkpt lat="48.05152" lon="6.56794">
        <ele>610</ele>
        <time>2018-04-28T08:24:21.000Z</time>
      </trkpt>
      <trkpt lat="48.0515" lon="6.56795">
        <ele>610</ele>
        <time>2018-04-28T08:24:22.000Z</time>
      </trkpt>
      <trkpt lat="48.05149" lon="6.56797">
        <ele>610</ele>
        <time>2018-04-28T08:24:23.000Z</time>
      </trkpt>
      <trkpt lat="48.05148" lon="6.56798">
        <ele>610</ele>
        <time>2018-04-28T08:24:24.000Z</time>
      </trkpt>
      <trkpt lat="48.05146" lon="6.568">
        <ele>610</ele>
        <time>2018-04-28T08:24:25.000Z</time>
      </trkpt>
      <trkpt lat="48.05145" lon="6.56801">
        <ele>610</ele>
        <time>2018-04-28T08:24:26.000Z</time>
      </trkpt>
      <trkpt lat="48.05143" lon="6.56802">
        <ele>610</ele>
        <time>2018-04-28T08:24:27.000Z</time>
      </trkpt>
      <trkpt lat="48.05142" lon="6.56803">
        <ele>610</ele>
        <time>2018-04-28T08:24:28.000Z</time>
      </trkpt>
      <trkpt lat="48.05141" lon="6.56804">
        <ele>609</ele>
        <time>2018-04-28T08:24:29.000Z</time>
      </trkpt>
      <trkpt lat="48.05139" lon="6.56805">
        <ele>609</ele>
        <time>2018-04-28T08:24:30.000Z</time>
      </trkpt>
      <trkpt lat="48.05138" lon="6.56807">
        <ele>609</ele>
        <time>2018-04-28T08:24:31.000Z</time>
      </trkpt>
      <trkpt lat="48.05137" lon="6.56808">
        <ele>609</ele>
        <time>2018-04-28T08:24:32.000Z</time>
      </trkpt>
      <trkpt lat="48.05136" lon="6.56809">
        <ele>609</ele>
        <time>2018-04-28T08:24:33.000Z</time>
      </trkpt>
      <trkpt lat="48.05135" lon="6.5681">
        <ele>609</ele>
        <time>2018-04-28T08:24:34.000Z</time>
      </trkpt>
      <trkpt lat="48.05133" lon="6.56811">
        <ele>609</ele>
        <time>2018-04-28T08:24:35.000Z</time>
      </trkpt>
      <trkpt lat="48.05131" lon="6.56811">
        <ele>609</ele>
        <time>2018-04-28T08:24:36.000Z</time>
      </trkpt>
      <trkpt lat="48.0513" lon="6.56812">
        <ele>609</ele>
        <time>2018-04-28T08:24:37.000Z</time>
      </trkpt>
      <trkpt lat="48.05128" lon="6.56813">
        <ele>609</ele>
        <time>2018-04-28T08:24:38.000Z</time>
      </trkpt>
      <trkpt lat="48.05126" lon="6.56814">
        <ele>609</ele>
        <time>2018-04-28T08:24:39.000Z</time>
      </trkpt>
      <trkpt lat="48.05125" lon="6.56815">
        <ele>609</ele>
        <time>2018-04-28T08:24:40.000Z</time>
      </trkpt>
      <trkpt lat="48.05123" lon="6.56816">
        <ele>609</ele>
        <time>2018-04-28T08:24:41.000Z</time>
      </trkpt>
      <trkpt lat="48.05122" lon="6.56817">
        <ele>609</ele>
        <time>2018-04-28T08:24:42.000Z</time>
      </trkpt>
      <trkpt lat="48.0512" lon="6.56817">
        <ele>609</ele>
        <time>2018-04-28T08:24:43.000Z</time>
      </trkpt>
      <trkpt lat="48.05119" lon="6.56818">
        <ele>608</ele>
        <time>2018-04-28T08:24:44.000Z</time>
      </trkpt>
      <trkpt lat="48.05117" lon="6.56819">
        <ele>608</ele>
        <time>2018-04-28T08:24:45.000Z</time>
      </trkpt>
      <trkpt lat="48.05115" lon="6.5682">
        <ele>608</ele>
        <time>2018-04-28T08:24:46.000Z</time>
      </trkpt>
      <trkpt lat="48.05114" lon="6.56821">
        <ele>608</ele>
        <time>2018-04-28T08:24:47.000Z</time>
      </trkpt>
      <trkpt lat="48.05112" lon="6.56821">
        <ele>608</ele>
        <time>2018-04-28T08:24:48.000Z</time>
      </trkpt>
      <trkpt lat="48.05111" lon="6.56822">
        <ele>608</ele>
        <time>2018-04-28T08:24:49.000Z</time>
      </trkpt>
      <trkpt lat="48.05109" lon="6.56822">
        <ele>608</ele>
        <time>2018-04-28T08:24:50.000Z</time>
      </trkpt>
      <trkpt lat="48.05108" lon="6.56822">
        <ele>608</ele>
        <time>2018-04-28T08:24:51.000Z</time>
      </trkpt>
      <trkpt lat="48.05106" lon="6.56823">
        <ele>608</ele>
        <time>2018-04-28T08:24:52.000Z</time>
      </trkpt>
      <trkpt lat="48.05105" lon="6.56823">
        <ele>607</ele>
        <time>2018-04-28T08:24:53.000Z</time>
      </trkpt>
      <trkpt lat="48.05103" lon="6.56824">
        <ele>607</ele>
        <time>2018-04-28T08:24:54.000Z</time>
      </trkpt>
      <trkpt lat="48.05101" lon="6.56824">
        <ele>607</ele>
        <time>2018-04-28T08:24:55.000Z</time>
      </trkpt>
      <trkpt lat="48.051" lon="6.56825">
        <ele>607</ele>
        <time>2018-04-28T08:24:56.000Z</time>
      </trkpt>
      <trkpt lat="48.05099" lon="6.56826">
        <ele>607</ele>
        <time>2018-04-28T08:24:57.000Z</time>
      </trkpt>
      <trkpt lat="48.05098" lon="6.56826">
        <ele>606</ele>
        <time>2018-04-28T08:24:58.000Z</time>
      </trkpt>
      <trkpt lat="48.05096" lon="6.56827">
        <ele>606</ele>
        <time>2018-04-28T08:24:59.000Z</time>
      </trkpt>
      <trkpt lat="48.05095" lon="6.56827">
        <ele>606</ele>
        <time>2018-04-28T08:25:00.000Z</time>
      </trkpt>
      <trkpt lat="48.05093" lon="6.56828">
        <ele>606</ele>
        <time>2018-04-28T08:25:01.000Z</time>
      </trkpt>
      <trkpt lat="48.05092" lon="6.56828">
        <ele>605</ele>
        <time>2018-04-28T08:25:02.000Z</time>
      </trkpt>
      <trkpt lat="48.0509" lon="6.56828">
        <ele>605</ele>
        <time>2018-04-28T08:25:03.000Z</time>
      </trkpt>
      <trkpt lat="48.05089" lon="6.56828">
        <ele>605</ele>
        <time>2018-04-28T08:25:04.000Z</time>
      </trkpt>
      <trkpt lat="48.05088" lon="6.56829">
        <ele>605</ele>
        <time>2018-04-28T08:25:05.000Z</time>
      </trkpt>
      <trkpt lat="48.05086" lon="6.56829">
        <ele>604</ele>
        <time>2018-04-28T08:25:06.000Z</time>
      </trkpt>
      <trkpt lat="48.05085" lon="6.56829">
        <ele>604</ele>
        <time>2018-04-28T08:25:07.000Z</time>
      </trkpt>
      <trkpt lat="48.05083" lon="6.56829">
        <ele>603</ele>
        <time>2018-04-28T08:25:08.000Z</time>
      </trkpt>
      <trkpt lat="48.05082" lon="6.56829">
        <ele>603</ele>
        <time>2018-04-28T08:25:09.000Z</time>
      </trkpt>
      <trkpt lat="48.05081" lon="6.5683">
        <ele>603</ele>
        <time>2018-04-28T08:25:10.000Z</time>
      </trkpt>
      <trkpt lat="48.05079" lon="6.5683">
        <ele>604</ele>
        <time>2018-04-28T08:25:11.000Z</time>
      </trkpt>
      <trkpt lat="48.05077" lon="6.5683">
        <ele>604</ele>
        <time>2018-04-28T08:25:12.000Z</time>
      </trkpt>
      <trkpt lat="48.05076" lon="6.5683">
        <ele>604</ele>
        <time>2018-04-28T08:25:13.000Z</time>
      </trkpt>
      <trkpt lat="48.05074" lon="6.5683">
        <ele>604</ele>
        <time>2018-04-28T08:25:14.000Z</time>
      </trkpt>
      <trkpt lat="48.05073" lon="6.56829">
        <ele>604</ele>
        <time>2018-04-28T08:25:15.000Z</time>
      </trkpt>
      <trkpt lat="48.05071" lon="6.56829">
        <ele>604</ele>
        <time>2018-04-28T08:25:16.000Z</time>
      </trkpt>
      <trkpt lat="48.05069" lon="6.56829">
        <ele>604</ele>
        <time>2018-04-28T08:25:17.000Z</time>
      </trkpt>
      <trkpt lat="48.05068" lon="6.56828">
        <ele>604</ele>
        <time>2018-04-28T08:25:18.000Z</time>
      </trkpt>
      <trkpt lat="48.05066" lon="6.56829">
        <ele>604</ele>
        <time>2018-04-28T08:25:19.000Z</time>
      </trkpt>
      <trkpt lat="48.05065" lon="6.56828">
        <ele>604</ele>
        <time>2018-04-28T08:25:20.000Z</time>
      </trkpt>
      <trkpt lat="48.05064" lon="6.56828">
        <ele>604</ele>
        <time>2018-04-28T08:25:21.000Z</time>
      </trkpt>
      <trkpt lat="48.05062" lon="6.56828">
        <ele>604</ele>
        <time>2018-04-28T08:25:22.000Z</time>
      </trkpt>
      <trkpt lat="48.05061" lon="6.56827">
        <ele>604</ele>
        <time>2018-04-28T08:25:23.000Z</time>
      </trkpt>
      <trkpt lat="48.0506" lon="6.56827">
        <ele>604</ele>
        <time>2018-04-28T08:25:24.000Z</time>
      </trkpt>
      <trkpt lat="48.05058" lon="6.56827">
        <ele>604</ele>
        <time>2018-04-28T08:25:25.000Z</time>
      </trkpt>
      <trkpt lat="48.05057" lon="6.56826">
        <ele>604</ele>
        <time>2018-04-28T08:25:26.000Z</time>
      </trkpt>
      <trkpt lat="48.05055" lon="6.56826">
        <ele>604</ele>
        <time>2018-04-28T08:25:27.000Z</time>
      </trkpt>
      <trkpt lat="48.05053" lon="6.56825">
        <ele>604</ele>
        <time>2018-04-28T08:25:28.000Z</time>
      </trkpt>
      <trkpt lat="48.05051" lon="6.56825">
        <ele>604</ele>
        <time>2018-04-28T08:25:29.000Z</time>
      </trkpt>
      <trkpt lat="48.0505" lon="6.56824">
        <ele>604</ele>
        <time>2018-04-28T08:25:30.000Z</time>
      </trkpt>
      <trkpt lat="48.05048" lon="6.56824">
        <ele>604</ele>
        <time>2018-04-28T08:25:31.000Z</time>
      </trkpt>
      <trkpt lat="48.05047" lon="6.56824">
        <ele>604</ele>
        <time>2018-04-28T08:25:32.000Z</time>
      </trkpt>
      <trkpt lat="48.05045" lon="6.56824">
        <ele>604</ele>
        <time>2018-04-28T08:25:33.000Z</time>
      </trkpt>
      <trkpt lat="48.05044" lon="6.56824">
        <ele>604</ele>
        <time>2018-04-28T08:25:34.000Z</time>
      </trkpt>
      <trkpt lat="48.05043" lon="6.56824">
        <ele>604</ele>
        <time>2018-04-28T08:25:35.000Z</time>
      </trkpt>
      <trkpt lat="48.05041" lon="6.56823">
        <ele>604</ele>
        <time>2018-04-28T08:25:36.000Z</time>
      </trkpt>
      <trkpt lat="48.05039" lon="6.56823">
        <ele>603</ele>
        <time>2018-04-28T08:25:37.000Z</time>
      </trkpt>
      <trkpt lat="48.05038" lon="6.56823">
        <ele>603</ele>
        <time>2018-04-28T08:25:38.000Z</time>
      </trkpt>
      <trkpt lat="48.05036" lon="6.56823">
        <ele>603</ele>
        <time>2018-04-28T08:25:39.000Z</time>
      </trkpt>
      <trkpt lat="48.05035" lon="6.56823">
        <ele>603</ele>
        <time>2018-04-28T08:25:40.000Z</time>
      </trkpt>
      <trkpt lat="48.05033" lon="6.56822">
        <ele>603</ele>
        <time>2018-04-28T08:25:41.000Z</time>
      </trkpt>
      <trkpt lat="48.05032" lon="6.56822">
        <ele>603</ele>
        <time>2018-04-28T08:25:42.000Z</time>
      </trkpt>
      <trkpt lat="48.05031" lon="6.56823">
        <ele>603</ele>
        <time>2018-04-28T08:25:43.000Z</time>
      </trkpt>
      <trkpt lat="48.0503" lon="6.56823">
        <ele>602</ele>
        <time>2018-04-28T08:25:44.000Z</time>
      </trkpt>
      <trkpt lat="48.05029" lon="6.56822">
        <ele>602</ele>
        <time>2018-04-28T08:25:45.000Z</time>
      </trkpt>
      <trkpt lat="48.05027" lon="6.56822">
        <ele>602</ele>
        <time>2018-04-28T08:25:46.000Z</time>
      </trkpt>
      <trkpt lat="48.05025" lon="6.56822">
        <ele>602</ele>
        <time>2018-04-28T08:25:47.000Z</time>
      </trkpt>
      <trkpt lat="48.05024" lon="6.56821">
        <ele>602</ele>
        <time>2018-04-28T08:25:48.000Z</time>
      </trkpt>
      <trkpt lat="48.05022" lon="6.56821">
        <ele>602</ele>
        <time>2018-04-28T08:25:49.000Z</time>
      </trkpt>
      <trkpt lat="48.0502" lon="6.5682">
        <ele>601</ele>
        <time>2018-04-28T08:25:50.000Z</time>
      </trkpt>
      <trkpt lat="48.05019" lon="6.5682">
        <ele>601</ele>
        <time>2018-04-28T08:25:51.000Z</time>
      </trkpt>
      <trkpt lat="48.05017" lon="6.56819">
        <ele>601</ele>
        <time>2018-04-28T08:25:52.000Z</time>
      </trkpt>
      <trkpt lat="48.05016" lon="6.56819">
        <ele>601</ele>
        <time>2018-04-28T08:25:53.000Z</time>
      </trkpt>
      <trkpt lat="48.05014" lon="6.56818">
        <ele>601</ele>
        <time>2018-04-28T08:25:54.000Z</time>
      </trkpt>
      <trkpt lat="48.05013" lon="6.56818">
        <ele>601</ele>
        <time>2018-04-28T08:25:55.000Z</time>
      </trkpt>
      <trkpt lat="48.05011" lon="6.56818">
        <ele>601</ele>
        <time>2018-04-28T08:25:56.000Z</time>
      </trkpt>
      <trkpt lat="48.0501" lon="6.56817">
        <ele>600</ele>
        <time>2018-04-28T08:25:57.000Z</time>
      </trkpt>
      <trkpt lat="48.05008" lon="6.56817">
        <ele>600</ele>
        <time>2018-04-28T08:25:58.000Z</time>
      </trkpt>
      <trkpt lat="48.05007" lon="6.56817">
        <ele>600</ele>
        <time>2018-04-28T08:25:59.000Z</time>
      </trkpt>
      <trkpt lat="48.05006" lon="6.56817">
        <ele>600</ele>
        <time>2018-04-28T08:26:00.000Z</time>
      </trkpt>
      <trkpt lat="48.05005" lon="6.56816">
        <ele>600</ele>
        <time>2018-04-28T08:26:01.000Z</time>
      </trkpt>
      <trkpt lat="48.05003" lon="6.56816">
        <ele>600</ele>
        <time>2018-04-28T08:26:02.000Z</time>
      </trkpt>
      <trkpt lat="48.05002" lon="6.56816">
        <ele>600</ele>
        <time>2018-04-28T08:26:03.000Z</time>
      </trkpt>
      <trkpt lat="48.05" lon="6.56815">
        <ele>596</ele>
        <time>2018-04-28T08:26:04.000Z</time>
      </trkpt>
      <trkpt lat="48.04999" lon="6.56815">
        <ele>596</ele>
        <time>2018-04-28T08:26:05.000Z</time>
      </trkpt>
      <trkpt lat="48.04997" lon="6.56815">
        <ele>596</ele>
        <time>2018-04-28T08:26:06.000Z</time>
      </trkpt>
      <trkpt lat="48.04996" lon="6.56814">
        <ele>596</ele>
        <time>2018-04-28T08:26:07.000Z</time>
      </trkpt>
      <trkpt lat="48.04995" lon="6.56814">
        <ele>596</ele>
        <time>2018-04-28T08:26:08.000Z</time>
      </trkpt>
      <trkpt lat="48.04993" lon="6.56814">
        <ele>596</ele>
        <time>2018-04-28T08:26:09.000Z</time>
      </trkpt>
      <trkpt lat="48.04992" lon="6.56813">
        <ele>596</ele>
        <time>2018-04-28T08:26:10.000Z</time>
      </trkpt>
      <trkpt lat="48.04991" lon="6.56813">
        <ele>596</ele>
        <time>2018-04-28T08:26:11.000Z</time>
      </trkpt>
      <trkpt lat="48.04989" lon="6.56813">
        <ele>596</ele>
        <time>2018-04-28T08:26:12.000Z</time>
      </trkpt>
      <trkpt lat="48.04987" lon="6.56813">
        <ele>596</ele>
        <time>2018-04-28T08:26:13.000Z</time>
      </trkpt>
      <trkpt lat="48.04986" lon="6.56812">
        <ele>596</ele>
        <time>2018-04-28T08:26:14.000Z</time>
      </trkpt>
      <trkpt lat="48.04984" lon="6.56812">
        <ele>596</ele>
        <time>2018-04-28T08:26:15.000Z</time>
      </trkpt>
      <trkpt lat="48.04983" lon="6.56811">
        <ele>596</ele>
        <time>2018-04-28T08:26:16.000Z</time>
      </trkpt>
      <trkpt lat="48.04981" lon="6.56811">
        <ele>596</ele>
        <time>2018-04-28T08:26:17.000Z</time>
      </trkpt>
      <trkpt lat="48.04979" lon="6.5681">
        <ele>596</ele>
        <time>2018-04-28T08:26:18.000Z</time>
      </trkpt>
      <trkpt lat="48.04978" lon="6.5681">
        <ele>596</ele>
        <time>2018-04-28T08:26:19.000Z</time>
      </trkpt>
      <trkpt lat="48.04976" lon="6.56809">
        <ele>595</ele>
        <time>2018-04-28T08:26:20.000Z</time>
      </trkpt>
      <trkpt lat="48.04975" lon="6.56809">
        <ele>595</ele>
        <time>2018-04-28T08:26:21.000Z</time>
      </trkpt>
      <trkpt lat="48.04973" lon="6.56809">
        <ele>595</ele>
        <time>2018-04-28T08:26:22.000Z</time>
      </trkpt>
      <trkpt lat="48.04972" lon="6.56808">
        <ele>595</ele>
        <time>2018-04-28T08:26:23.000Z</time>
      </trkpt>
      <trkpt lat="48.04971" lon="6.56807">
        <ele>595</ele>
        <time>2018-04-28T08:26:24.000Z</time>
      </trkpt>
      <trkpt lat="48.04969" lon="6.56807">
        <ele>595</ele>
        <time>2018-04-28T08:26:25.000Z</time>
      </trkpt>
      <trkpt lat="48.04968" lon="6.56806">
        <ele>595</ele>
        <time>2018-04-28T08:26:26.000Z</time>
      </trkpt>
      <trkpt lat="48.04966" lon="6.56806">
        <ele>595</ele>
        <time>2018-04-28T08:26:27.000Z</time>
      </trkpt>
      <trkpt lat="48.04965" lon="6.56805">
        <ele>595</ele>
        <time>2018-04-28T08:26:28.000Z</time>
      </trkpt>
      <trkpt lat="48.04964" lon="6.56805">
        <ele>595</ele>
        <time>2018-04-28T08:26:29.000Z</time>
      </trkpt>
      <trkpt lat="48.04963" lon="6.56804">
        <ele>595</ele>
        <time>2018-04-28T08:26:30.000Z</time>
      </trkpt>
      <trkpt lat="48.04961" lon="6.56803">
        <ele>595</ele>
        <time>2018-04-28T08:26:31.000Z</time>
      </trkpt>
      <trkpt lat="48.04959" lon="6.56801">
        <ele>595</ele>
        <time>2018-04-28T08:26:32.000Z</time>
      </trkpt>
      <trkpt lat="48.04957" lon="6.568">
        <ele>595</ele>
        <time>2018-04-28T08:26:33.000Z</time>
      </trkpt>
      <trkpt lat="48.04955" lon="6.56798">
        <ele>595</ele>
        <time>2018-04-28T08:26:34.000Z</time>
      </trkpt>
      <trkpt lat="48.04953" lon="6.56797">
        <ele>595</ele>
        <time>2018-04-28T08:26:35.000Z</time>
      </trkpt>
      <trkpt lat="48.04951" lon="6.56796">
        <ele>595</ele>
        <time>2018-04-28T08:26:36.000Z</time>
      </trkpt>
      <trkpt lat="48.04948" lon="6.56795">
        <ele>595</ele>
        <time>2018-04-28T08:26:37.000Z</time>
      </trkpt>
      <trkpt lat="48.04946" lon="6.56794">
        <ele>595</ele>
        <time>2018-04-28T08:26:38.000Z</time>
      </trkpt>
      <trkpt lat="48.04944" lon="6.56793">
        <ele>595</ele>
        <time>2018-04-28T08:26:39.000Z</time>
      </trkpt>
      <trkpt lat="48.04943" lon="6.56792">
        <ele>595</ele>
        <time>2018-04-28T08:26:40.000Z</time>
      </trkpt>
      <trkpt lat="48.04941" lon="6.56791">
        <ele>595</ele>
        <time>2018-04-28T08:26:41.000Z</time>
      </trkpt>
      <trkpt lat="48.04939" lon="6.5679">
        <ele>595</ele>
        <time>2018-04-28T08:26:42.000Z</time>
      </trkpt>
      <trkpt lat="48.04937" lon="6.56789">
        <ele>595</ele>
        <time>2018-04-28T08:26:43.000Z</time>
      </trkpt>
      <trkpt lat="48.04935" lon="6.56787">
        <ele>595</ele>
        <time>2018-04-28T08:26:44.000Z</time>
      </trkpt>
      <trkpt lat="48.04933" lon="6.56786">
        <ele>595</ele>
        <time>2018-04-28T08:26:45.000Z</time>
      </trkpt>
      <trkpt lat="48.04931" lon="6.56785">
        <ele>595</ele>
        <time>2018-04-28T08:26:46.000Z</time>
      </trkpt>
      <trkpt lat="48.04929" lon="6.56785">
        <ele>595</ele>
        <time>2018-04-28T08:26:47.000Z</time>
      </trkpt>
      <trkpt lat="48.04927" lon="6.56784">
        <ele>595</ele>
        <time>2018-04-28T08:26:48.000Z</time>
      </trkpt>
      <trkpt lat="48.04925" lon="6.56783">
        <ele>595</ele>
        <time>2018-04-28T08:26:49.000Z</time>
      </trkpt>
      <trkpt lat="48.04923" lon="6.56783">
        <ele>595</ele>
        <time>2018-04-28T08:26:50.000Z</time>
      </trkpt>
      <trkpt lat="48.04921" lon="6.56782">
        <ele>595</ele>
        <time>2018-04-28T08:26:51.000Z</time>
      </trkpt>
      <trkpt lat="48.04919" lon="6.56781">
        <ele>595</ele>
        <time>2018-04-28T08:26:52.000Z</time>
      </trkpt>
      <trkpt lat="48.04918" lon="6.5678">
        <ele>595</ele>
        <time>2018-04-28T08:26:53.000Z</time>
      </trkpt>
      <trkpt lat="48.04916" lon="6.56779">
        <ele>588</ele>
        <time>2018-04-28T08:26:54.000Z</time>
      </trkpt>
      <trkpt lat="48.04914" lon="6.56779">
        <ele>588</ele>
        <time>2018-04-28T08:26:55.000Z</time>
      </trkpt>
      <trkpt lat="48.04913" lon="6.56778">
        <ele>588</ele>
        <time>2018-04-28T08:26:56.000Z</time>
      </trkpt>
      <trkpt lat="48.04911" lon="6.56777">
        <ele>588</ele>
        <time>2018-04-28T08:26:57.000Z</time>
      </trkpt>
      <trkpt lat="48.04909" lon="6.56777">
        <ele>588</ele>
        <time>2018-04-28T08:26:58.000Z</time>
      </trkpt>
      <trkpt lat="48.04908" lon="6.56776">
        <ele>588</ele>
        <time>2018-04-28T08:26:59.000Z</time>
      </trkpt>
      <trkpt lat="48.04907" lon="6.56776">
        <ele>588</ele>
        <time>2018-04-28T08:27:00.000Z</time>
      </trkpt>
      <trkpt lat="48.04905" lon="6.56775">
        <ele>588</ele>
        <time>2018-04-28T08:27:01.000Z</time>
      </trkpt>
      <trkpt lat="48.04904" lon="6.56775">
        <ele>588</ele>
        <time>2018-04-28T08:27:02.000Z</time>
      </trkpt>
      <trkpt lat="48.04903" lon="6.56774">
        <ele>588</ele>
        <time>2018-04-28T08:27:03.000Z</time>
      </trkpt>
      <trkpt lat="48.04903" lon="6.56774">
        <ele>588</ele>
        <time>2018-04-28T08:27:04.000Z</time>
      </trkpt>
      <trkpt lat="48.04902" lon="6.56774">
        <ele>588</ele>
        <time>2018-04-28T08:27:05.000Z</time>
      </trkpt>
      <trkpt lat="48.04901" lon="6.56774">
        <ele>588</ele>
        <time>2018-04-28T08:27:06.000Z</time>
      </trkpt>
      <trkpt lat="48.049" lon="6.56774">
        <ele>588</ele>
        <time>2018-04-28T08:27:07.000Z</time>
      </trkpt>
      <trkpt lat="48.04899" lon="6.56773">
        <ele>588</ele>
        <time>2018-04-28T08:27:08.000Z</time>
      </trkpt>
      <trkpt lat="48.04898" lon="6.56772">
        <ele>588</ele>
        <time>2018-04-28T08:27:09.000Z</time>
      </trkpt>
      <trkpt lat="48.04897" lon="6.56772">
        <ele>588</ele>
        <time>2018-04-28T08:27:10.000Z</time>
      </trkpt>
      <trkpt lat="48.04895" lon="6.56771">
        <ele>588</ele>
        <time>2018-04-28T08:27:11.000Z</time>
      </trkpt>
      <trkpt lat="48.04894" lon="6.56771">
        <ele>588</ele>
        <time>2018-04-28T08:27:12.000Z</time>
      </trkpt>
      <trkpt lat="48.04893" lon="6.5677">
        <ele>588</ele>
        <time>2018-04-28T08:27:13.000Z</time>
      </trkpt>
      <trkpt lat="48.04892" lon="6.5677">
        <ele>588</ele>
        <time>2018-04-28T08:27:14.000Z</time>
      </trkpt>
      <trkpt lat="48.0489" lon="6.5677">
        <ele>587</ele>
        <time>2018-04-28T08:27:15.000Z</time>
      </trkpt>
      <trkpt lat="48.04889" lon="6.56769">
        <ele>587</ele>
        <time>2018-04-28T08:27:16.000Z</time>
      </trkpt>
      <trkpt lat="48.04887" lon="6.56769">
        <ele>587</ele>
        <time>2018-04-28T08:27:17.000Z</time>
      </trkpt>
      <trkpt lat="48.04886" lon="6.56769">
        <ele>587</ele>
        <time>2018-04-28T08:27:18.000Z</time>
      </trkpt>
      <trkpt lat="48.04885" lon="6.56768">
        <ele>587</ele>
        <time>2018-04-28T08:27:19.000Z</time>
      </trkpt>
      <trkpt lat="48.04885" lon="6.56768">
        <ele>587</ele>
        <time>2018-04-28T08:27:20.000Z</time>
      </trkpt>
      <trkpt lat="48.04884" lon="6.56768">
        <ele>587</ele>
        <time>2018-04-28T08:27:21.000Z</time>
      </trkpt>
      <trkpt lat="48.04883" lon="6.56769">
        <ele>587</ele>
        <time>2018-04-28T08:27:22.000Z</time>
      </trkpt>
      <trkpt lat="48.04882" lon="6.56769">
        <ele>587</ele>
        <time>2018-04-28T08:27:23.000Z</time>
      </trkpt>
      <trkpt lat="48.04881" lon="6.56768">
        <ele>586</ele>
        <time>2018-04-28T08:27:24.000Z</time>
      </trkpt>
      <trkpt lat="48.0488" lon="6.56768">
        <ele>586</ele>
        <time>2018-04-28T08:27:25.000Z</time>
      </trkpt>
      <trkpt lat="48.04879" lon="6.56768">
        <ele>586</ele>
        <time>2018-04-28T08:27:26.000Z</time>
      </trkpt>
      <trkpt lat="48.04878" lon="6.56767">
        <ele>586</ele>
        <time>2018-04-28T08:27:27.000Z</time>
      </trkpt>
      <trkpt lat="48.04877" lon="6.56767">
        <ele>586</ele>
        <time>2018-04-28T08:27:28.000Z</time>
      </trkpt>
      <trkpt lat="48.04875" lon="6.56767">
        <ele>586</ele>
        <time>2018-04-28T08:27:29.000Z</time>
      </trkpt>
      <trkpt lat="48.04874" lon="6.56767">
        <ele>586</ele>
        <time>2018-04-28T08:27:30.000Z</time>
      </trkpt>
      <trkpt lat="48.04872" lon="6.56767">
        <ele>586</ele>
        <time>2018-04-28T08:27:31.000Z</time>
      </trkpt>
      <trkpt lat="48.04871" lon="6.56767">
        <ele>586</ele>
        <time>2018-04-28T08:27:32.000Z</time>
      </trkpt>
      <trkpt lat="48.0487" lon="6.56766">
        <ele>586</ele>
        <time>2018-04-28T08:27:33.000Z</time>
      </trkpt>
      <trkpt lat="48.04868" lon="6.56765">
        <ele>585</ele>
        <time>2018-04-28T08:27:34.000Z</time>
      </trkpt>
      <trkpt lat="48.04866" lon="6.56765">
        <ele>585</ele>
        <time>2018-04-28T08:27:35.000Z</time>
      </trkpt>
      <trkpt lat="48.04865" lon="6.56764">
        <ele>585</ele>
        <time>2018-04-28T08:27:36.000Z</time>
      </trkpt>
      <trkpt lat="48.04863" lon="6.56764">
        <ele>585</ele>
        <time>2018-04-28T08:27:37.000Z</time>
      </trkpt>
      <trkpt lat="48.04861" lon="6.56763">
        <ele>585</ele>
        <time>2018-04-28T08:27:38.000Z</time>
      </trkpt>
      <trkpt lat="48.0486" lon="6.56762">
        <ele>585</ele>
        <time>2018-04-28T08:27:39.000Z</time>
      </trkpt>
      <trkpt lat="48.04858" lon="6.56762">
        <ele>585</ele>
        <time>2018-04-28T08:27:40.000Z</time>
      </trkpt>
      <trkpt lat="48.04857" lon="6.56761">
        <ele>585</ele>
        <time>2018-04-28T08:27:41.000Z</time>
      </trkpt>
      <trkpt lat="48.04855" lon="6.56761">
        <ele>585</ele>
        <time>2018-04-28T08:27:42.000Z</time>
      </trkpt>
      <trkpt lat="48.04854" lon="6.5676">
        <ele>585</ele>
        <time>2018-04-28T08:27:43.000Z</time>
      </trkpt>
      <trkpt lat="48.04852" lon="6.5676">
        <ele>585</ele>
        <time>2018-04-28T08:27:44.000Z</time>
      </trkpt>
      <trkpt lat="48.04851" lon="6.56759">
        <ele>585</ele>
        <time>2018-04-28T08:27:45.000Z</time>
      </trkpt>
      <trkpt lat="48.04849" lon="6.56758">
        <ele>585</ele>
        <time>2018-04-28T08:27:46.000Z</time>
      </trkpt>
      <trkpt lat="48.04847" lon="6.56758">
        <ele>585</ele>
        <time>2018-04-28T08:27:47.000Z</time>
      </trkpt>
      <trkpt lat="48.04845" lon="6.56757">
        <ele>586</ele>
        <time>2018-04-28T08:27:48.000Z</time>
      </trkpt>
      <trkpt lat="48.04843" lon="6.56756">
        <ele>586</ele>
        <time>2018-04-28T08:27:49.000Z</time>
      </trkpt>
      <trkpt lat="48.04842" lon="6.56756">
        <ele>586</ele>
        <time>2018-04-28T08:27:50.000Z</time>
      </trkpt>
      <trkpt lat="48.0484" lon="6.56755">
        <ele>586</ele>
        <time>2018-04-28T08:27:51.000Z</time>
      </trkpt>
      <trkpt lat="48.04839" lon="6.56754">
        <ele>586</ele>
        <time>2018-04-28T08:27:52.000Z</time>
      </trkpt>
      <trkpt lat="48.04837" lon="6.56754">
        <ele>586</ele>
        <time>2018-04-28T08:27:53.000Z</time>
      </trkpt>
      <trkpt lat="48.04835" lon="6.56753">
        <ele>587</ele>
        <time>2018-04-28T08:27:54.000Z</time>
      </trkpt>
      <trkpt lat="48.04833" lon="6.56753">
        <ele>586</ele>
        <time>2018-04-28T08:27:55.000Z</time>
      </trkpt>
      <trkpt lat="48.04831" lon="6.56752">
        <ele>585</ele>
        <time>2018-04-28T08:27:56.000Z</time>
      </trkpt>
      <trkpt lat="48.04829" lon="6.56751">
        <ele>585</ele>
        <time>2018-04-28T08:27:57.000Z</time>
      </trkpt>
      <trkpt lat="48.04828" lon="6.56751">
        <ele>584</ele>
        <time>2018-04-28T08:27:58.000Z</time>
      </trkpt>
      <trkpt lat="48.04826" lon="6.5675">
        <ele>588</ele>
        <time>2018-04-28T08:27:59.000Z</time>
      </trkpt>
      <trkpt lat="48.04824" lon="6.56749">
        <ele>588</ele>
        <time>2018-04-28T08:28:00.000Z</time>
      </trkpt>
      <trkpt lat="48.04822" lon="6.56748">
        <ele>589</ele>
        <time>2018-04-28T08:28:01.000Z</time>
      </trkpt>
      <trkpt lat="48.04821" lon="6.56748">
        <ele>589</ele>
        <time>2018-04-28T08:28:02.000Z</time>
      </trkpt>
      <trkpt lat="48.04819" lon="6.56747">
        <ele>589</ele>
        <time>2018-04-28T08:28:03.000Z</time>
      </trkpt>
      <trkpt lat="48.04818" lon="6.56746">
        <ele>589</ele>
        <time>2018-04-28T08:28:04.000Z</time>
      </trkpt>
      <trkpt lat="48.04816" lon="6.56745">
        <ele>589</ele>
        <time>2018-04-28T08:28:05.000Z</time>
      </trkpt>
      <trkpt lat="48.04814" lon="6.56744">
        <ele>589</ele>
        <time>2018-04-28T08:28:06.000Z</time>
      </trkpt>
      <trkpt lat="48.04813" lon="6.56743">
        <ele>589</ele>
        <time>2018-04-28T08:28:07.000Z</time>
      </trkpt>
      <trkpt lat="48.04812" lon="6.56743">
        <ele>589</ele>
        <time>2018-04-28T08:28:08.000Z</time>
      </trkpt>
      <trkpt lat="48.04812" lon="6.56742">
        <ele>589</ele>
        <time>2018-04-28T08:28:09.000Z</time>
      </trkpt>
      <trkpt lat="48.04811" lon="6.56742">
        <ele>589</ele>
        <time>2018-04-28T08:28:10.000Z</time>
      </trkpt>
      <trkpt lat="48.04811" lon="6.56742">
        <ele>589</ele>
        <time>2018-04-28T08:28:11.000Z</time>
      </trkpt>
      <trkpt lat="48.0481" lon="6.56741">
        <ele>589</ele>
        <time>2018-04-28T08:28:12.000Z</time>
      </trkpt>
      <trkpt lat="48.04808" lon="6.5674">
        <ele>589</ele>
        <time>2018-04-28T08:28:13.000Z</time>
      </trkpt>
      <trkpt lat="48.04807" lon="6.56739">
        <ele>590</ele>
        <time>2018-04-28T08:28:14.000Z</time>
      </trkpt>
      <trkpt lat="48.04806" lon="6.56738">
        <ele>590</ele>
        <time>2018-04-28T08:28:15.000Z</time>
      </trkpt>
      <trkpt lat="48.04804" lon="6.56737">
        <ele>590</ele>
        <time>2018-04-28T08:28:16.000Z</time>
      </trkpt>
      <trkpt lat="48.04803" lon="6.56736">
        <ele>590</ele>
        <time>2018-04-28T08:28:17.000Z</time>
      </trkpt>
      <trkpt lat="48.04801" lon="6.56735">
        <ele>590</ele>
        <time>2018-04-28T08:28:18.000Z</time>
      </trkpt>
      <trkpt lat="48.048" lon="6.56734">
        <ele>590</ele>
        <time>2018-04-28T08:28:19.000Z</time>
      </trkpt>
      <trkpt lat="48.04798" lon="6.56734">
        <ele>590</ele>
        <time>2018-04-28T08:28:20.000Z</time>
      </trkpt>
      <trkpt lat="48.04796" lon="6.56733">
        <ele>590</ele>
        <time>2018-04-28T08:28:21.000Z</time>
      </trkpt>
      <trkpt lat="48.04795" lon="6.56733">
        <ele>590</ele>
        <time>2018-04-28T08:28:22.000Z</time>
      </trkpt>
      <trkpt lat="48.04793" lon="6.56732">
        <ele>589</ele>
        <time>2018-04-28T08:28:23.000Z</time>
      </trkpt>
      <trkpt lat="48.04791" lon="6.56731">
        <ele>589</ele>
        <time>2018-04-28T08:28:24.000Z</time>
      </trkpt>
      <trkpt lat="48.0479" lon="6.5673">
        <ele>589</ele>
        <time>2018-04-28T08:28:25.000Z</time>
      </trkpt>
      <trkpt lat="48.04788" lon="6.56729">
        <ele>589</ele>
        <time>2018-04-28T08:28:26.000Z</time>
      </trkpt>
      <trkpt lat="48.04787" lon="6.56728">
        <ele>589</ele>
        <time>2018-04-28T08:28:27.000Z</time>
      </trkpt>
      <trkpt lat="48.04785" lon="6.56727">
        <ele>589</ele>
        <time>2018-04-28T08:28:28.000Z</time>
      </trkpt>
      <trkpt lat="48.04784" lon="6.56726">
        <ele>589</ele>
        <time>2018-04-28T08:28:29.000Z</time>
      </trkpt>
      <trkpt lat="48.04782" lon="6.56725">
        <ele>589</ele>
        <time>2018-04-28T08:28:30.000Z</time>
      </trkpt>
      <trkpt lat="48.04781" lon="6.56725">
        <ele>589</ele>
        <time>2018-04-28T08:28:31.000Z</time>
      </trkpt>
      <trkpt lat="48.04779" lon="6.56724">
        <ele>589</ele>
        <time>2018-04-28T08:28:32.000Z</time>
      </trkpt>
      <trkpt lat="48.04778" lon="6.56723">
        <ele>589</ele>
        <time>2018-04-28T08:28:33.000Z</time>
      </trkpt>
      <trkpt lat="48.04776" lon="6.56722">
        <ele>589</ele>
        <time>2018-04-28T08:28:34.000Z</time>
      </trkpt>
      <trkpt lat="48.04775" lon="6.56721">
        <ele>589</ele>
        <time>2018-04-28T08:28:35.000Z</time>
      </trkpt>
      <trkpt lat="48.04774" lon="6.56721">
        <ele>589</ele>
        <time>2018-04-28T08:28:36.000Z</time>
      </trkpt>
      <trkpt lat="48.04773" lon="6.5672">
        <ele>589</ele>
        <time>2018-04-28T08:28:37.000Z</time>
      </trkpt>
      <trkpt lat="48.04772" lon="6.56719">
        <ele>589</ele>
        <time>2018-04-28T08:28:38.000Z</time>
      </trkpt>
      <trkpt lat="48.0477" lon="6.56719">
        <ele>589</ele>
        <time>2018-04-28T08:28:39.000Z</time>
      </trkpt>
      <trkpt lat="48.04769" lon="6.56719">
        <ele>589</ele>
        <time>2018-04-28T08:28:40.000Z</time>
      </trkpt>
      <trkpt lat="48.04768" lon="6.56718">
        <ele>589</ele>
        <time>2018-04-28T08:28:41.000Z</time>
      </trkpt>
      <trkpt lat="48.04767" lon="6.56717">
        <ele>589</ele>
        <time>2018-04-28T08:28:42.000Z</time>
      </trkpt>
      <trkpt lat="48.04766" lon="6.56716">
        <ele>589</ele>
        <time>2018-04-28T08:28:43.000Z</time>
      </trkpt>
      <trkpt lat="48.04764" lon="6.56716">
        <ele>589</ele>
        <time>2018-04-28T08:28:44.000Z</time>
      </trkpt>
      <trkpt lat="48.04763" lon="6.56715">
        <ele>589</ele>
        <time>2018-04-28T08:28:45.000Z</time>
      </trkpt>
      <trkpt lat="48.04762" lon="6.56715">
        <ele>589</ele>
        <time>2018-04-28T08:28:46.000Z</time>
      </trkpt>
      <trkpt lat="48.0476" lon="6.56714">
        <ele>589</ele>
        <time>2018-04-28T08:28:47.000Z</time>
      </trkpt>
      <trkpt lat="48.04759" lon="6.56714">
        <ele>589</ele>
        <time>2018-04-28T08:28:48.000Z</time>
      </trkpt>
      <trkpt lat="48.04757" lon="6.56713">
        <ele>589</ele>
        <time>2018-04-28T08:28:49.000Z</time>
      </trkpt>
      <trkpt lat="48.04756" lon="6.56713">
        <ele>589</ele>
        <time>2018-04-28T08:28:50.000Z</time>
      </trkpt>
      <trkpt lat="48.04755" lon="6.56712">
        <ele>589</ele>
        <time>2018-04-28T08:28:51.000Z</time>
      </trkpt>
      <trkpt lat="48.04753" lon="6.56711">
        <ele>589</ele>
        <time>2018-04-28T08:28:52.000Z</time>
      </trkpt>
      <trkpt lat="48.04752" lon="6.56711">
        <ele>589</ele>
        <time>2018-04-28T08:28:53.000Z</time>
      </trkpt>
      <trkpt lat="48.04751" lon="6.5671">
        <ele>589</ele>
        <time>2018-04-28T08:28:54.000Z</time>
      </trkpt>
      <trkpt lat="48.04749" lon="6.56709">
        <ele>582</ele>
        <time>2018-04-28T08:28:55.000Z</time>
      </trkpt>
      <trkpt lat="48.04748" lon="6.56708">
        <ele>582</ele>
        <time>2018-04-28T08:28:56.000Z</time>
      </trkpt>
      <trkpt lat="48.04746" lon="6.56708">
        <ele>582</ele>
        <time>2018-04-28T08:28:57.000Z</time>
      </trkpt>
      <trkpt lat="48.04744" lon="6.56707">
        <ele>582</ele>
        <time>2018-04-28T08:28:58.000Z</time>
      </trkpt>
      <trkpt lat="48.04743" lon="6.56707">
        <ele>582</ele>
        <time>2018-04-28T08:28:59.000Z</time>
      </trkpt>
      <trkpt lat="48.04741" lon="6.56706">
        <ele>582</ele>
        <time>2018-04-28T08:29:00.000Z</time>
      </trkpt>
      <trkpt lat="48.04739" lon="6.56706">
        <ele>582</ele>
        <time>2018-04-28T08:29:01.000Z</time>
      </trkpt>
      <trkpt lat="48.04738" lon="6.56705">
        <ele>582</ele>
        <time>2018-04-28T08:29:02.000Z</time>
      </trkpt>
      <trkpt lat="48.04736" lon="6.56704">
        <ele>583</ele>
        <time>2018-04-28T08:29:03.000Z</time>
      </trkpt>
      <trkpt lat="48.04734" lon="6.56703">
        <ele>583</ele>
        <time>2018-04-28T08:29:04.000Z</time>
      </trkpt>
      <trkpt lat="48.04733" lon="6.56702">
        <ele>583</ele>
        <time>2018-04-28T08:29:05.000Z</time>
      </trkpt>
      <trkpt lat="48.04731" lon="6.56701">
        <ele>583</ele>
        <time>2018-04-28T08:29:06.000Z</time>
      </trkpt>
      <trkpt lat="48.04729" lon="6.567">
        <ele>583</ele>
        <time>2018-04-28T08:29:07.000Z</time>
      </trkpt>
      <trkpt lat="48.04727" lon="6.567">
        <ele>582</ele>
        <time>2018-04-28T08:29:08.000Z</time>
      </trkpt>
      <trkpt lat="48.04725" lon="6.56699">
        <ele>582</ele>
        <time>2018-04-28T08:29:09.000Z</time>
      </trkpt>
      <trkpt lat="48.04723" lon="6.56698">
        <ele>582</ele>
        <time>2018-04-28T08:29:10.000Z</time>
      </trkpt>
      <trkpt lat="48.04721" lon="6.56698">
        <ele>582</ele>
        <time>2018-04-28T08:29:11.000Z</time>
      </trkpt>
      <trkpt lat="48.04719" lon="6.56697">
        <ele>582</ele>
        <time>2018-04-28T08:29:12.000Z</time>
      </trkpt>
      <trkpt lat="48.04718" lon="6.56696">
        <ele>582</ele>
        <time>2018-04-28T08:29:13.000Z</time>
      </trkpt>
      <trkpt lat="48.04716" lon="6.56696">
        <ele>582</ele>
        <time>2018-04-28T08:29:14.000Z</time>
      </trkpt>
      <trkpt lat="48.04715" lon="6.56695">
        <ele>582</ele>
        <time>2018-04-28T08:29:15.000Z</time>
      </trkpt>
      <trkpt lat="48.04713" lon="6.56695">
        <ele>582</ele>
        <time>2018-04-28T08:29:16.000Z</time>
      </trkpt>
      <trkpt lat="48.04712" lon="6.56694">
        <ele>582</ele>
        <time>2018-04-28T08:29:17.000Z</time>
      </trkpt>
      <trkpt lat="48.0471" lon="6.56694">
        <ele>582</ele>
        <time>2018-04-28T08:29:18.000Z</time>
      </trkpt>
      <trkpt lat="48.04709" lon="6.56693">
        <ele>582</ele>
        <time>2018-04-28T08:29:19.000Z</time>
      </trkpt>
      <trkpt lat="48.04707" lon="6.56693">
        <ele>581</ele>
        <time>2018-04-28T08:29:20.000Z</time>
      </trkpt>
      <trkpt lat="48.04706" lon="6.56692">
        <ele>581</ele>
        <time>2018-04-28T08:29:21.000Z</time>
      </trkpt>
      <trkpt lat="48.04704" lon="6.56692">
        <ele>581</ele>
        <time>2018-04-28T08:29:22.000Z</time>
      </trkpt>
      <trkpt lat="48.04702" lon="6.56691">
        <ele>581</ele>
        <time>2018-04-28T08:29:23.000Z</time>
      </trkpt>
      <trkpt lat="48.04701" lon="6.5669">
        <ele>581</ele>
        <time>2018-04-28T08:29:24.000Z</time>
      </trkpt>
      <trkpt lat="48.04699" lon="6.56689">
        <ele>581</ele>
        <time>2018-04-28T08:29:25.000Z</time>
      </trkpt>
      <trkpt lat="48.04697" lon="6.56689">
        <ele>581</ele>
        <time>2018-04-28T08:29:26.000Z</time>
      </trkpt>
      <trkpt lat="48.04696" lon="6.56689">
        <ele>581</ele>
        <time>2018-04-28T08:29:27.000Z</time>
      </trkpt>
      <trkpt lat="48.04695" lon="6.56689">
        <ele>581</ele>
        <time>2018-04-28T08:29:28.000Z</time>
      </trkpt>
      <trkpt lat="48.04693" lon="6.56688">
        <ele>581</ele>
        <time>2018-04-28T08:29:29.000Z</time>
      </trkpt>
      <trkpt lat="48.04692" lon="6.56688">
        <ele>581</ele>
        <time>2018-04-28T08:29:30.000Z</time>
      </trkpt>
      <trkpt lat="48.04691" lon="6.56688">
        <ele>581</ele>
        <time>2018-04-28T08:29:31.000Z</time>
      </trkpt>
      <trkpt lat="48.0469" lon="6.56688">
        <ele>581</ele>
        <time>2018-04-28T08:29:32.000Z</time>
      </trkpt>
      <trkpt lat="48.04688" lon="6.56688">
        <ele>581</ele>
        <time>2018-04-28T08:29:33.000Z</time>
      </trkpt>
      <trkpt lat="48.04687" lon="6.56687">
        <ele>581</ele>
        <time>2018-04-28T08:29:34.000Z</time>
      </trkpt>
      <trkpt lat="48.04685" lon="6.56687">
        <ele>580</ele>
        <time>2018-04-28T08:29:35.000Z</time>
      </trkpt>
      <trkpt lat="48.04684" lon="6.56687">
        <ele>580</ele>
        <time>2018-04-28T08:29:36.000Z</time>
      </trkpt>
      <trkpt lat="48.04682" lon="6.56687">
        <ele>580</ele>
        <time>2018-04-28T08:29:37.000Z</time>
      </trkpt>
      <trkpt lat="48.04681" lon="6.56687">
        <ele>580</ele>
        <time>2018-04-28T08:29:38.000Z</time>
      </trkpt>
      <trkpt lat="48.04679" lon="6.56687">
        <ele>580</ele>
        <time>2018-04-28T08:29:39.000Z</time>
      </trkpt>
      <trkpt lat="48.04678" lon="6.56686">
        <ele>580</ele>
        <time>2018-04-28T08:29:40.000Z</time>
      </trkpt>
      <trkpt lat="48.04676" lon="6.56686">
        <ele>580</ele>
        <time>2018-04-28T08:29:41.000Z</time>
      </trkpt>
      <trkpt lat="48.04675" lon="6.56686">
        <ele>580</ele>
        <time>2018-04-28T08:29:42.000Z</time>
      </trkpt>
      <trkpt lat="48.04673" lon="6.56685">
        <ele>580</ele>
        <time>2018-04-28T08:29:43.000Z</time>
      </trkpt>
      <trkpt lat="48.04671" lon="6.56684">
        <ele>580</ele>
        <time>2018-04-28T08:29:44.000Z</time>
      </trkpt>
      <trkpt lat="48.04669" lon="6.56684">
        <ele>580</ele>
        <time>2018-04-28T08:29:45.000Z</time>
      </trkpt>
      <trkpt lat="48.04667" lon="6.56683">
        <ele>580</ele>
        <time>2018-04-28T08:29:46.000Z</time>
      </trkpt>
      <trkpt lat="48.04665" lon="6.56683">
        <ele>577</ele>
        <time>2018-04-28T08:29:47.000Z</time>
      </trkpt>
      <trkpt lat="48.04663" lon="6.56683">
        <ele>577</ele>
        <time>2018-04-28T08:29:48.000Z</time>
      </trkpt>
      <trkpt lat="48.04661" lon="6.56682">
        <ele>577</ele>
        <time>2018-04-28T08:29:49.000Z</time>
      </trkpt>
      <trkpt lat="48.04659" lon="6.56682">
        <ele>576</ele>
        <time>2018-04-28T08:29:50.000Z</time>
      </trkpt>
      <trkpt lat="48.04658" lon="6.56682">
        <ele>576</ele>
        <time>2018-04-28T08:29:51.000Z</time>
      </trkpt>
      <trkpt lat="48.04656" lon="6.56681">
        <ele>576</ele>
        <time>2018-04-28T08:29:52.000Z</time>
      </trkpt>
      <trkpt lat="48.04655" lon="6.56681">
        <ele>576</ele>
        <time>2018-04-28T08:29:53.000Z</time>
      </trkpt>
      <trkpt lat="48.04653" lon="6.5668">
        <ele>576</ele>
        <time>2018-04-28T08:29:54.000Z</time>
      </trkpt>
      <trkpt lat="48.04651" lon="6.5668">
        <ele>576</ele>
        <time>2018-04-28T08:29:55.000Z</time>
      </trkpt>
      <trkpt lat="48.04649" lon="6.56679">
        <ele>576</ele>
        <time>2018-04-28T08:29:56.000Z</time>
      </trkpt>
      <trkpt lat="48.04648" lon="6.56679">
        <ele>575</ele>
        <time>2018-04-28T08:29:57.000Z</time>
      </trkpt>
      <trkpt lat="48.04646" lon="6.56678">
        <ele>575</ele>
        <time>2018-04-28T08:29:58.000Z</time>
      </trkpt>
      <trkpt lat="48.04644" lon="6.56677">
        <ele>575</ele>
        <time>2018-04-28T08:29:59.000Z</time>
      </trkpt>
      <trkpt lat="48.04643" lon="6.56677">
        <ele>575</ele>
        <time>2018-04-28T08:30:00.000Z</time>
      </trkpt>
      <trkpt lat="48.04641" lon="6.56676">
        <ele>575</ele>
        <time>2018-04-28T08:30:01.000Z</time>
      </trkpt>
      <trkpt lat="48.0464" lon="6.56676">
        <ele>575</ele>
        <time>2018-04-28T08:30:02.000Z</time>
      </trkpt>
      <trkpt lat="48.04638" lon="6.56676">
        <ele>575</ele>
        <time>2018-04-28T08:30:03.000Z</time>
      </trkpt>
      <trkpt lat="48.04637" lon="6.56675">
        <ele>574</ele>
        <time>2018-04-28T08:30:04.000Z</time>
      </trkpt>
      <trkpt lat="48.04636" lon="6.56674">
        <ele>574</ele>
        <time>2018-04-28T08:30:05.000Z</time>
      </trkpt>
      <trkpt lat="48.04634" lon="6.56674">
        <ele>574</ele>
        <time>2018-04-28T08:30:06.000Z</time>
      </trkpt>
      <trkpt lat="48.04633" lon="6.56673">
        <ele>574</ele>
        <time>2018-04-28T08:30:07.000Z</time>
      </trkpt>
      <trkpt lat="48.04631" lon="6.56672">
        <ele>574</ele>
        <time>2018-04-28T08:30:08.000Z</time>
      </trkpt>
      <trkpt lat="48.0463" lon="6.56671">
        <ele>574</ele>
        <time>2018-04-28T08:30:09.000Z</time>
      </trkpt>
      <trkpt lat="48.04629" lon="6.5667">
        <ele>574</ele>
        <time>2018-04-28T08:30:10.000Z</time>
      </trkpt>
      <trkpt lat="48.04628" lon="6.56669">
        <ele>574</ele>
        <time>2018-04-28T08:30:11.000Z</time>
      </trkpt>
      <trkpt lat="48.04627" lon="6.56668">
        <ele>574</ele>
        <time>2018-04-28T08:30:12.000Z</time>
      </trkpt>
      <trkpt lat="48.04627" lon="6.56667">
        <ele>574</ele>
        <time>2018-04-28T08:30:13.000Z</time>
      </trkpt>
      <trkpt lat="48.04626" lon="6.56667">
        <ele>577</ele>
        <time>2018-04-28T08:30:14.000Z</time>
      </trkpt>
      <trkpt lat="48.04626" lon="6.56666">
        <ele>577</ele>
        <time>2018-04-28T08:30:15.000Z</time>
      </trkpt>
      <trkpt lat="48.04625" lon="6.56665">
        <ele>577</ele>
        <time>2018-04-28T08:30:16.000Z</time>
      </trkpt>
      <trkpt lat="48.04625" lon="6.56665">
        <ele>577</ele>
        <time>2018-04-28T08:30:17.000Z</time>
      </trkpt>
      <trkpt lat="48.04625" lon="6.56664">
        <ele>577</ele>
        <time>2018-04-28T08:30:18.000Z</time>
      </trkpt>
      <trkpt lat="48.04625" lon="6.56664">
        <ele>577</ele>
        <time>2018-04-28T08:30:19.000Z</time>
      </trkpt>
      <trkpt lat="48.04625" lon="6.56664">
        <ele>577</ele>
        <time>2018-04-28T08:30:20.000Z</time>
      </trkpt>
      <trkpt lat="48.04624" lon="6.56663">
        <ele>577</ele>
        <time>2018-04-28T08:30:21.000Z</time>
      </trkpt>
      <trkpt lat="48.04624" lon="6.56663">
        <ele>577</ele>
        <time>2018-04-28T08:30:22.000Z</time>
      </trkpt>
      <trkpt lat="48.04625" lon="6.56663">
        <ele>577</ele>
        <time>2018-04-28T08:30:23.000Z</time>
      </trkpt>
      <trkpt lat="48.04624" lon="6.56663">
        <ele>577</ele>
        <time>2018-04-28T08:30:24.000Z</time>
      </trkpt>
      <trkpt lat="48.04624" lon="6.56662">
        <ele>577</ele>
        <time>2018-04-28T08:30:25.000Z</time>
      </trkpt>
      <trkpt lat="48.04624" lon="6.56662">
        <ele>577</ele>
        <time>2018-04-28T08:30:26.000Z</time>
      </trkpt>
      <trkpt lat="48.04624" lon="6.56662">
        <ele>577</ele>
        <time>2018-04-28T08:30:27.000Z</time>
      </trkpt>
      <trkpt lat="48.04624" lon="6.56661">
        <ele>577</ele>
        <time>2018-04-28T08:30:28.000Z</time>
      </trkpt>
      <trkpt lat="48.04624" lon="6.56661">
        <ele>577</ele>
        <time>2018-04-28T08:30:29.000Z</time>
      </trkpt>
      <trkpt lat="48.04624" lon="6.56661">
        <ele>577</ele>
        <time>2018-04-28T08:30:30.000Z</time>
      </trkpt>
      <trkpt lat="48.04623" lon="6.5666">
        <ele>577</ele>
        <time>2018-04-28T08:30:31.000Z</time>
      </trkpt>
      <trkpt lat="48.04623" lon="6.5666">
        <ele>577</ele>
        <time>2018-04-28T08:30:32.000Z</time>
      </trkpt>
      <trkpt lat="48.04623" lon="6.5666">
        <ele>577</ele>
        <time>2018-04-28T08:30:33.000Z</time>
      </trkpt>
      <trkpt lat="48.04623" lon="6.5666">
        <ele>577</ele>
        <time>2018-04-28T08:30:34.000Z</time>
      </trkpt>
      <trkpt lat="48.04623" lon="6.56659">
        <ele>577</ele>
        <time>2018-04-28T08:30:35.000Z</time>
      </trkpt>
      <trkpt lat="48.04623" lon="6.56659">
        <ele>577</ele>
        <time>2018-04-28T08:30:36.000Z</time>
      </trkpt>
      <trkpt lat="48.04623" lon="6.56659">
        <ele>577</ele>
        <time>2018-04-28T08:30:37.000Z</time>
      </trkpt>
      <trkpt lat="48.04623" lon="6.56659">
        <ele>577</ele>
        <time>2018-04-28T08:30:38.000Z</time>
      </trkpt>
      <trkpt lat="48.04623" lon="6.56659">
        <ele>577</ele>
        <time>2018-04-28T08:30:39.000Z</time>
      </trkpt>
      <trkpt lat="48.04623" lon="6.56659">
        <ele>577</ele>
        <time>2018-04-28T08:30:40.000Z</time>
      </trkpt>
      <trkpt lat="48.04622" lon="6.56659">
        <ele>577</ele>
        <time>2018-04-28T08:30:41.000Z</time>
      </trkpt>
      <trkpt lat="48.04622" lon="6.56658">
        <ele>577</ele>
        <time>2018-04-28T08:30:42.000Z</time>
      </trkpt>
      <trkpt lat="48.04622" lon="6.56659">
        <ele>577</ele>
        <time>2018-04-28T08:30:43.000Z</time>
      </trkpt>
      <trkpt lat="48.04622" lon="6.56659">
        <ele>577</ele>
        <time>2018-04-28T08:30:44.000Z</time>
      </trkpt>
      <trkpt lat="48.04622" lon="6.56659">
        <ele>577</ele>
        <time>2018-04-28T08:30:45.000Z</time>
      </trkpt>
      <trkpt lat="48.04622" lon="6.5666">
        <ele>577</ele>
        <time>2018-04-28T08:30:46.000Z</time>
      </trkpt>
      <trkpt lat="48.04622" lon="6.5666">
        <ele>576</ele>
        <time>2018-04-28T08:30:47.000Z</time>
      </trkpt>
      <trkpt lat="48.04621" lon="6.56661">
        <ele>576</ele>
        <time>2018-04-28T08:30:48.000Z</time>
      </trkpt>
      <trkpt lat="48.04621" lon="6.56663">
        <ele>576</ele>
        <time>2018-04-28T08:30:49.000Z</time>
      </trkpt>
      <trkpt lat="48.04621" lon="6.56664">
        <ele>576</ele>
        <time>2018-04-28T08:30:50.000Z</time>
      </trkpt>
      <trkpt lat="48.04621" lon="6.56666">
        <ele>576</ele>
        <time>2018-04-28T08:30:51.000Z</time>
      </trkpt>
      <trkpt lat="48.04621" lon="6.56667">
        <ele>573</ele>
        <time>2018-04-28T08:30:52.000Z</time>
      </trkpt>
      <trkpt lat="48.04621" lon="6.56669">
        <ele>573</ele>
        <time>2018-04-28T08:30:53.000Z</time>
      </trkpt>
      <trkpt lat="48.0462" lon="6.5667">
        <ele>573</ele>
        <time>2018-04-28T08:30:54.000Z</time>
      </trkpt>
      <trkpt lat="48.0462" lon="6.56671">
        <ele>573</ele>
        <time>2018-04-28T08:30:55.000Z</time>
      </trkpt>
      <trkpt lat="48.04619" lon="6.56672">
        <ele>573</ele>
        <time>2018-04-28T08:30:56.000Z</time>
      </trkpt>
      <trkpt lat="48.04618" lon="6.56673">
        <ele>573</ele>
        <time>2018-04-28T08:30:57.000Z</time>
      </trkpt>
      <trkpt lat="48.04617" lon="6.56675">
        <ele>573</ele>
        <time>2018-04-28T08:30:58.000Z</time>
      </trkpt>
      <trkpt lat="48.04616" lon="6.56676">
        <ele>573</ele>
        <time>2018-04-28T08:30:59.000Z</time>
      </trkpt>
      <trkpt lat="48.04615" lon="6.56677">
        <ele>573</ele>
        <time>2018-04-28T08:31:00.000Z</time>
      </trkpt>
      <trkpt lat="48.04614" lon="6.56679">
        <ele>573</ele>
        <time>2018-04-28T08:31:01.000Z</time>
      </trkpt>
      <trkpt lat="48.04613" lon="6.5668">
        <ele>572</ele>
        <time>2018-04-28T08:31:02.000Z</time>
      </trkpt>
      <trkpt lat="48.04613" lon="6.56681">
        <ele>572</ele>
        <time>2018-04-28T08:31:03.000Z</time>
      </trkpt>
      <trkpt lat="48.04612" lon="6.56683">
        <ele>572</ele>
        <time>2018-04-28T08:31:04.000Z</time>
      </trkpt>
      <trkpt lat="48.04611" lon="6.56684">
        <ele>572</ele>
        <time>2018-04-28T08:31:05.000Z</time>
      </trkpt>
      <trkpt lat="48.0461" lon="6.56685">
        <ele>572</ele>
        <time>2018-04-28T08:31:06.000Z</time>
      </trkpt>
      <trkpt lat="48.04609" lon="6.56687">
        <ele>572</ele>
        <time>2018-04-28T08:31:07.000Z</time>
      </trkpt>
      <trkpt lat="48.04608" lon="6.56688">
        <ele>572</ele>
        <time>2018-04-28T08:31:08.000Z</time>
      </trkpt>
      <trkpt lat="48.04607" lon="6.5669">
        <ele>572</ele>
        <time>2018-04-28T08:31:09.000Z</time>
      </trkpt>
      <trkpt lat="48.04606" lon="6.56691">
        <ele>572</ele>
        <time>2018-04-28T08:31:10.000Z</time>
      </trkpt>
      <trkpt lat="48.04605" lon="6.56692">
        <ele>572</ele>
        <time>2018-04-28T08:31:11.000Z</time>
      </trkpt>
      <trkpt lat="48.04604" lon="6.56694">
        <ele>572</ele>
        <time>2018-04-28T08:31:12.000Z</time>
      </trkpt>
      <trkpt lat="48.04603" lon="6.56695">
        <ele>572</ele>
        <time>2018-04-28T08:31:13.000Z</time>
      </trkpt>
      <trkpt lat="48.04602" lon="6.56697">
        <ele>572</ele>
        <time>2018-04-28T08:31:14.000Z</time>
      </trkpt>
      <trkpt lat="48.04601" lon="6.56698">
        <ele>572</ele>
        <time>2018-04-28T08:31:15.000Z</time>
      </trkpt>
      <trkpt lat="48.046" lon="6.567">
        <ele>572</ele>
        <time>2018-04-28T08:31:16.000Z</time>
      </trkpt>
      <trkpt lat="48.04599" lon="6.56702">
        <ele>572</ele>
        <time>2018-04-28T08:31:17.000Z</time>
      </trkpt>
      <trkpt lat="48.04598" lon="6.56704">
        <ele>571</ele>
        <time>2018-04-28T08:31:18.000Z</time>
      </trkpt>
      <trkpt lat="48.04597" lon="6.56705">
        <ele>571</ele>
        <time>2018-04-28T08:31:19.000Z</time>
      </trkpt>
      <trkpt lat="48.04596" lon="6.56707">
        <ele>571</ele>
        <time>2018-04-28T08:31:20.000Z</time>
      </trkpt>
      <trkpt lat="48.04595" lon="6.56709">
        <ele>571</ele>
        <time>2018-04-28T08:31:21.000Z</time>
      </trkpt>
      <trkpt lat="48.04594" lon="6.5671">
        <ele>571</ele>
        <time>2018-04-28T08:31:22.000Z</time>
      </trkpt>
      <trkpt lat="48.04593" lon="6.56712">
        <ele>571</ele>
        <time>2018-04-28T08:31:23.000Z</time>
      </trkpt>
      <trkpt lat="48.04592" lon="6.56714">
        <ele>571</ele>
        <time>2018-04-28T08:31:24.000Z</time>
      </trkpt>
      <trkpt lat="48.04591" lon="6.56715">
        <ele>571</ele>
        <time>2018-04-28T08:31:25.000Z</time>
      </trkpt>
      <trkpt lat="48.0459" lon="6.56717">
        <ele>571</ele>
        <time>2018-04-28T08:31:26.000Z</time>
      </trkpt>
      <trkpt lat="48.04589" lon="6.56718">
        <ele>571</ele>
        <time>2018-04-28T08:31:27.000Z</time>
      </trkpt>
      <trkpt lat="48.04588" lon="6.56719">
        <ele>571</ele>
        <time>2018-04-28T08:31:28.000Z</time>
      </trkpt>
      <trkpt lat="48.04588" lon="6.56719">
        <ele>571</ele>
        <time>2018-04-28T08:31:29.000Z</time>
      </trkpt>
      <trkpt lat="48.04587" lon="6.5672">
        <ele>571</ele>
        <time>2018-04-28T08:31:30.000Z</time>
      </trkpt>
      <trkpt lat="48.04587" lon="6.5672">
        <ele>571</ele>
        <time>2018-04-28T08:31:31.000Z</time>
      </trkpt>
      <trkpt lat="48.04586" lon="6.56721">
        <ele>571</ele>
        <time>2018-04-28T08:31:32.000Z</time>
      </trkpt>
      <trkpt lat="48.04586" lon="6.56722">
        <ele>570</ele>
        <time>2018-04-28T08:31:33.000Z</time>
      </trkpt>
      <trkpt lat="48.04585" lon="6.56723">
        <ele>570</ele>
        <time>2018-04-28T08:31:34.000Z</time>
      </trkpt>
      <trkpt lat="48.04585" lon="6.56724">
        <ele>570</ele>
        <time>2018-04-28T08:31:35.000Z</time>
      </trkpt>
      <trkpt lat="48.04584" lon="6.56725">
        <ele>570</ele>
        <time>2018-04-28T08:31:36.000Z</time>
      </trkpt>
      <trkpt lat="48.04583" lon="6.56726">
        <ele>568</ele>
        <time>2018-04-28T08:31:37.000Z</time>
      </trkpt>
      <trkpt lat="48.04583" lon="6.56728">
        <ele>568</ele>
        <time>2018-04-28T08:31:38.000Z</time>
      </trkpt>
      <trkpt lat="48.04582" lon="6.56729">
        <ele>568</ele>
        <time>2018-04-28T08:31:39.000Z</time>
      </trkpt>
      <trkpt lat="48.04582" lon="6.5673">
        <ele>568</ele>
        <time>2018-04-28T08:31:40.000Z</time>
      </trkpt>
      <trkpt lat="48.04581" lon="6.56731">
        <ele>568</ele>
        <time>2018-04-28T08:31:41.000Z</time>
      </trkpt>
      <trkpt lat="48.0458" lon="6.56732">
        <ele>568</ele>
        <time>2018-04-28T08:31:42.000Z</time>
      </trkpt>
      <trkpt lat="48.04579" lon="6.56734">
        <ele>568</ele>
        <time>2018-04-28T08:31:43.000Z</time>
      </trkpt>
      <trkpt lat="48.04578" lon="6.56735">
        <ele>568</ele>
        <time>2018-04-28T08:31:44.000Z</time>
      </trkpt>
      <trkpt lat="48.04577" lon="6.56736">
        <ele>568</ele>
        <time>2018-04-28T08:31:45.000Z</time>
      </trkpt>
      <trkpt lat="48.04575" lon="6.56738">
        <ele>568</ele>
        <time>2018-04-28T08:31:46.000Z</time>
      </trkpt>
      <trkpt lat="48.04574" lon="6.56739">
        <ele>568</ele>
        <time>2018-04-28T08:31:47.000Z</time>
      </trkpt>
      <trkpt lat="48.04573" lon="6.5674">
        <ele>568</ele>
        <time>2018-04-28T08:31:48.000Z</time>
      </trkpt>
      <trkpt lat="48.04571" lon="6.56741">
        <ele>568</ele>
        <time>2018-04-28T08:31:49.000Z</time>
      </trkpt>
      <trkpt lat="48.0457" lon="6.56742">
        <ele>568</ele>
        <time>2018-04-28T08:31:50.000Z</time>
      </trkpt>
      <trkpt lat="48.04569" lon="6.56743">
        <ele>568</ele>
        <time>2018-04-28T08:31:51.000Z</time>
      </trkpt>
      <trkpt lat="48.04567" lon="6.56745">
        <ele>568</ele>
        <time>2018-04-28T08:31:52.000Z</time>
      </trkpt>
      <trkpt lat="48.04566" lon="6.56746">
        <ele>568</ele>
        <time>2018-04-28T08:31:53.000Z</time>
      </trkpt>
      <trkpt lat="48.04565" lon="6.56747">
        <ele>568</ele>
        <time>2018-04-28T08:31:54.000Z</time>
      </trkpt>
      <trkpt lat="48.04563" lon="6.56748">
        <ele>568</ele>
        <time>2018-04-28T08:31:55.000Z</time>
      </trkpt>
      <trkpt lat="48.04562" lon="6.5675">
        <ele>568</ele>
        <time>2018-04-28T08:31:56.000Z</time>
      </trkpt>
      <trkpt lat="48.0456" lon="6.56751">
        <ele>568</ele>
        <time>2018-04-28T08:31:57.000Z</time>
      </trkpt>
      <trkpt lat="48.04559" lon="6.56752">
        <ele>568</ele>
        <time>2018-04-28T08:31:58.000Z</time>
      </trkpt>
      <trkpt lat="48.04557" lon="6.56753">
        <ele>568</ele>
        <time>2018-04-28T08:31:59.000Z</time>
      </trkpt>
      <trkpt lat="48.04556" lon="6.56754">
        <ele>568</ele>
        <time>2018-04-28T08:32:00.000Z</time>
      </trkpt>
      <trkpt lat="48.04555" lon="6.56754">
        <ele>568</ele>
        <time>2018-04-28T08:32:01.000Z</time>
      </trkpt>
      <trkpt lat="48.04554" lon="6.56755">
        <ele>568</ele>
        <time>2018-04-28T08:32:02.000Z</time>
      </trkpt>
      <trkpt lat="48.04553" lon="6.56756">
        <ele>568</ele>
        <time>2018-04-28T08:32:03.000Z</time>
      </trkpt>
      <trkpt lat="48.04552" lon="6.56757">
        <ele>568</ele>
        <time>2018-04-28T08:32:04.000Z</time>
      </trkpt>
      <trkpt lat="48.04551" lon="6.56758">
        <ele>568</ele>
        <time>2018-04-28T08:32:05.000Z</time>
      </trkpt>
      <trkpt lat="48.04549" lon="6.56759">
        <ele>568</ele>
        <time>2018-04-28T08:32:06.000Z</time>
      </trkpt>
      <trkpt lat="48.04548" lon="6.5676">
        <ele>568</ele>
        <time>2018-04-28T08:32:07.000Z</time>
      </trkpt>
      <trkpt lat="48.04547" lon="6.56762">
        <ele>568</ele>
        <time>2018-04-28T08:32:08.000Z</time>
      </trkpt>
      <trkpt lat="48.04546" lon="6.56763">
        <ele>568</ele>
        <time>2018-04-28T08:32:09.000Z</time>
      </trkpt>
      <trkpt lat="48.04544" lon="6.56764">
        <ele>568</ele>
        <time>2018-04-28T08:32:10.000Z</time>
      </trkpt>
      <trkpt lat="48.04543" lon="6.56765">
        <ele>568</ele>
        <time>2018-04-28T08:32:11.000Z</time>
      </trkpt>
      <trkpt lat="48.04542" lon="6.56767">
        <ele>568</ele>
        <time>2018-04-28T08:32:12.000Z</time>
      </trkpt>
      <trkpt lat="48.0454" lon="6.56768">
        <ele>568</ele>
        <time>2018-04-28T08:32:13.000Z</time>
      </trkpt>
      <trkpt lat="48.04539" lon="6.5677">
        <ele>568</ele>
        <time>2018-04-28T08:32:14.000Z</time>
      </trkpt>
      <trkpt lat="48.04538" lon="6.56771">
        <ele>568</ele>
        <time>2018-04-28T08:32:15.000Z</time>
      </trkpt>
      <trkpt lat="48.04536" lon="6.56773">
        <ele>568</ele>
        <time>2018-04-28T08:32:16.000Z</time>
      </trkpt>
      <trkpt lat="48.04535" lon="6.56774">
        <ele>568</ele>
        <time>2018-04-28T08:32:17.000Z</time>
      </trkpt>
      <trkpt lat="48.04534" lon="6.56776">
        <ele>568</ele>
        <time>2018-04-28T08:32:18.000Z</time>
      </trkpt>
      <trkpt lat="48.04533" lon="6.56778">
        <ele>568</ele>
        <time>2018-04-28T08:32:19.000Z</time>
      </trkpt>
      <trkpt lat="48.04531" lon="6.56779">
        <ele>568</ele>
        <time>2018-04-28T08:32:20.000Z</time>
      </trkpt>
      <trkpt lat="48.0453" lon="6.56781">
        <ele>568</ele>
        <time>2018-04-28T08:32:21.000Z</time>
      </trkpt>
      <trkpt lat="48.04529" lon="6.56783">
        <ele>568</ele>
        <time>2018-04-28T08:32:22.000Z</time>
      </trkpt>
      <trkpt lat="48.04527" lon="6.56785">
        <ele>568</ele>
        <time>2018-04-28T08:32:23.000Z</time>
      </trkpt>
      <trkpt lat="48.04525" lon="6.56787">
        <ele>568</ele>
        <time>2018-04-28T08:32:24.000Z</time>
      </trkpt>
      <trkpt lat="48.04523" lon="6.56788">
        <ele>568</ele>
        <time>2018-04-28T08:32:25.000Z</time>
      </trkpt>
      <trkpt lat="48.04522" lon="6.5679">
        <ele>568</ele>
        <time>2018-04-28T08:32:26.000Z</time>
      </trkpt>
      <trkpt lat="48.04521" lon="6.56792">
        <ele>568</ele>
        <time>2018-04-28T08:32:27.000Z</time>
      </trkpt>
      <trkpt lat="48.0452" lon="6.56793">
        <ele>568</ele>
        <time>2018-04-28T08:32:28.000Z</time>
      </trkpt>
      <trkpt lat="48.04518" lon="6.56795">
        <ele>568</ele>
        <time>2018-04-28T08:32:29.000Z</time>
      </trkpt>
      <trkpt lat="48.04517" lon="6.56797">
        <ele>568</ele>
        <time>2018-04-28T08:32:30.000Z</time>
      </trkpt>
      <trkpt lat="48.04515" lon="6.56798">
        <ele>569</ele>
        <time>2018-04-28T08:32:31.000Z</time>
      </trkpt>
      <trkpt lat="48.04514" lon="6.56799">
        <ele>569</ele>
        <time>2018-04-28T08:32:32.000Z</time>
      </trkpt>
      <trkpt lat="48.04512" lon="6.56801">
        <ele>569</ele>
        <time>2018-04-28T08:32:33.000Z</time>
      </trkpt>
      <trkpt lat="48.04511" lon="6.56802">
        <ele>569</ele>
        <time>2018-04-28T08:32:34.000Z</time>
      </trkpt>
      <trkpt lat="48.0451" lon="6.56804">
        <ele>569</ele>
        <time>2018-04-28T08:32:35.000Z</time>
      </trkpt>
      <trkpt lat="48.04508" lon="6.56805">
        <ele>569</ele>
        <time>2018-04-28T08:32:36.000Z</time>
      </trkpt>
      <trkpt lat="48.04507" lon="6.56806">
        <ele>569</ele>
        <time>2018-04-28T08:32:37.000Z</time>
      </trkpt>
      <trkpt lat="48.04506" lon="6.56808">
        <ele>569</ele>
        <time>2018-04-28T08:32:38.000Z</time>
      </trkpt>
      <trkpt lat="48.04505" lon="6.56809">
        <ele>569</ele>
        <time>2018-04-28T08:32:39.000Z</time>
      </trkpt>
      <trkpt lat="48.04504" lon="6.5681">
        <ele>570</ele>
        <time>2018-04-28T08:32:40.000Z</time>
      </trkpt>
      <trkpt lat="48.04503" lon="6.56812">
        <ele>570</ele>
        <time>2018-04-28T08:32:41.000Z</time>
      </trkpt>
      <trkpt lat="48.04501" lon="6.56814">
        <ele>570</ele>
        <time>2018-04-28T08:32:42.000Z</time>
      </trkpt>
      <trkpt lat="48.045" lon="6.56815">
        <ele>570</ele>
        <time>2018-04-28T08:32:43.000Z</time>
      </trkpt>
      <trkpt lat="48.04499" lon="6.56817">
        <ele>570</ele>
        <time>2018-04-28T08:32:44.000Z</time>
      </trkpt>
      <trkpt lat="48.04497" lon="6.56819">
        <ele>570</ele>
        <time>2018-04-28T08:32:45.000Z</time>
      </trkpt>
      <trkpt lat="48.04496" lon="6.5682">
        <ele>570</ele>
        <time>2018-04-28T08:32:46.000Z</time>
      </trkpt>
      <trkpt lat="48.04495" lon="6.56822">
        <ele>570</ele>
        <time>2018-04-28T08:32:47.000Z</time>
      </trkpt>
      <trkpt lat="48.04494" lon="6.56823">
        <ele>570</ele>
        <time>2018-04-28T08:32:48.000Z</time>
      </trkpt>
      <trkpt lat="48.04492" lon="6.56825">
        <ele>571</ele>
        <time>2018-04-28T08:32:49.000Z</time>
      </trkpt>
      <trkpt lat="48.04491" lon="6.56827">
        <ele>571</ele>
        <time>2018-04-28T08:32:50.000Z</time>
      </trkpt>
      <trkpt lat="48.0449" lon="6.56829">
        <ele>571</ele>
        <time>2018-04-28T08:32:51.000Z</time>
      </trkpt>
      <trkpt lat="48.04488" lon="6.56831">
        <ele>570</ele>
        <time>2018-04-28T08:32:52.000Z</time>
      </trkpt>
      <trkpt lat="48.04487" lon="6.56833">
        <ele>570</ele>
        <time>2018-04-28T08:32:53.000Z</time>
      </trkpt>
      <trkpt lat="48.04485" lon="6.56834">
        <ele>571</ele>
        <time>2018-04-28T08:32:54.000Z</time>
      </trkpt>
      <trkpt lat="48.04484" lon="6.56836">
        <ele>571</ele>
        <time>2018-04-28T08:32:55.000Z</time>
      </trkpt>
      <trkpt lat="48.04482" lon="6.56837">
        <ele>570</ele>
        <time>2018-04-28T08:32:56.000Z</time>
      </trkpt>
      <trkpt lat="48.04481" lon="6.56838">
        <ele>570</ele>
        <time>2018-04-28T08:32:57.000Z</time>
      </trkpt>
      <trkpt lat="48.04479" lon="6.5684">
        <ele>570</ele>
        <time>2018-04-28T08:32:58.000Z</time>
      </trkpt>
      <trkpt lat="48.04478" lon="6.56841">
        <ele>570</ele>
        <time>2018-04-28T08:32:59.000Z</time>
      </trkpt>
      <trkpt lat="48.04477" lon="6.56843">
        <ele>570</ele>
        <time>2018-04-28T08:33:00.000Z</time>
      </trkpt>
      <trkpt lat="48.04475" lon="6.56844">
        <ele>570</ele>
        <time>2018-04-28T08:33:01.000Z</time>
      </trkpt>
      <trkpt lat="48.04474" lon="6.56845">
        <ele>569</ele>
        <time>2018-04-28T08:33:02.000Z</time>
      </trkpt>
      <trkpt lat="48.04473" lon="6.56847">
        <ele>569</ele>
        <time>2018-04-28T08:33:03.000Z</time>
      </trkpt>
      <trkpt lat="48.04471" lon="6.56848">
        <ele>569</ele>
        <time>2018-04-28T08:33:04.000Z</time>
      </trkpt>
      <trkpt lat="48.0447" lon="6.5685">
        <ele>569</ele>
        <time>2018-04-28T08:33:05.000Z</time>
      </trkpt>
      <trkpt lat="48.04469" lon="6.56851">
        <ele>569</ele>
        <time>2018-04-28T08:33:06.000Z</time>
      </trkpt>
      <trkpt lat="48.04468" lon="6.56852">
        <ele>569</ele>
        <time>2018-04-28T08:33:07.000Z</time>
      </trkpt>
      <trkpt lat="48.04467" lon="6.56853">
        <ele>569</ele>
        <time>2018-04-28T08:33:08.000Z</time>
      </trkpt>
      <trkpt lat="48.04466" lon="6.56854">
        <ele>569</ele>
        <time>2018-04-28T08:33:09.000Z</time>
      </trkpt>
      <trkpt lat="48.04465" lon="6.56855">
        <ele>569</ele>
        <time>2018-04-28T08:33:10.000Z</time>
      </trkpt>
      <trkpt lat="48.04464" lon="6.56855">
        <ele>569</ele>
        <time>2018-04-28T08:33:11.000Z</time>
      </trkpt>
      <trkpt lat="48.04463" lon="6.56856">
        <ele>568</ele>
        <time>2018-04-28T08:33:12.000Z</time>
      </trkpt>
      <trkpt lat="48.04462" lon="6.56856">
        <ele>568</ele>
        <time>2018-04-28T08:33:13.000Z</time>
      </trkpt>
      <trkpt lat="48.04461" lon="6.56856">
        <ele>568</ele>
        <time>2018-04-28T08:33:14.000Z</time>
      </trkpt>
      <trkpt lat="48.04459" lon="6.56857">
        <ele>568</ele>
        <time>2018-04-28T08:33:15.000Z</time>
      </trkpt>
      <trkpt lat="48.04458" lon="6.56856">
        <ele>568</ele>
        <time>2018-04-28T08:33:16.000Z</time>
      </trkpt>
      <trkpt lat="48.04457" lon="6.56856">
        <ele>568</ele>
        <time>2018-04-28T08:33:17.000Z</time>
      </trkpt>
      <trkpt lat="48.04455" lon="6.56856">
        <ele>568</ele>
        <time>2018-04-28T08:33:18.000Z</time>
      </trkpt>
      <trkpt lat="48.04454" lon="6.56856">
        <ele>568</ele>
        <time>2018-04-28T08:33:19.000Z</time>
      </trkpt>
      <trkpt lat="48.04453" lon="6.56856">
        <ele>568</ele>
        <time>2018-04-28T08:33:20.000Z</time>
      </trkpt>
      <trkpt lat="48.04451" lon="6.56855">
        <ele>568</ele>
        <time>2018-04-28T08:33:21.000Z</time>
      </trkpt>
      <trkpt lat="48.0445" lon="6.56855">
        <ele>568</ele>
        <time>2018-04-28T08:33:22.000Z</time>
      </trkpt>
      <trkpt lat="48.04449" lon="6.56854">
        <ele>568</ele>
        <time>2018-04-28T08:33:23.000Z</time>
      </trkpt>
      <trkpt lat="48.04448" lon="6.56854">
        <ele>567</ele>
        <time>2018-04-28T08:33:24.000Z</time>
      </trkpt>
      <trkpt lat="48.04447" lon="6.56854">
        <ele>567</ele>
        <time>2018-04-28T08:33:25.000Z</time>
      </trkpt>
      <trkpt lat="48.04446" lon="6.56853">
        <ele>567</ele>
        <time>2018-04-28T08:33:26.000Z</time>
      </trkpt>
      <trkpt lat="48.04445" lon="6.56853">
        <ele>567</ele>
        <time>2018-04-28T08:33:27.000Z</time>
      </trkpt>
      <trkpt lat="48.04444" lon="6.56852">
        <ele>567</ele>
        <time>2018-04-28T08:33:28.000Z</time>
      </trkpt>
      <trkpt lat="48.04444" lon="6.56852">
        <ele>567</ele>
        <time>2018-04-28T08:33:29.000Z</time>
      </trkpt>
      <trkpt lat="48.04443" lon="6.56851">
        <ele>567</ele>
        <time>2018-04-28T08:33:30.000Z</time>
      </trkpt>
      <trkpt lat="48.04443" lon="6.56851">
        <ele>567</ele>
        <time>2018-04-28T08:33:31.000Z</time>
      </trkpt>
      <trkpt lat="48.04442" lon="6.5685">
        <ele>567</ele>
        <time>2018-04-28T08:33:32.000Z</time>
      </trkpt>
      <trkpt lat="48.04441" lon="6.5685">
        <ele>567</ele>
        <time>2018-04-28T08:33:33.000Z</time>
      </trkpt>
      <trkpt lat="48.0444" lon="6.5685">
        <ele>567</ele>
        <time>2018-04-28T08:33:34.000Z</time>
      </trkpt>
      <trkpt lat="48.04439" lon="6.5685">
        <ele>567</ele>
        <time>2018-04-28T08:33:35.000Z</time>
      </trkpt>
      <trkpt lat="48.04438" lon="6.5685">
        <ele>567</ele>
        <time>2018-04-28T08:33:36.000Z</time>
      </trkpt>
      <trkpt lat="48.04437" lon="6.5685">
        <ele>567</ele>
        <time>2018-04-28T08:33:37.000Z</time>
      </trkpt>
      <trkpt lat="48.04436" lon="6.5685">
        <ele>567</ele>
        <time>2018-04-28T08:33:38.000Z</time>
      </trkpt>
      <trkpt lat="48.04434" lon="6.5685">
        <ele>566</ele>
        <time>2018-04-28T08:33:39.000Z</time>
      </trkpt>
      <trkpt lat="48.04433" lon="6.5685">
        <ele>566</ele>
        <time>2018-04-28T08:33:40.000Z</time>
      </trkpt>
      <trkpt lat="48.04432" lon="6.5685">
        <ele>566</ele>
        <time>2018-04-28T08:33:41.000Z</time>
      </trkpt>
      <trkpt lat="48.0443" lon="6.5685">
        <ele>566</ele>
        <time>2018-04-28T08:33:42.000Z</time>
      </trkpt>
      <trkpt lat="48.04429" lon="6.56849">
        <ele>566</ele>
        <time>2018-04-28T08:33:43.000Z</time>
      </trkpt>
      <trkpt lat="48.04427" lon="6.56849">
        <ele>566</ele>
        <time>2018-04-28T08:33:44.000Z</time>
      </trkpt>
      <trkpt lat="48.04426" lon="6.56849">
        <ele>566</ele>
        <time>2018-04-28T08:33:45.000Z</time>
      </trkpt>
      <trkpt lat="48.04424" lon="6.5685">
        <ele>566</ele>
        <time>2018-04-28T08:33:46.000Z</time>
      </trkpt>
      <trkpt lat="48.04423" lon="6.5685">
        <ele>566</ele>
        <time>2018-04-28T08:33:47.000Z</time>
      </trkpt>
      <trkpt lat="48.04421" lon="6.5685">
        <ele>566</ele>
        <time>2018-04-28T08:33:48.000Z</time>
      </trkpt>
      <trkpt lat="48.0442" lon="6.5685">
        <ele>566</ele>
        <time>2018-04-28T08:33:49.000Z</time>
      </trkpt>
      <trkpt lat="48.04419" lon="6.56851">
        <ele>566</ele>
        <time>2018-04-28T08:33:50.000Z</time>
      </trkpt>
      <trkpt lat="48.04417" lon="6.56851">
        <ele>566</ele>
        <time>2018-04-28T08:33:51.000Z</time>
      </trkpt>
      <trkpt lat="48.04416" lon="6.56851">
        <ele>562</ele>
        <time>2018-04-28T08:33:52.000Z</time>
      </trkpt>
      <trkpt lat="48.04415" lon="6.56852">
        <ele>562</ele>
        <time>2018-04-28T08:33:53.000Z</time>
      </trkpt>
      <trkpt lat="48.04413" lon="6.56852">
        <ele>562</ele>
        <time>2018-04-28T08:33:54.000Z</time>
      </trkpt>
      <trkpt lat="48.04411" lon="6.56852">
        <ele>562</ele>
        <time>2018-04-28T08:33:55.000Z</time>
      </trkpt>
      <trkpt lat="48.0441" lon="6.56853">
        <ele>562</ele>
        <time>2018-04-28T08:33:56.000Z</time>
      </trkpt>
      <trkpt lat="48.04408" lon="6.56853">
        <ele>562</ele>
        <time>2018-04-28T08:33:57.000Z</time>
      </trkpt>
      <trkpt lat="48.04406" lon="6.56853">
        <ele>562</ele>
        <time>2018-04-28T08:33:58.000Z</time>
      </trkpt>
      <trkpt lat="48.04405" lon="6.56854">
        <ele>561</ele>
        <time>2018-04-28T08:33:59.000Z</time>
      </trkpt>
      <trkpt lat="48.04403" lon="6.56855">
        <ele>561</ele>
        <time>2018-04-28T08:34:00.000Z</time>
      </trkpt>
      <trkpt lat="48.04401" lon="6.56855">
        <ele>561</ele>
        <time>2018-04-28T08:34:01.000Z</time>
      </trkpt>
      <trkpt lat="48.044" lon="6.56856">
        <ele>561</ele>
        <time>2018-04-28T08:34:02.000Z</time>
      </trkpt>
      <trkpt lat="48.04398" lon="6.56857">
        <ele>561</ele>
        <time>2018-04-28T08:34:03.000Z</time>
      </trkpt>
      <trkpt lat="48.04397" lon="6.56858">
        <ele>561</ele>
        <time>2018-04-28T08:34:04.000Z</time>
      </trkpt>
      <trkpt lat="48.04395" lon="6.56858">
        <ele>561</ele>
        <time>2018-04-28T08:34:05.000Z</time>
      </trkpt>
      <trkpt lat="48.04394" lon="6.56858">
        <ele>561</ele>
        <time>2018-04-28T08:34:06.000Z</time>
      </trkpt>
      <trkpt lat="48.04392" lon="6.56858">
        <ele>561</ele>
        <time>2018-04-28T08:34:07.000Z</time>
      </trkpt>
      <trkpt lat="48.04391" lon="6.56858">
        <ele>561</ele>
        <time>2018-04-28T08:34:08.000Z</time>
      </trkpt>
      <trkpt lat="48.0439" lon="6.56858">
        <ele>561</ele>
        <time>2018-04-28T08:34:09.000Z</time>
      </trkpt>
      <trkpt lat="48.04388" lon="6.56858">
        <ele>561</ele>
        <time>2018-04-28T08:34:10.000Z</time>
      </trkpt>
      <trkpt lat="48.04387" lon="6.56858">
        <ele>561</ele>
        <time>2018-04-28T08:34:11.000Z</time>
      </trkpt>
      <trkpt lat="48.04386" lon="6.56859">
        <ele>561</ele>
        <time>2018-04-28T08:34:12.000Z</time>
      </trkpt>
      <trkpt lat="48.04384" lon="6.56859">
        <ele>561</ele>
        <time>2018-04-28T08:34:13.000Z</time>
      </trkpt>
      <trkpt lat="48.04383" lon="6.56859">
        <ele>560</ele>
        <time>2018-04-28T08:34:14.000Z</time>
      </trkpt>
      <trkpt lat="48.04382" lon="6.5686">
        <ele>560</ele>
        <time>2018-04-28T08:34:15.000Z</time>
      </trkpt>
      <trkpt lat="48.04381" lon="6.5686">
        <ele>560</ele>
        <time>2018-04-28T08:34:16.000Z</time>
      </trkpt>
      <trkpt lat="48.0438" lon="6.5686">
        <ele>560</ele>
        <time>2018-04-28T08:34:17.000Z</time>
      </trkpt>
      <trkpt lat="48.04378" lon="6.56859">
        <ele>560</ele>
        <time>2018-04-28T08:34:18.000Z</time>
      </trkpt>
      <trkpt lat="48.04377" lon="6.56859">
        <ele>560</ele>
        <time>2018-04-28T08:34:19.000Z</time>
      </trkpt>
      <trkpt lat="48.04376" lon="6.56859">
        <ele>560</ele>
        <time>2018-04-28T08:34:20.000Z</time>
      </trkpt>
      <trkpt lat="48.04375" lon="6.56859">
        <ele>560</ele>
        <time>2018-04-28T08:34:21.000Z</time>
      </trkpt>
      <trkpt lat="48.04374" lon="6.56859">
        <ele>560</ele>
        <time>2018-04-28T08:34:22.000Z</time>
      </trkpt>
      <trkpt lat="48.04373" lon="6.56858">
        <ele>560</ele>
        <time>2018-04-28T08:34:23.000Z</time>
      </trkpt>
      <trkpt lat="48.04371" lon="6.56858">
        <ele>560</ele>
        <time>2018-04-28T08:34:24.000Z</time>
      </trkpt>
      <trkpt lat="48.0437" lon="6.56856">
        <ele>560</ele>
        <time>2018-04-28T08:34:25.000Z</time>
      </trkpt>
      <trkpt lat="48.04369" lon="6.56855">
        <ele>560</ele>
        <time>2018-04-28T08:34:26.000Z</time>
      </trkpt>
      <trkpt lat="48.04368" lon="6.56854">
        <ele>560</ele>
        <time>2018-04-28T08:34:27.000Z</time>
      </trkpt>
      <trkpt lat="48.04367" lon="6.56854">
        <ele>559</ele>
        <time>2018-04-28T08:34:28.000Z</time>
      </trkpt>
      <trkpt lat="48.04366" lon="6.56853">
        <ele>559</ele>
        <time>2018-04-28T08:34:29.000Z</time>
      </trkpt>
      <trkpt lat="48.04365" lon="6.56852">
        <ele>559</ele>
        <time>2018-04-28T08:34:30.000Z</time>
      </trkpt>
      <trkpt lat="48.04363" lon="6.56851">
        <ele>559</ele>
        <time>2018-04-28T08:34:31.000Z</time>
      </trkpt>
      <trkpt lat="48.04362" lon="6.56851">
        <ele>559</ele>
        <time>2018-04-28T08:34:32.000Z</time>
      </trkpt>
      <trkpt lat="48.0436" lon="6.56851">
        <ele>559</ele>
        <time>2018-04-28T08:34:33.000Z</time>
      </trkpt>
      <trkpt lat="48.04359" lon="6.56851">
        <ele>559</ele>
        <time>2018-04-28T08:34:34.000Z</time>
      </trkpt>
      <trkpt lat="48.04357" lon="6.56853">
        <ele>559</ele>
        <time>2018-04-28T08:34:35.000Z</time>
      </trkpt>
      <trkpt lat="48.04356" lon="6.56853">
        <ele>559</ele>
        <time>2018-04-28T08:34:36.000Z</time>
      </trkpt>
      <trkpt lat="48.04354" lon="6.56854">
        <ele>559</ele>
        <time>2018-04-28T08:34:37.000Z</time>
      </trkpt>
      <trkpt lat="48.04353" lon="6.56856">
        <ele>559</ele>
        <time>2018-04-28T08:34:38.000Z</time>
      </trkpt>
      <trkpt lat="48.04352" lon="6.56857">
        <ele>559</ele>
        <time>2018-04-28T08:34:39.000Z</time>
      </trkpt>
      <trkpt lat="48.04351" lon="6.56858">
        <ele>559</ele>
        <time>2018-04-28T08:34:40.000Z</time>
      </trkpt>
      <trkpt lat="48.04349" lon="6.56858">
        <ele>559</ele>
        <time>2018-04-28T08:34:41.000Z</time>
      </trkpt>
      <trkpt lat="48.04347" lon="6.56859">
        <ele>558</ele>
        <time>2018-04-28T08:34:42.000Z</time>
      </trkpt>
      <trkpt lat="48.04346" lon="6.56859">
        <ele>558</ele>
        <time>2018-04-28T08:34:43.000Z</time>
      </trkpt>
      <trkpt lat="48.04345" lon="6.56859">
        <ele>558</ele>
        <time>2018-04-28T08:34:44.000Z</time>
      </trkpt>
      <trkpt lat="48.04344" lon="6.5686">
        <ele>558</ele>
        <time>2018-04-28T08:34:45.000Z</time>
      </trkpt>
      <trkpt lat="48.04343" lon="6.56859">
        <ele>558</ele>
        <time>2018-04-28T08:34:46.000Z</time>
      </trkpt>
      <trkpt lat="48.04341" lon="6.56859">
        <ele>558</ele>
        <time>2018-04-28T08:34:47.000Z</time>
      </trkpt>
      <trkpt lat="48.0434" lon="6.56859">
        <ele>558</ele>
        <time>2018-04-28T08:34:48.000Z</time>
      </trkpt>
      <trkpt lat="48.04338" lon="6.56858">
        <ele>558</ele>
        <time>2018-04-28T08:34:49.000Z</time>
      </trkpt>
      <trkpt lat="48.04337" lon="6.56857">
        <ele>558</ele>
        <time>2018-04-28T08:34:50.000Z</time>
      </trkpt>
      <trkpt lat="48.04336" lon="6.56856">
        <ele>558</ele>
        <time>2018-04-28T08:34:51.000Z</time>
      </trkpt>
      <trkpt lat="48.04336" lon="6.56856">
        <ele>558</ele>
        <time>2018-04-28T08:34:52.000Z</time>
      </trkpt>
      <trkpt lat="48.04335" lon="6.56856">
        <ele>558</ele>
        <time>2018-04-28T08:34:53.000Z</time>
      </trkpt>
      <trkpt lat="48.04335" lon="6.56855">
        <ele>558</ele>
        <time>2018-04-28T08:34:54.000Z</time>
      </trkpt>
      <trkpt lat="48.04335" lon="6.56855">
        <ele>558</ele>
        <time>2018-04-28T08:34:55.000Z</time>
      </trkpt>
      <trkpt lat="48.04334" lon="6.56854">
        <ele>558</ele>
        <time>2018-04-28T08:34:56.000Z</time>
      </trkpt>
      <trkpt lat="48.04334" lon="6.56854">
        <ele>558</ele>
        <time>2018-04-28T08:34:57.000Z</time>
      </trkpt>
      <trkpt lat="48.04334" lon="6.56854">
        <ele>558</ele>
        <time>2018-04-28T08:34:58.000Z</time>
      </trkpt>
      <trkpt lat="48.04334" lon="6.56854">
        <ele>558</ele>
        <time>2018-04-28T08:34:59.000Z</time>
      </trkpt>
      <trkpt lat="48.04333" lon="6.56854">
        <ele>557</ele>
        <time>2018-04-28T08:35:00.000Z</time>
      </trkpt>
      <trkpt lat="48.04333" lon="6.56853">
        <ele>557</ele>
        <time>2018-04-28T08:35:01.000Z</time>
      </trkpt>
      <trkpt lat="48.04333" lon="6.56853">
        <ele>557</ele>
        <time>2018-04-28T08:35:02.000Z</time>
      </trkpt>
      <trkpt lat="48.04333" lon="6.56853">
        <ele>557</ele>
        <time>2018-04-28T08:35:03.000Z</time>
      </trkpt>
      <trkpt lat="48.04333" lon="6.56853">
        <ele>557</ele>
        <time>2018-04-28T08:35:04.000Z</time>
      </trkpt>
      <trkpt lat="48.04333" lon="6.56853">
        <ele>557</ele>
        <time>2018-04-28T08:35:05.000Z</time>
      </trkpt>
      <trkpt lat="48.04333" lon="6.56853">
        <ele>557</ele>
        <time>2018-04-28T08:35:06.000Z</time>
      </trkpt>
      <trkpt lat="48.04333" lon="6.56852">
        <ele>557</ele>
        <time>2018-04-28T08:35:07.000Z</time>
      </trkpt>
    </trkseg>
  </trk>
</gpx>